<gpx xmlns="http://www.topografix.com/GPX/1/1" xmlns:xsi="http://www.w3.org/2001/XMLSchema-instance" version="1.1" xsi:schemaLocation="http://www.topografix.com/GPX/1/1 http://www.topografix.com/GPX/1/1/gpx.xsd" creator="MotionXGPSFull 24.2 Build 5063R64">
<trk>
<name>Mystery Run 23 May 17</name>
<desc>23 May 2017 11:22 am</desc>
<trkseg>
<trkpt lat="-27.3563216" lon="152.9568295">
<ele>38.027</ele>
<time>2017-05-23T01:26:23.999Z</time>
</trkpt>
<trkpt lat="-27.3560838" lon="152.9569596">
<ele>38.010</ele>
<time>2017-05-23T01:26:27.134Z</time>
</trkpt>
<trkpt lat="-27.3559356" lon="152.9570694">
<ele>37.975</ele>
<time>2017-05-23T01:26:29.125Z</time>
</trkpt>
<trkpt lat="-27.3557810" lon="152.9571782">
<ele>37.882</ele>
<time>2017-05-23T01:26:31.119Z</time>
</trkpt>
<trkpt lat="-27.3556075" lon="152.9572424">
<ele>37.735</ele>
<time>2017-05-23T01:26:33.092Z</time>
</trkpt>
<trkpt lat="-27.3553380" lon="152.9572938">
<ele>37.582</ele>
<time>2017-05-23T01:26:36.054Z</time>
</trkpt>
<trkpt lat="-27.3551078" lon="152.9572943">
<ele>37.461</ele>
<time>2017-05-23T01:26:38.772Z</time>
</trkpt>
<trkpt lat="-27.3549936" lon="152.9572595">
<ele>37.332</ele>
<time>2017-05-23T01:26:40.406Z</time>
</trkpt>
<trkpt lat="-27.3548287" lon="152.9572681">
<ele>37.113</ele>
<time>2017-05-23T01:26:43.109Z</time>
</trkpt>
<trkpt lat="-27.3548078" lon="152.9574039">
<ele>36.848</ele>
<time>2017-05-23T01:26:45.360Z</time>
</trkpt>
<trkpt lat="-27.3548549" lon="152.9575972">
<ele>36.666</ele>
<time>2017-05-23T01:26:48.113Z</time>
</trkpt>
<trkpt lat="-27.3548860" lon="152.9578474">
<ele>36.644</ele>
<time>2017-05-23T01:26:50.399Z</time>
</trkpt>
<trkpt lat="-27.3548988" lon="152.9582653">
<ele>36.819</ele>
<time>2017-05-23T01:26:53.573Z</time>
</trkpt>
<trkpt lat="-27.3549080" lon="152.9587114">
<ele>37.309</ele>
<time>2017-05-23T01:26:56.649Z</time>
</trkpt>
<trkpt lat="-27.3549338" lon="152.9591510">
<ele>38.321</ele>
<time>2017-05-23T01:26:59.619Z</time>
</trkpt>
<trkpt lat="-27.3549863" lon="152.9594404">
<ele>39.793</ele>
<time>2017-05-23T01:27:01.617Z</time>
</trkpt>
<trkpt lat="-27.3550723" lon="152.9597181">
<ele>41.236</ele>
<time>2017-05-23T01:27:03.609Z</time>
</trkpt>
<trkpt lat="-27.3552235" lon="152.9601262">
<ele>42.204</ele>
<time>2017-05-23T01:27:06.607Z</time>
</trkpt>
<trkpt lat="-27.3553870" lon="152.9605248">
<ele>42.672</ele>
<time>2017-05-23T01:27:09.632Z</time>
</trkpt>
<trkpt lat="-27.3555324" lon="152.9609001">
<ele>42.906</ele>
<time>2017-05-23T01:27:12.625Z</time>
</trkpt>
<trkpt lat="-27.3555996" lon="152.9611239">
<ele>43.092</ele>
<time>2017-05-23T01:27:14.509Z</time>
</trkpt>
<trkpt lat="-27.3556828" lon="152.9614444">
<ele>43.185</ele>
<time>2017-05-23T01:27:17.306Z</time>
</trkpt>
<trkpt lat="-27.3558316" lon="152.9616704">
<ele>43.079</ele>
<time>2017-05-23T01:27:19.509Z</time>
</trkpt>
<trkpt lat="-27.3559827" lon="152.9619512">
<ele>42.824</ele>
<time>2017-05-23T01:27:21.691Z</time>
</trkpt>
<trkpt lat="-27.3561330" lon="152.9622587">
<ele>42.656</ele>
<time>2017-05-23T01:27:23.799Z</time>
</trkpt>
<trkpt lat="-27.3563638" lon="152.9627165">
<ele>42.760</ele>
<time>2017-05-23T01:27:26.883Z</time>
</trkpt>
<trkpt lat="-27.3566082" lon="152.9631572">
<ele>43.118</ele>
<time>2017-05-23T01:27:29.917Z</time>
</trkpt>
<trkpt lat="-27.3567945" lon="152.9634236">
<ele>43.589</ele>
<time>2017-05-23T01:27:31.906Z</time>
</trkpt>
<trkpt lat="-27.3571202" lon="152.9637716">
<ele>44.051</ele>
<time>2017-05-23T01:27:34.880Z</time>
</trkpt>
<trkpt lat="-27.3573368" lon="152.9640070">
<ele>44.647</ele>
<time>2017-05-23T01:27:36.876Z</time>
</trkpt>
<trkpt lat="-27.3576515" lon="152.9643714">
<ele>45.650</ele>
<time>2017-05-23T01:27:39.862Z</time>
</trkpt>
<trkpt lat="-27.3579692" lon="152.9647320">
<ele>47.246</ele>
<time>2017-05-23T01:27:42.834Z</time>
</trkpt>
<trkpt lat="-27.3581766" lon="152.9649793">
<ele>49.559</ele>
<time>2017-05-23T01:27:44.813Z</time>
</trkpt>
<trkpt lat="-27.3584466" lon="152.9653914">
<ele>52.390</ele>
<time>2017-05-23T01:27:47.779Z</time>
</trkpt>
<trkpt lat="-27.3585904" lon="152.9656960">
<ele>55.196</ele>
<time>2017-05-23T01:27:49.767Z</time>
</trkpt>
<trkpt lat="-27.3586895" lon="152.9660264">
<ele>57.432</ele>
<time>2017-05-23T01:27:51.764Z</time>
</trkpt>
<trkpt lat="-27.3587447" lon="152.9665471">
<ele>58.721</ele>
<time>2017-05-23T01:27:54.759Z</time>
</trkpt>
<trkpt lat="-27.3586832" lon="152.9668847">
<ele>58.962</ele>
<time>2017-05-23T01:27:56.732Z</time>
</trkpt>
<trkpt lat="-27.3584926" lon="152.9673566">
<ele>58.342</ele>
<time>2017-05-23T01:27:59.725Z</time>
</trkpt>
<trkpt lat="-27.3583794" lon="152.9676430">
<ele>57.139</ele>
<time>2017-05-23T01:28:01.630Z</time>
</trkpt>
<trkpt lat="-27.3582402" lon="152.9678857">
<ele>55.652</ele>
<time>2017-05-23T01:28:03.563Z</time>
</trkpt>
<trkpt lat="-27.3580989" lon="152.9681696">
<ele>54.124</ele>
<time>2017-05-23T01:28:06.018Z</time>
</trkpt>
<trkpt lat="-27.3580425" lon="152.9683122">
<ele>52.527</ele>
<time>2017-05-23T01:28:07.607Z</time>
</trkpt>
<trkpt lat="-27.3581816" lon="152.9684611">
<ele>50.760</ele>
<time>2017-05-23T01:28:10.321Z</time>
</trkpt>
<trkpt lat="-27.3584282" lon="152.9685492">
<ele>49.042</ele>
<time>2017-05-23T01:28:13.842Z</time>
</trkpt>
<trkpt lat="-27.3585984" lon="152.9686404">
<ele>47.770</ele>
<time>2017-05-23T01:28:15.980Z</time>
</trkpt>
<trkpt lat="-27.3588049" lon="152.9686862">
<ele>47.171</ele>
<time>2017-05-23T01:28:18.171Z</time>
</trkpt>
<trkpt lat="-27.3589678" lon="152.9688007">
<ele>47.226</ele>
<time>2017-05-23T01:28:20.112Z</time>
</trkpt>
<trkpt lat="-27.3591945" lon="152.9688744">
<ele>47.675</ele>
<time>2017-05-23T01:28:22.591Z</time>
</trkpt>
<trkpt lat="-27.3594218" lon="152.9688863">
<ele>48.228</ele>
<time>2017-05-23T01:28:24.893Z</time>
</trkpt>
<trkpt lat="-27.3598071" lon="152.9688495">
<ele>48.781</ele>
<time>2017-05-23T01:28:28.147Z</time>
</trkpt>
<trkpt lat="-27.3602247" lon="152.9688697">
<ele>49.526</ele>
<time>2017-05-23T01:28:31.269Z</time>
</trkpt>
<trkpt lat="-27.3604622" lon="152.9686833">
<ele>50.607</ele>
<time>2017-05-23T01:28:33.369Z</time>
</trkpt>
<trkpt lat="-27.3608066" lon="152.9684729">
<ele>51.757</ele>
<time>2017-05-23T01:28:36.279Z</time>
</trkpt>
<trkpt lat="-27.3609909" lon="152.9683604">
<ele>52.541</ele>
<time>2017-05-23T01:28:37.984Z</time>
</trkpt>
<trkpt lat="-27.3612011" lon="152.9683896">
<ele>52.716</ele>
<time>2017-05-23T01:28:40.394Z</time>
</trkpt>
<trkpt lat="-27.3613675" lon="152.9685533">
<ele>52.178</ele>
<time>2017-05-23T01:28:43.038Z</time>
</trkpt>
<trkpt lat="-27.3615871" lon="152.9689526">
<ele>51.187</ele>
<time>2017-05-23T01:28:46.564Z</time>
</trkpt>
<trkpt lat="-27.3617754" lon="152.9691928">
<ele>50.362</ele>
<time>2017-05-23T01:28:48.629Z</time>
</trkpt>
<trkpt lat="-27.3620745" lon="152.9695389">
<ele>50.057</ele>
<time>2017-05-23T01:28:51.621Z</time>
</trkpt>
<trkpt lat="-27.3622671" lon="152.9698009">
<ele>50.219</ele>
<time>2017-05-23T01:28:53.682Z</time>
</trkpt>
<trkpt lat="-27.3625555" lon="152.9701783">
<ele>50.668</ele>
<time>2017-05-23T01:28:56.679Z</time>
</trkpt>
<trkpt lat="-27.3628349" lon="152.9705604">
<ele>51.213</ele>
<time>2017-05-23T01:28:59.638Z</time>
</trkpt>
<trkpt lat="-27.3632062" lon="152.9708938">
<ele>51.761</ele>
<time>2017-05-23T01:29:02.711Z</time>
</trkpt>
<trkpt lat="-27.3636032" lon="152.9711689">
<ele>52.319</ele>
<time>2017-05-23T01:29:05.656Z</time>
</trkpt>
<trkpt lat="-27.3640340" lon="152.9713914">
<ele>52.963</ele>
<time>2017-05-23T01:29:08.658Z</time>
</trkpt>
<trkpt lat="-27.3643011" lon="152.9715680">
<ele>53.870</ele>
<time>2017-05-23T01:29:10.642Z</time>
</trkpt>
<trkpt lat="-27.3647127" lon="152.9717941">
<ele>55.200</ele>
<time>2017-05-23T01:29:13.637Z</time>
</trkpt>
<trkpt lat="-27.3649519" lon="152.9719591">
<ele>57.182</ele>
<time>2017-05-23T01:29:15.661Z</time>
</trkpt>
<trkpt lat="-27.3651857" lon="152.9721392">
<ele>59.848</ele>
<time>2017-05-23T01:29:17.998Z</time>
</trkpt>
<trkpt lat="-27.3651857" lon="152.9721392">
<ele>62.413</ele>
<time>2017-05-23T01:29:23.998Z</time>
</trkpt>
<trkpt lat="-27.3651857" lon="152.9721392">
<ele>63.701</ele>
<time>2017-05-23T01:29:35.452Z</time>
</trkpt>
<trkpt lat="-27.3654192" lon="152.9719821">
<ele>63.552</ele>
<time>2017-05-23T01:29:40.366Z</time>
</trkpt>
<trkpt lat="-27.3655242" lon="152.9717206">
<ele>63.993</ele>
<time>2017-05-23T01:29:42.494Z</time>
</trkpt>
<trkpt lat="-27.3656823" lon="152.9714286">
<ele>66.672</ele>
<time>2017-05-23T01:29:44.583Z</time>
</trkpt>
<trkpt lat="-27.3659855" lon="152.9709834">
<ele>70.348</ele>
<time>2017-05-23T01:29:47.757Z</time>
</trkpt>
<trkpt lat="-27.3663079" lon="152.9705363">
<ele>73.474</ele>
<time>2017-05-23T01:29:50.905Z</time>
</trkpt>
<trkpt lat="-27.3665404" lon="152.9703000">
<ele>76.217</ele>
<time>2017-05-23T01:29:52.837Z</time>
</trkpt>
<trkpt lat="-27.3669451" lon="152.9700078">
<ele>78.720</ele>
<time>2017-05-23T01:29:55.824Z</time>
</trkpt>
<trkpt lat="-27.3673302" lon="152.9697007">
<ele>80.735</ele>
<time>2017-05-23T01:29:58.795Z</time>
</trkpt>
<trkpt lat="-27.3676291" lon="152.9695874">
<ele>82.113</ele>
<time>2017-05-23T01:30:00.786Z</time>
</trkpt>
<trkpt lat="-27.3680887" lon="152.9694360">
<ele>82.878</ele>
<time>2017-05-23T01:30:03.797Z</time>
</trkpt>
<trkpt lat="-27.3685263" lon="152.9692055">
<ele>83.215</ele>
<time>2017-05-23T01:30:06.800Z</time>
</trkpt>
<trkpt lat="-27.3687932" lon="152.9689874">
<ele>83.580</ele>
<time>2017-05-23T01:30:08.805Z</time>
</trkpt>
<trkpt lat="-27.3690251" lon="152.9687390">
<ele>84.325</ele>
<time>2017-05-23T01:30:10.637Z</time>
</trkpt>
<trkpt lat="-27.3694163" lon="152.9683020">
<ele>85.400</ele>
<time>2017-05-23T01:30:13.610Z</time>
</trkpt>
<trkpt lat="-27.3698514" lon="152.9678457">
<ele>86.631</ele>
<time>2017-05-23T01:30:16.620Z</time>
</trkpt>
<trkpt lat="-27.3703459" lon="152.9674536">
<ele>87.910</ele>
<time>2017-05-23T01:30:19.618Z</time>
</trkpt>
<trkpt lat="-27.3707157" lon="152.9672623">
<ele>89.087</ele>
<time>2017-05-23T01:30:21.624Z</time>
</trkpt>
<trkpt lat="-27.3710679" lon="152.9670434">
<ele>89.947</ele>
<time>2017-05-23T01:30:23.606Z</time>
</trkpt>
<trkpt lat="-27.3715861" lon="152.9667006">
<ele>90.305</ele>
<time>2017-05-23T01:30:26.578Z</time>
</trkpt>
<trkpt lat="-27.3719109" lon="152.9664537">
<ele>90.115</ele>
<time>2017-05-23T01:30:28.544Z</time>
</trkpt>
<trkpt lat="-27.3721114" lon="152.9658329">
<ele>89.617</ele>
<time>2017-05-23T01:30:31.492Z</time>
</trkpt>
<trkpt lat="-27.3722444" lon="152.9654073">
<ele>89.272</ele>
<time>2017-05-23T01:30:33.486Z</time>
</trkpt>
<trkpt lat="-27.3724324" lon="152.9647616">
<ele>89.396</ele>
<time>2017-05-23T01:30:36.480Z</time>
</trkpt>
<trkpt lat="-27.3725951" lon="152.9643404">
<ele>89.991</ele>
<time>2017-05-23T01:30:38.510Z</time>
</trkpt>
<trkpt lat="-27.3730527" lon="152.9639092">
<ele>90.845</ele>
<time>2017-05-23T01:30:41.486Z</time>
</trkpt>
<trkpt lat="-27.3733645" lon="152.9636101">
<ele>91.761</ele>
<time>2017-05-23T01:30:43.532Z</time>
</trkpt>
<trkpt lat="-27.3735572" lon="152.9632143">
<ele>92.664</ele>
<time>2017-05-23T01:30:45.532Z</time>
</trkpt>
<trkpt lat="-27.3736162" lon="152.9625562">
<ele>93.469</ele>
<time>2017-05-23T01:30:48.453Z</time>
</trkpt>
<trkpt lat="-27.3736751" lon="152.9618849">
<ele>94.184</ele>
<time>2017-05-23T01:30:51.420Z</time>
</trkpt>
<trkpt lat="-27.3737199" lon="152.9612126">
<ele>95.079</ele>
<time>2017-05-23T01:30:54.378Z</time>
</trkpt>
<trkpt lat="-27.3737545" lon="152.9605303">
<ele>96.409</ele>
<time>2017-05-23T01:30:57.369Z</time>
</trkpt>
<trkpt lat="-27.3737807" lon="152.9600741">
<ele>98.149</ele>
<time>2017-05-23T01:30:59.367Z</time>
</trkpt>
<trkpt lat="-27.3737948" lon="152.9596153">
<ele>99.938</ele>
<time>2017-05-23T01:31:01.371Z</time>
</trkpt>
<trkpt lat="-27.3738187" lon="152.9588940">
<ele>101.311</ele>
<time>2017-05-23T01:31:04.523Z</time>
</trkpt>
<trkpt lat="-27.3738356" lon="152.9584286">
<ele>102.181</ele>
<time>2017-05-23T01:31:06.559Z</time>
</trkpt>
<trkpt lat="-27.3738945" lon="152.9579925">
<ele>102.829</ele>
<time>2017-05-23T01:31:08.491Z</time>
</trkpt>
<trkpt lat="-27.3740330" lon="152.9573432">
<ele>103.479</ele>
<time>2017-05-23T01:31:11.426Z</time>
</trkpt>
<trkpt lat="-27.3743772" lon="152.9568132">
<ele>104.320</ele>
<time>2017-05-23T01:31:14.327Z</time>
</trkpt>
<trkpt lat="-27.3746485" lon="152.9562170">
<ele>105.591</ele>
<time>2017-05-23T01:31:17.283Z</time>
</trkpt>
<trkpt lat="-27.3747631" lon="152.9557791">
<ele>107.205</ele>
<time>2017-05-23T01:31:19.279Z</time>
</trkpt>
<trkpt lat="-27.3748141" lon="152.9551032">
<ele>108.752</ele>
<time>2017-05-23T01:31:22.233Z</time>
</trkpt>
<trkpt lat="-27.3748412" lon="152.9544137">
<ele>109.963</ele>
<time>2017-05-23T01:31:25.233Z</time>
</trkpt>
<trkpt lat="-27.3748217" lon="152.9539665">
<ele>110.806</ele>
<time>2017-05-23T01:31:27.191Z</time>
</trkpt>
<trkpt lat="-27.3748175" lon="152.9535191">
<ele>111.292</ele>
<time>2017-05-23T01:31:29.160Z</time>
</trkpt>
<trkpt lat="-27.3750300" lon="152.9528738">
<ele>111.494</ele>
<time>2017-05-23T01:31:32.194Z</time>
</trkpt>
<trkpt lat="-27.3752507" lon="152.9525078">
<ele>111.592</ele>
<time>2017-05-23T01:31:34.136Z</time>
</trkpt>
<trkpt lat="-27.3756772" lon="152.9520253">
<ele>111.696</ele>
<time>2017-05-23T01:31:37.107Z</time>
</trkpt>
<trkpt lat="-27.3759502" lon="152.9516818">
<ele>111.772</ele>
<time>2017-05-23T01:31:39.104Z</time>
</trkpt>
<trkpt lat="-27.3762068" lon="152.9513286">
<ele>111.786</ele>
<time>2017-05-23T01:31:41.090Z</time>
</trkpt>
<trkpt lat="-27.3764845" lon="152.9510185">
<ele>111.785</ele>
<time>2017-05-23T01:31:43.032Z</time>
</trkpt>
<trkpt lat="-27.3770039" lon="152.9506859">
<ele>111.834</ele>
<time>2017-05-23T01:31:46.009Z</time>
</trkpt>
<trkpt lat="-27.3773324" lon="152.9504230">
<ele>112.154</ele>
<time>2017-05-23T01:31:48.003Z</time>
</trkpt>
<trkpt lat="-27.3776693" lon="152.9501842">
<ele>113.030</ele>
<time>2017-05-23T01:31:49.963Z</time>
</trkpt>
<trkpt lat="-27.3779996" lon="152.9499235">
<ele>114.388</ele>
<time>2017-05-23T01:31:51.962Z</time>
</trkpt>
<trkpt lat="-27.3785404" lon="152.9497011">
<ele>115.827</ele>
<time>2017-05-23T01:31:54.893Z</time>
</trkpt>
<trkpt lat="-27.3788595" lon="152.9495387">
<ele>116.938</ele>
<time>2017-05-23T01:31:56.799Z</time>
</trkpt>
<trkpt lat="-27.3791951" lon="152.9494366">
<ele>117.392</ele>
<time>2017-05-23T01:31:58.769Z</time>
</trkpt>
<trkpt lat="-27.3794706" lon="152.9491928">
<ele>117.115</ele>
<time>2017-05-23T01:32:00.782Z</time>
</trkpt>
<trkpt lat="-27.3798415" lon="152.9488035">
<ele>116.346</ele>
<time>2017-05-23T01:32:03.747Z</time>
</trkpt>
<trkpt lat="-27.3800598" lon="152.9485439">
<ele>115.418</ele>
<time>2017-05-23T01:32:05.722Z</time>
</trkpt>
<trkpt lat="-27.3803735" lon="152.9482128">
<ele>114.630</ele>
<time>2017-05-23T01:32:08.605Z</time>
</trkpt>
<trkpt lat="-27.3806283" lon="152.9481981">
<ele>114.257</ele>
<time>2017-05-23T01:32:10.543Z</time>
</trkpt>
<trkpt lat="-27.3809859" lon="152.9482655">
<ele>114.414</ele>
<time>2017-05-23T01:32:13.613Z</time>
</trkpt>
<trkpt lat="-27.3811556" lon="152.9483627">
<ele>115.042</ele>
<time>2017-05-23T01:32:15.514Z</time>
</trkpt>
<trkpt lat="-27.3812812" lon="152.9483628">
<ele>115.919</ele>
<time>2017-05-23T01:32:16.998Z</time>
</trkpt>
<trkpt lat="-27.3812812" lon="152.9483628">
<ele>116.667</ele>
<time>2017-05-23T01:32:21.998Z</time>
</trkpt>
<trkpt lat="-27.3812812" lon="152.9483628">
<ele>116.978</ele>
<time>2017-05-23T01:32:22.098Z</time>
</trkpt>
<trkpt lat="-27.3814969" lon="152.9483625">
<ele>116.889</ele>
<time>2017-05-23T01:32:31.518Z</time>
</trkpt>
<trkpt lat="-27.3815746" lon="152.9479584">
<ele>116.861</ele>
<time>2017-05-23T01:32:35.007Z</time>
</trkpt>
<trkpt lat="-27.3815861" lon="152.9474481">
<ele>117.377</ele>
<time>2017-05-23T01:32:38.235Z</time>
</trkpt>
<trkpt lat="-27.3816593" lon="152.9469663">
<ele>118.263</ele>
<time>2017-05-23T01:32:41.217Z</time>
</trkpt>
<trkpt lat="-27.3817036" lon="152.9464882">
<ele>118.866</ele>
<time>2017-05-23T01:32:44.086Z</time>
</trkpt>
<trkpt lat="-27.3817644" lon="152.9459554">
<ele>118.807</ele>
<time>2017-05-23T01:32:47.149Z</time>
</trkpt>
<trkpt lat="-27.3817622" lon="152.9454800">
<ele>118.226</ele>
<time>2017-05-23T01:32:49.803Z</time>
</trkpt>
<trkpt lat="-27.3818300" lon="152.9450091">
<ele>117.428</ele>
<time>2017-05-23T01:32:52.538Z</time>
</trkpt>
<trkpt lat="-27.3819138" lon="152.9447006">
<ele>116.486</ele>
<time>2017-05-23T01:32:54.413Z</time>
</trkpt>
<trkpt lat="-27.3820397" lon="152.9442170">
<ele>115.511</ele>
<time>2017-05-23T01:32:57.327Z</time>
</trkpt>
<trkpt lat="-27.3821191" lon="152.9438919">
<ele>114.890</ele>
<time>2017-05-23T01:32:59.266Z</time>
</trkpt>
<trkpt lat="-27.3822233" lon="152.9434058">
<ele>114.889</ele>
<time>2017-05-23T01:33:02.138Z</time>
</trkpt>
<trkpt lat="-27.3823998" lon="152.9429401">
<ele>115.396</ele>
<time>2017-05-23T01:33:05.049Z</time>
</trkpt>
<trkpt lat="-27.3826388" lon="152.9425101">
<ele>116.150</ele>
<time>2017-05-23T01:33:07.989Z</time>
</trkpt>
<trkpt lat="-27.3827590" lon="152.9422095">
<ele>116.972</ele>
<time>2017-05-23T01:33:09.952Z</time>
</trkpt>
<trkpt lat="-27.3828980" lon="152.9419229">
<ele>117.905</ele>
<time>2017-05-23T01:33:11.984Z</time>
</trkpt>
<trkpt lat="-27.3830027" lon="152.9416511">
<ele>118.983</ele>
<time>2017-05-23T01:33:13.903Z</time>
</trkpt>
<trkpt lat="-27.3830939" lon="152.9413794">
<ele>120.028</ele>
<time>2017-05-23T01:33:15.774Z</time>
</trkpt>
<trkpt lat="-27.3832336" lon="152.9409340">
<ele>120.831</ele>
<time>2017-05-23T01:33:18.753Z</time>
</trkpt>
<trkpt lat="-27.3832654" lon="152.9406116">
<ele>121.416</ele>
<time>2017-05-23T01:33:20.769Z</time>
</trkpt>
<trkpt lat="-27.3832790" lon="152.9401361">
<ele>121.934</ele>
<time>2017-05-23T01:33:23.769Z</time>
</trkpt>
<trkpt lat="-27.3832449" lon="152.9398342">
<ele>122.378</ele>
<time>2017-05-23T01:33:25.717Z</time>
</trkpt>
<trkpt lat="-27.3831945" lon="152.9393740">
<ele>122.562</ele>
<time>2017-05-23T01:33:28.657Z</time>
</trkpt>
<trkpt lat="-27.3830528" lon="152.9389305">
<ele>122.281</ele>
<time>2017-05-23T01:33:31.576Z</time>
</trkpt>
<trkpt lat="-27.3829010" lon="152.9384682">
<ele>121.489</ele>
<time>2017-05-23T01:33:34.574Z</time>
</trkpt>
<trkpt lat="-27.3827729" lon="152.9381766">
<ele>120.502</ele>
<time>2017-05-23T01:33:36.540Z</time>
</trkpt>
<trkpt lat="-27.3825325" lon="152.9379660">
<ele>119.810</ele>
<time>2017-05-23T01:33:38.647Z</time>
</trkpt>
<trkpt lat="-27.3822338" lon="152.9376336">
<ele>119.607</ele>
<time>2017-05-23T01:33:41.642Z</time>
</trkpt>
<trkpt lat="-27.3820476" lon="152.9374228">
<ele>119.728</ele>
<time>2017-05-23T01:33:43.624Z</time>
</trkpt>
<trkpt lat="-27.3817632" lon="152.9371378">
<ele>119.841</ele>
<time>2017-05-23T01:33:46.459Z</time>
</trkpt>
<trkpt lat="-27.3813616" lon="152.9370798">
<ele>119.590</ele>
<time>2017-05-23T01:33:49.372Z</time>
</trkpt>
<trkpt lat="-27.3809412" lon="152.9371972">
<ele>118.733</ele>
<time>2017-05-23T01:33:52.389Z</time>
</trkpt>
<trkpt lat="-27.3806460" lon="152.9371874">
<ele>117.210</ele>
<time>2017-05-23T01:33:54.344Z</time>
</trkpt>
<trkpt lat="-27.3801820" lon="152.9372000">
<ele>115.342</ele>
<time>2017-05-23T01:33:57.252Z</time>
</trkpt>
<trkpt lat="-27.3798510" lon="152.9373310">
<ele>113.640</ele>
<time>2017-05-23T01:33:59.272Z</time>
</trkpt>
<trkpt lat="-27.3793977" lon="152.9376543">
<ele>112.351</ele>
<time>2017-05-23T01:34:02.287Z</time>
</trkpt>
<trkpt lat="-27.3790053" lon="152.9380694">
<ele>111.493</ele>
<time>2017-05-23T01:34:05.285Z</time>
</trkpt>
<trkpt lat="-27.3787613" lon="152.9383773">
<ele>111.039</ele>
<time>2017-05-23T01:34:07.323Z</time>
</trkpt>
<trkpt lat="-27.3784300" lon="152.9388392">
<ele>110.857</ele>
<time>2017-05-23T01:34:10.272Z</time>
</trkpt>
<trkpt lat="-27.3781908" lon="152.9391374">
<ele>110.797</ele>
<time>2017-05-23T01:34:12.257Z</time>
</trkpt>
<trkpt lat="-27.3779709" lon="152.9394699">
<ele>110.761</ele>
<time>2017-05-23T01:34:14.282Z</time>
</trkpt>
<trkpt lat="-27.3777746" lon="152.9398097">
<ele>110.632</ele>
<time>2017-05-23T01:34:16.270Z</time>
</trkpt>
<trkpt lat="-27.3774466" lon="152.9402853">
<ele>110.252</ele>
<time>2017-05-23T01:34:19.232Z</time>
</trkpt>
<trkpt lat="-27.3771179" lon="152.9407925">
<ele>109.593</ele>
<time>2017-05-23T01:34:22.305Z</time>
</trkpt>
<trkpt lat="-27.3768927" lon="152.9411209">
<ele>108.830</ele>
<time>2017-05-23T01:34:24.342Z</time>
</trkpt>
<trkpt lat="-27.3766157" lon="152.9416320">
<ele>108.185</ele>
<time>2017-05-23T01:34:27.356Z</time>
</trkpt>
<trkpt lat="-27.3762641" lon="152.9419726">
<ele>107.793</ele>
<time>2017-05-23T01:34:30.058Z</time>
</trkpt>
<trkpt lat="-27.3758756" lon="152.9419749">
<ele>107.677</ele>
<time>2017-05-23T01:34:32.275Z</time>
</trkpt>
<trkpt lat="-27.3753286" lon="152.9419069">
<ele>107.848</ele>
<time>2017-05-23T01:34:35.351Z</time>
</trkpt>
<trkpt lat="-27.3749830" lon="152.9418200">
<ele>108.300</ele>
<time>2017-05-23T01:34:37.332Z</time>
</trkpt>
<trkpt lat="-27.3746174" lon="152.9418461">
<ele>108.833</ele>
<time>2017-05-23T01:34:39.388Z</time>
</trkpt>
<trkpt lat="-27.3740940" lon="152.9417566">
<ele>109.118</ele>
<time>2017-05-23T01:34:42.371Z</time>
</trkpt>
<trkpt lat="-27.3737648" lon="152.9416214">
<ele>109.050</ele>
<time>2017-05-23T01:34:44.368Z</time>
</trkpt>
<trkpt lat="-27.3734448" lon="152.9414862">
<ele>108.823</ele>
<time>2017-05-23T01:34:46.300Z</time>
</trkpt>
<trkpt lat="-27.3729812" lon="152.9411634">
<ele>108.649</ele>
<time>2017-05-23T01:34:49.330Z</time>
</trkpt>
<trkpt lat="-27.3726152" lon="152.9406973">
<ele>108.458</ele>
<time>2017-05-23T01:34:52.377Z</time>
</trkpt>
<trkpt lat="-27.3724332" lon="152.9403702">
<ele>107.800</ele>
<time>2017-05-23T01:34:54.354Z</time>
</trkpt>
<trkpt lat="-27.3722017" lon="152.9401233">
<ele>106.381</ele>
<time>2017-05-23T01:34:56.248Z</time>
</trkpt>
<trkpt lat="-27.3717170" lon="152.9400235">
<ele>104.552</ele>
<time>2017-05-23T01:34:59.153Z</time>
</trkpt>
<trkpt lat="-27.3711923" lon="152.9400476">
<ele>102.790</ele>
<time>2017-05-23T01:35:02.196Z</time>
</trkpt>
<trkpt lat="-27.3708662" lon="152.9400740">
<ele>101.236</ele>
<time>2017-05-23T01:35:04.145Z</time>
</trkpt>
<trkpt lat="-27.3704319" lon="152.9398548">
<ele>99.866</ele>
<time>2017-05-23T01:35:07.023Z</time>
</trkpt>
<trkpt lat="-27.3702552" lon="152.9393760">
<ele>98.365</ele>
<time>2017-05-23T01:35:09.634Z</time>
</trkpt>
<trkpt lat="-27.3701230" lon="152.9387436">
<ele>96.421</ele>
<time>2017-05-23T01:35:12.711Z</time>
</trkpt>
<trkpt lat="-27.3700110" lon="152.9383340">
<ele>94.174</ele>
<time>2017-05-23T01:35:14.744Z</time>
</trkpt>
<trkpt lat="-27.3698891" lon="152.9377523">
<ele>92.029</ele>
<time>2017-05-23T01:35:17.678Z</time>
</trkpt>
<trkpt lat="-27.3697875" lon="152.9373859">
<ele>90.038</ele>
<time>2017-05-23T01:35:19.669Z</time>
</trkpt>
<trkpt lat="-27.3695244" lon="152.9369305">
<ele>87.926</ele>
<time>2017-05-23T01:35:22.471Z</time>
</trkpt>
<trkpt lat="-27.3690233" lon="152.9366852">
<ele>85.394</ele>
<time>2017-05-23T01:35:25.517Z</time>
</trkpt>
<trkpt lat="-27.3685049" lon="152.9364216">
<ele>81.800</ele>
<time>2017-05-23T01:35:28.557Z</time>
</trkpt>
<trkpt lat="-27.3681881" lon="152.9361971">
<ele>76.049</ele>
<time>2017-05-23T01:35:30.581Z</time>
</trkpt>
<trkpt lat="-27.3677275" lon="152.9358834">
<ele>68.546</ele>
<time>2017-05-23T01:35:33.481Z</time>
</trkpt>
<trkpt lat="-27.3675012" lon="152.9352089">
<ele>61.989</ele>
<time>2017-05-23T01:35:36.792Z</time>
</trkpt>
<trkpt lat="-27.3673526" lon="152.9347401">
<ele>58.938</ele>
<time>2017-05-23T01:35:39.111Z</time>
</trkpt>
<trkpt lat="-27.3672384" lon="152.9343986">
<ele>59.202</ele>
<time>2017-05-23T01:35:40.986Z</time>
</trkpt>
<trkpt lat="-27.3671336" lon="152.9338566">
<ele>59.989</ele>
<time>2017-05-23T01:35:43.794Z</time>
</trkpt>
<trkpt lat="-27.3672014" lon="152.9332109">
<ele>59.297</ele>
<time>2017-05-23T01:35:46.943Z</time>
</trkpt>
<trkpt lat="-27.3672622" lon="152.9328030">
<ele>59.852</ele>
<time>2017-05-23T01:35:48.977Z</time>
</trkpt>
<trkpt lat="-27.3672433" lon="152.9322178">
<ele>64.093</ele>
<time>2017-05-23T01:35:51.958Z</time>
</trkpt>
<trkpt lat="-27.3671223" lon="152.9316982">
<ele>69.095</ele>
<time>2017-05-23T01:35:54.712Z</time>
</trkpt>
<trkpt lat="-27.3668393" lon="152.9314274">
<ele>71.191</ele>
<time>2017-05-23T01:35:56.779Z</time>
</trkpt>
<trkpt lat="-27.3664850" lon="152.9309656">
<ele>70.197</ele>
<time>2017-05-23T01:35:59.789Z</time>
</trkpt>
<trkpt lat="-27.3661336" lon="152.9305248">
<ele>67.331</ele>
<time>2017-05-23T01:36:02.761Z</time>
</trkpt>
<trkpt lat="-27.3658919" lon="152.9302561">
<ele>63.429</ele>
<time>2017-05-23T01:36:04.772Z</time>
</trkpt>
<trkpt lat="-27.3657305" lon="152.9299389">
<ele>58.831</ele>
<time>2017-05-23T01:36:06.602Z</time>
</trkpt>
<trkpt lat="-27.3657606" lon="152.9292663">
<ele>54.418</ele>
<time>2017-05-23T01:36:09.771Z</time>
</trkpt>
<trkpt lat="-27.3657343" lon="152.9288064">
<ele>51.302</ele>
<time>2017-05-23T01:36:11.835Z</time>
</trkpt>
<trkpt lat="-27.3656351" lon="152.9281327">
<ele>50.122</ele>
<time>2017-05-23T01:36:14.925Z</time>
</trkpt>
<trkpt lat="-27.3655693" lon="152.9277170">
<ele>50.977</ele>
<time>2017-05-23T01:36:16.920Z</time>
</trkpt>
<trkpt lat="-27.3656274" lon="152.9271254">
<ele>53.364</ele>
<time>2017-05-23T01:36:19.819Z</time>
</trkpt>
<trkpt lat="-27.3655911" lon="152.9267326">
<ele>56.463</ele>
<time>2017-05-23T01:36:21.776Z</time>
</trkpt>
<trkpt lat="-27.3653414" lon="152.9261849">
<ele>59.317</ele>
<time>2017-05-23T01:36:24.827Z</time>
</trkpt>
<trkpt lat="-27.3652074" lon="152.9258176">
<ele>60.331</ele>
<time>2017-05-23T01:36:26.836Z</time>
</trkpt>
<trkpt lat="-27.3649360" lon="152.9253147">
<ele>58.607</ele>
<time>2017-05-23T01:36:29.817Z</time>
</trkpt>
<trkpt lat="-27.3644522" lon="152.9250661">
<ele>55.674</ele>
<time>2017-05-23T01:36:32.826Z</time>
</trkpt>
<trkpt lat="-27.3640973" lon="152.9250024">
<ele>53.658</ele>
<time>2017-05-23T01:36:34.968Z</time>
</trkpt>
<trkpt lat="-27.3636224" lon="152.9250128">
<ele>53.349</ele>
<time>2017-05-23T01:36:38.653Z</time>
</trkpt>
<trkpt lat="-27.3634719" lon="152.9250251">
<ele>55.018</ele>
<time>2017-05-23T01:36:40.830Z</time>
</trkpt>
<trkpt lat="-27.3633739" lon="152.9251198">
<ele>58.013</ele>
<time>2017-05-23T01:36:43.548Z</time>
</trkpt>
<trkpt lat="-27.3634915" lon="152.9250780">
<ele>60.514</ele>
<time>2017-05-23T01:36:46.223Z</time>
</trkpt>
<trkpt lat="-27.3636283" lon="152.9250258">
<ele>61.523</ele>
<time>2017-05-23T01:36:49.359Z</time>
</trkpt>
<trkpt lat="-27.3636995" lon="152.9248876">
<ele>61.548</ele>
<time>2017-05-23T01:36:52.362Z</time>
</trkpt>
<trkpt lat="-27.3636962" lon="152.9245339">
<ele>61.314</ele>
<time>2017-05-23T01:36:57.358Z</time>
</trkpt>
<trkpt lat="-27.3636753" lon="152.9240972">
<ele>61.443</ele>
<time>2017-05-23T01:37:01.179Z</time>
</trkpt>
<trkpt lat="-27.3636574" lon="152.9235983">
<ele>62.460</ele>
<time>2017-05-23T01:37:04.479Z</time>
</trkpt>
<trkpt lat="-27.3637374" lon="152.9232598">
<ele>64.550</ele>
<time>2017-05-23T01:37:06.584Z</time>
</trkpt>
<trkpt lat="-27.3640005" lon="152.9227784">
<ele>67.211</ele>
<time>2017-05-23T01:37:09.813Z</time>
</trkpt>
<trkpt lat="-27.3641613" lon="152.9223711">
<ele>69.699</ele>
<time>2017-05-23T01:37:12.259Z</time>
</trkpt>
<trkpt lat="-27.3642730" lon="152.9220263">
<ele>71.696</ele>
<time>2017-05-23T01:37:14.241Z</time>
</trkpt>
<trkpt lat="-27.3643736" lon="152.9214473">
<ele>73.378</ele>
<time>2017-05-23T01:37:17.291Z</time>
</trkpt>
<trkpt lat="-27.3644652" lon="152.9210481">
<ele>74.838</ele>
<time>2017-05-23T01:37:19.315Z</time>
</trkpt>
<trkpt lat="-27.3646177" lon="152.9204532">
<ele>75.916</ele>
<time>2017-05-23T01:37:22.321Z</time>
</trkpt>
<trkpt lat="-27.3647692" lon="152.9199287">
<ele>76.510</ele>
<time>2017-05-23T01:37:25.110Z</time>
</trkpt>
<trkpt lat="-27.3649458" lon="152.9196743">
<ele>77.025</ele>
<time>2017-05-23T01:37:26.919Z</time>
</trkpt>
<trkpt lat="-27.3652278" lon="152.9194346">
<ele>77.976</ele>
<time>2017-05-23T01:37:29.183Z</time>
</trkpt>
<trkpt lat="-27.3656748" lon="152.9191854">
<ele>79.430</ele>
<time>2017-05-23T01:37:32.218Z</time>
</trkpt>
<trkpt lat="-27.3659999" lon="152.9190410">
<ele>81.183</ele>
<time>2017-05-23T01:37:34.304Z</time>
</trkpt>
<trkpt lat="-27.3664469" lon="152.9187776">
<ele>83.017</ele>
<time>2017-05-23T01:37:37.292Z</time>
</trkpt>
<trkpt lat="-27.3668464" lon="152.9184007">
<ele>84.653</ele>
<time>2017-05-23T01:37:40.327Z</time>
</trkpt>
<trkpt lat="-27.3672079" lon="152.9179701">
<ele>85.872</ele>
<time>2017-05-23T01:37:43.329Z</time>
</trkpt>
<trkpt lat="-27.3675763" lon="152.9175578">
<ele>86.516</ele>
<time>2017-05-23T01:37:46.294Z</time>
</trkpt>
<trkpt lat="-27.3680471" lon="152.9173850">
<ele>86.371</ele>
<time>2017-05-23T01:37:49.223Z</time>
</trkpt>
<trkpt lat="-27.3683042" lon="152.9171857">
<ele>85.192</ele>
<time>2017-05-23T01:37:51.147Z</time>
</trkpt>
<trkpt lat="-27.3684209" lon="152.9166596">
<ele>83.114</ele>
<time>2017-05-23T01:37:54.135Z</time>
</trkpt>
<trkpt lat="-27.3684394" lon="152.9160374">
<ele>81.021</ele>
<time>2017-05-23T01:37:57.321Z</time>
</trkpt>
<trkpt lat="-27.3685190" lon="152.9155908">
<ele>80.055</ele>
<time>2017-05-23T01:37:59.540Z</time>
</trkpt>
<trkpt lat="-27.3687264" lon="152.9152713">
<ele>80.725</ele>
<time>2017-05-23T01:38:01.485Z</time>
</trkpt>
<trkpt lat="-27.3690531" lon="152.9147957">
<ele>82.620</ele>
<time>2017-05-23T01:38:04.478Z</time>
</trkpt>
<trkpt lat="-27.3693206" lon="152.9145360">
<ele>85.176</ele>
<time>2017-05-23T01:38:06.490Z</time>
</trkpt>
<trkpt lat="-27.3697804" lon="152.9143034">
<ele>87.946</ele>
<time>2017-05-23T01:38:09.424Z</time>
</trkpt>
<trkpt lat="-27.3700575" lon="152.9141077">
<ele>90.513</ele>
<time>2017-05-23T01:38:11.394Z</time>
</trkpt>
<trkpt lat="-27.3703334" lon="152.9136640">
<ele>92.685</ele>
<time>2017-05-23T01:38:14.367Z</time>
</trkpt>
<trkpt lat="-27.3705659" lon="152.9133551">
<ele>94.674</ele>
<time>2017-05-23T01:38:16.489Z</time>
</trkpt>
<trkpt lat="-27.3709589" lon="152.9128579">
<ele>96.833</ele>
<time>2017-05-23T01:38:19.684Z</time>
</trkpt>
<trkpt lat="-27.3711819" lon="152.9124971">
<ele>99.394</ele>
<time>2017-05-23T01:38:21.687Z</time>
</trkpt>
<trkpt lat="-27.3714545" lon="152.9121538">
<ele>102.112</ele>
<time>2017-05-23T01:38:23.750Z</time>
</trkpt>
<trkpt lat="-27.3718631" lon="152.9116372">
<ele>104.389</ele>
<time>2017-05-23T01:38:26.830Z</time>
</trkpt>
<trkpt lat="-27.3720594" lon="152.9112646">
<ele>106.061</ele>
<time>2017-05-23T01:38:28.791Z</time>
</trkpt>
<trkpt lat="-27.3722860" lon="152.9106905">
<ele>107.760</ele>
<time>2017-05-23T01:38:31.714Z</time>
</trkpt>
<trkpt lat="-27.3724020" lon="152.9103016">
<ele>110.123</ele>
<time>2017-05-23T01:38:33.746Z</time>
</trkpt>
<trkpt lat="-27.3726396" lon="152.9098536">
<ele>112.945</ele>
<time>2017-05-23T01:38:36.500Z</time>
</trkpt>
<trkpt lat="-27.3729516" lon="152.9096713">
<ele>115.865</ele>
<time>2017-05-23T01:38:38.635Z</time>
</trkpt>
<trkpt lat="-27.3734668" lon="152.9094695">
<ele>119.118</ele>
<time>2017-05-23T01:38:41.729Z</time>
</trkpt>
<trkpt lat="-27.3739554" lon="152.9090861">
<ele>122.994</ele>
<time>2017-05-23T01:38:44.819Z</time>
</trkpt>
<trkpt lat="-27.3742750" lon="152.9088247">
<ele>127.371</ele>
<time>2017-05-23T01:38:46.800Z</time>
</trkpt>
<trkpt lat="-27.3745934" lon="152.9085837">
<ele>131.833</ele>
<time>2017-05-23T01:38:48.743Z</time>
</trkpt>
<trkpt lat="-27.3751065" lon="152.9082584">
<ele>135.925</ele>
<time>2017-05-23T01:38:51.736Z</time>
</trkpt>
<trkpt lat="-27.3754163" lon="152.9079618">
<ele>140.051</ele>
<time>2017-05-23T01:38:53.766Z</time>
</trkpt>
<trkpt lat="-27.3759559" lon="152.9076706">
<ele>144.757</ele>
<time>2017-05-23T01:38:56.740Z</time>
</trkpt>
<trkpt lat="-27.3763112" lon="152.9074854">
<ele>149.890</ele>
<time>2017-05-23T01:38:58.725Z</time>
</trkpt>
<trkpt lat="-27.3766594" lon="152.9073210">
<ele>155.009</ele>
<time>2017-05-23T01:39:00.712Z</time>
</trkpt>
<trkpt lat="-27.3769432" lon="152.9071450">
<ele>159.889</ele>
<time>2017-05-23T01:39:02.573Z</time>
</trkpt>
<trkpt lat="-27.3773119" lon="152.9069818">
<ele>164.580</ele>
<time>2017-05-23T01:39:05.108Z</time>
</trkpt>
<trkpt lat="-27.3777916" lon="152.9069352">
<ele>169.507</ele>
<time>2017-05-23T01:39:08.170Z</time>
</trkpt>
<trkpt lat="-27.3781551" lon="152.9068864">
<ele>174.534</ele>
<time>2017-05-23T01:39:10.248Z</time>
</trkpt>
<trkpt lat="-27.3785379" lon="152.9068860">
<ele>178.467</ele>
<time>2017-05-23T01:39:12.335Z</time>
</trkpt>
<trkpt lat="-27.3790506" lon="152.9069674">
<ele>180.324</ele>
<time>2017-05-23T01:39:15.198Z</time>
</trkpt>
<trkpt lat="-27.3795280" lon="152.9068996">
<ele>180.473</ele>
<time>2017-05-23T01:39:18.051Z</time>
</trkpt>
<trkpt lat="-27.3799545" lon="152.9066783">
<ele>179.841</ele>
<time>2017-05-23T01:39:20.972Z</time>
</trkpt>
<trkpt lat="-27.3801800" lon="152.9064593">
<ele>178.767</ele>
<time>2017-05-23T01:39:22.886Z</time>
</trkpt>
<trkpt lat="-27.3805572" lon="152.9061567">
<ele>177.323</ele>
<time>2017-05-23T01:39:25.875Z</time>
</trkpt>
<trkpt lat="-27.3809329" lon="152.9058025">
<ele>176.057</ele>
<time>2017-05-23T01:39:28.918Z</time>
</trkpt>
<trkpt lat="-27.3811743" lon="152.9055455">
<ele>176.990</ele>
<time>2017-05-23T01:39:30.922Z</time>
</trkpt>
<trkpt lat="-27.3815073" lon="152.9051284">
<ele>181.399</ele>
<time>2017-05-23T01:39:33.929Z</time>
</trkpt>
<trkpt lat="-27.3818968" lon="152.9048284">
<ele>186.906</ele>
<time>2017-05-23T01:39:36.847Z</time>
</trkpt>
<trkpt lat="-27.3821454" lon="152.9048029">
<ele>190.175</ele>
<time>2017-05-23T01:39:38.564Z</time>
</trkpt>
<trkpt lat="-27.3823413" lon="152.9048111">
<ele>190.609</ele>
<time>2017-05-23T01:39:40.147Z</time>
</trkpt>
<trkpt lat="-27.3824714" lon="152.9047050">
<ele>189.170</ele>
<time>2017-05-23T01:39:41.765Z</time>
</trkpt>
<trkpt lat="-27.3823880" lon="152.9045520">
<ele>186.821</ele>
<time>2017-05-23T01:39:43.746Z</time>
</trkpt>
<trkpt lat="-27.3820720" lon="152.9043886">
<ele>184.143</ele>
<time>2017-05-23T01:39:48.372Z</time>
</trkpt>
<trkpt lat="-27.3818755" lon="152.9038443">
<ele>181.419</ele>
<time>2017-05-23T01:39:52.879Z</time>
</trkpt>
<trkpt lat="-27.3818576" lon="152.9033390">
<ele>178.799</ele>
<time>2017-05-23T01:39:55.999Z</time>
</trkpt>
<trkpt lat="-27.3818597" lon="152.9027678">
<ele>176.232</ele>
<time>2017-05-23T01:39:59.133Z</time>
</trkpt>
<trkpt lat="-27.3818717" lon="152.9021701">
<ele>173.491</ele>
<time>2017-05-23T01:40:02.213Z</time>
</trkpt>
<trkpt lat="-27.3817567" lon="152.9017692">
<ele>170.710</ele>
<time>2017-05-23T01:40:04.306Z</time>
</trkpt>
<trkpt lat="-27.3816017" lon="152.9011828">
<ele>168.157</ele>
<time>2017-05-23T01:40:07.469Z</time>
</trkpt>
<trkpt lat="-27.3815761" lon="152.9008673">
<ele>165.101</ele>
<time>2017-05-23T01:40:09.457Z</time>
</trkpt>
<trkpt lat="-27.3815294" lon="152.9004916">
<ele>160.864</ele>
<time>2017-05-23T01:40:12.136Z</time>
</trkpt>
<trkpt lat="-27.3816743" lon="152.9001564">
<ele>155.786</ele>
<time>2017-05-23T01:40:15.042Z</time>
</trkpt>
<trkpt lat="-27.3818243" lon="152.8999462">
<ele>150.305</ele>
<time>2017-05-23T01:40:17.182Z</time>
</trkpt>
<trkpt lat="-27.3819273" lon="152.8997219">
<ele>144.909</ele>
<time>2017-05-23T01:40:19.272Z</time>
</trkpt>
<trkpt lat="-27.3819971" lon="152.8994222">
<ele>140.343</ele>
<time>2017-05-23T01:40:22.344Z</time>
</trkpt>
<trkpt lat="-27.3820187" lon="152.8993107">
<ele>136.499</ele>
<time>2017-05-23T01:40:23.778Z</time>
</trkpt>
<trkpt lat="-27.3821028" lon="152.8993510">
<ele>132.579</ele>
<time>2017-05-23T01:40:26.064Z</time>
</trkpt>
<trkpt lat="-27.3821128" lon="152.8995636">
<ele>128.425</ele>
<time>2017-05-23T01:40:30.546Z</time>
</trkpt>
<trkpt lat="-27.3820929" lon="152.9000810">
<ele>124.968</ele>
<time>2017-05-23T01:40:34.575Z</time>
</trkpt>
<trkpt lat="-27.3820825" lon="152.9004648">
<ele>123.419</ele>
<time>2017-05-23T01:40:36.622Z</time>
</trkpt>
<trkpt lat="-27.3821941" lon="152.9011302">
<ele>124.031</ele>
<time>2017-05-23T01:40:39.961Z</time>
</trkpt>
<trkpt lat="-27.3823729" lon="152.9017019">
<ele>126.063</ele>
<time>2017-05-23T01:40:42.815Z</time>
</trkpt>
<trkpt lat="-27.3826916" lon="152.9022382">
<ele>128.840</ele>
<time>2017-05-23T01:40:45.824Z</time>
</trkpt>
<trkpt lat="-27.3829330" lon="152.9025606">
<ele>132.083</ele>
<time>2017-05-23T01:40:47.829Z</time>
</trkpt>
<trkpt lat="-27.3831641" lon="152.9028672">
<ele>135.392</ele>
<time>2017-05-23T01:40:49.774Z</time>
</trkpt>
<trkpt lat="-27.3835816" lon="152.9032954">
<ele>138.184</ele>
<time>2017-05-23T01:40:52.863Z</time>
</trkpt>
<trkpt lat="-27.3838571" lon="152.9035602">
<ele>140.256</ele>
<time>2017-05-23T01:40:54.847Z</time>
</trkpt>
<trkpt lat="-27.3841865" lon="152.9037596">
<ele>141.865</ele>
<time>2017-05-23T01:40:56.899Z</time>
</trkpt>
<trkpt lat="-27.3846802" lon="152.9040233">
<ele>143.259</ele>
<time>2017-05-23T01:40:59.906Z</time>
</trkpt>
<trkpt lat="-27.3850377" lon="152.9041110">
<ele>144.685</ele>
<time>2017-05-23T01:41:01.936Z</time>
</trkpt>
<trkpt lat="-27.3853989" lon="152.9041742">
<ele>146.339</ele>
<time>2017-05-23T01:41:03.971Z</time>
</trkpt>
<trkpt lat="-27.3859192" lon="152.9043012">
<ele>148.149</ele>
<time>2017-05-23T01:41:06.935Z</time>
</trkpt>
<trkpt lat="-27.3862696" lon="152.9044104">
<ele>150.045</ele>
<time>2017-05-23T01:41:08.952Z</time>
</trkpt>
<trkpt lat="-27.3865887" lon="152.9046190">
<ele>151.934</ele>
<time>2017-05-23T01:41:11.009Z</time>
</trkpt>
<trkpt lat="-27.3870801" lon="152.9049055">
<ele>153.472</ele>
<time>2017-05-23T01:41:14.153Z</time>
</trkpt>
<trkpt lat="-27.3873855" lon="152.9050097">
<ele>154.445</ele>
<time>2017-05-23T01:41:16.019Z</time>
</trkpt>
<trkpt lat="-27.3878944" lon="152.9050168">
<ele>155.098</ele>
<time>2017-05-23T01:41:19.002Z</time>
</trkpt>
<trkpt lat="-27.3883597" lon="152.9047555">
<ele>155.926</ele>
<time>2017-05-23T01:41:21.987Z</time>
</trkpt>
<trkpt lat="-27.3886717" lon="152.9045341">
<ele>157.192</ele>
<time>2017-05-23T01:41:24.061Z</time>
</trkpt>
<trkpt lat="-27.3889803" lon="152.9043391">
<ele>158.635</ele>
<time>2017-05-23T01:41:26.074Z</time>
</trkpt>
<trkpt lat="-27.3892985" lon="152.9042155">
<ele>159.904</ele>
<time>2017-05-23T01:41:28.021Z</time>
</trkpt>
<trkpt lat="-27.3896321" lon="152.9041563">
<ele>160.993</ele>
<time>2017-05-23T01:41:30.002Z</time>
</trkpt>
<trkpt lat="-27.3901123" lon="152.9042344">
<ele>162.012</ele>
<time>2017-05-23T01:41:32.880Z</time>
</trkpt>
<trkpt lat="-27.3905255" lon="152.9045718">
<ele>162.855</ele>
<time>2017-05-23T01:41:35.884Z</time>
</trkpt>
<trkpt lat="-27.3907588" lon="152.9048955">
<ele>163.241</ele>
<time>2017-05-23T01:41:37.957Z</time>
</trkpt>
<trkpt lat="-27.3909752" lon="152.9054755">
<ele>162.943</ele>
<time>2017-05-23T01:41:40.996Z</time>
</trkpt>
<trkpt lat="-27.3911083" lon="152.9058779">
<ele>161.741</ele>
<time>2017-05-23T01:41:43.057Z</time>
</trkpt>
<trkpt lat="-27.3913883" lon="152.9064100">
<ele>159.655</ele>
<time>2017-05-23T01:41:46.061Z</time>
</trkpt>
<trkpt lat="-27.3918234" lon="152.9067698">
<ele>157.089</ele>
<time>2017-05-23T01:41:49.046Z</time>
</trkpt>
<trkpt lat="-27.3921561" lon="152.9069430">
<ele>154.466</ele>
<time>2017-05-23T01:41:51.091Z</time>
</trkpt>
<trkpt lat="-27.3924841" lon="152.9070656">
<ele>152.049</ele>
<time>2017-05-23T01:41:53.059Z</time>
</trkpt>
<trkpt lat="-27.3929761" lon="152.9072124">
<ele>149.889</ele>
<time>2017-05-23T01:41:56.008Z</time>
</trkpt>
<trkpt lat="-27.3934141" lon="152.9074972">
<ele>147.563</ele>
<time>2017-05-23T01:41:58.965Z</time>
</trkpt>
<trkpt lat="-27.3936748" lon="152.9077480">
<ele>144.637</ele>
<time>2017-05-23T01:42:00.943Z</time>
</trkpt>
<trkpt lat="-27.3939847" lon="152.9082585">
<ele>141.443</ele>
<time>2017-05-23T01:42:04.013Z</time>
</trkpt>
<trkpt lat="-27.3942350" lon="152.9088186">
<ele>138.584</ele>
<time>2017-05-23T01:42:07.016Z</time>
</trkpt>
<trkpt lat="-27.3943269" lon="152.9092283">
<ele>136.004</ele>
<time>2017-05-23T01:42:09.015Z</time>
</trkpt>
<trkpt lat="-27.3944402" lon="152.9098353">
<ele>133.450</ele>
<time>2017-05-23T01:42:11.976Z</time>
</trkpt>
<trkpt lat="-27.3945260" lon="152.9102206">
<ele>130.793</ele>
<time>2017-05-23T01:42:13.946Z</time>
</trkpt>
<trkpt lat="-27.3945457" lon="152.9105905">
<ele>127.938</ele>
<time>2017-05-23T01:42:15.886Z</time>
</trkpt>
<trkpt lat="-27.3945379" lon="152.9109436">
<ele>125.151</ele>
<time>2017-05-23T01:42:17.812Z</time>
</trkpt>
<trkpt lat="-27.3944210" lon="152.9112874">
<ele>122.830</ele>
<time>2017-05-23T01:42:19.805Z</time>
</trkpt>
<trkpt lat="-27.3940766" lon="152.9117346">
<ele>121.014</ele>
<time>2017-05-23T01:42:22.888Z</time>
</trkpt>
<trkpt lat="-27.3938035" lon="152.9120035">
<ele>119.359</ele>
<time>2017-05-23T01:42:24.928Z</time>
</trkpt>
<trkpt lat="-27.3934283" lon="152.9124324">
<ele>117.535</ele>
<time>2017-05-23T01:42:27.900Z</time>
</trkpt>
<trkpt lat="-27.3931496" lon="152.9129572">
<ele>115.560</ele>
<time>2017-05-23T01:42:30.883Z</time>
</trkpt>
<trkpt lat="-27.3930261" lon="152.9133548">
<ele>113.559</ele>
<time>2017-05-23T01:42:32.907Z</time>
</trkpt>
<trkpt lat="-27.3929263" lon="152.9137536">
<ele>111.749</ele>
<time>2017-05-23T01:42:34.906Z</time>
</trkpt>
<trkpt lat="-27.3929495" lon="152.9143812">
<ele>110.450</ele>
<time>2017-05-23T01:42:38.003Z</time>
</trkpt>
<trkpt lat="-27.3930339" lon="152.9149613">
<ele>109.616</ele>
<time>2017-05-23T01:42:40.981Z</time>
</trkpt>
<trkpt lat="-27.3930310" lon="152.9153549">
<ele>108.844</ele>
<time>2017-05-23T01:42:42.978Z</time>
</trkpt>
<trkpt lat="-27.3930813" lon="152.9159507">
<ele>107.866</ele>
<time>2017-05-23T01:42:46.015Z</time>
</trkpt>
<trkpt lat="-27.3930817" lon="152.9163427">
<ele>106.664</ele>
<time>2017-05-23T01:42:48.077Z</time>
</trkpt>
<trkpt lat="-27.3930504" lon="152.9168879">
<ele>105.331</ele>
<time>2017-05-23T01:42:51.012Z</time>
</trkpt>
<trkpt lat="-27.3930632" lon="152.9174686">
<ele>104.040</ele>
<time>2017-05-23T01:42:54.097Z</time>
</trkpt>
<trkpt lat="-27.3930567" lon="152.9178530">
<ele>103.024</ele>
<time>2017-05-23T01:42:56.091Z</time>
</trkpt>
<trkpt lat="-27.3930687" lon="152.9184671">
<ele>102.431</ele>
<time>2017-05-23T01:42:59.267Z</time>
</trkpt>
<trkpt lat="-27.3930767" lon="152.9188374">
<ele>102.169</ele>
<time>2017-05-23T01:43:01.186Z</time>
</trkpt>
<trkpt lat="-27.3930515" lon="152.9192366">
<ele>101.953</ele>
<time>2017-05-23T01:43:03.231Z</time>
</trkpt>
<trkpt lat="-27.3930663" lon="152.9198308">
<ele>101.617</ele>
<time>2017-05-23T01:43:06.272Z</time>
</trkpt>
<trkpt lat="-27.3930943" lon="152.9201983">
<ele>101.119</ele>
<time>2017-05-23T01:43:08.218Z</time>
</trkpt>
<trkpt lat="-27.3931016" lon="152.9205641">
<ele>100.448</ele>
<time>2017-05-23T01:43:10.150Z</time>
</trkpt>
<trkpt lat="-27.3931134" lon="152.9209682">
<ele>99.709</ele>
<time>2017-05-23T01:43:12.211Z</time>
</trkpt>
<trkpt lat="-27.3931153" lon="152.9215993">
<ele>99.124</ele>
<time>2017-05-23T01:43:15.305Z</time>
</trkpt>
<trkpt lat="-27.3930711" lon="152.9222408">
<ele>98.939</ele>
<time>2017-05-23T01:43:18.373Z</time>
</trkpt>
<trkpt lat="-27.3929532" lon="152.9228410">
<ele>99.162</ele>
<time>2017-05-23T01:43:21.300Z</time>
</trkpt>
<trkpt lat="-27.3928945" lon="152.9232603">
<ele>99.460</ele>
<time>2017-05-23T01:43:23.343Z</time>
</trkpt>
<trkpt lat="-27.3927313" lon="152.9236279">
<ele>99.504</ele>
<time>2017-05-23T01:43:25.339Z</time>
</trkpt>
<trkpt lat="-27.3925533" lon="152.9242047">
<ele>99.258</ele>
<time>2017-05-23T01:43:28.315Z</time>
</trkpt>
<trkpt lat="-27.3924330" lon="152.9245901">
<ele>98.851</ele>
<time>2017-05-23T01:43:30.308Z</time>
</trkpt>
<trkpt lat="-27.3922934" lon="152.9249612">
<ele>98.412</ele>
<time>2017-05-23T01:43:32.269Z</time>
</trkpt>
<trkpt lat="-27.3921952" lon="152.9253657">
<ele>98.044</ele>
<time>2017-05-23T01:43:34.313Z</time>
</trkpt>
<trkpt lat="-27.3921621" lon="152.9259681">
<ele>97.820</ele>
<time>2017-05-23T01:43:37.277Z</time>
</trkpt>
<trkpt lat="-27.3921427" lon="152.9263629">
<ele>97.681</ele>
<time>2017-05-23T01:43:39.251Z</time>
</trkpt>
<trkpt lat="-27.3921247" lon="152.9269483">
<ele>97.473</ele>
<time>2017-05-23T01:43:42.211Z</time>
</trkpt>
<trkpt lat="-27.3921565" lon="152.9273373">
<ele>97.186</ele>
<time>2017-05-23T01:43:44.224Z</time>
</trkpt>
<trkpt lat="-27.3922244" lon="152.9277079">
<ele>96.982</ele>
<time>2017-05-23T01:43:46.226Z</time>
</trkpt>
<trkpt lat="-27.3923306" lon="152.9282502">
<ele>96.994</ele>
<time>2017-05-23T01:43:49.247Z</time>
</trkpt>
<trkpt lat="-27.3924068" lon="152.9285951">
<ele>97.200</ele>
<time>2017-05-23T01:43:51.251Z</time>
</trkpt>
<trkpt lat="-27.3924833" lon="152.9289188">
<ele>97.450</ele>
<time>2017-05-23T01:43:53.185Z</time>
</trkpt>
<trkpt lat="-27.3927092" lon="152.9294039">
<ele>97.546</ele>
<time>2017-05-23T01:43:56.306Z</time>
</trkpt>
<trkpt lat="-27.3929359" lon="152.9299472">
<ele>97.379</ele>
<time>2017-05-23T01:43:59.576Z</time>
</trkpt>
<trkpt lat="-27.3930377" lon="152.9302851">
<ele>96.997</ele>
<time>2017-05-23T01:44:01.552Z</time>
</trkpt>
<trkpt lat="-27.3931837" lon="152.9305991">
<ele>96.565</ele>
<time>2017-05-23T01:44:03.573Z</time>
</trkpt>
<trkpt lat="-27.3934288" lon="152.9310446">
<ele>96.207</ele>
<time>2017-05-23T01:44:06.556Z</time>
</trkpt>
<trkpt lat="-27.3936274" lon="152.9313287">
<ele>95.952</ele>
<time>2017-05-23T01:44:08.572Z</time>
</trkpt>
<trkpt lat="-27.3938329" lon="152.9315923">
<ele>95.773</ele>
<time>2017-05-23T01:44:10.534Z</time>
</trkpt>
<trkpt lat="-27.3941925" lon="152.9319350">
<ele>95.574</ele>
<time>2017-05-23T01:44:13.517Z</time>
</trkpt>
<trkpt lat="-27.3946068" lon="152.9321732">
<ele>95.213</ele>
<time>2017-05-23T01:44:16.467Z</time>
</trkpt>
<trkpt lat="-27.3948976" lon="152.9323116">
<ele>94.660</ele>
<time>2017-05-23T01:44:18.455Z</time>
</trkpt>
<trkpt lat="-27.3951927" lon="152.9324296">
<ele>94.093</ele>
<time>2017-05-23T01:44:20.431Z</time>
</trkpt>
<trkpt lat="-27.3956241" lon="152.9326204">
<ele>93.712</ele>
<time>2017-05-23T01:44:23.343Z</time>
</trkpt>
<trkpt lat="-27.3960534" lon="152.9328515">
<ele>93.485</ele>
<time>2017-05-23T01:44:26.298Z</time>
</trkpt>
<trkpt lat="-27.3963480" lon="152.9329847">
<ele>93.159</ele>
<time>2017-05-23T01:44:28.273Z</time>
</trkpt>
<trkpt lat="-27.3967889" lon="152.9331847">
<ele>92.505</ele>
<time>2017-05-23T01:44:31.264Z</time>
</trkpt>
<trkpt lat="-27.3972317" lon="152.9333673">
<ele>91.411</ele>
<time>2017-05-23T01:44:34.273Z</time>
</trkpt>
<trkpt lat="-27.3976843" lon="152.9334139">
<ele>89.864</ele>
<time>2017-05-23T01:44:37.199Z</time>
</trkpt>
<trkpt lat="-27.3979867" lon="152.9334579">
<ele>88.128</ele>
<time>2017-05-23T01:44:39.171Z</time>
</trkpt>
<trkpt lat="-27.3984615" lon="152.9335634">
<ele>86.689</ele>
<time>2017-05-23T01:44:42.297Z</time>
</trkpt>
<trkpt lat="-27.3989514" lon="152.9337291">
<ele>85.731</ele>
<time>2017-05-23T01:44:45.573Z</time>
</trkpt>
<trkpt lat="-27.3991850" lon="152.9339610">
<ele>84.978</ele>
<time>2017-05-23T01:44:47.558Z</time>
</trkpt>
<trkpt lat="-27.3995014" lon="152.9343295">
<ele>84.190</ele>
<time>2017-05-23T01:44:50.463Z</time>
</trkpt>
<trkpt lat="-27.3998187" lon="152.9347159">
<ele>83.445</ele>
<time>2017-05-23T01:44:53.446Z</time>
</trkpt>
<trkpt lat="-27.4000831" lon="152.9351553">
<ele>82.854</ele>
<time>2017-05-23T01:44:56.463Z</time>
</trkpt>
<trkpt lat="-27.4002563" lon="152.9354367">
<ele>82.440</ele>
<time>2017-05-23T01:44:58.438Z</time>
</trkpt>
<trkpt lat="-27.4004556" lon="152.9356853">
<ele>82.215</ele>
<time>2017-05-23T01:45:00.579Z</time>
</trkpt>
<trkpt lat="-27.4006739" lon="152.9359488">
<ele>82.130</ele>
<time>2017-05-23T01:45:03.647Z</time>
</trkpt>
<trkpt lat="-27.4007481" lon="152.9360353">
<ele>81.925</ele>
<time>2017-05-23T01:45:04.999Z</time>
</trkpt>
<trkpt lat="-27.4007481" lon="152.9360353">
<ele>81.462</ele>
<time>2017-05-23T01:45:08.999Z</time>
</trkpt>
<trkpt lat="-27.4007481" lon="152.9360353">
<ele>81.073</ele>
<time>2017-05-23T01:45:49.474Z</time>
</trkpt>
<trkpt lat="-27.4008495" lon="152.9361450">
<ele>81.047</ele>
<time>2017-05-23T01:45:52.868Z</time>
</trkpt>
<trkpt lat="-27.4010268" lon="152.9363263">
<ele>80.996</ele>
<time>2017-05-23T01:45:55.295Z</time>
</trkpt>
<trkpt lat="-27.4012149" lon="152.9365431">
<ele>80.568</ele>
<time>2017-05-23T01:45:57.372Z</time>
</trkpt>
<trkpt lat="-27.4013949" lon="152.9368030">
<ele>80.175</ele>
<time>2017-05-23T01:45:59.382Z</time>
</trkpt>
<trkpt lat="-27.4016373" lon="152.9370257">
<ele>80.341</ele>
<time>2017-05-23T01:46:01.439Z</time>
</trkpt>
<trkpt lat="-27.4018589" lon="152.9372563">
<ele>80.965</ele>
<time>2017-05-23T01:46:03.406Z</time>
</trkpt>
<trkpt lat="-27.4020908" lon="152.9374750">
<ele>81.666</ele>
<time>2017-05-23T01:46:05.363Z</time>
</trkpt>
<trkpt lat="-27.4024823" lon="152.9377569">
<ele>82.219</ele>
<time>2017-05-23T01:46:08.342Z</time>
</trkpt>
<trkpt lat="-27.4028445" lon="152.9380870">
<ele>82.566</ele>
<time>2017-05-23T01:46:11.297Z</time>
</trkpt>
<trkpt lat="-27.4031119" lon="152.9382837">
<ele>82.673</ele>
<time>2017-05-23T01:46:13.299Z</time>
</trkpt>
<trkpt lat="-27.4033235" lon="152.9385661">
<ele>82.503</ele>
<time>2017-05-23T01:46:15.351Z</time>
</trkpt>
<trkpt lat="-27.4036878" lon="152.9389106">
<ele>82.071</ele>
<time>2017-05-23T01:46:18.354Z</time>
</trkpt>
<trkpt lat="-27.4040468" lon="152.9392354">
<ele>81.488</ele>
<time>2017-05-23T01:46:21.313Z</time>
</trkpt>
<trkpt lat="-27.4044188" lon="152.9395524">
<ele>80.931</ele>
<time>2017-05-23T01:46:24.373Z</time>
</trkpt>
<trkpt lat="-27.4048122" lon="152.9397637">
<ele>80.546</ele>
<time>2017-05-23T01:46:27.300Z</time>
</trkpt>
<trkpt lat="-27.4052248" lon="152.9399223">
<ele>80.314</ele>
<time>2017-05-23T01:46:30.319Z</time>
</trkpt>
<trkpt lat="-27.4055930" lon="152.9401125">
<ele>80.093</ele>
<time>2017-05-23T01:46:33.284Z</time>
</trkpt>
<trkpt lat="-27.4058143" lon="152.9402192">
<ele>79.721</ele>
<time>2017-05-23T01:46:35.264Z</time>
</trkpt>
<trkpt lat="-27.4060064" lon="152.9402584">
<ele>79.150</ele>
<time>2017-05-23T01:46:37.161Z</time>
</trkpt>
<trkpt lat="-27.4062327" lon="152.9403301">
<ele>78.488</ele>
<time>2017-05-23T01:46:39.826Z</time>
</trkpt>
<trkpt lat="-27.4063363" lon="152.9401959">
<ele>77.849</ele>
<time>2017-05-23T01:46:41.912Z</time>
</trkpt>
<trkpt lat="-27.4063434" lon="152.9398846">
<ele>77.317</ele>
<time>2017-05-23T01:46:45.263Z</time>
</trkpt>
<trkpt lat="-27.4063590" lon="152.9396674">
<ele>77.003</ele>
<time>2017-05-23T01:46:47.187Z</time>
</trkpt>
<trkpt lat="-27.4064069" lon="152.9392796">
<ele>76.939</ele>
<time>2017-05-23T01:46:50.194Z</time>
</trkpt>
<trkpt lat="-27.4065277" lon="152.9387570">
<ele>77.164</ele>
<time>2017-05-23T01:46:53.698Z</time>
</trkpt>
<trkpt lat="-27.4065275" lon="152.9382686">
<ele>77.889</ele>
<time>2017-05-23T01:46:56.675Z</time>
</trkpt>
<trkpt lat="-27.4064170" lon="152.9379511">
<ele>79.260</ele>
<time>2017-05-23T01:46:58.781Z</time>
</trkpt>
<trkpt lat="-27.4063462" lon="152.9376491">
<ele>80.950</ele>
<time>2017-05-23T01:47:00.798Z</time>
</trkpt>
<trkpt lat="-27.4062233" lon="152.9372230">
<ele>82.289</ele>
<time>2017-05-23T01:47:03.772Z</time>
</trkpt>
<trkpt lat="-27.4061450" lon="152.9369482">
<ele>82.850</ele>
<time>2017-05-23T01:47:05.685Z</time>
</trkpt>
<trkpt lat="-27.4060236" lon="152.9365160">
<ele>82.701</ele>
<time>2017-05-23T01:47:08.639Z</time>
</trkpt>
<trkpt lat="-27.4059236" lon="152.9360714">
<ele>82.234</ele>
<time>2017-05-23T01:47:11.639Z</time>
</trkpt>
<trkpt lat="-27.4058682" lon="152.9356423">
<ele>81.876</ele>
<time>2017-05-23T01:47:14.543Z</time>
</trkpt>
<trkpt lat="-27.4057924" lon="152.9353594">
<ele>81.786</ele>
<time>2017-05-23T01:47:16.538Z</time>
</trkpt>
<trkpt lat="-27.4057773" lon="152.9349216">
<ele>81.849</ele>
<time>2017-05-23T01:47:19.536Z</time>
</trkpt>
<trkpt lat="-27.4057133" lon="152.9346588">
<ele>81.878</ele>
<time>2017-05-23T01:47:21.506Z</time>
</trkpt>
<trkpt lat="-27.4056620" lon="152.9344031">
<ele>81.756</ele>
<time>2017-05-23T01:47:23.451Z</time>
</trkpt>
<trkpt lat="-27.4056382" lon="152.9341385">
<ele>81.512</ele>
<time>2017-05-23T01:47:25.430Z</time>
</trkpt>
<trkpt lat="-27.4056087" lon="152.9338727">
<ele>81.265</ele>
<time>2017-05-23T01:47:27.425Z</time>
</trkpt>
<trkpt lat="-27.4055597" lon="152.9334942">
<ele>81.098</ele>
<time>2017-05-23T01:47:30.298Z</time>
</trkpt>
<trkpt lat="-27.4055342" lon="152.9332372">
<ele>81.054</ele>
<time>2017-05-23T01:47:32.260Z</time>
</trkpt>
<trkpt lat="-27.4055134" lon="152.9329770">
<ele>81.159</ele>
<time>2017-05-23T01:47:34.228Z</time>
</trkpt>
<trkpt lat="-27.4055003" lon="152.9327086">
<ele>81.390</ele>
<time>2017-05-23T01:47:36.278Z</time>
</trkpt>
<trkpt lat="-27.4054086" lon="152.9323546">
<ele>81.715</ele>
<time>2017-05-23T01:47:39.186Z</time>
</trkpt>
<trkpt lat="-27.4053767" lon="152.9321238">
<ele>82.238</ele>
<time>2017-05-23T01:47:41.112Z</time>
</trkpt>
<trkpt lat="-27.4053558" lon="152.9317607">
<ele>83.112</ele>
<time>2017-05-23T01:47:44.107Z</time>
</trkpt>
<trkpt lat="-27.4053210" lon="152.9315096">
<ele>84.386</ele>
<time>2017-05-23T01:47:46.124Z</time>
</trkpt>
<trkpt lat="-27.4052710" lon="152.9312499">
<ele>85.912</ele>
<time>2017-05-23T01:47:48.175Z</time>
</trkpt>
<trkpt lat="-27.4052669" lon="152.9309893">
<ele>87.330</ele>
<time>2017-05-23T01:47:50.208Z</time>
</trkpt>
<trkpt lat="-27.4052042" lon="152.9306286">
<ele>88.305</ele>
<time>2017-05-23T01:47:53.111Z</time>
</trkpt>
<trkpt lat="-27.4051715" lon="152.9303712">
<ele>88.804</ele>
<time>2017-05-23T01:47:55.110Z</time>
</trkpt>
<trkpt lat="-27.4051254" lon="152.9301026">
<ele>88.986</ele>
<time>2017-05-23T01:47:57.138Z</time>
</trkpt>
<trkpt lat="-27.4050593" lon="152.9298341">
<ele>89.025</ele>
<time>2017-05-23T01:47:59.157Z</time>
</trkpt>
<trkpt lat="-27.4050396" lon="152.9295624">
<ele>89.022</ele>
<time>2017-05-23T01:48:01.101Z</time>
</trkpt>
<trkpt lat="-27.4050075" lon="152.9291486">
<ele>88.952</ele>
<time>2017-05-23T01:48:03.971Z</time>
</trkpt>
<trkpt lat="-27.4049254" lon="152.9286789">
<ele>88.790</ele>
<time>2017-05-23T01:48:07.066Z</time>
</trkpt>
<trkpt lat="-27.4048683" lon="152.9282123">
<ele>88.692</ele>
<time>2017-05-23T01:48:10.004Z</time>
</trkpt>
<trkpt lat="-27.4047770" lon="152.9277492">
<ele>88.998</ele>
<time>2017-05-23T01:48:12.980Z</time>
</trkpt>
<trkpt lat="-27.4047397" lon="152.9274412">
<ele>89.872</ele>
<time>2017-05-23T01:48:14.963Z</time>
</trkpt>
<trkpt lat="-27.4047264" lon="152.9271418">
<ele>90.970</ele>
<time>2017-05-23T01:48:16.920Z</time>
</trkpt>
<trkpt lat="-27.4046688" lon="152.9267079">
<ele>91.780</ele>
<time>2017-05-23T01:48:19.865Z</time>
</trkpt>
<trkpt lat="-27.4046154" lon="152.9262984">
<ele>92.196</ele>
<time>2017-05-23T01:48:22.763Z</time>
</trkpt>
<trkpt lat="-27.4045681" lon="152.9258891">
<ele>92.642</ele>
<time>2017-05-23T01:48:25.967Z</time>
</trkpt>
<trkpt lat="-27.4045553" lon="152.9256392">
<ele>93.545</ele>
<time>2017-05-23T01:48:28.357Z</time>
</trkpt>
<trkpt lat="-27.4046821" lon="152.9256064">
<ele>94.669</ele>
<time>2017-05-23T01:48:30.210Z</time>
</trkpt>
<trkpt lat="-27.4048394" lon="152.9256131">
<ele>95.483</ele>
<time>2017-05-23T01:48:32.497Z</time>
</trkpt>
<trkpt lat="-27.4049623" lon="152.9256052">
<ele>95.882</ele>
<time>2017-05-23T01:48:34.391Z</time>
</trkpt>
<trkpt lat="-27.4050505" lon="152.9255858">
<ele>96.039</ele>
<time>2017-05-23T01:48:35.999Z</time>
</trkpt>
<trkpt lat="-27.4050505" lon="152.9255858">
<ele>96.060</ele>
<time>2017-05-23T01:48:40.999Z</time>
</trkpt>
<trkpt lat="-27.4050505" lon="152.9255858">
<ele>96.008</ele>
<time>2017-05-23T01:48:56.735Z</time>
</trkpt>
<trkpt lat="-27.4052900" lon="152.9255331">
<ele>95.954</ele>
<time>2017-05-23T01:49:02.364Z</time>
</trkpt>
<trkpt lat="-27.4055024" lon="152.9254854">
<ele>95.968</ele>
<time>2017-05-23T01:49:04.358Z</time>
</trkpt>
<trkpt lat="-27.4058854" lon="152.9254038">
<ele>96.142</ele>
<time>2017-05-23T01:49:07.391Z</time>
</trkpt>
<trkpt lat="-27.4061634" lon="152.9253748">
<ele>96.456</ele>
<time>2017-05-23T01:49:09.300Z</time>
</trkpt>
<trkpt lat="-27.4065858" lon="152.9252078">
<ele>96.735</ele>
<time>2017-05-23T01:49:12.237Z</time>
</trkpt>
<trkpt lat="-27.4068644" lon="152.9250815">
<ele>96.719</ele>
<time>2017-05-23T01:49:14.150Z</time>
</trkpt>
<trkpt lat="-27.4072378" lon="152.9247839">
<ele>96.228</ele>
<time>2017-05-23T01:49:17.052Z</time>
</trkpt>
<trkpt lat="-27.4074529" lon="152.9245407">
<ele>95.286</ele>
<time>2017-05-23T01:49:18.979Z</time>
</trkpt>
<trkpt lat="-27.4077285" lon="152.9241239">
<ele>94.142</ele>
<time>2017-05-23T01:49:21.879Z</time>
</trkpt>
<trkpt lat="-27.4079507" lon="152.9238905">
<ele>93.191</ele>
<time>2017-05-23T01:49:23.778Z</time>
</trkpt>
<trkpt lat="-27.4081403" lon="152.9236177">
<ele>92.800</ele>
<time>2017-05-23T01:49:25.699Z</time>
</trkpt>
<trkpt lat="-27.4083362" lon="152.9233361">
<ele>93.142</ele>
<time>2017-05-23T01:49:27.684Z</time>
</trkpt>
<trkpt lat="-27.4086168" lon="152.9229472">
<ele>94.193</ele>
<time>2017-05-23T01:49:30.455Z</time>
</trkpt>
<trkpt lat="-27.4088027" lon="152.9226651">
<ele>95.941</ele>
<time>2017-05-23T01:49:32.364Z</time>
</trkpt>
<trkpt lat="-27.4089747" lon="152.9223609">
<ele>98.334</ele>
<time>2017-05-23T01:49:34.299Z</time>
</trkpt>
<trkpt lat="-27.4091401" lon="152.9218860">
<ele>101.027</ele>
<time>2017-05-23T01:49:37.060Z</time>
</trkpt>
<trkpt lat="-27.4093264" lon="152.9214599">
<ele>103.716</ele>
<time>2017-05-23T01:49:39.768Z</time>
</trkpt>
<trkpt lat="-27.4093894" lon="152.9209644">
<ele>106.378</ele>
<time>2017-05-23T01:49:42.691Z</time>
</trkpt>
<trkpt lat="-27.4095166" lon="152.9206538">
<ele>108.914</ele>
<time>2017-05-23T01:49:44.638Z</time>
</trkpt>
<trkpt lat="-27.4096482" lon="152.9203201">
<ele>111.133</ele>
<time>2017-05-23T01:49:46.652Z</time>
</trkpt>
<trkpt lat="-27.4098247" lon="152.9198433">
<ele>112.926</ele>
<time>2017-05-23T01:49:49.467Z</time>
</trkpt>
<trkpt lat="-27.4100520" lon="152.9196027">
<ele>114.366</ele>
<time>2017-05-23T01:49:51.380Z</time>
</trkpt>
<trkpt lat="-27.4103934" lon="152.9192217">
<ele>115.693</ele>
<time>2017-05-23T01:49:54.288Z</time>
</trkpt>
<trkpt lat="-27.4106104" lon="152.9189512">
<ele>117.095</ele>
<time>2017-05-23T01:49:56.221Z</time>
</trkpt>
<trkpt lat="-27.4110193" lon="152.9186639">
<ele>118.497</ele>
<time>2017-05-23T01:49:59.075Z</time>
</trkpt>
<trkpt lat="-27.4114253" lon="152.9183803">
<ele>119.612</ele>
<time>2017-05-23T01:50:01.901Z</time>
</trkpt>
<trkpt lat="-27.4116925" lon="152.9181957">
<ele>120.258</ele>
<time>2017-05-23T01:50:03.757Z</time>
</trkpt>
<trkpt lat="-27.4119553" lon="152.9180083">
<ele>120.538</ele>
<time>2017-05-23T01:50:05.609Z</time>
</trkpt>
<trkpt lat="-27.4123186" lon="152.9177267">
<ele>120.730</ele>
<time>2017-05-23T01:50:08.316Z</time>
</trkpt>
<trkpt lat="-27.4126333" lon="152.9175013">
<ele>121.225</ele>
<time>2017-05-23T01:50:10.748Z</time>
</trkpt>
<trkpt lat="-27.4125935" lon="152.9172272">
<ele>122.324</ele>
<time>2017-05-23T01:50:12.504Z</time>
</trkpt>
<trkpt lat="-27.4125468" lon="152.9169118">
<ele>123.915</ele>
<time>2017-05-23T01:50:14.661Z</time>
</trkpt>
<trkpt lat="-27.4126183" lon="152.9166169">
<ele>125.578</ele>
<time>2017-05-23T01:50:16.673Z</time>
</trkpt>
<trkpt lat="-27.4128962" lon="152.9163649">
<ele>126.919</ele>
<time>2017-05-23T01:50:19.251Z</time>
</trkpt>
<trkpt lat="-27.4132722" lon="152.9163697">
<ele>127.729</ele>
<time>2017-05-23T01:50:22.134Z</time>
</trkpt>
<trkpt lat="-27.4136492" lon="152.9165725">
<ele>127.901</ele>
<time>2017-05-23T01:50:25.443Z</time>
</trkpt>
<trkpt lat="-27.4139184" lon="152.9166641">
<ele>127.314</ele>
<time>2017-05-23T01:50:27.527Z</time>
</trkpt>
<trkpt lat="-27.4143732" lon="152.9166294">
<ele>125.964</ele>
<time>2017-05-23T01:50:30.655Z</time>
</trkpt>
<trkpt lat="-27.4146733" lon="152.9165597">
<ele>123.860</ele>
<time>2017-05-23T01:50:32.655Z</time>
</trkpt>
<trkpt lat="-27.4151388" lon="152.9164640">
<ele>121.076</ele>
<time>2017-05-23T01:50:35.615Z</time>
</trkpt>
<trkpt lat="-27.4154187" lon="152.9163715">
<ele>117.840</ele>
<time>2017-05-23T01:50:37.407Z</time>
</trkpt>
<trkpt lat="-27.4156749" lon="152.9161418">
<ele>114.469</ele>
<time>2017-05-23T01:50:39.436Z</time>
</trkpt>
<trkpt lat="-27.4159272" lon="152.9159354">
<ele>111.336</ele>
<time>2017-05-23T01:50:41.428Z</time>
</trkpt>
<trkpt lat="-27.4159194" lon="152.9156785">
<ele>108.628</ele>
<time>2017-05-23T01:50:43.015Z</time>
</trkpt>
<trkpt lat="-27.4158705" lon="152.9153559">
<ele>106.479</ele>
<time>2017-05-23T01:50:45.147Z</time>
</trkpt>
<trkpt lat="-27.4158744" lon="152.9148163">
<ele>105.355</ele>
<time>2017-05-23T01:50:49.022Z</time>
</trkpt>
<trkpt lat="-27.4159078" lon="152.9144220">
<ele>105.780</ele>
<time>2017-05-23T01:50:51.339Z</time>
</trkpt>
<trkpt lat="-27.4159146" lon="152.9138721">
<ele>107.777</ele>
<time>2017-05-23T01:50:54.265Z</time>
</trkpt>
<trkpt lat="-27.4158986" lon="152.9133384">
<ele>110.682</ele>
<time>2017-05-23T01:50:56.963Z</time>
</trkpt>
<trkpt lat="-27.4159231" lon="152.9129850">
<ele>113.557</ele>
<time>2017-05-23T01:50:58.812Z</time>
</trkpt>
<trkpt lat="-27.4159011" lon="152.9126456">
<ele>115.821</ele>
<time>2017-05-23T01:51:00.601Z</time>
</trkpt>
<trkpt lat="-27.4159357" lon="152.9121997">
<ele>117.333</ele>
<time>2017-05-23T01:51:03.012Z</time>
</trkpt>
<trkpt lat="-27.4158593" lon="152.9119720">
<ele>118.418</ele>
<time>2017-05-23T01:51:04.376Z</time>
</trkpt>
<trkpt lat="-27.4155616" lon="152.9117626">
<ele>119.452</ele>
<time>2017-05-23T01:51:06.746Z</time>
</trkpt>
<trkpt lat="-27.4153630" lon="152.9114731">
<ele>120.798</ele>
<time>2017-05-23T01:51:09.525Z</time>
</trkpt>
<trkpt lat="-27.4151498" lon="152.9111370">
<ele>122.433</ele>
<time>2017-05-23T01:51:12.844Z</time>
</trkpt>
<trkpt lat="-27.4147520" lon="152.9105798">
<ele>122.286</ele>
<time>2017-05-23T01:51:16.962Z</time>
</trkpt>
<trkpt lat="-27.4145034" lon="152.9101836">
<ele>117.701</ele>
<time>2017-05-23T01:51:19.085Z</time>
</trkpt>
<trkpt lat="-27.4141917" lon="152.9098993">
<ele>110.046</ele>
<time>2017-05-23T01:51:20.963Z</time>
</trkpt>
<trkpt lat="-27.4138942" lon="152.9096104">
<ele>103.719</ele>
<time>2017-05-23T01:51:22.724Z</time>
</trkpt>
<trkpt lat="-27.4134468" lon="152.9092847">
<ele>101.148</ele>
<time>2017-05-23T01:51:25.157Z</time>
</trkpt>
<trkpt lat="-27.4131460" lon="152.9091678">
<ele>102.042</ele>
<time>2017-05-23T01:51:26.693Z</time>
</trkpt>
<trkpt lat="-27.4126243" lon="152.9092864">
<ele>105.125</ele>
<time>2017-05-23T01:51:29.417Z</time>
</trkpt>
<trkpt lat="-27.4123060" lon="152.9093536">
<ele>109.360</ele>
<time>2017-05-23T01:51:31.228Z</time>
</trkpt>
<trkpt lat="-27.4118935" lon="152.9097327">
<ele>114.331</ele>
<time>2017-05-23T01:51:34.290Z</time>
</trkpt>
<trkpt lat="-27.4115592" lon="152.9099501">
<ele>120.022</ele>
<time>2017-05-23T01:51:36.495Z</time>
</trkpt>
<trkpt lat="-27.4109845" lon="152.9101288">
<ele>126.244</ele>
<time>2017-05-23T01:51:39.751Z</time>
</trkpt>
<trkpt lat="-27.4103909" lon="152.9101363">
<ele>132.624</ele>
<time>2017-05-23T01:51:42.727Z</time>
</trkpt>
<trkpt lat="-27.4100264" lon="152.9101439">
<ele>139.026</ele>
<time>2017-05-23T01:51:44.505Z</time>
</trkpt>
<trkpt lat="-27.4095440" lon="152.9101144">
<ele>145.283</ele>
<time>2017-05-23T01:51:46.830Z</time>
</trkpt>
<trkpt lat="-27.4092427" lon="152.9100938">
<ele>151.219</ele>
<time>2017-05-23T01:51:48.328Z</time>
</trkpt>
<trkpt lat="-27.4089420" lon="152.9100049">
<ele>156.989</ele>
<time>2017-05-23T01:51:49.959Z</time>
</trkpt>
<trkpt lat="-27.4087073" lon="152.9097619">
<ele>161.820</ele>
<time>2017-05-23T01:51:51.697Z</time>
</trkpt>
<trkpt lat="-27.4084746" lon="152.9093260">
<ele>164.493</ele>
<time>2017-05-23T01:51:54.395Z</time>
</trkpt>
<trkpt lat="-27.4083945" lon="152.9089863">
<ele>164.982</ele>
<time>2017-05-23T01:51:56.340Z</time>
</trkpt>
<trkpt lat="-27.4083151" lon="152.9084194">
<ele>164.122</ele>
<time>2017-05-23T01:51:59.514Z</time>
</trkpt>
<trkpt lat="-27.4083002" lon="152.9078559">
<ele>162.637</ele>
<time>2017-05-23T01:52:02.697Z</time>
</trkpt>
<trkpt lat="-27.4082417" lon="152.9075017">
<ele>160.678</ele>
<time>2017-05-23T01:52:04.707Z</time>
</trkpt>
<trkpt lat="-27.4080387" lon="152.9069401">
<ele>158.514</ele>
<time>2017-05-23T01:52:07.966Z</time>
</trkpt>
<trkpt lat="-27.4077384" lon="152.9063436">
<ele>158.203</ele>
<time>2017-05-23T01:52:11.421Z</time>
</trkpt>
<trkpt lat="-27.4074941" lon="152.9059498">
<ele>161.314</ele>
<time>2017-05-23T01:52:13.696Z</time>
</trkpt>
<trkpt lat="-27.4071993" lon="152.9053917">
<ele>165.836</ele>
<time>2017-05-23T01:52:16.532Z</time>
</trkpt>
<trkpt lat="-27.4069420" lon="152.9051829">
<ele>168.648</ele>
<time>2017-05-23T01:52:18.022Z</time>
</trkpt>
<trkpt lat="-27.4066535" lon="152.9049633">
<ele>168.946</ele>
<time>2017-05-23T01:52:19.647Z</time>
</trkpt>
<trkpt lat="-27.4065823" lon="152.9048201">
<ele>167.307</ele>
<time>2017-05-23T01:52:20.336Z</time>
</trkpt>
<trkpt lat="-27.4066574" lon="152.9045590">
<ele>164.827</ele>
<time>2017-05-23T01:52:21.488Z</time>
</trkpt>
<trkpt lat="-27.4068884" lon="152.9042396">
<ele>162.780</ele>
<time>2017-05-23T01:52:23.352Z</time>
</trkpt>
<trkpt lat="-27.4072618" lon="152.9036829">
<ele>161.538</ele>
<time>2017-05-23T01:52:27.248Z</time>
</trkpt>
<trkpt lat="-27.4075571" lon="152.9032715">
<ele>159.957</ele>
<time>2017-05-23T01:52:32.387Z</time>
</trkpt>
<trkpt lat="-27.4078623" lon="152.9028196">
<ele>157.515</ele>
<time>2017-05-23T01:52:37.263Z</time>
</trkpt>
<trkpt lat="-27.4078237" lon="152.9025064">
<ele>155.402</ele>
<time>2017-05-23T01:52:39.854Z</time>
</trkpt>
<trkpt lat="-27.4076850" lon="152.9021487">
<ele>154.851</ele>
<time>2017-05-23T01:52:43.052Z</time>
</trkpt>
<trkpt lat="-27.4075633" lon="152.9018262">
<ele>156.060</ele>
<time>2017-05-23T01:52:45.924Z</time>
</trkpt>
<trkpt lat="-27.4075472" lon="152.9015830">
<ele>158.283</ele>
<time>2017-05-23T01:52:47.922Z</time>
</trkpt>
<trkpt lat="-27.4078236" lon="152.9012749">
<ele>159.791</ele>
<time>2017-05-23T01:52:51.512Z</time>
</trkpt>
<trkpt lat="-27.4080970" lon="152.9009808">
<ele>159.556</ele>
<time>2017-05-23T01:52:55.002Z</time>
</trkpt>
<trkpt lat="-27.4083686" lon="152.9004993">
<ele>158.313</ele>
<time>2017-05-23T01:52:59.676Z</time>
</trkpt>
<trkpt lat="-27.4085580" lon="152.9001307">
<ele>157.532</ele>
<time>2017-05-23T01:53:03.167Z</time>
</trkpt>
<trkpt lat="-27.4088077" lon="152.8996148">
<ele>158.013</ele>
<time>2017-05-23T01:53:07.527Z</time>
</trkpt>
<trkpt lat="-27.4091803" lon="152.8992359">
<ele>159.587</ele>
<time>2017-05-23T01:53:10.512Z</time>
</trkpt>
<trkpt lat="-27.4094042" lon="152.8989487">
<ele>161.854</ele>
<time>2017-05-23T01:53:12.432Z</time>
</trkpt>
<trkpt lat="-27.4096590" lon="152.8985080">
<ele>164.359</ele>
<time>2017-05-23T01:53:15.033Z</time>
</trkpt>
<trkpt lat="-27.4098942" lon="152.8979878">
<ele>166.591</ele>
<time>2017-05-23T01:53:17.889Z</time>
</trkpt>
<trkpt lat="-27.4101149" lon="152.8974384">
<ele>168.223</ele>
<time>2017-05-23T01:53:20.883Z</time>
</trkpt>
<trkpt lat="-27.4102347" lon="152.8970770">
<ele>169.037</ele>
<time>2017-05-23T01:53:22.835Z</time>
</trkpt>
<trkpt lat="-27.4104510" lon="152.8965613">
<ele>169.063</ele>
<time>2017-05-23T01:53:25.812Z</time>
</trkpt>
<trkpt lat="-27.4106865" lon="152.8960913">
<ele>168.732</ele>
<time>2017-05-23T01:53:28.800Z</time>
</trkpt>
<trkpt lat="-27.4108382" lon="152.8955718">
<ele>168.483</ele>
<time>2017-05-23T01:53:32.174Z</time>
</trkpt>
<trkpt lat="-27.4107990" lon="152.8952692">
<ele>168.642</ele>
<time>2017-05-23T01:53:34.281Z</time>
</trkpt>
<trkpt lat="-27.4106329" lon="152.8950077">
<ele>169.327</ele>
<time>2017-05-23T01:53:36.443Z</time>
</trkpt>
<trkpt lat="-27.4105107" lon="152.8946499">
<ele>170.386</ele>
<time>2017-05-23T01:53:38.644Z</time>
</trkpt>
<trkpt lat="-27.4106474" lon="152.8943493">
<ele>171.679</ele>
<time>2017-05-23T01:53:40.459Z</time>
</trkpt>
<trkpt lat="-27.4108514" lon="152.8938273">
<ele>173.236</ele>
<time>2017-05-23T01:53:43.407Z</time>
</trkpt>
<trkpt lat="-27.4109616" lon="152.8934599">
<ele>175.188</ele>
<time>2017-05-23T01:53:45.457Z</time>
</trkpt>
<trkpt lat="-27.4110900" lon="152.8929973">
<ele>177.556</ele>
<time>2017-05-23T01:53:47.922Z</time>
</trkpt>
<trkpt lat="-27.4111507" lon="152.8926187">
<ele>180.175</ele>
<time>2017-05-23T01:53:49.774Z</time>
</trkpt>
<trkpt lat="-27.4112741" lon="152.8919572">
<ele>182.732</ele>
<time>2017-05-23T01:53:53.168Z</time>
</trkpt>
<trkpt lat="-27.4112334" lon="152.8916194">
<ele>184.850</ele>
<time>2017-05-23T01:53:54.923Z</time>
</trkpt>
<trkpt lat="-27.4111039" lon="152.8912921">
<ele>186.312</ele>
<time>2017-05-23T01:53:56.720Z</time>
</trkpt>
<trkpt lat="-27.4108054" lon="152.8907618">
<ele>187.348</ele>
<time>2017-05-23T01:54:00.032Z</time>
</trkpt>
<trkpt lat="-27.4106685" lon="152.8903092">
<ele>188.476</ele>
<time>2017-05-23T01:54:03.819Z</time>
</trkpt>
<trkpt lat="-27.4105436" lon="152.8900828">
<ele>190.121</ele>
<time>2017-05-23T01:54:06.078Z</time>
</trkpt>
<trkpt lat="-27.4103233" lon="152.8900641">
<ele>192.454</ele>
<time>2017-05-23T01:54:07.941Z</time>
</trkpt>
<trkpt lat="-27.4100618" lon="152.8900954">
<ele>195.345</ele>
<time>2017-05-23T01:54:10.054Z</time>
</trkpt>
<trkpt lat="-27.4096897" lon="152.8900740">
<ele>198.286</ele>
<time>2017-05-23T01:54:12.839Z</time>
</trkpt>
<trkpt lat="-27.4093940" lon="152.8900244">
<ele>200.532</ele>
<time>2017-05-23T01:54:14.968Z</time>
</trkpt>
<trkpt lat="-27.4091269" lon="152.8900387">
<ele>201.512</ele>
<time>2017-05-23T01:54:16.837Z</time>
</trkpt>
<trkpt lat="-27.4087254" lon="152.8902089">
<ele>201.010</ele>
<time>2017-05-23T01:54:19.667Z</time>
</trkpt>
<trkpt lat="-27.4084279" lon="152.8902165">
<ele>199.353</ele>
<time>2017-05-23T01:54:21.594Z</time>
</trkpt>
<trkpt lat="-27.4081476" lon="152.8902432">
<ele>197.486</ele>
<time>2017-05-23T01:54:23.475Z</time>
</trkpt>
<trkpt lat="-27.4078000" lon="152.8904494">
<ele>196.571</ele>
<time>2017-05-23T01:54:26.170Z</time>
</trkpt>
<trkpt lat="-27.4075084" lon="152.8908283">
<ele>196.988</ele>
<time>2017-05-23T01:54:29.187Z</time>
</trkpt>
<trkpt lat="-27.4073601" lon="152.8912716">
<ele>198.035</ele>
<time>2017-05-23T01:54:32.030Z</time>
</trkpt>
<trkpt lat="-27.4072095" lon="152.8917116">
<ele>198.680</ele>
<time>2017-05-23T01:54:34.884Z</time>
</trkpt>
<trkpt lat="-27.4069495" lon="152.8919119">
<ele>198.346</ele>
<time>2017-05-23T01:54:36.847Z</time>
</trkpt>
<trkpt lat="-27.4065888" lon="152.8920279">
<ele>197.103</ele>
<time>2017-05-23T01:54:39.000Z</time>
</trkpt>
<trkpt lat="-27.4061122" lon="152.8922914">
<ele>195.383</ele>
<time>2017-05-23T01:54:42.156Z</time>
</trkpt>
<trkpt lat="-27.4057666" lon="152.8926086">
<ele>193.430</ele>
<time>2017-05-23T01:54:45.087Z</time>
</trkpt>
<trkpt lat="-27.4056383" lon="152.8928794">
<ele>191.581</ele>
<time>2017-05-23T01:54:46.962Z</time>
</trkpt>
<trkpt lat="-27.4056408" lon="152.8933613">
<ele>190.466</ele>
<time>2017-05-23T01:54:49.803Z</time>
</trkpt>
<trkpt lat="-27.4055492" lon="152.8936835">
<ele>190.249</ele>
<time>2017-05-23T01:54:51.626Z</time>
</trkpt>
<trkpt lat="-27.4053558" lon="152.8941098">
<ele>190.474</ele>
<time>2017-05-23T01:54:54.019Z</time>
</trkpt>
<trkpt lat="-27.4052343" lon="152.8944401">
<ele>190.439</ele>
<time>2017-05-23T01:54:55.759Z</time>
</trkpt>
<trkpt lat="-27.4050806" lon="152.8947809">
<ele>189.444</ele>
<time>2017-05-23T01:54:57.654Z</time>
</trkpt>
<trkpt lat="-27.4050272" lon="152.8951571">
<ele>187.266</ele>
<time>2017-05-23T01:54:59.604Z</time>
</trkpt>
<trkpt lat="-27.4049225" lon="152.8955165">
<ele>183.903</ele>
<time>2017-05-23T01:55:01.609Z</time>
</trkpt>
<trkpt lat="-27.4048283" lon="152.8960155">
<ele>179.459</ele>
<time>2017-05-23T01:55:04.376Z</time>
</trkpt>
<trkpt lat="-27.4046966" lon="152.8965184">
<ele>174.402</ele>
<time>2017-05-23T01:55:07.317Z</time>
</trkpt>
<trkpt lat="-27.4046583" lon="152.8968385">
<ele>169.272</ele>
<time>2017-05-23T01:55:09.296Z</time>
</trkpt>
<trkpt lat="-27.4046017" lon="152.8972343">
<ele>164.687</ele>
<time>2017-05-23T01:55:11.954Z</time>
</trkpt>
<trkpt lat="-27.4045721" lon="152.8974743">
<ele>161.071</ele>
<time>2017-05-23T01:55:13.736Z</time>
</trkpt>
<trkpt lat="-27.4045496" lon="152.8977170">
<ele>158.205</ele>
<time>2017-05-23T01:55:15.561Z</time>
</trkpt>
<trkpt lat="-27.4042764" lon="152.8980258">
<ele>155.787</ele>
<time>2017-05-23T01:55:18.606Z</time>
</trkpt>
<trkpt lat="-27.4038825" lon="152.8982754">
<ele>153.541</ele>
<time>2017-05-23T01:55:21.724Z</time>
</trkpt>
<trkpt lat="-27.4035436" lon="152.8985827">
<ele>150.935</ele>
<time>2017-05-23T01:55:24.582Z</time>
</trkpt>
<trkpt lat="-27.4032927" lon="152.8987169">
<ele>147.411</ele>
<time>2017-05-23T01:55:26.520Z</time>
</trkpt>
<trkpt lat="-27.4030481" lon="152.8989475">
<ele>142.966</ele>
<time>2017-05-23T01:55:29.084Z</time>
</trkpt>
<trkpt lat="-27.4028944" lon="152.8989130">
<ele>138.075</ele>
<time>2017-05-23T01:55:30.806Z</time>
</trkpt>
<trkpt lat="-27.4026510" lon="152.8987025">
<ele>133.231</ele>
<time>2017-05-23T01:55:34.224Z</time>
</trkpt>
<trkpt lat="-27.4024921" lon="152.8985380">
<ele>128.698</ele>
<time>2017-05-23T01:55:36.410Z</time>
</trkpt>
<trkpt lat="-27.4022741" lon="152.8984989">
<ele>124.477</ele>
<time>2017-05-23T01:55:38.999Z</time>
</trkpt>
<trkpt lat="-27.4022741" lon="152.8984989">
<ele>120.976</ele>
<time>2017-05-23T01:55:42.999Z</time>
</trkpt>
<trkpt lat="-27.4022741" lon="152.8984989">
<ele>119.250</ele>
<time>2017-05-23T01:55:43.099Z</time>
</trkpt>
<trkpt lat="-27.4019628" lon="152.8983224">
<ele>119.375</ele>
<time>2017-05-23T01:55:49.097Z</time>
</trkpt>
<trkpt lat="-27.4017736" lon="152.8980608">
<ele>118.652</ele>
<time>2017-05-23T01:55:51.348Z</time>
</trkpt>
<trkpt lat="-27.4012800" lon="152.8979469">
<ele>115.225</ele>
<time>2017-05-23T01:55:54.778Z</time>
</trkpt>
<trkpt lat="-27.4010072" lon="152.8978676">
<ele>111.381</ele>
<time>2017-05-23T01:55:56.607Z</time>
</trkpt>
<trkpt lat="-27.4006848" lon="152.8978281">
<ele>109.626</ele>
<time>2017-05-23T01:55:58.700Z</time>
</trkpt>
<trkpt lat="-27.4002317" lon="152.8977423">
<ele>109.542</ele>
<time>2017-05-23T01:56:01.670Z</time>
</trkpt>
<trkpt lat="-27.3997804" lon="152.8976286">
<ele>109.957</ele>
<time>2017-05-23T01:56:04.656Z</time>
</trkpt>
<trkpt lat="-27.3993157" lon="152.8975624">
<ele>110.047</ele>
<time>2017-05-23T01:56:07.671Z</time>
</trkpt>
<trkpt lat="-27.3990079" lon="152.8975070">
<ele>109.616</ele>
<time>2017-05-23T01:56:09.678Z</time>
</trkpt>
<trkpt lat="-27.3987083" lon="152.8974199">
<ele>108.933</ele>
<time>2017-05-23T01:56:11.672Z</time>
</trkpt>
<trkpt lat="-27.3983980" lon="152.8973720">
<ele>108.282</ele>
<time>2017-05-23T01:56:13.689Z</time>
</trkpt>
<trkpt lat="-27.3979458" lon="152.8972841">
<ele>107.725</ele>
<time>2017-05-23T01:56:16.662Z</time>
</trkpt>
<trkpt lat="-27.3976476" lon="152.8971948">
<ele>107.139</ele>
<time>2017-05-23T01:56:18.699Z</time>
</trkpt>
<trkpt lat="-27.3973000" lon="152.8969307">
<ele>106.450</ele>
<time>2017-05-23T01:56:21.488Z</time>
</trkpt>
<trkpt lat="-27.3971750" lon="152.8966007">
<ele>105.783</ele>
<time>2017-05-23T01:56:23.583Z</time>
</trkpt>
<trkpt lat="-27.3970890" lon="152.8962260">
<ele>105.271</ele>
<time>2017-05-23T01:56:25.819Z</time>
</trkpt>
<trkpt lat="-27.3971705" lon="152.8956819">
<ele>104.865</ele>
<time>2017-05-23T01:56:28.940Z</time>
</trkpt>
<trkpt lat="-27.3972930" lon="152.8953454">
<ele>104.426</ele>
<time>2017-05-23T01:56:30.998Z</time>
</trkpt>
<trkpt lat="-27.3973523" lon="152.8949982">
<ele>103.871</ele>
<time>2017-05-23T01:56:33.002Z</time>
</trkpt>
<trkpt lat="-27.3974925" lon="152.8944935">
<ele>103.228</ele>
<time>2017-05-23T01:56:36.029Z</time>
</trkpt>
<trkpt lat="-27.3974499" lon="152.8941358">
<ele>102.524</ele>
<time>2017-05-23T01:56:38.100Z</time>
</trkpt>
<trkpt lat="-27.3973160" lon="152.8935973">
<ele>101.849</ele>
<time>2017-05-23T01:56:41.302Z</time>
</trkpt>
<trkpt lat="-27.3972699" lon="152.8932467">
<ele>101.336</ele>
<time>2017-05-23T01:56:43.334Z</time>
</trkpt>
<trkpt lat="-27.3971633" lon="152.8929293">
<ele>100.947</ele>
<time>2017-05-23T01:56:45.279Z</time>
</trkpt>
<trkpt lat="-27.3971041" lon="152.8925973">
<ele>100.532</ele>
<time>2017-05-23T01:56:47.220Z</time>
</trkpt>
<trkpt lat="-27.3969886" lon="152.8920932">
<ele>100.045</ele>
<time>2017-05-23T01:56:50.216Z</time>
</trkpt>
<trkpt lat="-27.3968945" lon="152.8917681">
<ele>99.529</ele>
<time>2017-05-23T01:56:52.185Z</time>
</trkpt>
<trkpt lat="-27.3965738" lon="152.8913780">
<ele>99.068</ele>
<time>2017-05-23T01:56:55.239Z</time>
</trkpt>
<trkpt lat="-27.3961547" lon="152.8911400">
<ele>98.683</ele>
<time>2017-05-23T01:56:58.271Z</time>
</trkpt>
<trkpt lat="-27.3958492" lon="152.8910705">
<ele>98.307</ele>
<time>2017-05-23T01:57:00.286Z</time>
</trkpt>
<trkpt lat="-27.3953882" lon="152.8911357">
<ele>97.948</ele>
<time>2017-05-23T01:57:03.288Z</time>
</trkpt>
<trkpt lat="-27.3949646" lon="152.8913695">
<ele>97.661</ele>
<time>2017-05-23T01:57:06.326Z</time>
</trkpt>
<trkpt lat="-27.3945061" lon="152.8914896">
<ele>97.444</ele>
<time>2017-05-23T01:57:09.363Z</time>
</trkpt>
<trkpt lat="-27.3940554" lon="152.8916271">
<ele>97.339</ele>
<time>2017-05-23T01:57:12.520Z</time>
</trkpt>
<trkpt lat="-27.3937755" lon="152.8916592">
<ele>97.397</ele>
<time>2017-05-23T01:57:14.630Z</time>
</trkpt>
<trkpt lat="-27.3933854" lon="152.8915824">
<ele>97.551</ele>
<time>2017-05-23T01:57:18.635Z</time>
</trkpt>
<trkpt lat="-27.3930993" lon="152.8914868">
<ele>97.481</ele>
<time>2017-05-23T01:57:22.849Z</time>
</trkpt>
<trkpt lat="-27.3929697" lon="152.8913863">
<ele>96.685</ele>
<time>2017-05-23T01:57:24.417Z</time>
</trkpt>
<trkpt lat="-27.3930390" lon="152.8911587">
<ele>94.902</ele>
<time>2017-05-23T01:57:26.032Z</time>
</trkpt>
<trkpt lat="-27.3930919" lon="152.8908512">
<ele>92.684</ele>
<time>2017-05-23T01:57:27.905Z</time>
</trkpt>
<trkpt lat="-27.3930674" lon="152.8902429">
<ele>91.053</ele>
<time>2017-05-23T01:57:30.899Z</time>
</trkpt>
<trkpt lat="-27.3929846" lon="152.8898106">
<ele>90.677</ele>
<time>2017-05-23T01:57:32.919Z</time>
</trkpt>
<trkpt lat="-27.3929873" lon="152.8893853">
<ele>91.520</ele>
<time>2017-05-23T01:57:34.814Z</time>
</trkpt>
<trkpt lat="-27.3931130" lon="152.8887154">
<ele>93.063</ele>
<time>2017-05-23T01:57:37.833Z</time>
</trkpt>
<trkpt lat="-27.3931555" lon="152.8882641">
<ele>94.816</ele>
<time>2017-05-23T01:57:39.844Z</time>
</trkpt>
<trkpt lat="-27.3932630" lon="152.8876044">
<ele>96.469</ele>
<time>2017-05-23T01:57:42.836Z</time>
</trkpt>
<trkpt lat="-27.3933490" lon="152.8869500">
<ele>97.619</ele>
<time>2017-05-23T01:57:45.889Z</time>
</trkpt>
<trkpt lat="-27.3933534" lon="152.8865363">
<ele>98.086</ele>
<time>2017-05-23T01:57:47.843Z</time>
</trkpt>
<trkpt lat="-27.3931558" lon="152.8859561">
<ele>98.100</ele>
<time>2017-05-23T01:57:50.734Z</time>
</trkpt>
<trkpt lat="-27.3928940" lon="152.8856351">
<ele>98.017</ele>
<time>2017-05-23T01:57:52.711Z</time>
</trkpt>
<trkpt lat="-27.3924420" lon="152.8851976">
<ele>98.211</ele>
<time>2017-05-23T01:57:55.693Z</time>
</trkpt>
<trkpt lat="-27.3919837" lon="152.8847615">
<ele>99.232</ele>
<time>2017-05-23T01:57:58.643Z</time>
</trkpt>
<trkpt lat="-27.3914584" lon="152.8843889">
<ele>101.584</ele>
<time>2017-05-23T01:58:01.709Z</time>
</trkpt>
<trkpt lat="-27.3909798" lon="152.8839924">
<ele>104.925</ele>
<time>2017-05-23T01:58:04.706Z</time>
</trkpt>
<trkpt lat="-27.3906756" lon="152.8837061">
<ele>107.932</ele>
<time>2017-05-23T01:58:06.724Z</time>
</trkpt>
<trkpt lat="-27.3901698" lon="152.8833649">
<ele>109.485</ele>
<time>2017-05-23T01:58:09.785Z</time>
</trkpt>
<trkpt lat="-27.3897433" lon="152.8829498">
<ele>109.390</ele>
<time>2017-05-23T01:58:12.825Z</time>
</trkpt>
<trkpt lat="-27.3893344" lon="152.8825670">
<ele>107.949</ele>
<time>2017-05-23T01:58:16.153Z</time>
</trkpt>
<trkpt lat="-27.3890642" lon="152.8824187">
<ele>105.501</ele>
<time>2017-05-23T01:58:18.572Z</time>
</trkpt>
<trkpt lat="-27.3888329" lon="152.8821839">
<ele>102.427</ele>
<time>2017-05-23T01:58:22.080Z</time>
</trkpt>
<trkpt lat="-27.3888572" lon="152.8820559">
<ele>98.808</ele>
<time>2017-05-23T01:58:23.249Z</time>
</trkpt>
<trkpt lat="-27.3891315" lon="152.8817638">
<ele>94.685</ele>
<time>2017-05-23T01:58:25.912Z</time>
</trkpt>
<trkpt lat="-27.3893307" lon="152.8814960">
<ele>91.002</ele>
<time>2017-05-23T01:58:27.708Z</time>
</trkpt>
<trkpt lat="-27.3895714" lon="152.8812043">
<ele>89.041</ele>
<time>2017-05-23T01:58:29.559Z</time>
</trkpt>
<trkpt lat="-27.3901002" lon="152.8807092">
<ele>89.028</ele>
<time>2017-05-23T01:58:32.898Z</time>
</trkpt>
<trkpt lat="-27.3905156" lon="152.8801728">
<ele>90.681</ele>
<time>2017-05-23T01:58:35.943Z</time>
</trkpt>
<trkpt lat="-27.3907785" lon="152.8798394">
<ele>93.790</ele>
<time>2017-05-23T01:58:37.895Z</time>
</trkpt>
<trkpt lat="-27.3911295" lon="152.8793037">
<ele>97.514</ele>
<time>2017-05-23T01:58:40.869Z</time>
</trkpt>
<trkpt lat="-27.3913914" lon="152.8789906">
<ele>100.428</ele>
<time>2017-05-23T01:58:42.783Z</time>
</trkpt>
<trkpt lat="-27.3917229" lon="152.8784215">
<ele>101.633</ele>
<time>2017-05-23T01:58:45.762Z</time>
</trkpt>
<trkpt lat="-27.3919837" lon="152.8780616">
<ele>101.184</ele>
<time>2017-05-23T01:58:47.791Z</time>
</trkpt>
<trkpt lat="-27.3923654" lon="152.8775278">
<ele>99.916</ele>
<time>2017-05-23T01:58:50.893Z</time>
</trkpt>
<trkpt lat="-27.3927274" lon="152.8770197">
<ele>99.103</ele>
<time>2017-05-23T01:58:53.947Z</time>
</trkpt>
<trkpt lat="-27.3930550" lon="152.8765240">
<ele>99.636</ele>
<time>2017-05-23T01:58:56.799Z</time>
</trkpt>
<trkpt lat="-27.3934106" lon="152.8759961">
<ele>101.224</ele>
<time>2017-05-23T01:58:59.823Z</time>
</trkpt>
<trkpt lat="-27.3936325" lon="152.8756342">
<ele>102.782</ele>
<time>2017-05-23T01:59:01.863Z</time>
</trkpt>
<trkpt lat="-27.3939566" lon="152.8751185">
<ele>103.601</ele>
<time>2017-05-23T01:59:04.909Z</time>
</trkpt>
<trkpt lat="-27.3941809" lon="152.8748044">
<ele>103.767</ele>
<time>2017-05-23T01:59:06.877Z</time>
</trkpt>
<trkpt lat="-27.3945267" lon="152.8743406">
<ele>103.566</ele>
<time>2017-05-23T01:59:09.985Z</time>
</trkpt>
<trkpt lat="-27.3948528" lon="152.8739090">
<ele>102.927</ele>
<time>2017-05-23T01:59:13.413Z</time>
</trkpt>
<trkpt lat="-27.3950210" lon="152.8737030">
<ele>101.509</ele>
<time>2017-05-23T01:59:15.219Z</time>
</trkpt>
<trkpt lat="-27.3952412" lon="152.8733854">
<ele>99.388</ele>
<time>2017-05-23T01:59:17.589Z</time>
</trkpt>
<trkpt lat="-27.3954467" lon="152.8730856">
<ele>97.364</ele>
<time>2017-05-23T01:59:19.517Z</time>
</trkpt>
<trkpt lat="-27.3956889" lon="152.8727114">
<ele>96.305</ele>
<time>2017-05-23T01:59:21.748Z</time>
</trkpt>
<trkpt lat="-27.3960004" lon="152.8722131">
<ele>96.481</ele>
<time>2017-05-23T01:59:24.663Z</time>
</trkpt>
<trkpt lat="-27.3963430" lon="152.8717342">
<ele>97.616</ele>
<time>2017-05-23T01:59:27.592Z</time>
</trkpt>
<trkpt lat="-27.3966002" lon="152.8714179">
<ele>99.190</ele>
<time>2017-05-23T01:59:29.671Z</time>
</trkpt>
<trkpt lat="-27.3969122" lon="152.8709345">
<ele>100.661</ele>
<time>2017-05-23T01:59:33.027Z</time>
</trkpt>
<trkpt lat="-27.3970773" lon="152.8706665">
<ele>101.802</ele>
<time>2017-05-23T01:59:35.263Z</time>
</trkpt>
<trkpt lat="-27.3973194" lon="152.8704113">
<ele>102.695</ele>
<time>2017-05-23T01:59:39.084Z</time>
</trkpt>
<trkpt lat="-27.3973248" lon="152.8702829">
<ele>103.353</ele>
<time>2017-05-23T01:59:40.406Z</time>
</trkpt>
<trkpt lat="-27.3971512" lon="152.8701133">
<ele>103.687</ele>
<time>2017-05-23T01:59:42.553Z</time>
</trkpt>
<trkpt lat="-27.3969359" lon="152.8699475">
<ele>103.873</ele>
<time>2017-05-23T01:59:44.500Z</time>
</trkpt>
<trkpt lat="-27.3966576" lon="152.8697066">
<ele>104.389</ele>
<time>2017-05-23T01:59:46.799Z</time>
</trkpt>
<trkpt lat="-27.3962070" lon="152.8694222">
<ele>105.601</ele>
<time>2017-05-23T01:59:49.745Z</time>
</trkpt>
<trkpt lat="-27.3959291" lon="152.8691575">
<ele>107.657</ele>
<time>2017-05-23T01:59:51.718Z</time>
</trkpt>
<trkpt lat="-27.3956183" lon="152.8689300">
<ele>110.312</ele>
<time>2017-05-23T01:59:53.720Z</time>
</trkpt>
<trkpt lat="-27.3952234" lon="152.8685161">
<ele>112.729</ele>
<time>2017-05-23T01:59:56.611Z</time>
</trkpt>
<trkpt lat="-27.3947732" lon="152.8681408">
<ele>114.143</ele>
<time>2017-05-23T01:59:59.539Z</time>
</trkpt>
<trkpt lat="-27.3944757" lon="152.8678563">
<ele>114.270</ele>
<time>2017-05-23T02:00:01.568Z</time>
</trkpt>
<trkpt lat="-27.3941940" lon="152.8675674">
<ele>113.188</ele>
<time>2017-05-23T02:00:03.563Z</time>
</trkpt>
<trkpt lat="-27.3937058" lon="152.8672119">
<ele>111.430</ele>
<time>2017-05-23T02:00:06.638Z</time>
</trkpt>
<trkpt lat="-27.3933975" lon="152.8669582">
<ele>109.450</ele>
<time>2017-05-23T02:00:08.686Z</time>
</trkpt>
<trkpt lat="-27.3929902" lon="152.8665543">
<ele>107.343</ele>
<time>2017-05-23T02:00:11.597Z</time>
</trkpt>
<trkpt lat="-27.3926951" lon="152.8662911">
<ele>105.224</ele>
<time>2017-05-23T02:00:13.598Z</time>
</trkpt>
<trkpt lat="-27.3923793" lon="152.8660743">
<ele>103.336</ele>
<time>2017-05-23T02:00:15.591Z</time>
</trkpt>
<trkpt lat="-27.3920958" lon="152.8658143">
<ele>101.917</ele>
<time>2017-05-23T02:00:17.603Z</time>
</trkpt>
<trkpt lat="-27.3918237" lon="152.8655720">
<ele>100.869</ele>
<time>2017-05-23T02:00:19.525Z</time>
</trkpt>
<trkpt lat="-27.3914128" lon="152.8651952">
<ele>99.709</ele>
<time>2017-05-23T02:00:22.434Z</time>
</trkpt>
<trkpt lat="-27.3911115" lon="152.8649503">
<ele>98.177</ele>
<time>2017-05-23T02:00:24.452Z</time>
</trkpt>
<trkpt lat="-27.3908568" lon="152.8646549">
<ele>96.634</ele>
<time>2017-05-23T02:00:26.445Z</time>
</trkpt>
<trkpt lat="-27.3904265" lon="152.8642949">
<ele>95.622</ele>
<time>2017-05-23T02:00:29.411Z</time>
</trkpt>
<trkpt lat="-27.3899932" lon="152.8639537">
<ele>95.227</ele>
<time>2017-05-23T02:00:32.421Z</time>
</trkpt>
<trkpt lat="-27.3897221" lon="152.8637267">
<ele>95.184</ele>
<time>2017-05-23T02:00:34.463Z</time>
</trkpt>
<trkpt lat="-27.3893856" lon="152.8633727">
<ele>95.267</ele>
<time>2017-05-23T02:00:37.409Z</time>
</trkpt>
<trkpt lat="-27.3891630" lon="152.8631379">
<ele>95.586</ele>
<time>2017-05-23T02:00:39.413Z</time>
</trkpt>
<trkpt lat="-27.3888021" lon="152.8628276">
<ele>96.674</ele>
<time>2017-05-23T02:00:42.428Z</time>
</trkpt>
<trkpt lat="-27.3885507" lon="152.8626450">
<ele>98.967</ele>
<time>2017-05-23T02:00:44.397Z</time>
</trkpt>
<trkpt lat="-27.3882897" lon="152.8624583">
<ele>101.957</ele>
<time>2017-05-23T02:00:46.393Z</time>
</trkpt>
<trkpt lat="-27.3878859" lon="152.8621909">
<ele>104.377</ele>
<time>2017-05-23T02:00:49.432Z</time>
</trkpt>
<trkpt lat="-27.3876514" lon="152.8619682">
<ele>105.237</ele>
<time>2017-05-23T02:00:51.470Z</time>
</trkpt>
<trkpt lat="-27.3872877" lon="152.8616941">
<ele>104.491</ele>
<time>2017-05-23T02:00:54.760Z</time>
</trkpt>
<trkpt lat="-27.3870695" lon="152.8614225">
<ele>102.648</ele>
<time>2017-05-23T02:00:58.822Z</time>
</trkpt>
<trkpt lat="-27.3869175" lon="152.8613281">
<ele>100.123</ele>
<time>2017-05-23T02:01:02.596Z</time>
</trkpt>
<trkpt lat="-27.3869161" lon="152.8611979">
<ele>97.173</ele>
<time>2017-05-23T02:01:04.487Z</time>
</trkpt>
<trkpt lat="-27.3871293" lon="152.8609217">
<ele>94.245</ele>
<time>2017-05-23T02:01:07.238Z</time>
</trkpt>
<trkpt lat="-27.3874565" lon="152.8604922">
<ele>91.992</ele>
<time>2017-05-23T02:01:10.251Z</time>
</trkpt>
<trkpt lat="-27.3876983" lon="152.8601295">
<ele>91.136</ele>
<time>2017-05-23T02:01:12.316Z</time>
</trkpt>
<trkpt lat="-27.3880686" lon="152.8595899">
<ele>91.964</ele>
<time>2017-05-23T02:01:15.400Z</time>
</trkpt>
<trkpt lat="-27.3884349" lon="152.8590859">
<ele>94.206</ele>
<time>2017-05-23T02:01:18.461Z</time>
</trkpt>
<trkpt lat="-27.3887551" lon="152.8585975">
<ele>97.359</ele>
<time>2017-05-23T02:01:21.443Z</time>
</trkpt>
<trkpt lat="-27.3890633" lon="152.8581166">
<ele>100.613</ele>
<time>2017-05-23T02:01:24.439Z</time>
</trkpt>
<trkpt lat="-27.3894199" lon="152.8576998">
<ele>102.963</ele>
<time>2017-05-23T02:01:27.455Z</time>
</trkpt>
<trkpt lat="-27.3896037" lon="152.8573884">
<ele>103.934</ele>
<time>2017-05-23T02:01:29.504Z</time>
</trkpt>
<trkpt lat="-27.3897991" lon="152.8571101">
<ele>103.743</ele>
<time>2017-05-23T02:01:31.556Z</time>
</trkpt>
<trkpt lat="-27.3900433" lon="152.8567069">
<ele>102.818</ele>
<time>2017-05-23T02:01:35.044Z</time>
</trkpt>
<trkpt lat="-27.3901975" lon="152.8565478">
<ele>101.308</ele>
<time>2017-05-23T02:01:37.549Z</time>
</trkpt>
<trkpt lat="-27.3902212" lon="152.8564386">
<ele>99.269</ele>
<time>2017-05-23T02:01:38.854Z</time>
</trkpt>
<trkpt lat="-27.3900282" lon="152.8562689">
<ele>97.088</ele>
<time>2017-05-23T02:01:41.123Z</time>
</trkpt>
<trkpt lat="-27.3897879" lon="152.8560995">
<ele>95.392</ele>
<time>2017-05-23T02:01:43.125Z</time>
</trkpt>
<trkpt lat="-27.3895129" lon="152.8559060">
<ele>94.761</ele>
<time>2017-05-23T02:01:45.176Z</time>
</trkpt>
<trkpt lat="-27.3892721" lon="152.8556515">
<ele>95.544</ele>
<time>2017-05-23T02:01:47.070Z</time>
</trkpt>
<trkpt lat="-27.3888017" lon="152.8552763">
<ele>97.647</ele>
<time>2017-05-23T02:01:50.265Z</time>
</trkpt>
<trkpt lat="-27.3884271" lon="152.8548386">
<ele>100.659</ele>
<time>2017-05-23T02:01:53.174Z</time>
</trkpt>
<trkpt lat="-27.3881190" lon="152.8543080">
<ele>103.837</ele>
<time>2017-05-23T02:01:56.128Z</time>
</trkpt>
<trkpt lat="-27.3879261" lon="152.8539271">
<ele>106.204</ele>
<time>2017-05-23T02:01:58.172Z</time>
</trkpt>
<trkpt lat="-27.3877455" lon="152.8533236">
<ele>107.301</ele>
<time>2017-05-23T02:02:01.192Z</time>
</trkpt>
<trkpt lat="-27.3877108" lon="152.8526880">
<ele>107.553</ele>
<time>2017-05-23T02:02:04.249Z</time>
</trkpt>
<trkpt lat="-27.3875874" lon="152.8520757">
<ele>107.708</ele>
<time>2017-05-23T02:02:07.274Z</time>
</trkpt>
<trkpt lat="-27.3874857" lon="152.8516775">
<ele>108.245</ele>
<time>2017-05-23T02:02:09.267Z</time>
</trkpt>
<trkpt lat="-27.3873466" lon="152.8512899">
<ele>109.127</ele>
<time>2017-05-23T02:02:11.280Z</time>
</trkpt>
<trkpt lat="-27.3870002" lon="152.8508078">
<ele>110.087</ele>
<time>2017-05-23T02:02:14.288Z</time>
</trkpt>
<trkpt lat="-27.3867448" lon="152.8505174">
<ele>111.085</ele>
<time>2017-05-23T02:02:16.283Z</time>
</trkpt>
<trkpt lat="-27.3864235" lon="152.8500159">
<ele>112.207</ele>
<time>2017-05-23T02:02:19.312Z</time>
</trkpt>
<trkpt lat="-27.3861858" lon="152.8494630">
<ele>113.597</ele>
<time>2017-05-23T02:02:22.352Z</time>
</trkpt>
<trkpt lat="-27.3860810" lon="152.8490831">
<ele>115.464</ele>
<time>2017-05-23T02:02:24.335Z</time>
</trkpt>
<trkpt lat="-27.3859139" lon="152.8485215">
<ele>117.569</ele>
<time>2017-05-23T02:02:27.279Z</time>
</trkpt>
<trkpt lat="-27.3856901" lon="152.8479817">
<ele>119.175</ele>
<time>2017-05-23T02:02:30.197Z</time>
</trkpt>
<trkpt lat="-27.3853362" lon="152.8474977">
<ele>119.869</ele>
<time>2017-05-23T02:02:33.195Z</time>
</trkpt>
<trkpt lat="-27.3850430" lon="152.8469644">
<ele>119.803</ele>
<time>2017-05-23T02:02:36.122Z</time>
</trkpt>
<trkpt lat="-27.3848370" lon="152.8465956">
<ele>119.250</ele>
<time>2017-05-23T02:02:38.111Z</time>
</trkpt>
<trkpt lat="-27.3844944" lon="152.8460606">
<ele>118.392</ele>
<time>2017-05-23T02:02:41.107Z</time>
</trkpt>
<trkpt lat="-27.3843092" lon="152.8456765">
<ele>117.320</ele>
<time>2017-05-23T02:02:43.107Z</time>
</trkpt>
<trkpt lat="-27.3839982" lon="152.8451338">
<ele>116.215</ele>
<time>2017-05-23T02:02:46.162Z</time>
</trkpt>
<trkpt lat="-27.3838796" lon="152.8447519">
<ele>115.376</ele>
<time>2017-05-23T02:02:48.166Z</time>
</trkpt>
<trkpt lat="-27.3837435" lon="152.8441674">
<ele>114.939</ele>
<time>2017-05-23T02:02:51.091Z</time>
</trkpt>
<trkpt lat="-27.3836804" lon="152.8437370">
<ele>114.804</ele>
<time>2017-05-23T02:02:53.105Z</time>
</trkpt>
<trkpt lat="-27.3836127" lon="152.8433073">
<ele>114.789</ele>
<time>2017-05-23T02:02:55.113Z</time>
</trkpt>
<trkpt lat="-27.3835840" lon="152.8428792">
<ele>114.668</ele>
<time>2017-05-23T02:02:57.126Z</time>
</trkpt>
<trkpt lat="-27.3834846" lon="152.8422635">
<ele>114.356</ele>
<time>2017-05-23T02:03:00.170Z</time>
</trkpt>
<trkpt lat="-27.3833576" lon="152.8419151">
<ele>113.995</ele>
<time>2017-05-23T02:03:02.159Z</time>
</trkpt>
<trkpt lat="-27.3832289" lon="152.8415849">
<ele>113.776</ele>
<time>2017-05-23T02:03:04.166Z</time>
</trkpt>
<trkpt lat="-27.3830836" lon="152.8412850">
<ele>113.732</ele>
<time>2017-05-23T02:03:06.081Z</time>
</trkpt>
<trkpt lat="-27.3828167" lon="152.8408481">
<ele>113.675</ele>
<time>2017-05-23T02:03:09.060Z</time>
</trkpt>
<trkpt lat="-27.3824812" lon="152.8404921">
<ele>113.128</ele>
<time>2017-05-23T02:03:12.326Z</time>
</trkpt>
<trkpt lat="-27.3823764" lon="152.8402688">
<ele>111.450</ele>
<time>2017-05-23T02:03:14.617Z</time>
</trkpt>
<trkpt lat="-27.3821924" lon="152.8402436">
<ele>108.524</ele>
<time>2017-05-23T02:03:16.623Z</time>
</trkpt>
<trkpt lat="-27.3820387" lon="152.8404210">
<ele>104.862</ele>
<time>2017-05-23T02:03:18.475Z</time>
</trkpt>
<trkpt lat="-27.3818023" lon="152.8406327">
<ele>101.386</ele>
<time>2017-05-23T02:03:20.558Z</time>
</trkpt>
<trkpt lat="-27.3815096" lon="152.8407858">
<ele>99.121</ele>
<time>2017-05-23T02:03:22.472Z</time>
</trkpt>
<trkpt lat="-27.3810013" lon="152.8410462">
<ele>98.560</ele>
<time>2017-05-23T02:03:25.530Z</time>
</trkpt>
<trkpt lat="-27.3805647" lon="152.8412014">
<ele>99.768</ele>
<time>2017-05-23T02:03:27.869Z</time>
</trkpt>
<trkpt lat="-27.3800477" lon="152.8414147">
<ele>102.291</ele>
<time>2017-05-23T02:03:30.672Z</time>
</trkpt>
<trkpt lat="-27.3794693" lon="152.8416045">
<ele>104.744</ele>
<time>2017-05-23T02:03:33.736Z</time>
</trkpt>
<trkpt lat="-27.3790623" lon="152.8416122">
<ele>106.037</ele>
<time>2017-05-23T02:03:35.850Z</time>
</trkpt>
<trkpt lat="-27.3787301" lon="152.8415936">
<ele>106.282</ele>
<time>2017-05-23T02:03:37.754Z</time>
</trkpt>
<trkpt lat="-27.3782544" lon="152.8416106">
<ele>106.210</ele>
<time>2017-05-23T02:03:40.707Z</time>
</trkpt>
<trkpt lat="-27.3779720" lon="152.8416610">
<ele>106.488</ele>
<time>2017-05-23T02:03:42.678Z</time>
</trkpt>
<trkpt lat="-27.3776882" lon="152.8416564">
<ele>107.280</ele>
<time>2017-05-23T02:03:44.688Z</time>
</trkpt>
<trkpt lat="-27.3774203" lon="152.8417369">
<ele>108.192</ele>
<time>2017-05-23T02:03:46.998Z</time>
</trkpt>
<trkpt lat="-27.3771421" lon="152.8417683">
<ele>108.702</ele>
<time>2017-05-23T02:03:49.984Z</time>
</trkpt>
<trkpt lat="-27.3770253" lon="152.8417840">
<ele>108.235</ele>
<time>2017-05-23T02:03:51.669Z</time>
</trkpt>
<trkpt lat="-27.3769768" lon="152.8419364">
<ele>106.473</ele>
<time>2017-05-23T02:03:53.570Z</time>
</trkpt>
<trkpt lat="-27.3770383" lon="152.8423291">
<ele>103.871</ele>
<time>2017-05-23T02:03:57.181Z</time>
</trkpt>
<trkpt lat="-27.3770953" lon="152.8425998">
<ele>101.505</ele>
<time>2017-05-23T02:03:59.246Z</time>
</trkpt>
<trkpt lat="-27.3771526" lon="152.8428621">
<ele>100.264</ele>
<time>2017-05-23T02:04:01.228Z</time>
</trkpt>
<trkpt lat="-27.3772264" lon="152.8432399">
<ele>100.186</ele>
<time>2017-05-23T02:04:04.081Z</time>
</trkpt>
<trkpt lat="-27.3773429" lon="152.8436585">
<ele>100.547</ele>
<time>2017-05-23T02:04:07.309Z</time>
</trkpt>
<trkpt lat="-27.3773505" lon="152.8439358">
<ele>100.407</ele>
<time>2017-05-23T02:04:09.491Z</time>
</trkpt>
<trkpt lat="-27.3772623" lon="152.8442719">
<ele>99.144</ele>
<time>2017-05-23T02:04:12.445Z</time>
</trkpt>
<trkpt lat="-27.3773827" lon="152.8445855">
<ele>96.895</ele>
<time>2017-05-23T02:04:15.363Z</time>
</trkpt>
<trkpt lat="-27.3774114" lon="152.8449378">
<ele>94.577</ele>
<time>2017-05-23T02:04:18.328Z</time>
</trkpt>
<trkpt lat="-27.3774344" lon="152.8452644">
<ele>93.404</ele>
<time>2017-05-23T02:04:21.324Z</time>
</trkpt>
<trkpt lat="-27.3773898" lon="152.8454184">
<ele>94.110</ele>
<time>2017-05-23T02:04:23.182Z</time>
</trkpt>
<trkpt lat="-27.3772844" lon="152.8455055">
<ele>96.148</ele>
<time>2017-05-23T02:04:24.948Z</time>
</trkpt>
<trkpt lat="-27.3770402" lon="152.8455173">
<ele>98.248</ele>
<time>2017-05-23T02:04:28.014Z</time>
</trkpt>
<trkpt lat="-27.3768649" lon="152.8455404">
<ele>99.636</ele>
<time>2017-05-23T02:04:29.984Z</time>
</trkpt>
<trkpt lat="-27.3765887" lon="152.8456119">
<ele>100.302</ele>
<time>2017-05-23T02:04:33.083Z</time>
</trkpt>
<trkpt lat="-27.3763317" lon="152.8456824">
<ele>100.401</ele>
<time>2017-05-23T02:04:36.154Z</time>
</trkpt>
<trkpt lat="-27.3762060" lon="152.8456543">
<ele>99.919</ele>
<time>2017-05-23T02:04:38.120Z</time>
</trkpt>
<trkpt lat="-27.3761040" lon="152.8456176">
<ele>98.845</ele>
<time>2017-05-23T02:04:40.196Z</time>
</trkpt>
<trkpt lat="-27.3761180" lon="152.8457225">
<ele>97.273</ele>
<time>2017-05-23T02:04:43.998Z</time>
</trkpt>
<trkpt lat="-27.3761180" lon="152.8457225">
<ele>95.624</ele>
<time>2017-05-23T02:04:46.998Z</time>
</trkpt>
<trkpt lat="-27.3761180" lon="152.8457225">
<ele>94.671</ele>
<time>2017-05-23T02:04:58.254Z</time>
</trkpt>
<trkpt lat="-27.3763463" lon="152.8457503">
<ele>94.700</ele>
<time>2017-05-23T02:05:07.020Z</time>
</trkpt>
<trkpt lat="-27.3764873" lon="152.8456604">
<ele>94.914</ele>
<time>2017-05-23T02:05:08.913Z</time>
</trkpt>
<trkpt lat="-27.3767714" lon="152.8455778">
<ele>94.644</ele>
<time>2017-05-23T02:05:12.012Z</time>
</trkpt>
<trkpt lat="-27.3770496" lon="152.8454750">
<ele>94.458</ele>
<time>2017-05-23T02:05:14.946Z</time>
</trkpt>
<trkpt lat="-27.3772745" lon="152.8454531">
<ele>95.239</ele>
<time>2017-05-23T02:05:17.412Z</time>
</trkpt>
<trkpt lat="-27.3774616" lon="152.8454388">
<ele>96.821</ele>
<time>2017-05-23T02:05:19.786Z</time>
</trkpt>
<trkpt lat="-27.3775807" lon="152.8452956">
<ele>98.382</ele>
<time>2017-05-23T02:05:21.997Z</time>
</trkpt>
<trkpt lat="-27.3774602" lon="152.8449471">
<ele>99.454</ele>
<time>2017-05-23T02:05:25.611Z</time>
</trkpt>
<trkpt lat="-27.3774168" lon="152.8446338">
<ele>100.024</ele>
<time>2017-05-23T02:05:28.392Z</time>
</trkpt>
<trkpt lat="-27.3773413" lon="152.8444317">
<ele>100.099</ele>
<time>2017-05-23T02:05:30.238Z</time>
</trkpt>
<trkpt lat="-27.3771839" lon="152.8441252">
<ele>99.575</ele>
<time>2017-05-23T02:05:33.104Z</time>
</trkpt>
<trkpt lat="-27.3771983" lon="152.8438853">
<ele>98.197</ele>
<time>2017-05-23T02:05:35.019Z</time>
</trkpt>
<trkpt lat="-27.3772462" lon="152.8436406">
<ele>95.994</ele>
<time>2017-05-23T02:05:37.024Z</time>
</trkpt>
<trkpt lat="-27.3772409" lon="152.8434002">
<ele>93.719</ele>
<time>2017-05-23T02:05:38.962Z</time>
</trkpt>
<trkpt lat="-27.3772052" lon="152.8430290">
<ele>92.234</ele>
<time>2017-05-23T02:05:41.859Z</time>
</trkpt>
<trkpt lat="-27.3771745" lon="152.8426302">
<ele>91.992</ele>
<time>2017-05-23T02:05:44.848Z</time>
</trkpt>
<trkpt lat="-27.3771269" lon="152.8423652">
<ele>93.241</ele>
<time>2017-05-23T02:05:47.074Z</time>
</trkpt>
<trkpt lat="-27.3770815" lon="152.8421286">
<ele>95.607</ele>
<time>2017-05-23T02:05:49.315Z</time>
</trkpt>
<trkpt lat="-27.3770441" lon="152.8418563">
<ele>97.899</ele>
<time>2017-05-23T02:05:52.431Z</time>
</trkpt>
<trkpt lat="-27.3770550" lon="152.8417246">
<ele>99.137</ele>
<time>2017-05-23T02:05:53.920Z</time>
</trkpt>
<trkpt lat="-27.3769713" lon="152.8414433">
<ele>99.254</ele>
<time>2017-05-23T02:05:56.242Z</time>
</trkpt>
<trkpt lat="-27.3768994" lon="152.8409952">
<ele>98.795</ele>
<time>2017-05-23T02:05:59.108Z</time>
</trkpt>
<trkpt lat="-27.3768430" lon="152.8406354">
<ele>98.416</ele>
<time>2017-05-23T02:06:01.073Z</time>
</trkpt>
<trkpt lat="-27.3767647" lon="152.8400751">
<ele>98.413</ele>
<time>2017-05-23T02:06:04.032Z</time>
</trkpt>
<trkpt lat="-27.3767130" lon="152.8397032">
<ele>98.575</ele>
<time>2017-05-23T02:06:05.964Z</time>
</trkpt>
<trkpt lat="-27.3766715" lon="152.8393286">
<ele>98.541</ele>
<time>2017-05-23T02:06:07.946Z</time>
</trkpt>
<trkpt lat="-27.3765924" lon="152.8387976">
<ele>98.114</ele>
<time>2017-05-23T02:06:10.826Z</time>
</trkpt>
<trkpt lat="-27.3765686" lon="152.8384356">
<ele>97.347</ele>
<time>2017-05-23T02:06:12.830Z</time>
</trkpt>
<trkpt lat="-27.3765428" lon="152.8379271">
<ele>96.555</ele>
<time>2017-05-23T02:06:15.810Z</time>
</trkpt>
<trkpt lat="-27.3765373" lon="152.8376496">
<ele>96.309</ele>
<time>2017-05-23T02:06:18.062Z</time>
</trkpt>
<trkpt lat="-27.3764900" lon="152.8373836">
<ele>97.042</ele>
<time>2017-05-23T02:06:21.405Z</time>
</trkpt>
<trkpt lat="-27.3763895" lon="152.8373158">
<ele>98.626</ele>
<time>2017-05-23T02:06:23.189Z</time>
</trkpt>
<trkpt lat="-27.3764713" lon="152.8370655">
<ele>100.523</ele>
<time>2017-05-23T02:06:25.879Z</time>
</trkpt>
<trkpt lat="-27.3767179" lon="152.8366228">
<ele>102.356</ele>
<time>2017-05-23T02:06:29.154Z</time>
</trkpt>
<trkpt lat="-27.3768591" lon="152.8362641">
<ele>104.242</ele>
<time>2017-05-23T02:06:31.095Z</time>
</trkpt>
<trkpt lat="-27.3769223" lon="152.8358356">
<ele>106.308</ele>
<time>2017-05-23T02:06:33.061Z</time>
</trkpt>
<trkpt lat="-27.3769265" lon="152.8351301">
<ele>108.171</ele>
<time>2017-05-23T02:06:36.087Z</time>
</trkpt>
<trkpt lat="-27.3769038" lon="152.8346735">
<ele>109.366</ele>
<time>2017-05-23T02:06:37.997Z</time>
</trkpt>
<trkpt lat="-27.3769575" lon="152.8339871">
<ele>109.739</ele>
<time>2017-05-23T02:06:40.895Z</time>
</trkpt>
<trkpt lat="-27.3769927" lon="152.8333107">
<ele>109.223</ele>
<time>2017-05-23T02:06:43.768Z</time>
</trkpt>
<trkpt lat="-27.3770655" lon="152.8328672">
<ele>107.895</ele>
<time>2017-05-23T02:06:45.703Z</time>
</trkpt>
<trkpt lat="-27.3772391" lon="152.8324980">
<ele>106.267</ele>
<time>2017-05-23T02:06:47.554Z</time>
</trkpt>
<trkpt lat="-27.3774919" lon="152.8322258">
<ele>104.927</ele>
<time>2017-05-23T02:06:49.408Z</time>
</trkpt>
<trkpt lat="-27.3777254" lon="152.8319774">
<ele>103.975</ele>
<time>2017-05-23T02:06:51.243Z</time>
</trkpt>
<trkpt lat="-27.3780614" lon="152.8316397">
<ele>103.201</ele>
<time>2017-05-23T02:06:54.016Z</time>
</trkpt>
<trkpt lat="-27.3782855" lon="152.8314196">
<ele>102.464</ele>
<time>2017-05-23T02:06:55.951Z</time>
</trkpt>
<trkpt lat="-27.3784981" lon="152.8311780">
<ele>101.827</ele>
<time>2017-05-23T02:06:57.925Z</time>
</trkpt>
<trkpt lat="-27.3788053" lon="152.8307858">
<ele>101.466</ele>
<time>2017-05-23T02:07:00.909Z</time>
</trkpt>
<trkpt lat="-27.3789628" lon="152.8304927">
<ele>101.459</ele>
<time>2017-05-23T02:07:02.846Z</time>
</trkpt>
<trkpt lat="-27.3791706" lon="152.8300432">
<ele>101.723</ele>
<time>2017-05-23T02:07:05.704Z</time>
</trkpt>
<trkpt lat="-27.3792699" lon="152.8297115">
<ele>102.059</ele>
<time>2017-05-23T02:07:07.668Z</time>
</trkpt>
<trkpt lat="-27.3792866" lon="152.8293654">
<ele>102.288</ele>
<time>2017-05-23T02:07:09.610Z</time>
</trkpt>
<trkpt lat="-27.3793254" lon="152.8288584">
<ele>102.365</ele>
<time>2017-05-23T02:07:12.468Z</time>
</trkpt>
<trkpt lat="-27.3792531" lon="152.8284171">
<ele>102.331</ele>
<time>2017-05-23T02:07:15.161Z</time>
</trkpt>
<trkpt lat="-27.3792145" lon="152.8281843">
<ele>102.219</ele>
<time>2017-05-23T02:07:16.713Z</time>
</trkpt>
<trkpt lat="-27.3791811" lon="152.8279825">
<ele>102.004</ele>
<time>2017-05-23T02:07:18.208Z</time>
</trkpt>
<trkpt lat="-27.3791095" lon="152.8276927">
<ele>101.688</ele>
<time>2017-05-23T02:07:20.759Z</time>
</trkpt>
<trkpt lat="-27.3791172" lon="152.8274595">
<ele>101.378</ele>
<time>2017-05-23T02:07:22.913Z</time>
</trkpt>
<trkpt lat="-27.3790507" lon="152.8271173">
<ele>101.229</ele>
<time>2017-05-23T02:07:26.056Z</time>
</trkpt>
<trkpt lat="-27.3790011" lon="152.8269060">
<ele>101.328</ele>
<time>2017-05-23T02:07:27.926Z</time>
</trkpt>
<trkpt lat="-27.3789409" lon="152.8265725">
<ele>101.656</ele>
<time>2017-05-23T02:07:30.829Z</time>
</trkpt>
<trkpt lat="-27.3789127" lon="152.8263444">
<ele>102.195</ele>
<time>2017-05-23T02:07:32.795Z</time>
</trkpt>
<trkpt lat="-27.3787975" lon="152.8260219">
<ele>102.898</ele>
<time>2017-05-23T02:07:35.724Z</time>
</trkpt>
<trkpt lat="-27.3787585" lon="152.8257937">
<ele>103.690</ele>
<time>2017-05-23T02:07:37.673Z</time>
</trkpt>
<trkpt lat="-27.3786596" lon="152.8254592">
<ele>104.503</ele>
<time>2017-05-23T02:07:40.615Z</time>
</trkpt>
<trkpt lat="-27.3784931" lon="152.8251349">
<ele>105.243</ele>
<time>2017-05-23T02:07:43.675Z</time>
</trkpt>
<trkpt lat="-27.3783691" lon="152.8249025">
<ele>105.892</ele>
<time>2017-05-23T02:07:45.825Z</time>
</trkpt>
<trkpt lat="-27.3782023" lon="152.8246376">
<ele>106.552</ele>
<time>2017-05-23T02:07:48.190Z</time>
</trkpt>
<trkpt lat="-27.3778860" lon="152.8241888">
<ele>107.262</ele>
<time>2017-05-23T02:07:51.638Z</time>
</trkpt>
<trkpt lat="-27.3776701" lon="152.8238296">
<ele>108.046</ele>
<time>2017-05-23T02:07:53.906Z</time>
</trkpt>
<trkpt lat="-27.3773759" lon="152.8232499">
<ele>108.927</ele>
<time>2017-05-23T02:07:56.956Z</time>
</trkpt>
<trkpt lat="-27.3772795" lon="152.8225628">
<ele>109.904</ele>
<time>2017-05-23T02:07:59.972Z</time>
</trkpt>
<trkpt lat="-27.3772574" lon="152.8218654">
<ele>110.833</ele>
<time>2017-05-23T02:08:02.931Z</time>
</trkpt>
<trkpt lat="-27.3773224" lon="152.8214021">
<ele>111.569</ele>
<time>2017-05-23T02:08:04.911Z</time>
</trkpt>
<trkpt lat="-27.3774492" lon="152.8209599">
<ele>112.268</ele>
<time>2017-05-23T02:08:06.870Z</time>
</trkpt>
<trkpt lat="-27.3776919" lon="152.8203214">
<ele>113.125</ele>
<time>2017-05-23T02:08:09.786Z</time>
</trkpt>
<trkpt lat="-27.3778250" lon="152.8198876">
<ele>114.074</ele>
<time>2017-05-23T02:08:11.708Z</time>
</trkpt>
<trkpt lat="-27.3779904" lon="152.8192215">
<ele>114.909</ele>
<time>2017-05-23T02:08:14.608Z</time>
</trkpt>
<trkpt lat="-27.3780550" lon="152.8185233">
<ele>115.426</ele>
<time>2017-05-23T02:08:17.548Z</time>
</trkpt>
<trkpt lat="-27.3780731" lon="152.8180563">
<ele>115.740</ele>
<time>2017-05-23T02:08:19.497Z</time>
</trkpt>
<trkpt lat="-27.3781106" lon="152.8175970">
<ele>116.182</ele>
<time>2017-05-23T02:08:21.411Z</time>
</trkpt>
<trkpt lat="-27.3782195" lon="152.8169210">
<ele>116.839</ele>
<time>2017-05-23T02:08:24.284Z</time>
</trkpt>
<trkpt lat="-27.3782437" lon="152.8164834">
<ele>117.665</ele>
<time>2017-05-23T02:08:26.130Z</time>
</trkpt>
<trkpt lat="-27.3783033" lon="152.8158162">
<ele>118.594</ele>
<time>2017-05-23T02:08:28.998Z</time>
</trkpt>
<trkpt lat="-27.3783621" lon="152.8153773">
<ele>119.531</ele>
<time>2017-05-23T02:08:30.907Z</time>
</trkpt>
<trkpt lat="-27.3784227" lon="152.8147116">
<ele>120.422</ele>
<time>2017-05-23T02:08:33.791Z</time>
</trkpt>
<trkpt lat="-27.3784666" lon="152.8142620">
<ele>121.298</ele>
<time>2017-05-23T02:08:35.744Z</time>
</trkpt>
<trkpt lat="-27.3785609" lon="152.8135966">
<ele>122.192</ele>
<time>2017-05-23T02:08:38.640Z</time>
</trkpt>
<trkpt lat="-27.3786096" lon="152.8129176">
<ele>123.080</ele>
<time>2017-05-23T02:08:41.550Z</time>
</trkpt>
<trkpt lat="-27.3786696" lon="152.8124692">
<ele>123.878</ele>
<time>2017-05-23T02:08:43.487Z</time>
</trkpt>
<trkpt lat="-27.3787238" lon="152.8117856">
<ele>124.526</ele>
<time>2017-05-23T02:08:46.417Z</time>
</trkpt>
<trkpt lat="-27.3788335" lon="152.8113428">
<ele>125.146</ele>
<time>2017-05-23T02:08:48.373Z</time>
</trkpt>
<trkpt lat="-27.3789032" lon="152.8109028">
<ele>126.027</ele>
<time>2017-05-23T02:08:50.275Z</time>
</trkpt>
<trkpt lat="-27.3790409" lon="152.8102525">
<ele>127.303</ele>
<time>2017-05-23T02:08:53.134Z</time>
</trkpt>
<trkpt lat="-27.3791159" lon="152.8095985">
<ele>128.965</ele>
<time>2017-05-23T02:08:55.969Z</time>
</trkpt>
<trkpt lat="-27.3791730" lon="152.8089093">
<ele>131.043</ele>
<time>2017-05-23T02:08:58.953Z</time>
</trkpt>
<trkpt lat="-27.3791106" lon="152.8082463">
<ele>133.473</ele>
<time>2017-05-23T02:09:01.796Z</time>
</trkpt>
<trkpt lat="-27.3790417" lon="152.8078087">
<ele>136.126</ele>
<time>2017-05-23T02:09:03.688Z</time>
</trkpt>
<trkpt lat="-27.3789275" lon="152.8071499">
<ele>138.889</ele>
<time>2017-05-23T02:09:06.560Z</time>
</trkpt>
<trkpt lat="-27.3788065" lon="152.8067385">
<ele>141.703</ele>
<time>2017-05-23T02:09:08.424Z</time>
</trkpt>
<trkpt lat="-27.3785668" lon="152.8061097">
<ele>144.438</ele>
<time>2017-05-23T02:09:11.386Z</time>
</trkpt>
<trkpt lat="-27.3783974" lon="152.8054342">
<ele>146.966</ele>
<time>2017-05-23T02:09:14.438Z</time>
</trkpt>
<trkpt lat="-27.3782181" lon="152.8048065">
<ele>149.276</ele>
<time>2017-05-23T02:09:17.227Z</time>
</trkpt>
<trkpt lat="-27.3780403" lon="152.8041960">
<ele>151.316</ele>
<time>2017-05-23T02:09:19.957Z</time>
</trkpt>
<trkpt lat="-27.3778800" lon="152.8035853">
<ele>153.061</ele>
<time>2017-05-23T02:09:22.742Z</time>
</trkpt>
<trkpt lat="-27.3776622" lon="152.8029328">
<ele>154.812</ele>
<time>2017-05-23T02:09:25.842Z</time>
</trkpt>
<trkpt lat="-27.3774968" lon="152.8025051">
<ele>156.931</ele>
<time>2017-05-23T02:09:27.891Z</time>
</trkpt>
<trkpt lat="-27.3771081" lon="152.8020446">
<ele>159.287</ele>
<time>2017-05-23T02:09:30.612Z</time>
</trkpt>
<trkpt lat="-27.3767924" lon="152.8018319">
<ele>161.495</ele>
<time>2017-05-23T02:09:32.352Z</time>
</trkpt>
<trkpt lat="-27.3762559" lon="152.8016899">
<ele>163.359</ele>
<time>2017-05-23T02:09:35.024Z</time>
</trkpt>
<trkpt lat="-27.3756761" lon="152.8016889">
<ele>164.685</ele>
<time>2017-05-23T02:09:38.024Z</time>
</trkpt>
<trkpt lat="-27.3750735" lon="152.8018781">
<ele>165.369</ele>
<time>2017-05-23T02:09:41.298Z</time>
</trkpt>
<trkpt lat="-27.3746944" lon="152.8019934">
<ele>165.640</ele>
<time>2017-05-23T02:09:43.330Z</time>
</trkpt>
<trkpt lat="-27.3740848" lon="152.8021856">
<ele>165.659</ele>
<time>2017-05-23T02:09:46.512Z</time>
</trkpt>
<trkpt lat="-27.3736927" lon="152.8020972">
<ele>165.355</ele>
<time>2017-05-23T02:09:48.485Z</time>
</trkpt>
<trkpt lat="-27.3731454" lon="152.8020186">
<ele>164.598</ele>
<time>2017-05-23T02:09:51.161Z</time>
</trkpt>
<trkpt lat="-27.3727899" lon="152.8019997">
<ele>163.366</ele>
<time>2017-05-23T02:09:52.903Z</time>
</trkpt>
<trkpt lat="-27.3722555" lon="152.8019981">
<ele>161.808</ele>
<time>2017-05-23T02:09:55.650Z</time>
</trkpt>
<trkpt lat="-27.3719148" lon="152.8021646">
<ele>160.100</ele>
<time>2017-05-23T02:09:57.620Z</time>
</trkpt>
<trkpt lat="-27.3713618" lon="152.8023006">
<ele>158.391</ele>
<time>2017-05-23T02:10:00.687Z</time>
</trkpt>
<trkpt lat="-27.3707730" lon="152.8022042">
<ele>156.744</ele>
<time>2017-05-23T02:10:03.873Z</time>
</trkpt>
<trkpt lat="-27.3702173" lon="152.8019141">
<ele>155.083</ele>
<time>2017-05-23T02:10:07.035Z</time>
</trkpt>
<trkpt lat="-27.3698745" lon="152.8017051">
<ele>153.189</ele>
<time>2017-05-23T02:10:08.985Z</time>
</trkpt>
<trkpt lat="-27.3695515" lon="152.8014870">
<ele>150.989</ele>
<time>2017-05-23T02:10:10.803Z</time>
</trkpt>
<trkpt lat="-27.3692298" lon="152.8009568">
<ele>148.766</ele>
<time>2017-05-23T02:10:13.567Z</time>
</trkpt>
<trkpt lat="-27.3690678" lon="152.8003429">
<ele>147.081</ele>
<time>2017-05-23T02:10:16.423Z</time>
</trkpt>
<trkpt lat="-27.3689632" lon="152.7997562">
<ele>146.490</ele>
<time>2017-05-23T02:10:19.186Z</time>
</trkpt>
<trkpt lat="-27.3687965" lon="152.7991992">
<ele>147.249</ele>
<time>2017-05-23T02:10:21.944Z</time>
</trkpt>
<trkpt lat="-27.3688665" lon="152.7988557">
<ele>149.001</ele>
<time>2017-05-23T02:10:23.623Z</time>
</trkpt>
<trkpt lat="-27.3690815" lon="152.7984147">
<ele>150.902</ele>
<time>2017-05-23T02:10:26.060Z</time>
</trkpt>
<trkpt lat="-27.3690469" lon="152.7981060">
<ele>152.226</ele>
<time>2017-05-23T02:10:27.599Z</time>
</trkpt>
<trkpt lat="-27.3689407" lon="152.7978035">
<ele>152.838</ele>
<time>2017-05-23T02:10:29.270Z</time>
</trkpt>
<trkpt lat="-27.3687862" lon="152.7975523">
<ele>153.069</ele>
<time>2017-05-23T02:10:30.945Z</time>
</trkpt>
<trkpt lat="-27.3685024" lon="152.7972132">
<ele>153.245</ele>
<time>2017-05-23T02:10:33.666Z</time>
</trkpt>
<trkpt lat="-27.3682564" lon="152.7970270">
<ele>153.506</ele>
<time>2017-05-23T02:10:35.766Z</time>
</trkpt>
<trkpt lat="-27.3679745" lon="152.7968894">
<ele>153.865</ele>
<time>2017-05-23T02:10:37.961Z</time>
</trkpt>
<trkpt lat="-27.3675657" lon="152.7967529">
<ele>154.273</ele>
<time>2017-05-23T02:10:40.989Z</time>
</trkpt>
<trkpt lat="-27.3672893" lon="152.7967121">
<ele>154.622</ele>
<time>2017-05-23T02:10:42.954Z</time>
</trkpt>
<trkpt lat="-27.3668813" lon="152.7968394">
<ele>154.825</ele>
<time>2017-05-23T02:10:45.881Z</time>
</trkpt>
<trkpt lat="-27.3666094" lon="152.7969978">
<ele>154.825</ele>
<time>2017-05-23T02:10:47.968Z</time>
</trkpt>
<trkpt lat="-27.3662579" lon="152.7969718">
<ele>154.591</ele>
<time>2017-05-23T02:10:50.387Z</time>
</trkpt>
<trkpt lat="-27.3658745" lon="152.7966847">
<ele>154.237</ele>
<time>2017-05-23T02:10:53.667Z</time>
</trkpt>
<trkpt lat="-27.3656739" lon="152.7964062">
<ele>154.053</ele>
<time>2017-05-23T02:10:56.048Z</time>
</trkpt>
<trkpt lat="-27.3653890" lon="152.7960195">
<ele>154.241</ele>
<time>2017-05-23T02:10:59.482Z</time>
</trkpt>
<trkpt lat="-27.3652087" lon="152.7957720">
<ele>154.786</ele>
<time>2017-05-23T02:11:01.488Z</time>
</trkpt>
<trkpt lat="-27.3649903" lon="152.7956552">
<ele>155.553</ele>
<time>2017-05-23T02:11:03.057Z</time>
</trkpt>
<trkpt lat="-27.3647023" lon="152.7954063">
<ele>156.406</ele>
<time>2017-05-23T02:11:05.335Z</time>
</trkpt>
<trkpt lat="-27.3646561" lon="152.7950985">
<ele>157.363</ele>
<time>2017-05-23T02:11:07.085Z</time>
</trkpt>
<trkpt lat="-27.3646573" lon="152.7947990">
<ele>158.618</ele>
<time>2017-05-23T02:11:08.872Z</time>
</trkpt>
<trkpt lat="-27.3646713" lon="152.7944172">
<ele>160.235</ele>
<time>2017-05-23T02:11:11.412Z</time>
</trkpt>
<trkpt lat="-27.3647846" lon="152.7942070">
<ele>162.148</ele>
<time>2017-05-23T02:11:13.190Z</time>
</trkpt>
<trkpt lat="-27.3648594" lon="152.7938446">
<ele>164.211</ele>
<time>2017-05-23T02:11:15.818Z</time>
</trkpt>
<trkpt lat="-27.3646911" lon="152.7933981">
<ele>166.277</ele>
<time>2017-05-23T02:11:19.102Z</time>
</trkpt>
<trkpt lat="-27.3646019" lon="152.7931395">
<ele>168.503</ele>
<time>2017-05-23T02:11:21.062Z</time>
</trkpt>
<trkpt lat="-27.3645076" lon="152.7928725">
<ele>171.035</ele>
<time>2017-05-23T02:11:23.319Z</time>
</trkpt>
<trkpt lat="-27.3644201" lon="152.7924895">
<ele>173.573</ele>
<time>2017-05-23T02:11:26.520Z</time>
</trkpt>
<trkpt lat="-27.3645639" lon="152.7919572">
<ele>175.925</ele>
<time>2017-05-23T02:11:30.435Z</time>
</trkpt>
<trkpt lat="-27.3645521" lon="152.7916060">
<ele>177.918</ele>
<time>2017-05-23T02:11:32.844Z</time>
</trkpt>
<trkpt lat="-27.3644920" lon="152.7911568">
<ele>179.113</ele>
<time>2017-05-23T02:11:36.186Z</time>
</trkpt>
<trkpt lat="-27.3644267" lon="152.7906977">
<ele>180.936</ele>
<time>2017-05-23T02:11:39.180Z</time>
</trkpt>
<trkpt lat="-27.3643634" lon="152.7903731">
<ele>185.144</ele>
<time>2017-05-23T02:11:41.052Z</time>
</trkpt>
<trkpt lat="-27.3642732" lon="152.7898527">
<ele>190.187</ele>
<time>2017-05-23T02:11:44.249Z</time>
</trkpt>
<trkpt lat="-27.3642147" lon="152.7895242">
<ele>193.455</ele>
<time>2017-05-23T02:11:46.389Z</time>
</trkpt>
<trkpt lat="-27.3639239" lon="152.7890964">
<ele>194.617</ele>
<time>2017-05-23T02:11:49.667Z</time>
</trkpt>
<trkpt lat="-27.3637663" lon="152.7888260">
<ele>194.703</ele>
<time>2017-05-23T02:11:51.520Z</time>
</trkpt>
<trkpt lat="-27.3636656" lon="152.7885848">
<ele>194.824</ele>
<time>2017-05-23T02:11:53.040Z</time>
</trkpt>
<trkpt lat="-27.3634493" lon="152.7883037">
<ele>195.373</ele>
<time>2017-05-23T02:11:55.127Z</time>
</trkpt>
<trkpt lat="-27.3632817" lon="152.7882265">
<ele>196.212</ele>
<time>2017-05-23T02:11:56.258Z</time>
</trkpt>
<trkpt lat="-27.3630635" lon="152.7882935">
<ele>197.109</ele>
<time>2017-05-23T02:11:57.674Z</time>
</trkpt>
<trkpt lat="-27.3628071" lon="152.7884301">
<ele>197.995</ele>
<time>2017-05-23T02:11:59.521Z</time>
</trkpt>
<trkpt lat="-27.3625279" lon="152.7884846">
<ele>199.118</ele>
<time>2017-05-23T02:12:01.638Z</time>
</trkpt>
<trkpt lat="-27.3620978" lon="152.7884066">
<ele>200.757</ele>
<time>2017-05-23T02:12:05.457Z</time>
</trkpt>
<trkpt lat="-27.3618112" lon="152.7884123">
<ele>203.073</ele>
<time>2017-05-23T02:12:08.266Z</time>
</trkpt>
<trkpt lat="-27.3615646" lon="152.7884376">
<ele>205.911</ele>
<time>2017-05-23T02:12:10.335Z</time>
</trkpt>
<trkpt lat="-27.3612279" lon="152.7885712">
<ele>208.631</ele>
<time>2017-05-23T02:12:12.952Z</time>
</trkpt>
<trkpt lat="-27.3609170" lon="152.7885036">
<ele>210.911</ele>
<time>2017-05-23T02:12:15.201Z</time>
</trkpt>
<trkpt lat="-27.3607949" lon="152.7881306">
<ele>213.169</ele>
<time>2017-05-23T02:12:17.719Z</time>
</trkpt>
<trkpt lat="-27.3606871" lon="152.7876738">
<ele>215.833</ele>
<time>2017-05-23T02:12:20.973Z</time>
</trkpt>
<trkpt lat="-27.3604947" lon="152.7874631">
<ele>219.000</ele>
<time>2017-05-23T02:12:23.233Z</time>
</trkpt>
<trkpt lat="-27.3603719" lon="152.7872342">
<ele>222.336</ele>
<time>2017-05-23T02:12:25.336Z</time>
</trkpt>
<trkpt lat="-27.3601979" lon="152.7869625">
<ele>225.234</ele>
<time>2017-05-23T02:12:28.022Z</time>
</trkpt>
<trkpt lat="-27.3602256" lon="152.7866813">
<ele>227.510</ele>
<time>2017-05-23T02:12:29.996Z</time>
</trkpt>
<trkpt lat="-27.3604159" lon="152.7865520">
<ele>229.518</ele>
<time>2017-05-23T02:12:31.684Z</time>
</trkpt>
<trkpt lat="-27.3607000" lon="152.7865535">
<ele>231.552</ele>
<time>2017-05-23T02:12:33.772Z</time>
</trkpt>
<trkpt lat="-27.3611087" lon="152.7865291">
<ele>233.627</ele>
<time>2017-05-23T02:12:37.137Z</time>
</trkpt>
<trkpt lat="-27.3613901" lon="152.7862697">
<ele>235.856</ele>
<time>2017-05-23T02:12:40.808Z</time>
</trkpt>
<trkpt lat="-27.3615421" lon="152.7858573">
<ele>238.527</ele>
<time>2017-05-23T02:12:44.791Z</time>
</trkpt>
<trkpt lat="-27.3615189" lon="152.7854837">
<ele>241.679</ele>
<time>2017-05-23T02:12:47.551Z</time>
</trkpt>
<trkpt lat="-27.3616194" lon="152.7852674">
<ele>245.007</ele>
<time>2017-05-23T02:12:49.339Z</time>
</trkpt>
<trkpt lat="-27.3618390" lon="152.7849213">
<ele>248.049</ele>
<time>2017-05-23T02:12:52.470Z</time>
</trkpt>
<trkpt lat="-27.3618276" lon="152.7846606">
<ele>250.428</ele>
<time>2017-05-23T02:12:54.396Z</time>
</trkpt>
<trkpt lat="-27.3617035" lon="152.7844061">
<ele>251.991</ele>
<time>2017-05-23T02:12:56.527Z</time>
</trkpt>
<trkpt lat="-27.3614958" lon="152.7841912">
<ele>252.754</ele>
<time>2017-05-23T02:12:58.902Z</time>
</trkpt>
<trkpt lat="-27.3612369" lon="152.7840012">
<ele>252.814</ele>
<time>2017-05-23T02:13:01.424Z</time>
</trkpt>
<trkpt lat="-27.3608508" lon="152.7836956">
<ele>252.277</ele>
<time>2017-05-23T02:13:05.253Z</time>
</trkpt>
<trkpt lat="-27.3606275" lon="152.7834582">
<ele>251.220</ele>
<time>2017-05-23T02:13:07.630Z</time>
</trkpt>
<trkpt lat="-27.3604835" lon="152.7831572">
<ele>249.934</ele>
<time>2017-05-23T02:13:09.758Z</time>
</trkpt>
<trkpt lat="-27.3604327" lon="152.7826417">
<ele>248.874</ele>
<time>2017-05-23T02:13:12.802Z</time>
</trkpt>
<trkpt lat="-27.3603040" lon="152.7821643">
<ele>248.297</ele>
<time>2017-05-23T02:13:15.722Z</time>
</trkpt>
<trkpt lat="-27.3600862" lon="152.7817530">
<ele>248.246</ele>
<time>2017-05-23T02:13:18.529Z</time>
</trkpt>
<trkpt lat="-27.3599786" lon="152.7814553">
<ele>248.763</ele>
<time>2017-05-23T02:13:20.411Z</time>
</trkpt>
<trkpt lat="-27.3599512" lon="152.7810279">
<ele>249.696</ele>
<time>2017-05-23T02:13:22.958Z</time>
</trkpt>
<trkpt lat="-27.3601743" lon="152.7806123">
<ele>250.719</ele>
<time>2017-05-23T02:13:25.938Z</time>
</trkpt>
<trkpt lat="-27.3602902" lon="152.7803647">
<ele>251.703</ele>
<time>2017-05-23T02:13:27.670Z</time>
</trkpt>
<trkpt lat="-27.3602362" lon="152.7800010">
<ele>252.640</ele>
<time>2017-05-23T02:13:30.088Z</time>
</trkpt>
<trkpt lat="-27.3600544" lon="152.7797964">
<ele>253.443</ele>
<time>2017-05-23T02:13:32.020Z</time>
</trkpt>
<trkpt lat="-27.3599348" lon="152.7795999">
<ele>254.170</ele>
<time>2017-05-23T02:13:33.623Z</time>
</trkpt>
<trkpt lat="-27.3599462" lon="152.7793566">
<ele>255.127</ele>
<time>2017-05-23T02:13:35.242Z</time>
</trkpt>
<trkpt lat="-27.3600412" lon="152.7791474">
<ele>256.648</ele>
<time>2017-05-23T02:13:36.861Z</time>
</trkpt>
<trkpt lat="-27.3600403" lon="152.7787632">
<ele>258.869</ele>
<time>2017-05-23T02:13:39.610Z</time>
</trkpt>
<trkpt lat="-27.3598755" lon="152.7784047">
<ele>261.384</ele>
<time>2017-05-23T02:13:42.590Z</time>
</trkpt>
<trkpt lat="-27.3597091" lon="152.7782228">
<ele>263.451</ele>
<time>2017-05-23T02:13:44.765Z</time>
</trkpt>
<trkpt lat="-27.3594867" lon="152.7781397">
<ele>264.647</ele>
<time>2017-05-23T02:13:47.055Z</time>
</trkpt>
<trkpt lat="-27.3592054" lon="152.7779471">
<ele>266.567</ele>
<time>2017-05-23T02:13:50.136Z</time>
</trkpt>
<trkpt lat="-27.3590814" lon="152.7775472">
<ele>271.058</ele>
<time>2017-05-23T02:13:53.319Z</time>
</trkpt>
<trkpt lat="-27.3590710" lon="152.7773384">
<ele>276.614</ele>
<time>2017-05-23T02:13:54.869Z</time>
</trkpt>
<trkpt lat="-27.3592176" lon="152.7771897">
<ele>280.581</ele>
<time>2017-05-23T02:13:56.606Z</time>
</trkpt>
<trkpt lat="-27.3596075" lon="152.7770495">
<ele>282.847</ele>
<time>2017-05-23T02:14:00.318Z</time>
</trkpt>
<trkpt lat="-27.3598318" lon="152.7768696">
<ele>284.556</ele>
<time>2017-05-23T02:14:02.713Z</time>
</trkpt>
<trkpt lat="-27.3599583" lon="152.7766016">
<ele>286.346</ele>
<time>2017-05-23T02:14:05.147Z</time>
</trkpt>
<trkpt lat="-27.3599105" lon="152.7761630">
<ele>288.040</ele>
<time>2017-05-23T02:14:08.778Z</time>
</trkpt>
<trkpt lat="-27.3598478" lon="152.7757551">
<ele>289.219</ele>
<time>2017-05-23T02:14:11.660Z</time>
</trkpt>
<trkpt lat="-27.3598533" lon="152.7755313">
<ele>289.757</ele>
<time>2017-05-23T02:14:13.167Z</time>
</trkpt>
<trkpt lat="-27.3596888" lon="152.7752228">
<ele>289.689</ele>
<time>2017-05-23T02:14:15.620Z</time>
</trkpt>
<trkpt lat="-27.3595557" lon="152.7750389">
<ele>288.872</ele>
<time>2017-05-23T02:14:17.248Z</time>
</trkpt>
<trkpt lat="-27.3593829" lon="152.7749377">
<ele>287.141</ele>
<time>2017-05-23T02:14:18.772Z</time>
</trkpt>
<trkpt lat="-27.3592862" lon="152.7750628">
<ele>284.586</ele>
<time>2017-05-23T02:14:19.923Z</time>
</trkpt>
<trkpt lat="-27.3593387" lon="152.7752788">
<ele>281.740</ele>
<time>2017-05-23T02:14:21.617Z</time>
</trkpt>
<trkpt lat="-27.3593058" lon="152.7756536">
<ele>279.535</ele>
<time>2017-05-23T02:14:24.669Z</time>
</trkpt>
<trkpt lat="-27.3591729" lon="152.7760239">
<ele>278.812</ele>
<time>2017-05-23T02:14:28.487Z</time>
</trkpt>
<trkpt lat="-27.3589698" lon="152.7762383">
<ele>279.721</ele>
<time>2017-05-23T02:14:32.492Z</time>
</trkpt>
<trkpt lat="-27.3585368" lon="152.7761828">
<ele>281.752</ele>
<time>2017-05-23T02:14:37.225Z</time>
</trkpt>
<trkpt lat="-27.3580215" lon="152.7761893">
<ele>284.264</ele>
<time>2017-05-23T02:14:42.024Z</time>
</trkpt>
<trkpt lat="-27.3575823" lon="152.7763502">
<ele>286.563</ele>
<time>2017-05-23T02:14:46.125Z</time>
</trkpt>
<trkpt lat="-27.3572117" lon="152.7764104">
<ele>288.157</ele>
<time>2017-05-23T02:14:48.626Z</time>
</trkpt>
<trkpt lat="-27.3569483" lon="152.7764949">
<ele>289.550</ele>
<time>2017-05-23T02:14:50.384Z</time>
</trkpt>
<trkpt lat="-27.3568723" lon="152.7766952">
<ele>291.855</ele>
<time>2017-05-23T02:14:51.612Z</time>
</trkpt>
<trkpt lat="-27.3568966" lon="152.7771819">
<ele>295.332</ele>
<time>2017-05-23T02:14:54.713Z</time>
</trkpt>
<trkpt lat="-27.3570576" lon="152.7775398">
<ele>299.466</ele>
<time>2017-05-23T02:14:58.024Z</time>
</trkpt>
<trkpt lat="-27.3571506" lon="152.7777652">
<ele>303.911</ele>
<time>2017-05-23T02:15:00.310Z</time>
</trkpt>
<trkpt lat="-27.3570351" lon="152.7778559">
<ele>308.118</ele>
<time>2017-05-23T02:15:01.519Z</time>
</trkpt>
<trkpt lat="-27.3568096" lon="152.7776103">
<ele>311.238</ele>
<time>2017-05-23T02:15:04.130Z</time>
</trkpt>
<trkpt lat="-27.3566373" lon="152.7773005">
<ele>313.495</ele>
<time>2017-05-23T02:15:06.973Z</time>
</trkpt>
<trkpt lat="-27.3563406" lon="152.7767279">
<ele>316.016</ele>
<time>2017-05-23T02:15:14.152Z</time>
</trkpt>
<trkpt lat="-27.3561960" lon="152.7761709">
<ele>319.584</ele>
<time>2017-05-23T02:15:17.619Z</time>
</trkpt>
<trkpt lat="-27.3562749" lon="152.7758725">
<ele>324.288</ele>
<time>2017-05-23T02:15:19.212Z</time>
</trkpt>
<trkpt lat="-27.3565050" lon="152.7753777">
<ele>329.439</ele>
<time>2017-05-23T02:15:21.915Z</time>
</trkpt>
<trkpt lat="-27.3566522" lon="152.7750503">
<ele>334.300</ele>
<time>2017-05-23T02:15:23.946Z</time>
</trkpt>
<trkpt lat="-27.3567059" lon="152.7747575">
<ele>338.735</ele>
<time>2017-05-23T02:15:25.664Z</time>
</trkpt>
<trkpt lat="-27.3566074" lon="152.7744394">
<ele>342.782</ele>
<time>2017-05-23T02:15:27.585Z</time>
</trkpt>
<trkpt lat="-27.3564379" lon="152.7740801">
<ele>346.533</ele>
<time>2017-05-23T02:15:29.947Z</time>
</trkpt>
<trkpt lat="-27.3562722" lon="152.7737029">
<ele>350.319</ele>
<time>2017-05-23T02:15:32.539Z</time>
</trkpt>
<trkpt lat="-27.3560808" lon="152.7732026">
<ele>354.343</ele>
<time>2017-05-23T02:15:35.504Z</time>
</trkpt>
<trkpt lat="-27.3561069" lon="152.7729192">
<ele>358.920</ele>
<time>2017-05-23T02:15:36.935Z</time>
</trkpt>
<trkpt lat="-27.3562033" lon="152.7726882">
<ele>364.146</ele>
<time>2017-05-23T02:15:38.262Z</time>
</trkpt>
<trkpt lat="-27.3562298" lon="152.7724362">
<ele>369.440</ele>
<time>2017-05-23T02:15:39.582Z</time>
</trkpt>
<trkpt lat="-27.3560675" lon="152.7722898">
<ele>374.498</ele>
<time>2017-05-23T02:15:40.924Z</time>
</trkpt>
<trkpt lat="-27.3558822" lon="152.7720054">
<ele>379.465</ele>
<time>2017-05-23T02:15:43.235Z</time>
</trkpt>
<trkpt lat="-27.3558201" lon="152.7718086">
<ele>384.232</ele>
<time>2017-05-23T02:15:44.907Z</time>
</trkpt>
<trkpt lat="-27.3556735" lon="152.7716343">
<ele>388.540</ele>
<time>2017-05-23T02:15:47.062Z</time>
</trkpt>
<trkpt lat="-27.3552913" lon="152.7714966">
<ele>392.145</ele>
<time>2017-05-23T02:15:51.371Z</time>
</trkpt>
<trkpt lat="-27.3549980" lon="152.7712758">
<ele>395.319</ele>
<time>2017-05-23T02:15:54.887Z</time>
</trkpt>
<trkpt lat="-27.3548278" lon="152.7711039">
<ele>399.002</ele>
<time>2017-05-23T02:15:56.928Z</time>
</trkpt>
<trkpt lat="-27.3546930" lon="152.7707892">
<ele>403.498</ele>
<time>2017-05-23T02:15:59.489Z</time>
</trkpt>
<trkpt lat="-27.3545923" lon="152.7704968">
<ele>408.853</ele>
<time>2017-05-23T02:16:01.729Z</time>
</trkpt>
<trkpt lat="-27.3544733" lon="152.7703313">
<ele>415.690</ele>
<time>2017-05-23T02:16:03.326Z</time>
</trkpt>
<trkpt lat="-27.3543084" lon="152.7700673">
<ele>423.656</ele>
<time>2017-05-23T02:16:05.873Z</time>
</trkpt>
<trkpt lat="-27.3540876" lon="152.7697573">
<ele>431.280</ele>
<time>2017-05-23T02:16:09.259Z</time>
</trkpt>
<trkpt lat="-27.3537993" lon="152.7694961">
<ele>437.788</ele>
<time>2017-05-23T02:16:13.141Z</time>
</trkpt>
<trkpt lat="-27.3535891" lon="152.7693764">
<ele>443.084</ele>
<time>2017-05-23T02:16:15.609Z</time>
</trkpt>
<trkpt lat="-27.3532299" lon="152.7693133">
<ele>447.103</ele>
<time>2017-05-23T02:16:19.030Z</time>
</trkpt>
<trkpt lat="-27.3529722" lon="152.7693427">
<ele>450.198</ele>
<time>2017-05-23T02:16:21.246Z</time>
</trkpt>
<trkpt lat="-27.3526022" lon="152.7694523">
<ele>452.963</ele>
<time>2017-05-23T02:16:24.397Z</time>
</trkpt>
<trkpt lat="-27.3523649" lon="152.7694914">
<ele>455.906</ele>
<time>2017-05-23T02:16:26.351Z</time>
</trkpt>
<trkpt lat="-27.3520247" lon="152.7695188">
<ele>459.195</ele>
<time>2017-05-23T02:16:29.075Z</time>
</trkpt>
<trkpt lat="-27.3516666" lon="152.7694908">
<ele>462.813</ele>
<time>2017-05-23T02:16:32.002Z</time>
</trkpt>
<trkpt lat="-27.3514828" lon="152.7694855">
<ele>466.734</ele>
<time>2017-05-23T02:16:33.551Z</time>
</trkpt>
<trkpt lat="-27.3513041" lon="152.7693958">
<ele>470.646</ele>
<time>2017-05-23T02:16:35.227Z</time>
</trkpt>
<trkpt lat="-27.3511973" lon="152.7693326">
<ele>474.157</ele>
<time>2017-05-23T02:16:36.263Z</time>
</trkpt>
<trkpt lat="-27.3510679" lon="152.7692614">
<ele>477.338</ele>
<time>2017-05-23T02:16:37.516Z</time>
</trkpt>
<trkpt lat="-27.3509625" lon="152.7689498">
<ele>480.262</ele>
<time>2017-05-23T02:16:40.132Z</time>
</trkpt>
<trkpt lat="-27.3507727" lon="152.7685409">
<ele>482.524</ele>
<time>2017-05-23T02:16:44.830Z</time>
</trkpt>
<trkpt lat="-27.3507017" lon="152.7680699">
<ele>483.665</ele>
<time>2017-05-23T02:16:51.225Z</time>
</trkpt>
<trkpt lat="-27.3508838" lon="152.7675527">
<ele>483.478</ele>
<time>2017-05-23T02:16:55.464Z</time>
</trkpt>
<trkpt lat="-27.3510163" lon="152.7671956">
<ele>482.110</ele>
<time>2017-05-23T02:16:57.864Z</time>
</trkpt>
<trkpt lat="-27.3511552" lon="152.7668845">
<ele>479.993</ele>
<time>2017-05-23T02:16:59.868Z</time>
</trkpt>
<trkpt lat="-27.3513662" lon="152.7666253">
<ele>477.914</ele>
<time>2017-05-23T02:17:01.730Z</time>
</trkpt>
<trkpt lat="-27.3519280" lon="152.7663437">
<ele>476.973</ele>
<time>2017-05-23T02:17:05.377Z</time>
</trkpt>
<trkpt lat="-27.3523268" lon="152.7661738">
<ele>478.044</ele>
<time>2017-05-23T02:17:07.845Z</time>
</trkpt>
<trkpt lat="-27.3528396" lon="152.7658739">
<ele>480.464</ele>
<time>2017-05-23T02:17:10.946Z</time>
</trkpt>
<trkpt lat="-27.3531417" lon="152.7656035">
<ele>482.482</ele>
<time>2017-05-23T02:17:12.947Z</time>
</trkpt>
<trkpt lat="-27.3533919" lon="152.7652607">
<ele>482.996</ele>
<time>2017-05-23T02:17:14.994Z</time>
</trkpt>
<trkpt lat="-27.3537444" lon="152.7646910">
<ele>482.058</ele>
<time>2017-05-23T02:17:18.208Z</time>
</trkpt>
<trkpt lat="-27.3539702" lon="152.7642929">
<ele>476.477</ele>
<time>2017-05-23T02:17:20.383Z</time>
</trkpt>
<trkpt lat="-27.3541672" lon="152.7636983">
<ele>464.800</ele>
<time>2017-05-23T02:17:23.221Z</time>
</trkpt>
<trkpt lat="-27.3542890" lon="152.7633171">
<ele>453.187</ele>
<time>2017-05-23T02:17:25.024Z</time>
</trkpt>
<trkpt lat="-27.3546793" lon="152.7628890">
<ele>447.071</ele>
<time>2017-05-23T02:17:27.818Z</time>
</trkpt>
<trkpt lat="-27.3550555" lon="152.7627682">
<ele>445.301</ele>
<time>2017-05-23T02:17:29.924Z</time>
</trkpt>
<trkpt lat="-27.3554437" lon="152.7626928">
<ele>445.806</ele>
<time>2017-05-23T02:17:32.048Z</time>
</trkpt>
<trkpt lat="-27.3558671" lon="152.7624049">
<ele>447.257</ele>
<time>2017-05-23T02:17:34.698Z</time>
</trkpt>
<trkpt lat="-27.3562208" lon="152.7620605">
<ele>449.075</ele>
<time>2017-05-23T02:17:37.357Z</time>
</trkpt>
<trkpt lat="-27.3566576" lon="152.7620581">
<ele>450.991</ele>
<time>2017-05-23T02:17:39.987Z</time>
</trkpt>
<trkpt lat="-27.3572217" lon="152.7623862">
<ele>452.854</ele>
<time>2017-05-23T02:17:43.899Z</time>
</trkpt>
<trkpt lat="-27.3575627" lon="152.7626369">
<ele>454.751</ele>
<time>2017-05-23T02:17:46.171Z</time>
</trkpt>
<trkpt lat="-27.3581287" lon="152.7627842">
<ele>456.766</ele>
<time>2017-05-23T02:17:49.172Z</time>
</trkpt>
<trkpt lat="-27.3585346" lon="152.7626744">
<ele>458.793</ele>
<time>2017-05-23T02:17:51.286Z</time>
</trkpt>
<trkpt lat="-27.3591542" lon="152.7624891">
<ele>460.891</ele>
<time>2017-05-23T02:17:54.464Z</time>
</trkpt>
<trkpt lat="-27.3598115" lon="152.7624033">
<ele>463.608</ele>
<time>2017-05-23T02:17:57.553Z</time>
</trkpt>
<trkpt lat="-27.3601320" lon="152.7623164">
<ele>467.192</ele>
<time>2017-05-23T02:17:59.088Z</time>
</trkpt>
<trkpt lat="-27.3605256" lon="152.7619659">
<ele>470.849</ele>
<time>2017-05-23T02:18:01.567Z</time>
</trkpt>
<trkpt lat="-27.3609182" lon="152.7617078">
<ele>473.802</ele>
<time>2017-05-23T02:18:04.102Z</time>
</trkpt>
<trkpt lat="-27.3613794" lon="152.7617010">
<ele>476.112</ele>
<time>2017-05-23T02:18:06.855Z</time>
</trkpt>
<trkpt lat="-27.3618683" lon="152.7615158">
<ele>477.754</ele>
<time>2017-05-23T02:18:10.095Z</time>
</trkpt>
<trkpt lat="-27.3623703" lon="152.7610636">
<ele>478.565</ele>
<time>2017-05-23T02:18:14.013Z</time>
</trkpt>
<trkpt lat="-27.3627000" lon="152.7607561">
<ele>478.934</ele>
<time>2017-05-23T02:18:16.261Z</time>
</trkpt>
<trkpt lat="-27.3631611" lon="152.7602957">
<ele>479.391</ele>
<time>2017-05-23T02:18:19.281Z</time>
</trkpt>
<trkpt lat="-27.3636700" lon="152.7601253">
<ele>480.071</ele>
<time>2017-05-23T02:18:21.847Z</time>
</trkpt>
<trkpt lat="-27.3641948" lon="152.7601501">
<ele>481.071</ele>
<time>2017-05-23T02:18:24.570Z</time>
</trkpt>
<trkpt lat="-27.3645528" lon="152.7602860">
<ele>482.684</ele>
<time>2017-05-23T02:18:26.621Z</time>
</trkpt>
<trkpt lat="-27.3650941" lon="152.7605781">
<ele>484.884</ele>
<time>2017-05-23T02:18:29.878Z</time>
</trkpt>
<trkpt lat="-27.3655889" lon="152.7608708">
<ele>487.276</ele>
<time>2017-05-23T02:18:32.741Z</time>
</trkpt>
<trkpt lat="-27.3658955" lon="152.7611988">
<ele>489.441</ele>
<time>2017-05-23T02:18:34.867Z</time>
</trkpt>
<trkpt lat="-27.3661531" lon="152.7616068">
<ele>491.133</ele>
<time>2017-05-23T02:18:37.079Z</time>
</trkpt>
<trkpt lat="-27.3665112" lon="152.7622157">
<ele>492.228</ele>
<time>2017-05-23T02:18:40.155Z</time>
</trkpt>
<trkpt lat="-27.3668851" lon="152.7627683">
<ele>492.684</ele>
<time>2017-05-23T02:18:42.973Z</time>
</trkpt>
<trkpt lat="-27.3672107" lon="152.7629666">
<ele>492.321</ele>
<time>2017-05-23T02:18:44.703Z</time>
</trkpt>
<trkpt lat="-27.3678815" lon="152.7629849">
<ele>491.073</ele>
<time>2017-05-23T02:18:47.956Z</time>
</trkpt>
<trkpt lat="-27.3683154" lon="152.7627988">
<ele>489.527</ele>
<time>2017-05-23T02:18:50.399Z</time>
</trkpt>
<trkpt lat="-27.3687132" lon="152.7626126">
<ele>488.531</ele>
<time>2017-05-23T02:18:52.609Z</time>
</trkpt>
<trkpt lat="-27.3693081" lon="152.7623087">
<ele>488.465</ele>
<time>2017-05-23T02:18:55.612Z</time>
</trkpt>
<trkpt lat="-27.3699074" lon="152.7620102">
<ele>489.343</ele>
<time>2017-05-23T02:18:58.482Z</time>
</trkpt>
<trkpt lat="-27.3704582" lon="152.7618458">
<ele>491.088</ele>
<time>2017-05-23T02:19:01.012Z</time>
</trkpt>
<trkpt lat="-27.3709874" lon="152.7618288">
<ele>493.609</ele>
<time>2017-05-23T02:19:03.575Z</time>
</trkpt>
<trkpt lat="-27.3715068" lon="152.7621486">
<ele>496.785</ele>
<time>2017-05-23T02:19:06.749Z</time>
</trkpt>
<trkpt lat="-27.3718456" lon="152.7623730">
<ele>500.696</ele>
<time>2017-05-23T02:19:08.882Z</time>
</trkpt>
<trkpt lat="-27.3723040" lon="152.7627862">
<ele>504.948</ele>
<time>2017-05-23T02:19:11.992Z</time>
</trkpt>
<trkpt lat="-27.3725855" lon="152.7631253">
<ele>508.413</ele>
<time>2017-05-23T02:19:14.084Z</time>
</trkpt>
<trkpt lat="-27.3730725" lon="152.7636138">
<ele>510.420</ele>
<time>2017-05-23T02:19:17.264Z</time>
</trkpt>
<trkpt lat="-27.3735782" lon="152.7640519">
<ele>510.921</ele>
<time>2017-05-23T02:19:20.233Z</time>
</trkpt>
<trkpt lat="-27.3739430" lon="152.7643089">
<ele>509.724</ele>
<time>2017-05-23T02:19:22.205Z</time>
</trkpt>
<trkpt lat="-27.3745123" lon="152.7648328">
<ele>507.060</ele>
<time>2017-05-23T02:19:25.532Z</time>
</trkpt>
<trkpt lat="-27.3748355" lon="152.7651859">
<ele>503.713</ele>
<time>2017-05-23T02:19:27.508Z</time>
</trkpt>
<trkpt lat="-27.3753080" lon="152.7656967">
<ele>500.748</ele>
<time>2017-05-23T02:19:30.313Z</time>
</trkpt>
<trkpt lat="-27.3756269" lon="152.7659942">
<ele>499.024</ele>
<time>2017-05-23T02:19:32.093Z</time>
</trkpt>
<trkpt lat="-27.3759138" lon="152.7663495">
<ele>498.845</ele>
<time>2017-05-23T02:19:33.964Z</time>
</trkpt>
<trkpt lat="-27.3763514" lon="152.7668469">
<ele>500.106</ele>
<time>2017-05-23T02:19:36.788Z</time>
</trkpt>
<trkpt lat="-27.3767398" lon="152.7673695">
<ele>502.996</ele>
<time>2017-05-23T02:19:39.588Z</time>
</trkpt>
<trkpt lat="-27.3770825" lon="152.7678737">
<ele>507.705</ele>
<time>2017-05-23T02:19:42.257Z</time>
</trkpt>
<trkpt lat="-27.3773270" lon="152.7682284">
<ele>513.090</ele>
<time>2017-05-23T02:19:44.201Z</time>
</trkpt>
<trkpt lat="-27.3777372" lon="152.7687561">
<ele>517.002</ele>
<time>2017-05-23T02:19:47.296Z</time>
</trkpt>
<trkpt lat="-27.3781512" lon="152.7692408">
<ele>518.458</ele>
<time>2017-05-23T02:19:50.197Z</time>
</trkpt>
<trkpt lat="-27.3785968" lon="152.7696032">
<ele>517.852</ele>
<time>2017-05-23T02:19:52.841Z</time>
</trkpt>
<trkpt lat="-27.3788620" lon="152.7698670">
<ele>515.758</ele>
<time>2017-05-23T02:19:54.569Z</time>
</trkpt>
<trkpt lat="-27.3791481" lon="152.7703330">
<ele>512.806</ele>
<time>2017-05-23T02:19:57.111Z</time>
</trkpt>
<trkpt lat="-27.3791526" lon="152.7707469">
<ele>509.657</ele>
<time>2017-05-23T02:19:59.067Z</time>
</trkpt>
<trkpt lat="-27.3789834" lon="152.7712194">
<ele>507.020</ele>
<time>2017-05-23T02:20:01.617Z</time>
</trkpt>
<trkpt lat="-27.3788650" lon="152.7716412">
<ele>505.520</ele>
<time>2017-05-23T02:20:03.829Z</time>
</trkpt>
<trkpt lat="-27.3788720" lon="152.7722501">
<ele>505.351</ele>
<time>2017-05-23T02:20:06.647Z</time>
</trkpt>
<trkpt lat="-27.3789417" lon="152.7726202">
<ele>506.438</ele>
<time>2017-05-23T02:20:08.334Z</time>
</trkpt>
<trkpt lat="-27.3790047" lon="152.7729159">
<ele>508.451</ele>
<time>2017-05-23T02:20:09.703Z</time>
</trkpt>
<trkpt lat="-27.3789631" lon="152.7732977">
<ele>510.423</ele>
<time>2017-05-23T02:20:11.473Z</time>
</trkpt>
<trkpt lat="-27.3786474" lon="152.7736447">
<ele>511.358</ele>
<time>2017-05-23T02:20:14.030Z</time>
</trkpt>
<trkpt lat="-27.3785216" lon="152.7739380">
<ele>510.846</ele>
<time>2017-05-23T02:20:16.006Z</time>
</trkpt>
<trkpt lat="-27.3785373" lon="152.7743159">
<ele>509.149</ele>
<time>2017-05-23T02:20:18.573Z</time>
</trkpt>
<trkpt lat="-27.3786880" lon="152.7748784">
<ele>506.961</ele>
<time>2017-05-23T02:20:22.766Z</time>
</trkpt>
<trkpt lat="-27.3789480" lon="152.7753651">
<ele>504.877</ele>
<time>2017-05-23T02:20:26.184Z</time>
</trkpt>
<trkpt lat="-27.3793353" lon="152.7756735">
<ele>503.016</ele>
<time>2017-05-23T02:20:29.049Z</time>
</trkpt>
<trkpt lat="-27.3796273" lon="152.7757568">
<ele>500.317</ele>
<time>2017-05-23T02:20:30.803Z</time>
</trkpt>
<trkpt lat="-27.3800708" lon="152.7758454">
<ele>495.897</ele>
<time>2017-05-23T02:20:33.581Z</time>
</trkpt>
<trkpt lat="-27.3803754" lon="152.7759208">
<ele>490.922</ele>
<time>2017-05-23T02:20:35.669Z</time>
</trkpt>
<trkpt lat="-27.3807803" lon="152.7760242">
<ele>486.894</ele>
<time>2017-05-23T02:20:38.554Z</time>
</trkpt>
<trkpt lat="-27.3810558" lon="152.7761593">
<ele>483.801</ele>
<time>2017-05-23T02:20:40.603Z</time>
</trkpt>
<trkpt lat="-27.3814111" lon="152.7764564">
<ele>481.233</ele>
<time>2017-05-23T02:20:43.609Z</time>
</trkpt>
<trkpt lat="-27.3817958" lon="152.7767973">
<ele>479.281</ele>
<time>2017-05-23T02:20:46.969Z</time>
</trkpt>
<trkpt lat="-27.3819316" lon="152.7770892">
<ele>477.999</ele>
<time>2017-05-23T02:20:48.950Z</time>
</trkpt>
<trkpt lat="-27.3820986" lon="152.7775742">
<ele>477.423</ele>
<time>2017-05-23T02:20:51.961Z</time>
</trkpt>
<trkpt lat="-27.3823608" lon="152.7779811">
<ele>477.364</ele>
<time>2017-05-23T02:20:54.905Z</time>
</trkpt>
<trkpt lat="-27.3826936" lon="152.7783144">
<ele>475.105</ele>
<time>2017-05-23T02:20:57.844Z</time>
</trkpt>
<trkpt lat="-27.3830751" lon="152.7785887">
<ele>468.922</ele>
<time>2017-05-23T02:21:00.803Z</time>
</trkpt>
<trkpt lat="-27.3834427" lon="152.7788647">
<ele>462.023</ele>
<time>2017-05-23T02:21:03.694Z</time>
</trkpt>
<trkpt lat="-27.3837043" lon="152.7789472">
<ele>457.524</ele>
<time>2017-05-23T02:21:05.463Z</time>
</trkpt>
<trkpt lat="-27.3839802" lon="152.7788664">
<ele>455.115</ele>
<time>2017-05-23T02:21:07.350Z</time>
</trkpt>
<trkpt lat="-27.3842117" lon="152.7786871">
<ele>453.780</ele>
<time>2017-05-23T02:21:09.236Z</time>
</trkpt>
<trkpt lat="-27.3845815" lon="152.7782193">
<ele>452.777</ele>
<time>2017-05-23T02:21:13.213Z</time>
</trkpt>
<trkpt lat="-27.3850508" lon="152.7779370">
<ele>451.648</ele>
<time>2017-05-23T02:21:16.746Z</time>
</trkpt>
<trkpt lat="-27.3854749" lon="152.7779937">
<ele>450.328</ele>
<time>2017-05-23T02:21:19.412Z</time>
</trkpt>
<trkpt lat="-27.3857279" lon="152.7781869">
<ele>449.178</ele>
<time>2017-05-23T02:21:21.313Z</time>
</trkpt>
<trkpt lat="-27.3858266" lon="152.7784314">
<ele>448.544</ele>
<time>2017-05-23T02:21:22.879Z</time>
</trkpt>
<trkpt lat="-27.3858482" lon="152.7788527">
<ele>448.236</ele>
<time>2017-05-23T02:21:25.424Z</time>
</trkpt>
<trkpt lat="-27.3856104" lon="152.7794463">
<ele>447.716</ele>
<time>2017-05-23T02:21:29.899Z</time>
</trkpt>
<trkpt lat="-27.3853391" lon="152.7799095">
<ele>446.629</ele>
<time>2017-05-23T02:21:33.546Z</time>
</trkpt>
<trkpt lat="-27.3851935" lon="152.7801991">
<ele>445.011</ele>
<time>2017-05-23T02:21:35.412Z</time>
</trkpt>
<trkpt lat="-27.3851035" lon="152.7804739">
<ele>443.146</ele>
<time>2017-05-23T02:21:37.000Z</time>
</trkpt>
<trkpt lat="-27.3851282" lon="152.7808135">
<ele>441.316</ele>
<time>2017-05-23T02:21:38.900Z</time>
</trkpt>
<trkpt lat="-27.3852012" lon="152.7811842">
<ele>439.570</ele>
<time>2017-05-23T02:21:41.176Z</time>
</trkpt>
<trkpt lat="-27.3853616" lon="152.7817274">
<ele>437.735</ele>
<time>2017-05-23T02:21:44.573Z</time>
</trkpt>
<trkpt lat="-27.3855002" lon="152.7820298">
<ele>435.991</ele>
<time>2017-05-23T02:21:46.473Z</time>
</trkpt>
<trkpt lat="-27.3857812" lon="152.7822967">
<ele>435.420</ele>
<time>2017-05-23T02:21:48.799Z</time>
</trkpt>
<trkpt lat="-27.3858888" lon="152.7826796">
<ele>437.087</ele>
<time>2017-05-23T02:21:51.296Z</time>
</trkpt>
<trkpt lat="-27.3859017" lon="152.7830923">
<ele>440.140</ele>
<time>2017-05-23T02:21:54.230Z</time>
</trkpt>
<trkpt lat="-27.3859544" lon="152.7834665">
<ele>442.298</ele>
<time>2017-05-23T02:21:57.109Z</time>
</trkpt>
<trkpt lat="-27.3857847" lon="152.7837831">
<ele>442.220</ele>
<time>2017-05-23T02:21:59.842Z</time>
</trkpt>
<trkpt lat="-27.3857265" lon="152.7840642">
<ele>440.333</ele>
<time>2017-05-23T02:22:01.963Z</time>
</trkpt>
<trkpt lat="-27.3857349" lon="152.7845850">
<ele>437.703</ele>
<time>2017-05-23T02:22:05.493Z</time>
</trkpt>
<trkpt lat="-27.3857740" lon="152.7849152">
<ele>434.863</ele>
<time>2017-05-23T02:22:07.549Z</time>
</trkpt>
<trkpt lat="-27.3859258" lon="152.7852685">
<ele>431.940</ele>
<time>2017-05-23T02:22:09.916Z</time>
</trkpt>
<trkpt lat="-27.3862311" lon="152.7854151">
<ele>428.942</ele>
<time>2017-05-23T02:22:12.329Z</time>
</trkpt>
<trkpt lat="-27.3865739" lon="152.7853769">
<ele>421.512</ele>
<time>2017-05-23T02:22:15.129Z</time>
</trkpt>
<trkpt lat="-27.3868885" lon="152.7851351">
<ele>406.845</ele>
<time>2017-05-23T02:22:18.427Z</time>
</trkpt>
<trkpt lat="-27.3869854" lon="152.7848302">
<ele>391.912</ele>
<time>2017-05-23T02:22:20.914Z</time>
</trkpt>
<trkpt lat="-27.3871670" lon="152.7844610">
<ele>384.130</ele>
<time>2017-05-23T02:22:24.147Z</time>
</trkpt>
<trkpt lat="-27.3873712" lon="152.7843022">
<ele>382.618</ele>
<time>2017-05-23T02:22:26.152Z</time>
</trkpt>
<trkpt lat="-27.3875177" lon="152.7844522">
<ele>383.938</ele>
<time>2017-05-23T02:22:27.702Z</time>
</trkpt>
<trkpt lat="-27.3876805" lon="152.7848234">
<ele>385.753</ele>
<time>2017-05-23T02:22:31.136Z</time>
</trkpt>
<trkpt lat="-27.3878355" lon="152.7849270">
<ele>387.429</ele>
<time>2017-05-23T02:22:33.291Z</time>
</trkpt>
<trkpt lat="-27.3881934" lon="152.7847477">
<ele>389.143</ele>
<time>2017-05-23T02:22:37.330Z</time>
</trkpt>
<trkpt lat="-27.3883567" lon="152.7848301">
<ele>391.031</ele>
<time>2017-05-23T02:22:39.160Z</time>
</trkpt>
<trkpt lat="-27.3884821" lon="152.7850054">
<ele>393.000</ele>
<time>2017-05-23T02:22:41.198Z</time>
</trkpt>
<trkpt lat="-27.3887498" lon="152.7850360">
<ele>394.799</ele>
<time>2017-05-23T02:22:43.907Z</time>
</trkpt>
<trkpt lat="-27.3889831" lon="152.7849181">
<ele>396.441</ele>
<time>2017-05-23T02:22:46.598Z</time>
</trkpt>
<trkpt lat="-27.3892536" lon="152.7847681">
<ele>398.305</ele>
<time>2017-05-23T02:22:49.492Z</time>
</trkpt>
<trkpt lat="-27.3895056" lon="152.7846568">
<ele>400.561</ele>
<time>2017-05-23T02:22:51.608Z</time>
</trkpt>
<trkpt lat="-27.3898840" lon="152.7845969">
<ele>403.044</ele>
<time>2017-05-23T02:22:54.333Z</time>
</trkpt>
<trkpt lat="-27.3900399" lon="152.7845463">
<ele>405.564</ele>
<time>2017-05-23T02:22:55.554Z</time>
</trkpt>
<trkpt lat="-27.3902784" lon="152.7846289">
<ele>407.861</ele>
<time>2017-05-23T02:22:57.525Z</time>
</trkpt>
<trkpt lat="-27.3902593" lon="152.7850000">
<ele>409.709</ele>
<time>2017-05-23T02:23:00.996Z</time>
</trkpt>
<trkpt lat="-27.3903462" lon="152.7852154">
<ele>411.211</ele>
<time>2017-05-23T02:23:03.494Z</time>
</trkpt>
<trkpt lat="-27.3905213" lon="152.7852666">
<ele>412.640</ele>
<time>2017-05-23T02:23:05.470Z</time>
</trkpt>
<trkpt lat="-27.3907568" lon="152.7850714">
<ele>414.129</ele>
<time>2017-05-23T02:23:08.684Z</time>
</trkpt>
<trkpt lat="-27.3908632" lon="152.7848588">
<ele>415.799</ele>
<time>2017-05-23T02:23:11.005Z</time>
</trkpt>
<trkpt lat="-27.3911159" lon="152.7846337">
<ele>417.630</ele>
<time>2017-05-23T02:23:14.088Z</time>
</trkpt>
<trkpt lat="-27.3913774" lon="152.7846449">
<ele>419.490</ele>
<time>2017-05-23T02:23:16.524Z</time>
</trkpt>
<trkpt lat="-27.3916321" lon="152.7845806">
<ele>421.308</ele>
<time>2017-05-23T02:23:18.933Z</time>
</trkpt>
<trkpt lat="-27.3916758" lon="152.7842307">
<ele>423.074</ele>
<time>2017-05-23T02:23:22.032Z</time>
</trkpt>
<trkpt lat="-27.3915872" lon="152.7839168">
<ele>424.970</ele>
<time>2017-05-23T02:23:24.887Z</time>
</trkpt>
<trkpt lat="-27.3913911" lon="152.7836594">
<ele>427.276</ele>
<time>2017-05-23T02:23:27.209Z</time>
</trkpt>
<trkpt lat="-27.3911214" lon="152.7833969">
<ele>429.975</ele>
<time>2017-05-23T02:23:29.831Z</time>
</trkpt>
<trkpt lat="-27.3910075" lon="152.7832412">
<ele>432.850</ele>
<time>2017-05-23T02:23:31.218Z</time>
</trkpt>
<trkpt lat="-27.3910041" lon="152.7828901">
<ele>435.557</ele>
<time>2017-05-23T02:23:34.250Z</time>
</trkpt>
<trkpt lat="-27.3911448" lon="152.7826653">
<ele>437.828</ele>
<time>2017-05-23T02:23:36.688Z</time>
</trkpt>
<trkpt lat="-27.3914626" lon="152.7823802">
<ele>439.789</ele>
<time>2017-05-23T02:23:40.082Z</time>
</trkpt>
<trkpt lat="-27.3916380" lon="152.7820027">
<ele>441.778</ele>
<time>2017-05-23T02:23:42.798Z</time>
</trkpt>
<trkpt lat="-27.3918043" lon="152.7814868">
<ele>443.968</ele>
<time>2017-05-23T02:23:45.969Z</time>
</trkpt>
<trkpt lat="-27.3919852" lon="152.7811214">
<ele>446.388</ele>
<time>2017-05-23T02:23:48.580Z</time>
</trkpt>
<trkpt lat="-27.3920391" lon="152.7807207">
<ele>448.909</ele>
<time>2017-05-23T02:23:51.303Z</time>
</trkpt>
<trkpt lat="-27.3921211" lon="152.7803659">
<ele>451.355</ele>
<time>2017-05-23T02:23:53.716Z</time>
</trkpt>
<trkpt lat="-27.3922210" lon="152.7799928">
<ele>453.625</ele>
<time>2017-05-23T02:23:56.338Z</time>
</trkpt>
<trkpt lat="-27.3922930" lon="152.7796620">
<ele>455.642</ele>
<time>2017-05-23T02:23:58.945Z</time>
</trkpt>
<trkpt lat="-27.3922406" lon="152.7794455">
<ele>457.289</ele>
<time>2017-05-23T02:24:00.830Z</time>
</trkpt>
<trkpt lat="-27.3922847" lon="152.7792711">
<ele>458.579</ele>
<time>2017-05-23T02:24:02.494Z</time>
</trkpt>
<trkpt lat="-27.3924445" lon="152.7791079">
<ele>459.591</ele>
<time>2017-05-23T02:24:04.922Z</time>
</trkpt>
<trkpt lat="-27.3927839" lon="152.7789958">
<ele>460.451</ele>
<time>2017-05-23T02:24:08.867Z</time>
</trkpt>
<trkpt lat="-27.3930356" lon="152.7790681">
<ele>461.379</ele>
<time>2017-05-23T02:24:12.004Z</time>
</trkpt>
<trkpt lat="-27.3930673" lon="152.7794114">
<ele>462.436</ele>
<time>2017-05-23T02:24:15.559Z</time>
</trkpt>
<trkpt lat="-27.3930660" lon="152.7796617">
<ele>463.424</ele>
<time>2017-05-23T02:24:17.705Z</time>
</trkpt>
<trkpt lat="-27.3931178" lon="152.7799044">
<ele>464.138</ele>
<time>2017-05-23T02:24:19.784Z</time>
</trkpt>
<trkpt lat="-27.3931349" lon="152.7802613">
<ele>464.491</ele>
<time>2017-05-23T02:24:22.849Z</time>
</trkpt>
<trkpt lat="-27.3933056" lon="152.7803938">
<ele>464.381</ele>
<time>2017-05-23T02:24:24.839Z</time>
</trkpt>
<trkpt lat="-27.3935669" lon="152.7804472">
<ele>463.782</ele>
<time>2017-05-23T02:24:27.173Z</time>
</trkpt>
<trkpt lat="-27.3939268" lon="152.7804675">
<ele>462.871</ele>
<time>2017-05-23T02:24:30.217Z</time>
</trkpt>
<trkpt lat="-27.3941423" lon="152.7804911">
<ele>461.705</ele>
<time>2017-05-23T02:24:32.083Z</time>
</trkpt>
<trkpt lat="-27.3944876" lon="152.7804571">
<ele>460.162</ele>
<time>2017-05-23T02:24:35.129Z</time>
</trkpt>
<trkpt lat="-27.3947713" lon="152.7806765">
<ele>458.236</ele>
<time>2017-05-23T02:24:38.273Z</time>
</trkpt>
<trkpt lat="-27.3949421" lon="152.7808212">
<ele>455.919</ele>
<time>2017-05-23T02:24:40.658Z</time>
</trkpt>
<trkpt lat="-27.3950470" lon="152.7810696">
<ele>453.330</ele>
<time>2017-05-23T02:24:43.658Z</time>
</trkpt>
<trkpt lat="-27.3947286" lon="152.7812643">
<ele>450.666</ele>
<time>2017-05-23T02:24:47.486Z</time>
</trkpt>
<trkpt lat="-27.3945723" lon="152.7816157">
<ele>447.964</ele>
<time>2017-05-23T02:24:50.992Z</time>
</trkpt>
<trkpt lat="-27.3945804" lon="152.7820245">
<ele>445.343</ele>
<time>2017-05-23T02:24:54.211Z</time>
</trkpt>
<trkpt lat="-27.3947838" lon="152.7822053">
<ele>443.003</ele>
<time>2017-05-23T02:24:56.278Z</time>
</trkpt>
<trkpt lat="-27.3951705" lon="152.7823166">
<ele>441.107</ele>
<time>2017-05-23T02:24:59.350Z</time>
</trkpt>
<trkpt lat="-27.3954169" lon="152.7823675">
<ele>439.861</ele>
<time>2017-05-23T02:25:01.296Z</time>
</trkpt>
<trkpt lat="-27.3957878" lon="152.7825210">
<ele>439.302</ele>
<time>2017-05-23T02:25:04.457Z</time>
</trkpt>
<trkpt lat="-27.3960614" lon="152.7827677">
<ele>439.209</ele>
<time>2017-05-23T02:25:07.290Z</time>
</trkpt>
<trkpt lat="-27.3962228" lon="152.7829773">
<ele>439.247</ele>
<time>2017-05-23T02:25:09.289Z</time>
</trkpt>
<trkpt lat="-27.3964485" lon="152.7832973">
<ele>439.114</ele>
<time>2017-05-23T02:25:12.325Z</time>
</trkpt>
<trkpt lat="-27.3966324" lon="152.7834415">
<ele>438.483</ele>
<time>2017-05-23T02:25:14.202Z</time>
</trkpt>
<trkpt lat="-27.3969442" lon="152.7836238">
<ele>437.332</ele>
<time>2017-05-23T02:25:17.095Z</time>
</trkpt>
<trkpt lat="-27.3972955" lon="152.7837232">
<ele>436.213</ele>
<time>2017-05-23T02:25:20.190Z</time>
</trkpt>
<trkpt lat="-27.3976355" lon="152.7837341">
<ele>435.653</ele>
<time>2017-05-23T02:25:23.297Z</time>
</trkpt>
<trkpt lat="-27.3979506" lon="152.7837421">
<ele>435.619</ele>
<time>2017-05-23T02:25:26.291Z</time>
</trkpt>
<trkpt lat="-27.3981707" lon="152.7837700">
<ele>435.810</ele>
<time>2017-05-23T02:25:28.519Z</time>
</trkpt>
<trkpt lat="-27.3983511" lon="152.7838464">
<ele>435.998</ele>
<time>2017-05-23T02:25:30.422Z</time>
</trkpt>
<trkpt lat="-27.3985238" lon="152.7839691">
<ele>436.143</ele>
<time>2017-05-23T02:25:32.382Z</time>
</trkpt>
<trkpt lat="-27.3987197" lon="152.7842755">
<ele>436.335</ele>
<time>2017-05-23T02:25:35.373Z</time>
</trkpt>
<trkpt lat="-27.3987460" lon="152.7846934">
<ele>436.750</ele>
<time>2017-05-23T02:25:38.508Z</time>
</trkpt>
<trkpt lat="-27.3987138" lon="152.7849993">
<ele>437.433</ele>
<time>2017-05-23T02:25:40.760Z</time>
</trkpt>
<trkpt lat="-27.3988321" lon="152.7854912">
<ele>438.116</ele>
<time>2017-05-23T02:25:44.525Z</time>
</trkpt>
<trkpt lat="-27.3990076" lon="152.7858346">
<ele>438.324</ele>
<time>2017-05-23T02:25:47.380Z</time>
</trkpt>
<trkpt lat="-27.3990550" lon="152.7860830">
<ele>437.716</ele>
<time>2017-05-23T02:25:49.065Z</time>
</trkpt>
<trkpt lat="-27.3990535" lon="152.7863782">
<ele>436.585</ele>
<time>2017-05-23T02:25:51.016Z</time>
</trkpt>
<trkpt lat="-27.3990575" lon="152.7866842">
<ele>435.656</ele>
<time>2017-05-23T02:25:53.125Z</time>
</trkpt>
<trkpt lat="-27.3990592" lon="152.7869710">
<ele>435.264</ele>
<time>2017-05-23T02:25:55.173Z</time>
</trkpt>
<trkpt lat="-27.3990950" lon="152.7873928">
<ele>435.254</ele>
<time>2017-05-23T02:25:58.281Z</time>
</trkpt>
<trkpt lat="-27.3991359" lon="152.7876497">
<ele>435.428</ele>
<time>2017-05-23T02:26:00.144Z</time>
</trkpt>
<trkpt lat="-27.3990842" lon="152.7879272">
<ele>435.650</ele>
<time>2017-05-23T02:26:02.206Z</time>
</trkpt>
<trkpt lat="-27.3989631" lon="152.7883198">
<ele>435.818</ele>
<time>2017-05-23T02:26:05.364Z</time>
</trkpt>
<trkpt lat="-27.3988684" lon="152.7885631">
<ele>435.908</ele>
<time>2017-05-23T02:26:07.351Z</time>
</trkpt>
<trkpt lat="-27.3986152" lon="152.7888160">
<ele>436.013</ele>
<time>2017-05-23T02:26:10.129Z</time>
</trkpt>
<trkpt lat="-27.3984117" lon="152.7889721">
<ele>436.485</ele>
<time>2017-05-23T02:26:12.161Z</time>
</trkpt>
<trkpt lat="-27.3982325" lon="152.7891305">
<ele>437.593</ele>
<time>2017-05-23T02:26:13.914Z</time>
</trkpt>
<trkpt lat="-27.3981077" lon="152.7893521">
<ele>439.063</ele>
<time>2017-05-23T02:26:15.543Z</time>
</trkpt>
<trkpt lat="-27.3980838" lon="152.7896725">
<ele>440.437</ele>
<time>2017-05-23T02:26:17.499Z</time>
</trkpt>
<trkpt lat="-27.3981816" lon="152.7901584">
<ele>441.623</ele>
<time>2017-05-23T02:26:20.405Z</time>
</trkpt>
<trkpt lat="-27.3983998" lon="152.7906167">
<ele>442.905</ele>
<time>2017-05-23T02:26:23.433Z</time>
</trkpt>
<trkpt lat="-27.3986237" lon="152.7910378">
<ele>444.411</ele>
<time>2017-05-23T02:26:26.459Z</time>
</trkpt>
<trkpt lat="-27.3988043" lon="152.7912706">
<ele>445.739</ele>
<time>2017-05-23T02:26:28.313Z</time>
</trkpt>
<trkpt lat="-27.3990300" lon="152.7914259">
<ele>446.482</ele>
<time>2017-05-23T02:26:30.062Z</time>
</trkpt>
<trkpt lat="-27.3994965" lon="152.7915427">
<ele>446.899</ele>
<time>2017-05-23T02:26:33.010Z</time>
</trkpt>
<trkpt lat="-27.4000791" lon="152.7917032">
<ele>447.842</ele>
<time>2017-05-23T02:26:36.622Z</time>
</trkpt>
<trkpt lat="-27.4004715" lon="152.7920037">
<ele>449.921</ele>
<time>2017-05-23T02:26:39.799Z</time>
</trkpt>
<trkpt lat="-27.4006410" lon="152.7922778">
<ele>452.965</ele>
<time>2017-05-23T02:26:42.041Z</time>
</trkpt>
<trkpt lat="-27.4009139" lon="152.7924924">
<ele>456.197</ele>
<time>2017-05-23T02:26:44.765Z</time>
</trkpt>
<trkpt lat="-27.4012792" lon="152.7926080">
<ele>458.807</ele>
<time>2017-05-23T02:26:48.131Z</time>
</trkpt>
<trkpt lat="-27.4015966" lon="152.7926634">
<ele>460.722</ele>
<time>2017-05-23T02:26:50.969Z</time>
</trkpt>
<trkpt lat="-27.4016652" lon="152.7929088">
<ele>462.485</ele>
<time>2017-05-23T02:26:52.758Z</time>
</trkpt>
<trkpt lat="-27.4015168" lon="152.7933838">
<ele>464.319</ele>
<time>2017-05-23T02:26:55.965Z</time>
</trkpt>
<trkpt lat="-27.4012522" lon="152.7937821">
<ele>466.256</ele>
<time>2017-05-23T02:26:59.514Z</time>
</trkpt>
<trkpt lat="-27.4010714" lon="152.7941374">
<ele>468.412</ele>
<time>2017-05-23T02:27:02.806Z</time>
</trkpt>
<trkpt lat="-27.4008338" lon="152.7943255">
<ele>470.625</ele>
<time>2017-05-23T02:27:05.271Z</time>
</trkpt>
<trkpt lat="-27.4005989" lon="152.7944289">
<ele>472.501</ele>
<time>2017-05-23T02:27:07.223Z</time>
</trkpt>
<trkpt lat="-27.4004917" lon="152.7948388">
<ele>473.767</ele>
<time>2017-05-23T02:27:09.716Z</time>
</trkpt>
<trkpt lat="-27.4005279" lon="152.7952224">
<ele>474.384</ele>
<time>2017-05-23T02:27:11.694Z</time>
</trkpt>
<trkpt lat="-27.4006214" lon="152.7956207">
<ele>474.718</ele>
<time>2017-05-23T02:27:13.773Z</time>
</trkpt>
<trkpt lat="-27.4007910" lon="152.7961508">
<ele>475.284</ele>
<time>2017-05-23T02:27:16.640Z</time>
</trkpt>
<trkpt lat="-27.4009340" lon="152.7964897">
<ele>476.204</ele>
<time>2017-05-23T02:27:18.582Z</time>
</trkpt>
<trkpt lat="-27.4010558" lon="152.7968315">
<ele>477.157</ele>
<time>2017-05-23T02:27:20.500Z</time>
</trkpt>
<trkpt lat="-27.4013345" lon="152.7973549">
<ele>477.792</ele>
<time>2017-05-23T02:27:23.755Z</time>
</trkpt>
<trkpt lat="-27.4014894" lon="152.7979002">
<ele>478.018</ele>
<time>2017-05-23T02:27:26.902Z</time>
</trkpt>
<trkpt lat="-27.4015706" lon="152.7983955">
<ele>477.691</ele>
<time>2017-05-23T02:27:29.657Z</time>
</trkpt>
<trkpt lat="-27.4015452" lon="152.7989466">
<ele>476.601</ele>
<time>2017-05-23T02:27:32.697Z</time>
</trkpt>
<trkpt lat="-27.4012174" lon="152.7993532">
<ele>475.105</ele>
<time>2017-05-23T02:27:35.872Z</time>
</trkpt>
<trkpt lat="-27.4007501" lon="152.7995520">
<ele>473.960</ele>
<time>2017-05-23T02:27:39.559Z</time>
</trkpt>
<trkpt lat="-27.4004765" lon="152.7996600">
<ele>473.792</ele>
<time>2017-05-23T02:27:41.692Z</time>
</trkpt>
<trkpt lat="-27.4002444" lon="152.8000131">
<ele>474.822</ele>
<time>2017-05-23T02:27:44.240Z</time>
</trkpt>
<trkpt lat="-27.4003347" lon="152.8005397">
<ele>476.818</ele>
<time>2017-05-23T02:27:46.903Z</time>
</trkpt>
<trkpt lat="-27.4005120" lon="152.8011706">
<ele>479.821</ele>
<time>2017-05-23T02:27:49.874Z</time>
</trkpt>
<trkpt lat="-27.4005199" lon="152.8018786">
<ele>484.238</ele>
<time>2017-05-23T02:27:53.095Z</time>
</trkpt>
<trkpt lat="-27.4004897" lon="152.8022968">
<ele>489.660</ele>
<time>2017-05-23T02:27:55.109Z</time>
</trkpt>
<trkpt lat="-27.4005195" lon="152.8027034">
<ele>494.761</ele>
<time>2017-05-23T02:27:57.075Z</time>
</trkpt>
<trkpt lat="-27.4005831" lon="152.8032962">
<ele>498.472</ele>
<time>2017-05-23T02:27:59.962Z</time>
</trkpt>
<trkpt lat="-27.4006465" lon="152.8039871">
<ele>500.532</ele>
<time>2017-05-23T02:28:03.441Z</time>
</trkpt>
<trkpt lat="-27.4006780" lon="152.8043714">
<ele>501.118</ele>
<time>2017-05-23T02:28:05.489Z</time>
</trkpt>
<trkpt lat="-27.4006926" lon="152.8049250">
<ele>500.501</ele>
<time>2017-05-23T02:28:08.843Z</time>
</trkpt>
<trkpt lat="-27.4006899" lon="152.8052803">
<ele>499.273</ele>
<time>2017-05-23T02:28:11.213Z</time>
</trkpt>
<trkpt lat="-27.4004233" lon="152.8056915">
<ele>498.241</ele>
<time>2017-05-23T02:28:14.454Z</time>
</trkpt>
<trkpt lat="-27.3999771" lon="152.8056886">
<ele>498.243</ele>
<time>2017-05-23T02:28:17.709Z</time>
</trkpt>
<trkpt lat="-27.3995954" lon="152.8054089">
<ele>499.415</ele>
<time>2017-05-23T02:28:21.057Z</time>
</trkpt>
<trkpt lat="-27.3993473" lon="152.8053903">
<ele>500.828</ele>
<time>2017-05-23T02:28:22.760Z</time>
</trkpt>
<trkpt lat="-27.3990412" lon="152.8056869">
<ele>501.524</ele>
<time>2017-05-23T02:28:25.301Z</time>
</trkpt>
<trkpt lat="-27.3988814" lon="152.8062033">
<ele>501.409</ele>
<time>2017-05-23T02:28:28.100Z</time>
</trkpt>
<trkpt lat="-27.3989597" lon="152.8067453">
<ele>500.704</ele>
<time>2017-05-23T02:28:30.674Z</time>
</trkpt>
<trkpt lat="-27.3991319" lon="152.8074026">
<ele>499.574</ele>
<time>2017-05-23T02:28:33.855Z</time>
</trkpt>
<trkpt lat="-27.3993419" lon="152.8077705">
<ele>498.100</ele>
<time>2017-05-23T02:28:36.122Z</time>
</trkpt>
<trkpt lat="-27.3995943" lon="152.8082907">
<ele>496.410</ele>
<time>2017-05-23T02:28:40.014Z</time>
</trkpt>
<trkpt lat="-27.3996662" lon="152.8086146">
<ele>494.404</ele>
<time>2017-05-23T02:28:42.751Z</time>
</trkpt>
<trkpt lat="-27.3996105" lon="152.8089047">
<ele>491.979</ele>
<time>2017-05-23T02:28:45.015Z</time>
</trkpt>
<trkpt lat="-27.3996428" lon="152.8091433">
<ele>489.395</ele>
<time>2017-05-23T02:28:46.704Z</time>
</trkpt>
<trkpt lat="-27.3999250" lon="152.8093791">
<ele>486.903</ele>
<time>2017-05-23T02:28:49.206Z</time>
</trkpt>
<trkpt lat="-27.4001836" lon="152.8097573">
<ele>484.362</ele>
<time>2017-05-23T02:28:52.087Z</time>
</trkpt>
<trkpt lat="-27.4002058" lon="152.8102601">
<ele>481.670</ele>
<time>2017-05-23T02:28:55.055Z</time>
</trkpt>
<trkpt lat="-27.4002521" lon="152.8105710">
<ele>479.060</ele>
<time>2017-05-23T02:28:56.676Z</time>
</trkpt>
<trkpt lat="-27.4002329" lon="152.8108884">
<ele>476.862</ele>
<time>2017-05-23T02:28:58.297Z</time>
</trkpt>
<trkpt lat="-27.4000393" lon="152.8111977">
<ele>475.046</ele>
<time>2017-05-23T02:29:00.149Z</time>
</trkpt>
<trkpt lat="-27.3998583" lon="152.8118227">
<ele>473.393</ele>
<time>2017-05-23T02:29:03.581Z</time>
</trkpt>
<trkpt lat="-27.3997611" lon="152.8123823">
<ele>471.810</ele>
<time>2017-05-23T02:29:06.492Z</time>
</trkpt>
<trkpt lat="-27.3997186" lon="152.8126856">
<ele>469.997</ele>
<time>2017-05-23T02:29:07.925Z</time>
</trkpt>
<trkpt lat="-27.3999358" lon="152.8132872">
<ele>467.612</ele>
<time>2017-05-23T02:29:10.994Z</time>
</trkpt>
<trkpt lat="-27.4000530" lon="152.8139402">
<ele>465.000</ele>
<time>2017-05-23T02:29:14.524Z</time>
</trkpt>
<trkpt lat="-27.4000729" lon="152.8143452">
<ele>462.657</ele>
<time>2017-05-23T02:29:17.114Z</time>
</trkpt>
<trkpt lat="-27.4001502" lon="152.8148665">
<ele>460.573</ele>
<time>2017-05-23T02:29:21.041Z</time>
</trkpt>
<trkpt lat="-27.4002450" lon="152.8151108">
<ele>458.466</ele>
<time>2017-05-23T02:29:23.076Z</time>
</trkpt>
<trkpt lat="-27.4004200" lon="152.8153134">
<ele>456.178</ele>
<time>2017-05-23T02:29:25.139Z</time>
</trkpt>
<trkpt lat="-27.4006564" lon="152.8153106">
<ele>453.931</ele>
<time>2017-05-23T02:29:26.790Z</time>
</trkpt>
<trkpt lat="-27.4009388" lon="152.8149796">
<ele>451.999</ele>
<time>2017-05-23T02:29:29.323Z</time>
</trkpt>
<trkpt lat="-27.4011099" lon="152.8147660">
<ele>450.231</ele>
<time>2017-05-23T02:29:30.694Z</time>
</trkpt>
<trkpt lat="-27.4015770" lon="152.8147608">
<ele>448.372</ele>
<time>2017-05-23T02:29:33.022Z</time>
</trkpt>
<trkpt lat="-27.4020335" lon="152.8148303">
<ele>446.616</ele>
<time>2017-05-23T02:29:35.229Z</time>
</trkpt>
<trkpt lat="-27.4024880" lon="152.8148562">
<ele>445.380</ele>
<time>2017-05-23T02:29:37.418Z</time>
</trkpt>
<trkpt lat="-27.4029020" lon="152.8149360">
<ele>444.707</ele>
<time>2017-05-23T02:29:39.531Z</time>
</trkpt>
<trkpt lat="-27.4034910" lon="152.8150972">
<ele>444.393</ele>
<time>2017-05-23T02:29:42.892Z</time>
</trkpt>
<trkpt lat="-27.4040233" lon="152.8151949">
<ele>444.458</ele>
<time>2017-05-23T02:29:46.039Z</time>
</trkpt>
<trkpt lat="-27.4043397" lon="152.8153177">
<ele>444.885</ele>
<time>2017-05-23T02:29:47.892Z</time>
</trkpt>
<trkpt lat="-27.4046198" lon="152.8154760">
<ele>445.288</ele>
<time>2017-05-23T02:29:49.641Z</time>
</trkpt>
<trkpt lat="-27.4048984" lon="152.8157398">
<ele>445.156</ele>
<time>2017-05-23T02:29:51.740Z</time>
</trkpt>
<trkpt lat="-27.4053250" lon="152.8160852">
<ele>444.263</ele>
<time>2017-05-23T02:29:54.883Z</time>
</trkpt>
<trkpt lat="-27.4056375" lon="152.8162369">
<ele>442.913</ele>
<time>2017-05-23T02:29:56.916Z</time>
</trkpt>
<trkpt lat="-27.4060655" lon="152.8164465">
<ele>441.735</ele>
<time>2017-05-23T02:29:59.616Z</time>
</trkpt>
<trkpt lat="-27.4064756" lon="152.8167824">
<ele>441.051</ele>
<time>2017-05-23T02:30:02.795Z</time>
</trkpt>
<trkpt lat="-27.4068774" lon="152.8171886">
<ele>440.589</ele>
<time>2017-05-23T02:30:06.932Z</time>
</trkpt>
<trkpt lat="-27.4072080" lon="152.8174595">
<ele>439.708</ele>
<time>2017-05-23T02:30:10.149Z</time>
</trkpt>
<trkpt lat="-27.4074334" lon="152.8177935">
<ele>437.716</ele>
<time>2017-05-23T02:30:12.525Z</time>
</trkpt>
<trkpt lat="-27.4074421" lon="152.8180634">
<ele>434.344</ele>
<time>2017-05-23T02:30:13.925Z</time>
</trkpt>
<trkpt lat="-27.4076220" lon="152.8185132">
<ele>430.157</ele>
<time>2017-05-23T02:30:16.115Z</time>
</trkpt>
<trkpt lat="-27.4080405" lon="152.8191007">
<ele>425.851</ele>
<time>2017-05-23T02:30:19.397Z</time>
</trkpt>
<trkpt lat="-27.4083419" lon="152.8193721">
<ele>421.904</ele>
<time>2017-05-23T02:30:21.276Z</time>
</trkpt>
<trkpt lat="-27.4087885" lon="152.8198249">
<ele>418.869</ele>
<time>2017-05-23T02:30:24.250Z</time>
</trkpt>
<trkpt lat="-27.4090960" lon="152.8201226">
<ele>416.681</ele>
<time>2017-05-23T02:30:26.291Z</time>
</trkpt>
<trkpt lat="-27.4095292" lon="152.8205811">
<ele>414.728</ele>
<time>2017-05-23T02:30:29.398Z</time>
</trkpt>
<trkpt lat="-27.4098674" lon="152.8208356">
<ele>412.860</ele>
<time>2017-05-23T02:30:31.734Z</time>
</trkpt>
<trkpt lat="-27.4102627" lon="152.8212992">
<ele>411.148</ele>
<time>2017-05-23T02:30:35.085Z</time>
</trkpt>
<trkpt lat="-27.4103675" lon="152.8216100">
<ele>409.350</ele>
<time>2017-05-23T02:30:36.718Z</time>
</trkpt>
<trkpt lat="-27.4104942" lon="152.8219287">
<ele>407.399</ele>
<time>2017-05-23T02:30:38.428Z</time>
</trkpt>
<trkpt lat="-27.4106241" lon="152.8222981">
<ele>405.819</ele>
<time>2017-05-23T02:30:40.354Z</time>
</trkpt>
<trkpt lat="-27.4108194" lon="152.8228639">
<ele>404.955</ele>
<time>2017-05-23T02:30:43.314Z</time>
</trkpt>
<trkpt lat="-27.4109881" lon="152.8234357">
<ele>404.131</ele>
<time>2017-05-23T02:30:46.167Z</time>
</trkpt>
<trkpt lat="-27.4111312" lon="152.8238479">
<ele>402.238</ele>
<time>2017-05-23T02:30:48.222Z</time>
</trkpt>
<trkpt lat="-27.4111301" lon="152.8245245">
<ele>399.075</ele>
<time>2017-05-23T02:30:51.505Z</time>
</trkpt>
<trkpt lat="-27.4111091" lon="152.8249679">
<ele>395.126</ele>
<time>2017-05-23T02:30:53.600Z</time>
</trkpt>
<trkpt lat="-27.4111475" lon="152.8253420">
<ele>390.861</ele>
<time>2017-05-23T02:30:55.232Z</time>
</trkpt>
<trkpt lat="-27.4113432" lon="152.8259288">
<ele>387.220</ele>
<time>2017-05-23T02:30:57.729Z</time>
</trkpt>
<trkpt lat="-27.4116442" lon="152.8263356">
<ele>385.180</ele>
<time>2017-05-23T02:30:59.812Z</time>
</trkpt>
<trkpt lat="-27.4122663" lon="152.8268223">
<ele>384.617</ele>
<time>2017-05-23T02:31:03.598Z</time>
</trkpt>
<trkpt lat="-27.4126111" lon="152.8270970">
<ele>384.823</ele>
<time>2017-05-23T02:31:06.004Z</time>
</trkpt>
<trkpt lat="-27.4129145" lon="152.8273801">
<ele>385.434</ele>
<time>2017-05-23T02:31:08.438Z</time>
</trkpt>
<trkpt lat="-27.4133119" lon="152.8277159">
<ele>386.466</ele>
<time>2017-05-23T02:31:11.396Z</time>
</trkpt>
<trkpt lat="-27.4134501" lon="152.8280184">
<ele>387.851</ele>
<time>2017-05-23T02:31:13.156Z</time>
</trkpt>
<trkpt lat="-27.4134575" lon="152.8284420">
<ele>389.431</ele>
<time>2017-05-23T02:31:15.495Z</time>
</trkpt>
<trkpt lat="-27.4134524" lon="152.8288271">
<ele>391.260</ele>
<time>2017-05-23T02:31:17.724Z</time>
</trkpt>
<trkpt lat="-27.4135319" lon="152.8291984">
<ele>393.396</ele>
<time>2017-05-23T02:31:19.830Z</time>
</trkpt>
<trkpt lat="-27.4136769" lon="152.8294724">
<ele>395.577</ele>
<time>2017-05-23T02:31:21.419Z</time>
</trkpt>
<trkpt lat="-27.4138740" lon="152.8296738">
<ele>397.440</ele>
<time>2017-05-23T02:31:22.895Z</time>
</trkpt>
<trkpt lat="-27.4143655" lon="152.8298584">
<ele>398.956</ele>
<time>2017-05-23T02:31:25.941Z</time>
</trkpt>
<trkpt lat="-27.4149118" lon="152.8299340">
<ele>400.249</ele>
<time>2017-05-23T02:31:29.178Z</time>
</trkpt>
<trkpt lat="-27.4151880" lon="152.8300668">
<ele>401.216</ele>
<time>2017-05-23T02:31:30.896Z</time>
</trkpt>
<trkpt lat="-27.4154472" lon="152.8303069">
<ele>401.348</ele>
<time>2017-05-23T02:31:32.802Z</time>
</trkpt>
<trkpt lat="-27.4158441" lon="152.8307058">
<ele>400.380</ele>
<time>2017-05-23T02:31:35.725Z</time>
</trkpt>
<trkpt lat="-27.4161064" lon="152.8309560">
<ele>398.975</ele>
<time>2017-05-23T02:31:37.456Z</time>
</trkpt>
<trkpt lat="-27.4163076" lon="152.8312583">
<ele>398.093</ele>
<time>2017-05-23T02:31:39.085Z</time>
</trkpt>
<trkpt lat="-27.4164792" lon="152.8317129">
<ele>398.201</ele>
<time>2017-05-23T02:31:41.183Z</time>
</trkpt>
<trkpt lat="-27.4166284" lon="152.8321662">
<ele>399.102</ele>
<time>2017-05-23T02:31:43.196Z</time>
</trkpt>
<trkpt lat="-27.4168861" lon="152.8329128">
<ele>400.059</ele>
<time>2017-05-23T02:31:46.578Z</time>
</trkpt>
<trkpt lat="-27.4171590" lon="152.8335563">
<ele>400.149</ele>
<time>2017-05-23T02:31:49.781Z</time>
</trkpt>
<trkpt lat="-27.4173193" lon="152.8339501">
<ele>398.972</ele>
<time>2017-05-23T02:31:51.852Z</time>
</trkpt>
<trkpt lat="-27.4175718" lon="152.8344955">
<ele>397.229</ele>
<time>2017-05-23T02:31:55.279Z</time>
</trkpt>
<trkpt lat="-27.4177519" lon="152.8350202">
<ele>395.871</ele>
<time>2017-05-23T02:31:58.508Z</time>
</trkpt>
<trkpt lat="-27.4177645" lon="152.8353297">
<ele>394.503</ele>
<time>2017-05-23T02:32:00.138Z</time>
</trkpt>
<trkpt lat="-27.4177524" lon="152.8358321">
<ele>392.655</ele>
<time>2017-05-23T02:32:02.654Z</time>
</trkpt>
<trkpt lat="-27.4178389" lon="152.8361921">
<ele>391.387</ele>
<time>2017-05-23T02:32:04.493Z</time>
</trkpt>
<trkpt lat="-27.4179471" lon="152.8365841">
<ele>391.745</ele>
<time>2017-05-23T02:32:06.513Z</time>
</trkpt>
<trkpt lat="-27.4181757" lon="152.8372022">
<ele>393.079</ele>
<time>2017-05-23T02:32:09.815Z</time>
</trkpt>
<trkpt lat="-27.4182842" lon="152.8375868">
<ele>393.904</ele>
<time>2017-05-23T02:32:11.700Z</time>
</trkpt>
<trkpt lat="-27.4182293" lon="152.8381532">
<ele>393.316</ele>
<time>2017-05-23T02:32:14.235Z</time>
</trkpt>
<trkpt lat="-27.4178772" lon="152.8387651">
<ele>391.311</ele>
<time>2017-05-23T02:32:17.359Z</time>
</trkpt>
<trkpt lat="-27.4176636" lon="152.8392596">
<ele>388.366</ele>
<time>2017-05-23T02:32:19.715Z</time>
</trkpt>
<trkpt lat="-27.4175322" lon="152.8399241">
<ele>384.849</ele>
<time>2017-05-23T02:32:22.673Z</time>
</trkpt>
<trkpt lat="-27.4174687" lon="152.8405832">
<ele>380.039</ele>
<time>2017-05-23T02:32:25.555Z</time>
</trkpt>
<trkpt lat="-27.4173589" lon="152.8412216">
<ele>374.171</ele>
<time>2017-05-23T02:32:28.384Z</time>
</trkpt>
<trkpt lat="-27.4172778" lon="152.8416746">
<ele>369.854</ele>
<time>2017-05-23T02:32:30.446Z</time>
</trkpt>
<trkpt lat="-27.4171129" lon="152.8423201">
<ele>368.628</ele>
<time>2017-05-23T02:32:33.499Z</time>
</trkpt>
<trkpt lat="-27.4170582" lon="152.8429405">
<ele>369.363</ele>
<time>2017-05-23T02:32:36.279Z</time>
</trkpt>
<trkpt lat="-27.4171580" lon="152.8433616">
<ele>370.886</ele>
<time>2017-05-23T02:32:38.149Z</time>
</trkpt>
<trkpt lat="-27.4173325" lon="152.8437492">
<ele>372.885</ele>
<time>2017-05-23T02:32:39.988Z</time>
</trkpt>
<trkpt lat="-27.4175855" lon="152.8441174">
<ele>375.253</ele>
<time>2017-05-23T02:32:41.939Z</time>
</trkpt>
<trkpt lat="-27.4180070" lon="152.8446325">
<ele>377.715</ele>
<time>2017-05-23T02:32:44.868Z</time>
</trkpt>
<trkpt lat="-27.4182716" lon="152.8449787">
<ele>379.876</ele>
<time>2017-05-23T02:32:46.770Z</time>
</trkpt>
<trkpt lat="-27.4186530" lon="152.8455290">
<ele>381.272</ele>
<time>2017-05-23T02:32:49.645Z</time>
</trkpt>
<trkpt lat="-27.4188848" lon="152.8459255">
<ele>381.324</ele>
<time>2017-05-23T02:32:51.618Z</time>
</trkpt>
<trkpt lat="-27.4190668" lon="152.8463666">
<ele>379.743</ele>
<time>2017-05-23T02:32:53.677Z</time>
</trkpt>
<trkpt lat="-27.4192319" lon="152.8467943">
<ele>377.185</ele>
<time>2017-05-23T02:32:55.681Z</time>
</trkpt>
<trkpt lat="-27.4194857" lon="152.8474081">
<ele>374.927</ele>
<time>2017-05-23T02:32:58.595Z</time>
</trkpt>
<trkpt lat="-27.4196399" lon="152.8478235">
<ele>373.758</ele>
<time>2017-05-23T02:33:00.515Z</time>
</trkpt>
<trkpt lat="-27.4198362" lon="152.8482197">
<ele>373.671</ele>
<time>2017-05-23T02:33:02.432Z</time>
</trkpt>
<trkpt lat="-27.4200774" lon="152.8485852">
<ele>374.262</ele>
<time>2017-05-23T02:33:04.375Z</time>
</trkpt>
<trkpt lat="-27.4205009" lon="152.8491051">
<ele>375.319</ele>
<time>2017-05-23T02:33:07.873Z</time>
</trkpt>
<trkpt lat="-27.4207270" lon="152.8494447">
<ele>377.164</ele>
<time>2017-05-23T02:33:10.432Z</time>
</trkpt>
<trkpt lat="-27.4209360" lon="152.8496823">
<ele>379.979</ele>
<time>2017-05-23T02:33:12.439Z</time>
</trkpt>
<trkpt lat="-27.4211532" lon="152.8500092">
<ele>383.052</ele>
<time>2017-05-23T02:33:14.599Z</time>
</trkpt>
<trkpt lat="-27.4210432" lon="152.8505159">
<ele>385.514</ele>
<time>2017-05-23T02:33:17.137Z</time>
</trkpt>
<trkpt lat="-27.4208298" lon="152.8509590">
<ele>387.307</ele>
<time>2017-05-23T02:33:19.540Z</time>
</trkpt>
<trkpt lat="-27.4205915" lon="152.8515775">
<ele>388.729</ele>
<time>2017-05-23T02:33:22.664Z</time>
</trkpt>
<trkpt lat="-27.4204905" lon="152.8519733">
<ele>390.109</ele>
<time>2017-05-23T02:33:24.620Z</time>
</trkpt>
<trkpt lat="-27.4203927" lon="152.8526044">
<ele>391.679</ele>
<time>2017-05-23T02:33:27.751Z</time>
</trkpt>
<trkpt lat="-27.4202828" lon="152.8531753">
<ele>393.161</ele>
<time>2017-05-23T02:33:30.657Z</time>
</trkpt>
<trkpt lat="-27.4203082" lon="152.8535707">
<ele>393.739</ele>
<time>2017-05-23T02:33:32.621Z</time>
</trkpt>
<trkpt lat="-27.4204322" lon="152.8541401">
<ele>393.094</ele>
<time>2017-05-23T02:33:35.454Z</time>
</trkpt>
<trkpt lat="-27.4204264" lon="152.8547481">
<ele>391.676</ele>
<time>2017-05-23T02:33:38.286Z</time>
</trkpt>
<trkpt lat="-27.4204604" lon="152.8551751">
<ele>389.746</ele>
<time>2017-05-23T02:33:40.268Z</time>
</trkpt>
<trkpt lat="-27.4206165" lon="152.8557671">
<ele>387.231</ele>
<time>2017-05-23T02:33:43.040Z</time>
</trkpt>
<trkpt lat="-27.4206988" lon="152.8561875">
<ele>384.276</ele>
<time>2017-05-23T02:33:44.991Z</time>
</trkpt>
<trkpt lat="-27.4206433" lon="152.8567396">
<ele>381.227</ele>
<time>2017-05-23T02:33:47.631Z</time>
</trkpt>
<trkpt lat="-27.4205739" lon="152.8573410">
<ele>378.479</ele>
<time>2017-05-23T02:33:50.705Z</time>
</trkpt>
<trkpt lat="-27.4205630" lon="152.8577346">
<ele>376.065</ele>
<time>2017-05-23T02:33:52.781Z</time>
</trkpt>
<trkpt lat="-27.4206794" lon="152.8582885">
<ele>373.914</ele>
<time>2017-05-23T02:33:55.950Z</time>
</trkpt>
<trkpt lat="-27.4208986" lon="152.8587592">
<ele>372.180</ele>
<time>2017-05-23T02:33:59.134Z</time>
</trkpt>
<trkpt lat="-27.4210089" lon="152.8592218">
<ele>370.414</ele>
<time>2017-05-23T02:34:01.731Z</time>
</trkpt>
<trkpt lat="-27.4210027" lon="152.8595341">
<ele>367.854</ele>
<time>2017-05-23T02:34:03.256Z</time>
</trkpt>
<trkpt lat="-27.4211396" lon="152.8598937">
<ele>364.740</ele>
<time>2017-05-23T02:34:05.129Z</time>
</trkpt>
<trkpt lat="-27.4213956" lon="152.8604655">
<ele>361.797</ele>
<time>2017-05-23T02:34:08.255Z</time>
</trkpt>
<trkpt lat="-27.4216014" lon="152.8610245">
<ele>359.034</ele>
<time>2017-05-23T02:34:11.750Z</time>
</trkpt>
<trkpt lat="-27.4216596" lon="152.8613729">
<ele>356.495</ele>
<time>2017-05-23T02:34:13.802Z</time>
</trkpt>
<trkpt lat="-27.4215962" lon="152.8616344">
<ele>354.900</ele>
<time>2017-05-23T02:34:15.250Z</time>
</trkpt>
<trkpt lat="-27.4214772" lon="152.8619576">
<ele>354.603</ele>
<time>2017-05-23T02:34:17.026Z</time>
</trkpt>
<trkpt lat="-27.4213912" lon="152.8625536">
<ele>355.334</ele>
<time>2017-05-23T02:34:19.961Z</time>
</trkpt>
<trkpt lat="-27.4213029" lon="152.8629471">
<ele>356.901</ele>
<time>2017-05-23T02:34:22.022Z</time>
</trkpt>
<trkpt lat="-27.4211846" lon="152.8633222">
<ele>358.772</ele>
<time>2017-05-23T02:34:24.208Z</time>
</trkpt>
<trkpt lat="-27.4210788" lon="152.8638659">
<ele>360.055</ele>
<time>2017-05-23T02:34:27.573Z</time>
</trkpt>
<trkpt lat="-27.4209613" lon="152.8642958">
<ele>360.327</ele>
<time>2017-05-23T02:34:30.297Z</time>
</trkpt>
<trkpt lat="-27.4207279" lon="152.8645072">
<ele>359.856</ele>
<time>2017-05-23T02:34:32.332Z</time>
</trkpt>
<trkpt lat="-27.4204033" lon="152.8648285">
<ele>359.036</ele>
<time>2017-05-23T02:34:35.582Z</time>
</trkpt>
<trkpt lat="-27.4200959" lon="152.8650091">
<ele>357.874</ele>
<time>2017-05-23T02:34:38.697Z</time>
</trkpt>
<trkpt lat="-27.4198337" lon="152.8652079">
<ele>356.096</ele>
<time>2017-05-23T02:34:41.507Z</time>
</trkpt>
<trkpt lat="-27.4198565" lon="152.8655686">
<ele>353.477</ele>
<time>2017-05-23T02:34:44.265Z</time>
</trkpt>
<trkpt lat="-27.4199715" lon="152.8658242">
<ele>350.078</ele>
<time>2017-05-23T02:34:46.230Z</time>
</trkpt>
<trkpt lat="-27.4201384" lon="152.8661624">
<ele>346.561</ele>
<time>2017-05-23T02:34:48.327Z</time>
</trkpt>
<trkpt lat="-27.4200663" lon="152.8664694">
<ele>343.457</ele>
<time>2017-05-23T02:34:49.830Z</time>
</trkpt>
<trkpt lat="-27.4198641" lon="152.8668304">
<ele>340.710</ele>
<time>2017-05-23T02:34:51.812Z</time>
</trkpt>
<trkpt lat="-27.4194793" lon="152.8673312">
<ele>338.446</ele>
<time>2017-05-23T02:34:54.842Z</time>
</trkpt>
<trkpt lat="-27.4189581" lon="152.8677078">
<ele>336.732</ele>
<time>2017-05-23T02:34:58.229Z</time>
</trkpt>
<trkpt lat="-27.4185787" lon="152.8681253">
<ele>335.146</ele>
<time>2017-05-23T02:35:01.349Z</time>
</trkpt>
<trkpt lat="-27.4183250" lon="152.8683453">
<ele>333.515</ele>
<time>2017-05-23T02:35:03.269Z</time>
</trkpt>
<trkpt lat="-27.4180753" lon="152.8686044">
<ele>332.101</ele>
<time>2017-05-23T02:35:05.259Z</time>
</trkpt>
<trkpt lat="-27.4177691" lon="152.8690310">
<ele>330.970</ele>
<time>2017-05-23T02:35:07.942Z</time>
</trkpt>
<trkpt lat="-27.4177308" lon="152.8694428">
<ele>330.000</ele>
<time>2017-05-23T02:35:09.955Z</time>
</trkpt>
<trkpt lat="-27.4176699" lon="152.8700545">
<ele>329.313</ele>
<time>2017-05-23T02:35:13.034Z</time>
</trkpt>
<trkpt lat="-27.4176539" lon="152.8704287">
<ele>329.213</ele>
<time>2017-05-23T02:35:14.894Z</time>
</trkpt>
<trkpt lat="-27.4176621" lon="152.8708273">
<ele>329.821</ele>
<time>2017-05-23T02:35:16.914Z</time>
</trkpt>
<trkpt lat="-27.4176803" lon="152.8714280">
<ele>331.015</ele>
<time>2017-05-23T02:35:20.122Z</time>
</trkpt>
<trkpt lat="-27.4177289" lon="152.8719535">
<ele>332.399</ele>
<time>2017-05-23T02:35:23.118Z</time>
</trkpt>
<trkpt lat="-27.4178125" lon="152.8724747">
<ele>333.458</ele>
<time>2017-05-23T02:35:26.009Z</time>
</trkpt>
<trkpt lat="-27.4179634" lon="152.8728142">
<ele>333.499</ele>
<time>2017-05-23T02:35:27.828Z</time>
</trkpt>
<trkpt lat="-27.4182009" lon="152.8731288">
<ele>332.129</ele>
<time>2017-05-23T02:35:29.766Z</time>
</trkpt>
<trkpt lat="-27.4186002" lon="152.8735954">
<ele>329.870</ele>
<time>2017-05-23T02:35:32.712Z</time>
</trkpt>
<trkpt lat="-27.4190402" lon="152.8740404">
<ele>327.575</ele>
<time>2017-05-23T02:35:35.822Z</time>
</trkpt>
<trkpt lat="-27.4192756" lon="152.8743531">
<ele>325.406</ele>
<time>2017-05-23T02:35:37.766Z</time>
</trkpt>
<trkpt lat="-27.4194795" lon="152.8748824">
<ele>323.293</ele>
<time>2017-05-23T02:35:40.449Z</time>
</trkpt>
<trkpt lat="-27.4196005" lon="152.8753761">
<ele>321.550</ele>
<time>2017-05-23T02:35:42.868Z</time>
</trkpt>
<trkpt lat="-27.4197099" lon="152.8759903">
<ele>320.551</ele>
<time>2017-05-23T02:35:46.072Z</time>
</trkpt>
<trkpt lat="-27.4199303" lon="152.8764777">
<ele>320.421</ele>
<time>2017-05-23T02:35:49.150Z</time>
</trkpt>
<trkpt lat="-27.4202707" lon="152.8768551">
<ele>321.347</ele>
<time>2017-05-23T02:35:52.481Z</time>
</trkpt>
<trkpt lat="-27.4204772" lon="152.8770449">
<ele>323.476</ele>
<time>2017-05-23T02:35:54.223Z</time>
</trkpt>
<trkpt lat="-27.4208626" lon="152.8772168">
<ele>326.322</ele>
<time>2017-05-23T02:35:56.745Z</time>
</trkpt>
<trkpt lat="-27.4213516" lon="152.8772279">
<ele>328.974</ele>
<time>2017-05-23T02:35:59.392Z</time>
</trkpt>
<trkpt lat="-27.4217342" lon="152.8770525">
<ele>330.798</ele>
<time>2017-05-23T02:36:01.512Z</time>
</trkpt>
<trkpt lat="-27.4221436" lon="152.8768081">
<ele>331.646</ele>
<time>2017-05-23T02:36:03.971Z</time>
</trkpt>
<trkpt lat="-27.4224252" lon="152.8764931">
<ele>331.776</ele>
<time>2017-05-23T02:36:06.335Z</time>
</trkpt>
<trkpt lat="-27.4228003" lon="152.8761441">
<ele>331.781</ele>
<time>2017-05-23T02:36:09.737Z</time>
</trkpt>
<trkpt lat="-27.4230930" lon="152.8758702">
<ele>332.100</ele>
<time>2017-05-23T02:36:12.549Z</time>
</trkpt>
<trkpt lat="-27.4234389" lon="152.8756335">
<ele>332.689</ele>
<time>2017-05-23T02:36:15.335Z</time>
</trkpt>
<trkpt lat="-27.4238753" lon="152.8757639">
<ele>333.201</ele>
<time>2017-05-23T02:36:18.058Z</time>
</trkpt>
<trkpt lat="-27.4241831" lon="152.8760299">
<ele>333.430</ele>
<time>2017-05-23T02:36:20.330Z</time>
</trkpt>
<trkpt lat="-27.4244628" lon="152.8763376">
<ele>333.344</ele>
<time>2017-05-23T02:36:22.727Z</time>
</trkpt>
<trkpt lat="-27.4248346" lon="152.8766641">
<ele>332.931</ele>
<time>2017-05-23T02:36:25.789Z</time>
</trkpt>
<trkpt lat="-27.4251120" lon="152.8768055">
<ele>332.106</ele>
<time>2017-05-23T02:36:27.704Z</time>
</trkpt>
<trkpt lat="-27.4253880" lon="152.8768590">
<ele>330.909</ele>
<time>2017-05-23T02:36:29.326Z</time>
</trkpt>
<trkpt lat="-27.4258787" lon="152.8766988">
<ele>329.544</ele>
<time>2017-05-23T02:36:32.150Z</time>
</trkpt>
<trkpt lat="-27.4261852" lon="152.8764890">
<ele>328.107</ele>
<time>2017-05-23T02:36:34.023Z</time>
</trkpt>
<trkpt lat="-27.4265753" lon="152.8763923">
<ele>326.677</ele>
<time>2017-05-23T02:36:36.023Z</time>
</trkpt>
<trkpt lat="-27.4269754" lon="152.8764443">
<ele>325.594</ele>
<time>2017-05-23T02:36:38.123Z</time>
</trkpt>
<trkpt lat="-27.4273419" lon="152.8766439">
<ele>325.178</ele>
<time>2017-05-23T02:36:40.358Z</time>
</trkpt>
<trkpt lat="-27.4278285" lon="152.8769218">
<ele>325.535</ele>
<time>2017-05-23T02:36:43.633Z</time>
</trkpt>
<trkpt lat="-27.4280416" lon="152.8771869">
<ele>326.804</ele>
<time>2017-05-23T02:36:45.576Z</time>
</trkpt>
<trkpt lat="-27.4283955" lon="152.8775149">
<ele>328.826</ele>
<time>2017-05-23T02:36:48.428Z</time>
</trkpt>
<trkpt lat="-27.4287766" lon="152.8778825">
<ele>330.763</ele>
<time>2017-05-23T02:36:51.714Z</time>
</trkpt>
<trkpt lat="-27.4289825" lon="152.8781053">
<ele>331.665</ele>
<time>2017-05-23T02:36:53.549Z</time>
</trkpt>
<trkpt lat="-27.4291326" lon="152.8785676">
<ele>331.127</ele>
<time>2017-05-23T02:36:56.269Z</time>
</trkpt>
<trkpt lat="-27.4291800" lon="152.8789153">
<ele>329.195</ele>
<time>2017-05-23T02:36:58.177Z</time>
</trkpt>
<trkpt lat="-27.4293489" lon="152.8794337">
<ele>326.362</ele>
<time>2017-05-23T02:37:01.139Z</time>
</trkpt>
<trkpt lat="-27.4295787" lon="152.8797041">
<ele>323.124</ele>
<time>2017-05-23T02:37:03.144Z</time>
</trkpt>
<trkpt lat="-27.4298358" lon="152.8802183">
<ele>319.413</ele>
<time>2017-05-23T02:37:06.241Z</time>
</trkpt>
<trkpt lat="-27.4299881" lon="152.8807328">
<ele>315.002</ele>
<time>2017-05-23T02:37:08.779Z</time>
</trkpt>
<trkpt lat="-27.4300435" lon="152.8811228">
<ele>310.171</ele>
<time>2017-05-23T02:37:10.523Z</time>
</trkpt>
<trkpt lat="-27.4299474" lon="152.8818311">
<ele>305.592</ele>
<time>2017-05-23T02:37:13.579Z</time>
</trkpt>
<trkpt lat="-27.4298939" lon="152.8823353">
<ele>301.936</ele>
<time>2017-05-23T02:37:15.844Z</time>
</trkpt>
<trkpt lat="-27.4298397" lon="152.8829898">
<ele>299.476</ele>
<time>2017-05-23T02:37:18.980Z</time>
</trkpt>
<trkpt lat="-27.4298329" lon="152.8833705">
<ele>298.032</ele>
<time>2017-05-23T02:37:20.840Z</time>
</trkpt>
<trkpt lat="-27.4299111" lon="152.8839925">
<ele>297.274</ele>
<time>2017-05-23T02:37:24.030Z</time>
</trkpt>
<trkpt lat="-27.4299415" lon="152.8843718">
<ele>296.948</ele>
<time>2017-05-23T02:37:25.970Z</time>
</trkpt>
<trkpt lat="-27.4298714" lon="152.8849179">
<ele>296.722</ele>
<time>2017-05-23T02:37:28.603Z</time>
</trkpt>
<trkpt lat="-27.4299639" lon="152.8853238">
<ele>296.072</ele>
<time>2017-05-23T02:37:30.525Z</time>
</trkpt>
<trkpt lat="-27.4301122" lon="152.8859701">
<ele>294.799</ele>
<time>2017-05-23T02:37:33.539Z</time>
</trkpt>
<trkpt lat="-27.4301665" lon="152.8866079">
<ele>293.086</ele>
<time>2017-05-23T02:37:36.489Z</time>
</trkpt>
<trkpt lat="-27.4304810" lon="152.8871348">
<ele>291.224</ele>
<time>2017-05-23T02:37:39.415Z</time>
</trkpt>
<trkpt lat="-27.4307258" lon="152.8874611">
<ele>289.726</ele>
<time>2017-05-23T02:37:41.333Z</time>
</trkpt>
<trkpt lat="-27.4309508" lon="152.8878201">
<ele>289.178</ele>
<time>2017-05-23T02:37:43.290Z</time>
</trkpt>
<trkpt lat="-27.4313186" lon="152.8883290">
<ele>289.587</ele>
<time>2017-05-23T02:37:46.203Z</time>
</trkpt>
<trkpt lat="-27.4316725" lon="152.8888543">
<ele>290.358</ele>
<time>2017-05-23T02:37:49.270Z</time>
</trkpt>
<trkpt lat="-27.4318585" lon="152.8892089">
<ele>290.643</ele>
<time>2017-05-23T02:37:51.258Z</time>
</trkpt>
<trkpt lat="-27.4322210" lon="152.8896277">
<ele>290.008</ele>
<time>2017-05-23T02:37:54.121Z</time>
</trkpt>
<trkpt lat="-27.4326162" lon="152.8900527">
<ele>288.559</ele>
<time>2017-05-23T02:37:57.119Z</time>
</trkpt>
<trkpt lat="-27.4327447" lon="152.8904254">
<ele>286.328</ele>
<time>2017-05-23T02:37:59.114Z</time>
</trkpt>
<trkpt lat="-27.4328501" lon="152.8907883">
<ele>283.305</ele>
<time>2017-05-23T02:38:00.996Z</time>
</trkpt>
<trkpt lat="-27.4328653" lon="152.8911698">
<ele>279.715</ele>
<time>2017-05-23T02:38:02.842Z</time>
</trkpt>
<trkpt lat="-27.4326770" lon="152.8920595">
<ele>275.786</ele>
<time>2017-05-23T02:38:07.140Z</time>
</trkpt>
<trkpt lat="-27.4326531" lon="152.8924573">
<ele>271.676</ele>
<time>2017-05-23T02:38:09.285Z</time>
</trkpt>
<trkpt lat="-27.4325317" lon="152.8929376">
<ele>267.644</ele>
<time>2017-05-23T02:38:12.486Z</time>
</trkpt>
<trkpt lat="-27.4321745" lon="152.8932036">
<ele>263.832</ele>
<time>2017-05-23T02:38:16.314Z</time>
</trkpt>
<trkpt lat="-27.4319109" lon="152.8933937">
<ele>260.141</ele>
<time>2017-05-23T02:38:19.361Z</time>
</trkpt>
<trkpt lat="-27.4318281" lon="152.8938801">
<ele>256.459</ele>
<time>2017-05-23T02:38:23.671Z</time>
</trkpt>
<trkpt lat="-27.4317659" lon="152.8945968">
<ele>252.882</ele>
<time>2017-05-23T02:38:28.127Z</time>
</trkpt>
<trkpt lat="-27.4316620" lon="152.8951174">
<ele>249.773</ele>
<time>2017-05-23T02:38:30.534Z</time>
</trkpt>
<trkpt lat="-27.4315324" lon="152.8958906">
<ele>247.437</ele>
<time>2017-05-23T02:38:34.603Z</time>
</trkpt>
<trkpt lat="-27.4314388" lon="152.8965911">
<ele>245.618</ele>
<time>2017-05-23T02:38:38.449Z</time>
</trkpt>
<trkpt lat="-27.4314562" lon="152.8971802">
<ele>244.138</ele>
<time>2017-05-23T02:38:41.708Z</time>
</trkpt>
<trkpt lat="-27.4316140" lon="152.8975046">
<ele>243.500</ele>
<time>2017-05-23T02:38:43.691Z</time>
</trkpt>
<trkpt lat="-27.4318791" lon="152.8979768">
<ele>244.045</ele>
<time>2017-05-23T02:38:46.481Z</time>
</trkpt>
<trkpt lat="-27.4320090" lon="152.8982865">
<ele>245.220</ele>
<time>2017-05-23T02:38:48.159Z</time>
</trkpt>
<trkpt lat="-27.4322870" lon="152.8987036">
<ele>246.136</ele>
<time>2017-05-23T02:38:50.753Z</time>
</trkpt>
<trkpt lat="-27.4324188" lon="152.8992748">
<ele>246.280</ele>
<time>2017-05-23T02:38:53.764Z</time>
</trkpt>
<trkpt lat="-27.4323311" lon="152.8996820">
<ele>245.604</ele>
<time>2017-05-23T02:38:56.188Z</time>
</trkpt>
<trkpt lat="-27.4322411" lon="152.9002547">
<ele>244.388</ele>
<time>2017-05-23T02:39:00.157Z</time>
</trkpt>
<trkpt lat="-27.4322222" lon="152.9006630">
<ele>242.800</ele>
<time>2017-05-23T02:39:02.686Z</time>
</trkpt>
<trkpt lat="-27.4323639" lon="152.9011975">
<ele>240.782</ele>
<time>2017-05-23T02:39:05.801Z</time>
</trkpt>
<trkpt lat="-27.4326098" lon="152.9015670">
<ele>237.813</ele>
<time>2017-05-23T02:39:08.730Z</time>
</trkpt>
<trkpt lat="-27.4326945" lon="152.9019519">
<ele>232.959</ele>
<time>2017-05-23T02:39:11.879Z</time>
</trkpt>
<trkpt lat="-27.4325423" lon="152.9022969">
<ele>226.530</ele>
<time>2017-05-23T02:39:15.092Z</time>
</trkpt>
<trkpt lat="-27.4322229" lon="152.9027336">
<ele>220.404</ele>
<time>2017-05-23T02:39:18.617Z</time>
</trkpt>
<trkpt lat="-27.4319865" lon="152.9030706">
<ele>215.489</ele>
<time>2017-05-23T02:39:20.875Z</time>
</trkpt>
<trkpt lat="-27.4316441" lon="152.9030663">
<ele>210.957</ele>
<time>2017-05-23T02:39:22.754Z</time>
</trkpt>
<trkpt lat="-27.4314637" lon="152.9031215">
<ele>206.185</ele>
<time>2017-05-23T02:39:23.788Z</time>
</trkpt>
<trkpt lat="-27.4314359" lon="152.9035366">
<ele>201.567</ele>
<time>2017-05-23T02:39:25.839Z</time>
</trkpt>
<trkpt lat="-27.4315414" lon="152.9038658">
<ele>197.328</ele>
<time>2017-05-23T02:39:27.680Z</time>
</trkpt>
<trkpt lat="-27.4316320" lon="152.9044213">
<ele>193.545</ele>
<time>2017-05-23T02:39:30.742Z</time>
</trkpt>
<trkpt lat="-27.4315102" lon="152.9050440">
<ele>190.408</ele>
<time>2017-05-23T02:39:34.113Z</time>
</trkpt>
<trkpt lat="-27.4314901" lon="152.9056017">
<ele>187.530</ele>
<time>2017-05-23T02:39:36.994Z</time>
</trkpt>
<trkpt lat="-27.4315980" lon="152.9059472">
<ele>184.048</ele>
<time>2017-05-23T02:39:38.971Z</time>
</trkpt>
<trkpt lat="-27.4320003" lon="152.9062710">
<ele>179.717</ele>
<time>2017-05-23T02:39:42.077Z</time>
</trkpt>
<trkpt lat="-27.4322680" lon="152.9067724">
<ele>174.797</ele>
<time>2017-05-23T02:39:45.215Z</time>
</trkpt>
<trkpt lat="-27.4324211" lon="152.9071217">
<ele>169.372</ele>
<time>2017-05-23T02:39:47.279Z</time>
</trkpt>
<trkpt lat="-27.4325182" lon="152.9076064">
<ele>163.753</ele>
<time>2017-05-23T02:39:49.881Z</time>
</trkpt>
<trkpt lat="-27.4326953" lon="152.9079194">
<ele>158.489</ele>
<time>2017-05-23T02:39:51.789Z</time>
</trkpt>
<trkpt lat="-27.4330020" lon="152.9084080">
<ele>153.733</ele>
<time>2017-05-23T02:39:54.954Z</time>
</trkpt>
<trkpt lat="-27.4330541" lon="152.9087883">
<ele>149.288</ele>
<time>2017-05-23T02:39:57.131Z</time>
</trkpt>
<trkpt lat="-27.4330670" lon="152.9093881">
<ele>145.047</ele>
<time>2017-05-23T02:40:00.663Z</time>
</trkpt>
<trkpt lat="-27.4331109" lon="152.9100497">
<ele>140.906</ele>
<time>2017-05-23T02:40:04.738Z</time>
</trkpt>
<trkpt lat="-27.4330549" lon="152.9105332">
<ele>137.301</ele>
<time>2017-05-23T02:40:07.739Z</time>
</trkpt>
<trkpt lat="-27.4329463" lon="152.9108612">
<ele>135.199</ele>
<time>2017-05-23T02:40:09.972Z</time>
</trkpt>
<trkpt lat="-27.4326870" lon="152.9112743">
<ele>135.131</ele>
<time>2017-05-23T02:40:13.239Z</time>
</trkpt>
<trkpt lat="-27.4324836" lon="152.9116715">
<ele>136.813</ele>
<time>2017-05-23T02:40:16.141Z</time>
</trkpt>
<trkpt lat="-27.4323883" lon="152.9121383">
<ele>139.832</ele>
<time>2017-05-23T02:40:19.085Z</time>
</trkpt>
<trkpt lat="-27.4323702" lon="152.9124559">
<ele>143.638</ele>
<time>2017-05-23T02:40:20.954Z</time>
</trkpt>
<trkpt lat="-27.4324400" lon="152.9128912">
<ele>147.468</ele>
<time>2017-05-23T02:40:23.441Z</time>
</trkpt>
<trkpt lat="-27.4326286" lon="152.9131289">
<ele>150.785</ele>
<time>2017-05-23T02:40:25.235Z</time>
</trkpt>
<trkpt lat="-27.4328005" lon="152.9133733">
<ele>153.448</ele>
<time>2017-05-23T02:40:26.997Z</time>
</trkpt>
<trkpt lat="-27.4330030" lon="152.9136102">
<ele>155.317</ele>
<time>2017-05-23T02:40:28.792Z</time>
</trkpt>
<trkpt lat="-27.4332877" lon="152.9140161">
<ele>156.356</ele>
<time>2017-05-23T02:40:31.582Z</time>
</trkpt>
<trkpt lat="-27.4334074" lon="152.9143592">
<ele>156.822</ele>
<time>2017-05-23T02:40:33.678Z</time>
</trkpt>
<trkpt lat="-27.4334424" lon="152.9147062">
<ele>156.920</ele>
<time>2017-05-23T02:40:35.731Z</time>
</trkpt>
<trkpt lat="-27.4334128" lon="152.9152617">
<ele>156.695</ele>
<time>2017-05-23T02:40:39.190Z</time>
</trkpt>
<trkpt lat="-27.4334663" lon="152.9158273">
<ele>156.032</ele>
<time>2017-05-23T02:40:42.922Z</time>
</trkpt>
<trkpt lat="-27.4334912" lon="152.9161865">
<ele>154.585</ele>
<time>2017-05-23T02:40:45.231Z</time>
</trkpt>
<trkpt lat="-27.4334640" lon="152.9166576">
<ele>152.107</ele>
<time>2017-05-23T02:40:48.084Z</time>
</trkpt>
<trkpt lat="-27.4332667" lon="152.9171042">
<ele>147.860</ele>
<time>2017-05-23T02:40:51.076Z</time>
</trkpt>
<trkpt lat="-27.4331608" lon="152.9175237">
<ele>141.344</ele>
<time>2017-05-23T02:40:53.643Z</time>
</trkpt>
<trkpt lat="-27.4332986" lon="152.9177825">
<ele>134.591</ele>
<time>2017-05-23T02:40:55.310Z</time>
</trkpt>
<trkpt lat="-27.4335861" lon="152.9181270">
<ele>130.541</ele>
<time>2017-05-23T02:40:57.870Z</time>
</trkpt>
<trkpt lat="-27.4337485" lon="152.9183850">
<ele>129.490</ele>
<time>2017-05-23T02:40:59.738Z</time>
</trkpt>
<trkpt lat="-27.4340169" lon="152.9187715">
<ele>129.828</ele>
<time>2017-05-23T02:41:02.908Z</time>
</trkpt>
<trkpt lat="-27.4341166" lon="152.9192532">
<ele>130.141</ele>
<time>2017-05-23T02:41:06.190Z</time>
</trkpt>
<trkpt lat="-27.4340453" lon="152.9196370">
<ele>129.992</ele>
<time>2017-05-23T02:41:08.853Z</time>
</trkpt>
<trkpt lat="-27.4339953" lon="152.9199984">
<ele>129.854</ele>
<time>2017-05-23T02:41:11.597Z</time>
</trkpt>
<trkpt lat="-27.4340197" lon="152.9203756">
<ele>130.398</ele>
<time>2017-05-23T02:41:14.742Z</time>
</trkpt>
<trkpt lat="-27.4341451" lon="152.9207520">
<ele>131.788</ele>
<time>2017-05-23T02:41:18.282Z</time>
</trkpt>
<trkpt lat="-27.4342529" lon="152.9211604">
<ele>133.807</ele>
<time>2017-05-23T02:41:22.175Z</time>
</trkpt>
<trkpt lat="-27.4343997" lon="152.9215757">
<ele>136.297</ele>
<time>2017-05-23T02:41:25.495Z</time>
</trkpt>
<trkpt lat="-27.4345870" lon="152.9218792">
<ele>139.175</ele>
<time>2017-05-23T02:41:28.399Z</time>
</trkpt>
<trkpt lat="-27.4347729" lon="152.9219936">
<ele>142.224</ele>
<time>2017-05-23T02:41:30.289Z</time>
</trkpt>
<trkpt lat="-27.4349579" lon="152.9221097">
<ele>145.022</ele>
<time>2017-05-23T02:41:32.099Z</time>
</trkpt>
<trkpt lat="-27.4351192" lon="152.9222390">
<ele>147.240</ele>
<time>2017-05-23T02:41:33.751Z</time>
</trkpt>
<trkpt lat="-27.4352283" lon="152.9224791">
<ele>148.956</ele>
<time>2017-05-23T02:41:35.680Z</time>
</trkpt>
<trkpt lat="-27.4350888" lon="152.9227138">
<ele>150.610</ele>
<time>2017-05-23T02:41:37.636Z</time>
</trkpt>
<trkpt lat="-27.4348172" lon="152.9228809">
<ele>152.492</ele>
<time>2017-05-23T02:41:39.891Z</time>
</trkpt>
<trkpt lat="-27.4345728" lon="152.9230813">
<ele>154.368</ele>
<time>2017-05-23T02:41:42.033Z</time>
</trkpt>
<trkpt lat="-27.4344941" lon="152.9234014">
<ele>155.799</ele>
<time>2017-05-23T02:41:44.066Z</time>
</trkpt>
<trkpt lat="-27.4345627" lon="152.9236972">
<ele>156.622</ele>
<time>2017-05-23T02:41:45.909Z</time>
</trkpt>
<trkpt lat="-27.4345922" lon="152.9240958">
<ele>156.945</ele>
<time>2017-05-23T02:41:48.220Z</time>
</trkpt>
<trkpt lat="-27.4347755" lon="152.9244809">
<ele>156.870</ele>
<time>2017-05-23T02:41:50.688Z</time>
</trkpt>
<trkpt lat="-27.4349915" lon="152.9246831">
<ele>156.391</ele>
<time>2017-05-23T02:41:52.460Z</time>
</trkpt>
<trkpt lat="-27.4352192" lon="152.9248896">
<ele>155.709</ele>
<time>2017-05-23T02:41:54.300Z</time>
</trkpt>
<trkpt lat="-27.4354517" lon="152.9251447">
<ele>155.164</ele>
<time>2017-05-23T02:41:56.350Z</time>
</trkpt>
<trkpt lat="-27.4358357" lon="152.9253696">
<ele>154.816</ele>
<time>2017-05-23T02:41:59.163Z</time>
</trkpt>
<trkpt lat="-27.4361425" lon="152.9254302">
<ele>154.430</ele>
<time>2017-05-23T02:42:01.209Z</time>
</trkpt>
<trkpt lat="-27.4365781" lon="152.9255552">
<ele>153.778</ele>
<time>2017-05-23T02:42:04.554Z</time>
</trkpt>
<trkpt lat="-27.4370263" lon="152.9257384">
<ele>152.664</ele>
<time>2017-05-23T02:42:09.157Z</time>
</trkpt>
<trkpt lat="-27.4374376" lon="152.9259451">
<ele>150.781</ele>
<time>2017-05-23T02:42:13.090Z</time>
</trkpt>
<trkpt lat="-27.4376927" lon="152.9261458">
<ele>147.986</ele>
<time>2017-05-23T02:42:15.541Z</time>
</trkpt>
<trkpt lat="-27.4380530" lon="152.9264346">
<ele>144.721</ele>
<time>2017-05-23T02:42:18.720Z</time>
</trkpt>
<trkpt lat="-27.4383325" lon="152.9266037">
<ele>141.263</ele>
<time>2017-05-23T02:42:20.870Z</time>
</trkpt>
<trkpt lat="-27.4386062" lon="152.9264889">
<ele>136.992</ele>
<time>2017-05-23T02:42:22.799Z</time>
</trkpt>
<trkpt lat="-27.4388497" lon="152.9264063">
<ele>131.560</ele>
<time>2017-05-23T02:42:24.475Z</time>
</trkpt>
<trkpt lat="-27.4390728" lon="152.9264048">
<ele>126.057</ele>
<time>2017-05-23T02:42:25.977Z</time>
</trkpt>
<trkpt lat="-27.4395165" lon="152.9263401">
<ele>121.887</ele>
<time>2017-05-23T02:42:29.082Z</time>
</trkpt>
<trkpt lat="-27.4399447" lon="152.9265294">
<ele>119.296</ele>
<time>2017-05-23T02:42:32.578Z</time>
</trkpt>
<trkpt lat="-27.4402009" lon="152.9267802">
<ele>117.078</ele>
<time>2017-05-23T02:42:35.280Z</time>
</trkpt>
<trkpt lat="-27.4405165" lon="152.9271687">
<ele>114.187</ele>
<time>2017-05-23T02:42:38.884Z</time>
</trkpt>
<trkpt lat="-27.4407553" lon="152.9273485">
<ele>111.151</ele>
<time>2017-05-23T02:42:40.950Z</time>
</trkpt>
<trkpt lat="-27.4411707" lon="152.9273756">
<ele>109.069</ele>
<time>2017-05-23T02:42:43.824Z</time>
</trkpt>
<trkpt lat="-27.4414258" lon="152.9273694">
<ele>108.473</ele>
<time>2017-05-23T02:42:45.534Z</time>
</trkpt>
<trkpt lat="-27.4417251" lon="152.9274778">
<ele>109.352</ele>
<time>2017-05-23T02:42:47.571Z</time>
</trkpt>
<trkpt lat="-27.4419739" lon="152.9274990">
<ele>111.058</ele>
<time>2017-05-23T02:42:49.175Z</time>
</trkpt>
<trkpt lat="-27.4422882" lon="152.9277021">
<ele>112.650</ele>
<time>2017-05-23T02:42:51.561Z</time>
</trkpt>
<trkpt lat="-27.4425108" lon="152.9278938">
<ele>113.439</ele>
<time>2017-05-23T02:42:53.492Z</time>
</trkpt>
<trkpt lat="-27.4427358" lon="152.9280668">
<ele>113.175</ele>
<time>2017-05-23T02:42:55.375Z</time>
</trkpt>
<trkpt lat="-27.4430343" lon="152.9281031">
<ele>111.974</ele>
<time>2017-05-23T02:42:57.443Z</time>
</trkpt>
<trkpt lat="-27.4434316" lon="152.9283158">
<ele>110.122</ele>
<time>2017-05-23T02:43:00.391Z</time>
</trkpt>
<trkpt lat="-27.4438662" lon="152.9285059">
<ele>107.751</ele>
<time>2017-05-23T02:43:03.485Z</time>
</trkpt>
<trkpt lat="-27.4441266" lon="152.9286371">
<ele>104.737</ele>
<time>2017-05-23T02:43:05.408Z</time>
</trkpt>
<trkpt lat="-27.4443821" lon="152.9289755">
<ele>101.535</ele>
<time>2017-05-23T02:43:08.111Z</time>
</trkpt>
<trkpt lat="-27.4446386" lon="152.9293409">
<ele>99.024</ele>
<time>2017-05-23T02:43:10.914Z</time>
</trkpt>
<trkpt lat="-27.4448114" lon="152.9296041">
<ele>97.051</ele>
<time>2017-05-23T02:43:12.799Z</time>
</trkpt>
<trkpt lat="-27.4449924" lon="152.9298724">
<ele>94.881</ele>
<time>2017-05-23T02:43:14.678Z</time>
</trkpt>
<trkpt lat="-27.4451569" lon="152.9301359">
<ele>92.517</ele>
<time>2017-05-23T02:43:16.467Z</time>
</trkpt>
<trkpt lat="-27.4452988" lon="152.9304091">
<ele>90.310</ele>
<time>2017-05-23T02:43:18.228Z</time>
</trkpt>
<trkpt lat="-27.4455177" lon="152.9308069">
<ele>88.466</ele>
<time>2017-05-23T02:43:20.851Z</time>
</trkpt>
<trkpt lat="-27.4456783" lon="152.9312567">
<ele>87.087</ele>
<time>2017-05-23T02:43:23.575Z</time>
</trkpt>
<trkpt lat="-27.4457018" lon="152.9316071">
<ele>86.074</ele>
<time>2017-05-23T02:43:25.558Z</time>
</trkpt>
<trkpt lat="-27.4457104" lon="152.9319658">
<ele>85.305</ele>
<time>2017-05-23T02:43:27.579Z</time>
</trkpt>
<trkpt lat="-27.4456193" lon="152.9324694">
<ele>84.829</ele>
<time>2017-05-23T02:43:30.575Z</time>
</trkpt>
<trkpt lat="-27.4455443" lon="152.9328043">
<ele>84.852</ele>
<time>2017-05-23T02:43:32.713Z</time>
</trkpt>
<trkpt lat="-27.4454037" lon="152.9332883">
<ele>85.587</ele>
<time>2017-05-23T02:43:35.974Z</time>
</trkpt>
<trkpt lat="-27.4452742" lon="152.9337789">
<ele>87.184</ele>
<time>2017-05-23T02:43:39.181Z</time>
</trkpt>
<trkpt lat="-27.4451800" lon="152.9341263">
<ele>89.681</ele>
<time>2017-05-23T02:43:41.461Z</time>
</trkpt>
<trkpt lat="-27.4450608" lon="152.9345715">
<ele>92.745</ele>
<time>2017-05-23T02:43:44.424Z</time>
</trkpt>
<trkpt lat="-27.4449905" lon="152.9348575">
<ele>95.714</ele>
<time>2017-05-23T02:43:46.273Z</time>
</trkpt>
<trkpt lat="-27.4448463" lon="152.9352888">
<ele>97.945</ele>
<time>2017-05-23T02:43:49.021Z</time>
</trkpt>
<trkpt lat="-27.4447203" lon="152.9355951">
<ele>98.894</ele>
<time>2017-05-23T02:43:50.972Z</time>
</trkpt>
<trkpt lat="-27.4446191" lon="152.9358808">
<ele>98.415</ele>
<time>2017-05-23T02:43:52.723Z</time>
</trkpt>
<trkpt lat="-27.4445348" lon="152.9361582">
<ele>96.946</ele>
<time>2017-05-23T02:43:54.423Z</time>
</trkpt>
<trkpt lat="-27.4444469" lon="152.9364386">
<ele>95.080</ele>
<time>2017-05-23T02:43:56.221Z</time>
</trkpt>
<trkpt lat="-27.4442634" lon="152.9368784">
<ele>93.260</ele>
<time>2017-05-23T02:43:59.521Z</time>
</trkpt>
<trkpt lat="-27.4438354" lon="152.9371596">
<ele>91.652</ele>
<time>2017-05-23T02:44:04.243Z</time>
</trkpt>
<trkpt lat="-27.4434263" lon="152.9373675">
<ele>90.227</ele>
<time>2017-05-23T02:44:08.385Z</time>
</trkpt>
<trkpt lat="-27.4431662" lon="152.9375053">
<ele>89.068</ele>
<time>2017-05-23T02:44:10.803Z</time>
</trkpt>
<trkpt lat="-27.4429699" lon="152.9377005">
<ele>88.347</ele>
<time>2017-05-23T02:44:13.016Z</time>
</trkpt>
<trkpt lat="-27.4427234" lon="152.9379706">
<ele>87.944</ele>
<time>2017-05-23T02:44:15.975Z</time>
</trkpt>
<trkpt lat="-27.4425850" lon="152.9381064">
<ele>87.295</ele>
<time>2017-05-23T02:44:17.669Z</time>
</trkpt>
<trkpt lat="-27.4424572" lon="152.9382601">
<ele>85.919</ele>
<time>2017-05-23T02:44:19.629Z</time>
</trkpt>
<trkpt lat="-27.4422919" lon="152.9384076">
<ele>84.025</ele>
<time>2017-05-23T02:44:22.293Z</time>
</trkpt>
<trkpt lat="-27.4420660" lon="152.9387243">
<ele>82.226</ele>
<time>2017-05-23T02:44:27.316Z</time>
</trkpt>
<trkpt lat="-27.4420127" lon="152.9389770">
<ele>80.829</ele>
<time>2017-05-23T02:44:29.300Z</time>
</trkpt>
<trkpt lat="-27.4420020" lon="152.9393559">
<ele>79.789</ele>
<time>2017-05-23T02:44:31.800Z</time>
</trkpt>
<trkpt lat="-27.4420282" lon="152.9396076">
<ele>78.961</ele>
<time>2017-05-23T02:44:33.413Z</time>
</trkpt>
<trkpt lat="-27.4421158" lon="152.9398084">
<ele>78.300</ele>
<time>2017-05-23T02:44:34.825Z</time>
</trkpt>
<trkpt lat="-27.4422818" lon="152.9400124">
<ele>77.850</ele>
<time>2017-05-23T02:44:36.563Z</time>
</trkpt>
<trkpt lat="-27.4423813" lon="152.9399836">
<ele>77.568</ele>
<time>2017-05-23T02:44:37.287Z</time>
</trkpt>
<trkpt lat="-27.4426379" lon="152.9398059">
<ele>77.309</ele>
<time>2017-05-23T02:44:39.381Z</time>
</trkpt>
<trkpt lat="-27.4429356" lon="152.9398417">
<ele>76.993</ele>
<time>2017-05-23T02:44:41.361Z</time>
</trkpt>
<trkpt lat="-27.4432171" lon="152.9398855">
<ele>76.501</ele>
<time>2017-05-23T02:44:43.178Z</time>
</trkpt>
<trkpt lat="-27.4435951" lon="152.9399701">
<ele>75.729</ele>
<time>2017-05-23T02:44:45.615Z</time>
</trkpt>
<trkpt lat="-27.4439720" lon="152.9399609">
<ele>74.579</ele>
<time>2017-05-23T02:44:48.019Z</time>
</trkpt>
<trkpt lat="-27.4442797" lon="152.9400075">
<ele>72.819</ele>
<time>2017-05-23T02:44:50.032Z</time>
</trkpt>
<trkpt lat="-27.4448617" lon="152.9400838">
<ele>70.511</ele>
<time>2017-05-23T02:44:53.869Z</time>
</trkpt>
<trkpt lat="-27.4451223" lon="152.9401245">
<ele>68.145</ele>
<time>2017-05-23T02:44:55.576Z</time>
</trkpt>
<trkpt lat="-27.4455525" lon="152.9402824">
<ele>66.173</ele>
<time>2017-05-23T02:44:58.498Z</time>
</trkpt>
<trkpt lat="-27.4458122" lon="152.9404389">
<ele>64.894</ele>
<time>2017-05-23T02:45:00.431Z</time>
</trkpt>
<trkpt lat="-27.4462264" lon="152.9405976">
<ele>64.380</ele>
<time>2017-05-23T02:45:03.444Z</time>
</trkpt>
<trkpt lat="-27.4466346" lon="152.9408196">
<ele>64.541</ele>
<time>2017-05-23T02:45:06.681Z</time>
</trkpt>
<trkpt lat="-27.4469107" lon="152.9409548">
<ele>65.311</ele>
<time>2017-05-23T02:45:08.800Z</time>
</trkpt>
<trkpt lat="-27.4473127" lon="152.9411415">
<ele>66.383</ele>
<time>2017-05-23T02:45:11.846Z</time>
</trkpt>
<trkpt lat="-27.4475782" lon="152.9412511">
<ele>67.394</ele>
<time>2017-05-23T02:45:13.901Z</time>
</trkpt>
<trkpt lat="-27.4477785" lon="152.9414423">
<ele>68.258</ele>
<time>2017-05-23T02:45:15.865Z</time>
</trkpt>
<trkpt lat="-27.4481011" lon="152.9417297">
<ele>68.957</ele>
<time>2017-05-23T02:45:19.139Z</time>
</trkpt>
<trkpt lat="-27.4484407" lon="152.9420059">
<ele>69.466</ele>
<time>2017-05-23T02:45:24.480Z</time>
</trkpt>
<trkpt lat="-27.4486667" lon="152.9421902">
<ele>69.794</ele>
<time>2017-05-23T02:45:28.641Z</time>
</trkpt>
<trkpt lat="-27.4489625" lon="152.9424496">
<ele>69.900</ele>
<time>2017-05-23T02:45:31.873Z</time>
</trkpt>
<trkpt lat="-27.4491397" lon="152.9426291">
<ele>69.657</ele>
<time>2017-05-23T02:45:33.516Z</time>
</trkpt>
<trkpt lat="-27.4493044" lon="152.9428058">
<ele>68.915</ele>
<time>2017-05-23T02:45:35.068Z</time>
</trkpt>
<trkpt lat="-27.4494342" lon="152.9429035">
<ele>67.696</ele>
<time>2017-05-23T02:45:36.081Z</time>
</trkpt>
<trkpt lat="-27.4495405" lon="152.9429012">
<ele>66.152</ele>
<time>2017-05-23T02:45:36.770Z</time>
</trkpt>
<trkpt lat="-27.4496183" lon="152.9427687">
<ele>64.334</ele>
<time>2017-05-23T02:45:37.652Z</time>
</trkpt>
<trkpt lat="-27.4498322" lon="152.9423928">
<ele>62.555</ele>
<time>2017-05-23T02:45:40.101Z</time>
</trkpt>
<trkpt lat="-27.4500320" lon="152.9421010">
<ele>61.566</ele>
<time>2017-05-23T02:45:42.104Z</time>
</trkpt>
<trkpt lat="-27.4502832" lon="152.9417355">
<ele>61.707</ele>
<time>2017-05-23T02:45:44.629Z</time>
</trkpt>
<trkpt lat="-27.4504763" lon="152.9414373">
<ele>62.567</ele>
<time>2017-05-23T02:45:46.667Z</time>
</trkpt>
<trkpt lat="-27.4507697" lon="152.9410314">
<ele>63.630</ele>
<time>2017-05-23T02:45:49.631Z</time>
</trkpt>
<trkpt lat="-27.4510257" lon="152.9405912">
<ele>64.693</ele>
<time>2017-05-23T02:45:52.763Z</time>
</trkpt>
<trkpt lat="-27.4512075" lon="152.9403010">
<ele>65.999</ele>
<time>2017-05-23T02:45:54.879Z</time>
</trkpt>
<trkpt lat="-27.4514062" lon="152.9400324">
<ele>67.809</ele>
<time>2017-05-23T02:45:56.924Z</time>
</trkpt>
<trkpt lat="-27.4516697" lon="152.9396237">
<ele>69.931</ele>
<time>2017-05-23T02:45:59.822Z</time>
</trkpt>
<trkpt lat="-27.4518665" lon="152.9392351">
<ele>71.946</ele>
<time>2017-05-23T02:46:02.388Z</time>
</trkpt>
<trkpt lat="-27.4519871" lon="152.9387317">
<ele>73.433</ele>
<time>2017-05-23T02:46:05.372Z</time>
</trkpt>
<trkpt lat="-27.4521052" lon="152.9382165">
<ele>73.887</ele>
<time>2017-05-23T02:46:08.424Z</time>
</trkpt>
<trkpt lat="-27.4519764" lon="152.9377499">
<ele>73.062</ele>
<time>2017-05-23T02:46:11.252Z</time>
</trkpt>
<trkpt lat="-27.4519331" lon="152.9372422">
<ele>71.379</ele>
<time>2017-05-23T02:46:14.435Z</time>
</trkpt>
<trkpt lat="-27.4518537" lon="152.9367507">
<ele>69.741</ele>
<time>2017-05-23T02:46:18.281Z</time>
</trkpt>
<trkpt lat="-27.4518287" lon="152.9364072">
<ele>68.963</ele>
<time>2017-05-23T02:46:21.597Z</time>
</trkpt>
<trkpt lat="-27.4518236" lon="152.9360954">
<ele>69.373</ele>
<time>2017-05-23T02:46:24.306Z</time>
</trkpt>
<trkpt lat="-27.4518430" lon="152.9356830">
<ele>70.698</ele>
<time>2017-05-23T02:46:27.185Z</time>
</trkpt>
<trkpt lat="-27.4518405" lon="152.9354487">
<ele>72.180</ele>
<time>2017-05-23T02:46:28.558Z</time>
</trkpt>
<trkpt lat="-27.4518943" lon="152.9352044">
<ele>73.031</ele>
<time>2017-05-23T02:46:29.933Z</time>
</trkpt>
<trkpt lat="-27.4519598" lon="152.9349026">
<ele>72.906</ele>
<time>2017-05-23T02:46:31.614Z</time>
</trkpt>
<trkpt lat="-27.4519839" lon="152.9344642">
<ele>72.133</ele>
<time>2017-05-23T02:46:34.012Z</time>
</trkpt>
<trkpt lat="-27.4519446" lon="152.9341222">
<ele>71.615</ele>
<time>2017-05-23T02:46:35.923Z</time>
</trkpt>
<trkpt lat="-27.4518806" lon="152.9337640">
<ele>72.065</ele>
<time>2017-05-23T02:46:37.989Z</time>
</trkpt>
<trkpt lat="-27.4518015" lon="152.9332461">
<ele>73.405</ele>
<time>2017-05-23T02:46:41.449Z</time>
</trkpt>
<trkpt lat="-27.4518668" lon="152.9328928">
<ele>75.338</ele>
<time>2017-05-23T02:46:44.900Z</time>
</trkpt>
<trkpt lat="-27.4519073" lon="152.9325457">
<ele>77.571</ele>
<time>2017-05-23T02:46:47.912Z</time>
</trkpt>
<trkpt lat="-27.4519376" lon="152.9322340">
<ele>79.547</ele>
<time>2017-05-23T02:46:49.978Z</time>
</trkpt>
<trkpt lat="-27.4519237" lon="152.9319830">
<ele>80.812</ele>
<time>2017-05-23T02:46:51.433Z</time>
</trkpt>
<trkpt lat="-27.4519718" lon="152.9318355">
<ele>81.393</ele>
<time>2017-05-23T02:46:52.317Z</time>
</trkpt>
<trkpt lat="-27.4521089" lon="152.9317392">
<ele>81.634</ele>
<time>2017-05-23T02:46:53.296Z</time>
</trkpt>
<trkpt lat="-27.4524838" lon="152.9316804">
<ele>81.972</ele>
<time>2017-05-23T02:46:55.525Z</time>
</trkpt>
<trkpt lat="-27.4527822" lon="152.9316400">
<ele>82.660</ele>
<time>2017-05-23T02:46:57.275Z</time>
</trkpt>
<trkpt lat="-27.4530991" lon="152.9316104">
<ele>83.511</ele>
<time>2017-05-23T02:46:59.149Z</time>
</trkpt>
<trkpt lat="-27.4534383" lon="152.9315748">
<ele>84.094</ele>
<time>2017-05-23T02:47:01.205Z</time>
</trkpt>
<trkpt lat="-27.4539330" lon="152.9314827">
<ele>84.249</ele>
<time>2017-05-23T02:47:04.226Z</time>
</trkpt>
<trkpt lat="-27.4542451" lon="152.9314278">
<ele>84.385</ele>
<time>2017-05-23T02:47:06.146Z</time>
</trkpt>
<trkpt lat="-27.4545694" lon="152.9313565">
<ele>85.004</ele>
<time>2017-05-23T02:47:08.223Z</time>
</trkpt>
<trkpt lat="-27.4550944" lon="152.9311920">
<ele>86.115</ele>
<time>2017-05-23T02:47:11.802Z</time>
</trkpt>
<trkpt lat="-27.4553493" lon="152.9310101">
<ele>87.302</ele>
<time>2017-05-23T02:47:13.822Z</time>
</trkpt>
<trkpt lat="-27.4555983" lon="152.9308201">
<ele>88.228</ele>
<time>2017-05-23T02:47:15.836Z</time>
</trkpt>
<trkpt lat="-27.4559581" lon="152.9305666">
<ele>88.774</ele>
<time>2017-05-23T02:47:19.010Z</time>
</trkpt>
<trkpt lat="-27.4562224" lon="152.9304120">
<ele>89.036</ele>
<time>2017-05-23T02:47:21.386Z</time>
</trkpt>
<trkpt lat="-27.4565925" lon="152.9301654">
<ele>89.388</ele>
<time>2017-05-23T02:47:24.555Z</time>
</trkpt>
<trkpt lat="-27.4567926" lon="152.9300021">
<ele>90.248</ele>
<time>2017-05-23T02:47:26.212Z</time>
</trkpt>
<trkpt lat="-27.4570235" lon="152.9299847">
<ele>91.484</ele>
<time>2017-05-23T02:47:27.746Z</time>
</trkpt>
<trkpt lat="-27.4573486" lon="152.9302965">
<ele>92.523</ele>
<time>2017-05-23T02:47:30.607Z</time>
</trkpt>
<trkpt lat="-27.4577070" lon="152.9304601">
<ele>93.331</ele>
<time>2017-05-23T02:47:33.273Z</time>
</trkpt>
<trkpt lat="-27.4581319" lon="152.9305675">
<ele>94.383</ele>
<time>2017-05-23T02:47:36.134Z</time>
</trkpt>
<trkpt lat="-27.4584166" lon="152.9306055">
<ele>95.803</ele>
<time>2017-05-23T02:47:37.935Z</time>
</trkpt>
<trkpt lat="-27.4587423" lon="152.9304282">
<ele>97.166</ele>
<time>2017-05-23T02:47:40.169Z</time>
</trkpt>
<trkpt lat="-27.4589432" lon="152.9301550">
<ele>98.014</ele>
<time>2017-05-23T02:47:42.166Z</time>
</trkpt>
<trkpt lat="-27.4592970" lon="152.9297698">
<ele>98.277</ele>
<time>2017-05-23T02:47:45.327Z</time>
</trkpt>
<trkpt lat="-27.4595372" lon="152.9295333">
<ele>98.194</ele>
<time>2017-05-23T02:47:47.387Z</time>
</trkpt>
<trkpt lat="-27.4600354" lon="152.9295431">
<ele>97.993</ele>
<time>2017-05-23T02:47:50.598Z</time>
</trkpt>
<trkpt lat="-27.4604541" lon="152.9293121">
<ele>97.948</ele>
<time>2017-05-23T02:47:53.633Z</time>
</trkpt>
<trkpt lat="-27.4606961" lon="152.9290838">
<ele>98.634</ele>
<time>2017-05-23T02:47:55.868Z</time>
</trkpt>
<trkpt lat="-27.4610428" lon="152.9287199">
<ele>100.480</ele>
<time>2017-05-23T02:47:59.671Z</time>
</trkpt>
<trkpt lat="-27.4614486" lon="152.9284811">
<ele>103.377</ele>
<time>2017-05-23T02:48:03.469Z</time>
</trkpt>
<trkpt lat="-27.4618006" lon="152.9283040">
<ele>106.985</ele>
<time>2017-05-23T02:48:06.381Z</time>
</trkpt>
<trkpt lat="-27.4619910" lon="152.9282156">
<ele>110.736</ele>
<time>2017-05-23T02:48:07.833Z</time>
</trkpt>
<trkpt lat="-27.4623659" lon="152.9282393">
<ele>113.779</ele>
<time>2017-05-23T02:48:10.432Z</time>
</trkpt>
<trkpt lat="-27.4626633" lon="152.9284030">
<ele>115.808</ele>
<time>2017-05-23T02:48:12.700Z</time>
</trkpt>
<trkpt lat="-27.4629004" lon="152.9285897">
<ele>117.169</ele>
<time>2017-05-23T02:48:14.706Z</time>
</trkpt>
<trkpt lat="-27.4632097" lon="152.9289691">
<ele>118.272</ele>
<time>2017-05-23T02:48:18.007Z</time>
</trkpt>
<trkpt lat="-27.4633784" lon="152.9294113">
<ele>119.481</ele>
<time>2017-05-23T02:48:22.893Z</time>
</trkpt>
<trkpt lat="-27.4635549" lon="152.9298625">
<ele>121.087</ele>
<time>2017-05-23T02:48:28.355Z</time>
</trkpt>
<trkpt lat="-27.4638122" lon="152.9301824">
<ele>123.065</ele>
<time>2017-05-23T02:48:31.270Z</time>
</trkpt>
<trkpt lat="-27.4639850" lon="152.9303191">
<ele>125.207</ele>
<time>2017-05-23T02:48:32.623Z</time>
</trkpt>
<trkpt lat="-27.4640595" lon="152.9304044">
<ele>127.333</ele>
<time>2017-05-23T02:48:33.304Z</time>
</trkpt>
<trkpt lat="-27.4642528" lon="152.9303579">
<ele>129.221</ele>
<time>2017-05-23T02:48:34.563Z</time>
</trkpt>
<trkpt lat="-27.4644618" lon="152.9302277">
<ele>130.774</ele>
<time>2017-05-23T02:48:36.090Z</time>
</trkpt>
<trkpt lat="-27.4648453" lon="152.9299703">
<ele>132.185</ele>
<time>2017-05-23T02:48:39.561Z</time>
</trkpt>
<trkpt lat="-27.4652334" lon="152.9296414">
<ele>133.451</ele>
<time>2017-05-23T02:48:43.349Z</time>
</trkpt>
<trkpt lat="-27.4654450" lon="152.9294503">
<ele>133.356</ele>
<time>2017-05-23T02:48:45.253Z</time>
</trkpt>
<trkpt lat="-27.4655619" lon="152.9291607">
<ele>131.122</ele>
<time>2017-05-23T02:48:47.141Z</time>
</trkpt>
<trkpt lat="-27.4655061" lon="152.9288665">
<ele>128.250</ele>
<time>2017-05-23T02:48:48.927Z</time>
</trkpt>
<trkpt lat="-27.4654260" lon="152.9283861">
<ele>126.690</ele>
<time>2017-05-23T02:48:51.878Z</time>
</trkpt>
<trkpt lat="-27.4653515" lon="152.9280327">
<ele>126.912</ele>
<time>2017-05-23T02:48:54.017Z</time>
</trkpt>
<trkpt lat="-27.4652210" lon="152.9276296">
<ele>128.452</ele>
<time>2017-05-23T02:48:56.546Z</time>
</trkpt>
<trkpt lat="-27.4651383" lon="152.9271972">
<ele>130.488</ele>
<time>2017-05-23T02:48:59.667Z</time>
</trkpt>
<trkpt lat="-27.4651438" lon="152.9268521">
<ele>133.182</ele>
<time>2017-05-23T02:49:02.786Z</time>
</trkpt>
<trkpt lat="-27.4651755" lon="152.9263497">
<ele>136.628</ele>
<time>2017-05-23T02:49:06.746Z</time>
</trkpt>
<trkpt lat="-27.4653115" lon="152.9260323">
<ele>139.352</ele>
<time>2017-05-23T02:49:09.101Z</time>
</trkpt>
<trkpt lat="-27.4654390" lon="152.9259182">
<ele>140.076</ele>
<time>2017-05-23T02:49:10.307Z</time>
</trkpt>
<trkpt lat="-27.4656388" lon="152.9256776">
<ele>139.241</ele>
<time>2017-05-23T02:49:12.548Z</time>
</trkpt>
<trkpt lat="-27.4658664" lon="152.9255773">
<ele>137.832</ele>
<time>2017-05-23T02:49:14.647Z</time>
</trkpt>
<trkpt lat="-27.4662843" lon="152.9255625">
<ele>136.418</ele>
<time>2017-05-23T02:49:18.271Z</time>
</trkpt>
<trkpt lat="-27.4666711" lon="152.9255809">
<ele>134.691</ele>
<time>2017-05-23T02:49:21.297Z</time>
</trkpt>
<trkpt lat="-27.4669565" lon="152.9256605">
<ele>132.136</ele>
<time>2017-05-23T02:49:23.518Z</time>
</trkpt>
<trkpt lat="-27.4671691" lon="152.9257559">
<ele>128.792</ele>
<time>2017-05-23T02:49:25.265Z</time>
</trkpt>
<trkpt lat="-27.4675333" lon="152.9259252">
<ele>125.609</ele>
<time>2017-05-23T02:49:28.293Z</time>
</trkpt>
<trkpt lat="-27.4678065" lon="152.9260487">
<ele>124.059</ele>
<time>2017-05-23T02:49:30.442Z</time>
</trkpt>
<trkpt lat="-27.4681509" lon="152.9261623">
<ele>125.016</ele>
<time>2017-05-23T02:49:33.003Z</time>
</trkpt>
<trkpt lat="-27.4685473" lon="152.9261918">
<ele>127.519</ele>
<time>2017-05-23T02:49:35.729Z</time>
</trkpt>
<trkpt lat="-27.4689313" lon="152.9262937">
<ele>126.468</ele>
<time>2017-05-23T02:49:38.591Z</time>
</trkpt>
<trkpt lat="-27.4692108" lon="152.9263607">
<ele>118.760</ele>
<time>2017-05-23T02:49:40.930Z</time>
</trkpt>
<trkpt lat="-27.4696409" lon="152.9264036">
<ele>109.276</ele>
<time>2017-05-23T02:49:44.609Z</time>
</trkpt>
<trkpt lat="-27.4698884" lon="152.9263471">
<ele>103.264</ele>
<time>2017-05-23T02:49:46.577Z</time>
</trkpt>
<trkpt lat="-27.4701992" lon="152.9262674">
<ele>100.394</ele>
<time>2017-05-23T02:49:48.961Z</time>
</trkpt>
<trkpt lat="-27.4705455" lon="152.9262712">
<ele>99.102</ele>
<time>2017-05-23T02:49:51.663Z</time>
</trkpt>
<trkpt lat="-27.4709494" lon="152.9263018">
<ele>98.459</ele>
<time>2017-05-23T02:49:54.964Z</time>
</trkpt>
<trkpt lat="-27.4713362" lon="152.9262138">
<ele>98.157</ele>
<time>2017-05-23T02:49:58.042Z</time>
</trkpt>
<trkpt lat="-27.4716558" lon="152.9260936">
<ele>98.033</ele>
<time>2017-05-23T02:50:00.471Z</time>
</trkpt>
<trkpt lat="-27.4719727" lon="152.9258303">
<ele>97.886</ele>
<time>2017-05-23T02:50:03.192Z</time>
</trkpt>
<trkpt lat="-27.4721761" lon="152.9256511">
<ele>97.671</ele>
<time>2017-05-23T02:50:04.998Z</time>
</trkpt>
<trkpt lat="-27.4724988" lon="152.9253125">
<ele>97.420</ele>
<time>2017-05-23T02:50:08.352Z</time>
</trkpt>
<trkpt lat="-27.4728027" lon="152.9251605">
<ele>96.973</ele>
<time>2017-05-23T02:50:10.936Z</time>
</trkpt>
<trkpt lat="-27.4730370" lon="152.9250180">
<ele>96.093</ele>
<time>2017-05-23T02:50:13.017Z</time>
</trkpt>
<trkpt lat="-27.4732450" lon="152.9248662">
<ele>94.809</ele>
<time>2017-05-23T02:50:15.075Z</time>
</trkpt>
<trkpt lat="-27.4736063" lon="152.9247673">
<ele>93.350</ele>
<time>2017-05-23T02:50:18.534Z</time>
</trkpt>
<trkpt lat="-27.4739726" lon="152.9246631">
<ele>91.685</ele>
<time>2017-05-23T02:50:21.799Z</time>
</trkpt>
<trkpt lat="-27.4741750" lon="152.9246731">
<ele>89.549</ele>
<time>2017-05-23T02:50:23.363Z</time>
</trkpt>
<trkpt lat="-27.4744589" lon="152.9246012">
<ele>86.946</ele>
<time>2017-05-23T02:50:25.628Z</time>
</trkpt>
<trkpt lat="-27.4747411" lon="152.9245088">
<ele>84.093</ele>
<time>2017-05-23T02:50:27.981Z</time>
</trkpt>
<trkpt lat="-27.4750034" lon="152.9244024">
<ele>81.207</ele>
<time>2017-05-23T02:50:30.290Z</time>
</trkpt>
<trkpt lat="-27.4752768" lon="152.9242931">
<ele>78.583</ele>
<time>2017-05-23T02:50:32.683Z</time>
</trkpt>
<trkpt lat="-27.4756469" lon="152.9242822">
<ele>76.352</ele>
<time>2017-05-23T02:50:35.783Z</time>
</trkpt>
<trkpt lat="-27.4758524" lon="152.9244435">
<ele>74.190</ele>
<time>2017-05-23T02:50:37.908Z</time>
</trkpt>
<trkpt lat="-27.4760274" lon="152.9246284">
<ele>72.041</ele>
<time>2017-05-23T02:50:39.790Z</time>
</trkpt>
<trkpt lat="-27.4762512" lon="152.9249574">
<ele>70.472</ele>
<time>2017-05-23T02:50:42.716Z</time>
</trkpt>
<trkpt lat="-27.4763711" lon="152.9251855">
<ele>70.606</ele>
<time>2017-05-23T02:50:44.745Z</time>
</trkpt>
<trkpt lat="-27.4765293" lon="152.9253968">
<ele>72.749</ele>
<time>2017-05-23T02:50:46.729Z</time>
</trkpt>
<trkpt lat="-27.4767132" lon="152.9256285">
<ele>75.390</ele>
<time>2017-05-23T02:50:48.643Z</time>
</trkpt>
<trkpt lat="-27.4768742" lon="152.9259664">
<ele>76.580</ele>
<time>2017-05-23T02:50:50.880Z</time>
</trkpt>
<trkpt lat="-27.4769914" lon="152.9261923">
<ele>75.376</ele>
<time>2017-05-23T02:50:52.499Z</time>
</trkpt>
<trkpt lat="-27.4771356" lon="152.9265278">
<ele>72.052</ele>
<time>2017-05-23T02:50:55.276Z</time>
</trkpt>
<trkpt lat="-27.4773061" lon="152.9268373">
<ele>68.340</ele>
<time>2017-05-23T02:50:58.578Z</time>
</trkpt>
<trkpt lat="-27.4775064" lon="152.9272550">
<ele>65.916</ele>
<time>2017-05-23T02:51:02.120Z</time>
</trkpt>
<trkpt lat="-27.4776985" lon="152.9275013">
<ele>64.922</ele>
<time>2017-05-23T02:51:04.268Z</time>
</trkpt>
<trkpt lat="-27.4778646" lon="152.9276969">
<ele>64.376</ele>
<time>2017-05-23T02:51:05.955Z</time>
</trkpt>
<trkpt lat="-27.4781921" lon="152.9279066">
<ele>63.451</ele>
<time>2017-05-23T02:51:08.598Z</time>
</trkpt>
<trkpt lat="-27.4785911" lon="152.9280298">
<ele>62.278</ele>
<time>2017-05-23T02:51:11.734Z</time>
</trkpt>
<trkpt lat="-27.4790052" lon="152.9281628">
<ele>61.523</ele>
<time>2017-05-23T02:51:15.933Z</time>
</trkpt>
<trkpt lat="-27.4792851" lon="152.9282173">
<ele>61.523</ele>
<time>2017-05-23T02:51:18.463Z</time>
</trkpt>
<trkpt lat="-27.4796075" lon="152.9280281">
<ele>62.109</ele>
<time>2017-05-23T02:51:21.091Z</time>
</trkpt>
<trkpt lat="-27.4797499" lon="152.9279348">
<ele>62.824</ele>
<time>2017-05-23T02:51:22.210Z</time>
</trkpt>
<trkpt lat="-27.4799038" lon="152.9278645">
<ele>63.129</ele>
<time>2017-05-23T02:51:23.334Z</time>
</trkpt>
<trkpt lat="-27.4801259" lon="152.9277170">
<ele>62.870</ele>
<time>2017-05-23T02:51:25.064Z</time>
</trkpt>
<trkpt lat="-27.4805168" lon="152.9274881">
<ele>62.413</ele>
<time>2017-05-23T02:51:27.971Z</time>
</trkpt>
<trkpt lat="-27.4807941" lon="152.9274100">
<ele>62.126</ele>
<time>2017-05-23T02:51:29.899Z</time>
</trkpt>
<trkpt lat="-27.4812310" lon="152.9273258">
<ele>62.001</ele>
<time>2017-05-23T02:51:33.126Z</time>
</trkpt>
<trkpt lat="-27.4816498" lon="152.9271748">
<ele>61.646</ele>
<time>2017-05-23T02:51:36.711Z</time>
</trkpt>
<trkpt lat="-27.4820907" lon="152.9271819">
<ele>60.612</ele>
<time>2017-05-23T02:51:40.111Z</time>
</trkpt>
<trkpt lat="-27.4822730" lon="152.9273730">
<ele>58.987</ele>
<time>2017-05-23T02:51:41.851Z</time>
</trkpt>
<trkpt lat="-27.4825323" lon="152.9276553">
<ele>57.437</ele>
<time>2017-05-23T02:51:44.455Z</time>
</trkpt>
<trkpt lat="-27.4829445" lon="152.9276555">
<ele>56.661</ele>
<time>2017-05-23T02:51:47.317Z</time>
</trkpt>
<trkpt lat="-27.4832280" lon="152.9276361">
<ele>57.101</ele>
<time>2017-05-23T02:51:49.145Z</time>
</trkpt>
<trkpt lat="-27.4835967" lon="152.9275475">
<ele>58.633</ele>
<time>2017-05-23T02:51:51.548Z</time>
</trkpt>
<trkpt lat="-27.4840347" lon="152.9273480">
<ele>60.388</ele>
<time>2017-05-23T02:51:54.625Z</time>
</trkpt>
<trkpt lat="-27.4843042" lon="152.9271697">
<ele>61.184</ele>
<time>2017-05-23T02:51:56.621Z</time>
</trkpt>
<trkpt lat="-27.4847274" lon="152.9269611">
<ele>60.445</ele>
<time>2017-05-23T02:51:59.596Z</time>
</trkpt>
<trkpt lat="-27.4850706" lon="152.9269166">
<ele>58.534</ele>
<time>2017-05-23T02:52:01.937Z</time>
</trkpt>
<trkpt lat="-27.4855589" lon="152.9269125">
<ele>56.402</ele>
<time>2017-05-23T02:52:05.448Z</time>
</trkpt>
<trkpt lat="-27.4858478" lon="152.9268475">
<ele>54.748</ele>
<time>2017-05-23T02:52:07.721Z</time>
</trkpt>
<trkpt lat="-27.4861424" lon="152.9265123">
<ele>53.565</ele>
<time>2017-05-23T02:52:10.602Z</time>
</trkpt>
<trkpt lat="-27.4863594" lon="152.9263589">
<ele>52.486</ele>
<time>2017-05-23T02:52:12.260Z</time>
</trkpt>
<trkpt lat="-27.4865881" lon="152.9262382">
<ele>51.353</ele>
<time>2017-05-23T02:52:13.844Z</time>
</trkpt>
<trkpt lat="-27.4869114" lon="152.9262371">
<ele>50.347</ele>
<time>2017-05-23T02:52:15.887Z</time>
</trkpt>
<trkpt lat="-27.4873905" lon="152.9262761">
<ele>49.766</ele>
<time>2017-05-23T02:52:18.973Z</time>
</trkpt>
<trkpt lat="-27.4878676" lon="152.9263327">
<ele>49.624</ele>
<time>2017-05-23T02:52:22.200Z</time>
</trkpt>
<trkpt lat="-27.4881692" lon="152.9263759">
<ele>49.638</ele>
<time>2017-05-23T02:52:24.428Z</time>
</trkpt>
<trkpt lat="-27.4885629" lon="152.9262039">
<ele>49.554</ele>
<time>2017-05-23T02:52:27.711Z</time>
</trkpt>
<trkpt lat="-27.4889114" lon="152.9259711">
<ele>49.327</ele>
<time>2017-05-23T02:52:30.920Z</time>
</trkpt>
<trkpt lat="-27.4892585" lon="152.9258328">
<ele>49.060</ele>
<time>2017-05-23T02:52:33.797Z</time>
</trkpt>
<trkpt lat="-27.4895959" lon="152.9256488">
<ele>48.735</ele>
<time>2017-05-23T02:52:36.754Z</time>
</trkpt>
<trkpt lat="-27.4897777" lon="152.9254664">
<ele>48.199</ele>
<time>2017-05-23T02:52:38.704Z</time>
</trkpt>
<trkpt lat="-27.4901299" lon="152.9252270">
<ele>47.469</ele>
<time>2017-05-23T02:52:42.024Z</time>
</trkpt>
<trkpt lat="-27.4903439" lon="152.9250652">
<ele>46.828</ele>
<time>2017-05-23T02:52:44.271Z</time>
</trkpt>
<trkpt lat="-27.4906876" lon="152.9248818">
<ele>46.588</ele>
<time>2017-05-23T02:52:48.142Z</time>
</trkpt>
<trkpt lat="-27.4908579" lon="152.9246989">
<ele>47.087</ele>
<time>2017-05-23T02:52:50.477Z</time>
</trkpt>
<trkpt lat="-27.4910145" lon="152.9244898">
<ele>48.546</ele>
<time>2017-05-23T02:52:52.533Z</time>
</trkpt>
<trkpt lat="-27.4912219" lon="152.9242933">
<ele>50.827</ele>
<time>2017-05-23T02:52:54.640Z</time>
</trkpt>
<trkpt lat="-27.4913983" lon="152.9243247">
<ele>53.400</ele>
<time>2017-05-23T02:52:55.997Z</time>
</trkpt>
<trkpt lat="-27.4915906" lon="152.9244572">
<ele>55.469</ele>
<time>2017-05-23T02:52:57.714Z</time>
</trkpt>
<trkpt lat="-27.4918028" lon="152.9246154">
<ele>55.817</ele>
<time>2017-05-23T02:52:59.730Z</time>
</trkpt>
<trkpt lat="-27.4920020" lon="152.9248036">
<ele>53.864</ele>
<time>2017-05-23T02:53:02.022Z</time>
</trkpt>
<trkpt lat="-27.4923417" lon="152.9250346">
<ele>50.794</ele>
<time>2017-05-23T02:53:05.485Z</time>
</trkpt>
<trkpt lat="-27.4925055" lon="152.9252428">
<ele>48.397</ele>
<time>2017-05-23T02:53:07.487Z</time>
</trkpt>
<trkpt lat="-27.4926457" lon="152.9254097">
<ele>48.003</ele>
<time>2017-05-23T02:53:09.242Z</time>
</trkpt>
<trkpt lat="-27.4927851" lon="152.9255994">
<ele>49.928</ele>
<time>2017-05-23T02:53:11.185Z</time>
</trkpt>
<trkpt lat="-27.4929478" lon="152.9258212">
<ele>52.923</ele>
<time>2017-05-23T02:53:13.611Z</time>
</trkpt>
<trkpt lat="-27.4931796" lon="152.9261335">
<ele>55.675</ele>
<time>2017-05-23T02:53:16.780Z</time>
</trkpt>
<trkpt lat="-27.4934047" lon="152.9263682">
<ele>58.009</ele>
<time>2017-05-23T02:53:19.200Z</time>
</trkpt>
<trkpt lat="-27.4936717" lon="152.9264967">
<ele>59.861</ele>
<time>2017-05-23T02:53:21.368Z</time>
</trkpt>
<trkpt lat="-27.4938744" lon="152.9263645">
<ele>60.952</ele>
<time>2017-05-23T02:53:23.095Z</time>
</trkpt>
<trkpt lat="-27.4940881" lon="152.9262084">
<ele>61.287</ele>
<time>2017-05-23T02:53:24.991Z</time>
</trkpt>
<trkpt lat="-27.4943266" lon="152.9260870">
<ele>61.189</ele>
<time>2017-05-23T02:53:27.065Z</time>
</trkpt>
<trkpt lat="-27.4947208" lon="152.9259695">
<ele>60.832</ele>
<time>2017-05-23T02:53:30.359Z</time>
</trkpt>
<trkpt lat="-27.4949945" lon="152.9259325">
<ele>60.066</ele>
<time>2017-05-23T02:53:32.519Z</time>
</trkpt>
<trkpt lat="-27.4952333" lon="152.9259821">
<ele>58.797</ele>
<time>2017-05-23T02:53:34.495Z</time>
</trkpt>
<trkpt lat="-27.4953962" lon="152.9262075">
<ele>57.323</ele>
<time>2017-05-23T02:53:36.776Z</time>
</trkpt>
<trkpt lat="-27.4955927" lon="152.9263894">
<ele>55.984</ele>
<time>2017-05-23T02:53:41.048Z</time>
</trkpt>
<trkpt lat="-27.4957888" lon="152.9266145">
<ele>54.813</ele>
<time>2017-05-23T02:53:47.330Z</time>
</trkpt>
<trkpt lat="-27.4960981" lon="152.9267495">
<ele>53.697</ele>
<time>2017-05-23T02:53:50.949Z</time>
</trkpt>
<trkpt lat="-27.4962263" lon="152.9268268">
<ele>52.566</ele>
<time>2017-05-23T02:53:52.048Z</time>
</trkpt>
<trkpt lat="-27.4963306" lon="152.9268205">
<ele>51.504</ele>
<time>2017-05-23T02:53:52.828Z</time>
</trkpt>
<trkpt lat="-27.4964188" lon="152.9265282">
<ele>50.735</ele>
<time>2017-05-23T02:53:54.725Z</time>
</trkpt>
<trkpt lat="-27.4964800" lon="152.9261028">
<ele>50.454</ele>
<time>2017-05-23T02:53:57.332Z</time>
</trkpt>
<trkpt lat="-27.4965546" lon="152.9257871">
<ele>50.924</ele>
<time>2017-05-23T02:53:59.288Z</time>
</trkpt>
<trkpt lat="-27.4966342" lon="152.9253226">
<ele>52.340</ele>
<time>2017-05-23T02:54:02.102Z</time>
</trkpt>
<trkpt lat="-27.4964864" lon="152.9248462">
<ele>54.383</ele>
<time>2017-05-23T02:54:05.068Z</time>
</trkpt>
<trkpt lat="-27.4963642" lon="152.9245499">
<ele>56.253</ele>
<time>2017-05-23T02:54:06.883Z</time>
</trkpt>
<trkpt lat="-27.4962373" lon="152.9240564">
<ele>57.326</ele>
<time>2017-05-23T02:54:09.621Z</time>
</trkpt>
<trkpt lat="-27.4963453" lon="152.9236867">
<ele>57.396</ele>
<time>2017-05-23T02:54:11.673Z</time>
</trkpt>
<trkpt lat="-27.4964296" lon="152.9233270">
<ele>56.562</ele>
<time>2017-05-23T02:54:13.631Z</time>
</trkpt>
<trkpt lat="-27.4965410" lon="152.9227266">
<ele>55.144</ele>
<time>2017-05-23T02:54:16.857Z</time>
</trkpt>
<trkpt lat="-27.4966120" lon="152.9223885">
<ele>53.512</ele>
<time>2017-05-23T02:54:18.687Z</time>
</trkpt>
<trkpt lat="-27.4967412" lon="152.9218634">
<ele>51.991</ele>
<time>2017-05-23T02:54:21.584Z</time>
</trkpt>
<trkpt lat="-27.4968122" lon="152.9215084">
<ele>50.870</ele>
<time>2017-05-23T02:54:23.546Z</time>
</trkpt>
<trkpt lat="-27.4968417" lon="152.9209592">
<ele>50.133</ele>
<time>2017-05-23T02:54:26.579Z</time>
</trkpt>
<trkpt lat="-27.4969436" lon="152.9204555">
<ele>49.329</ele>
<time>2017-05-23T02:54:29.480Z</time>
</trkpt>
<trkpt lat="-27.4968563" lon="152.9199651">
<ele>47.870</ele>
<time>2017-05-23T02:54:32.257Z</time>
</trkpt>
<trkpt lat="-27.4966798" lon="152.9197119">
<ele>45.495</ele>
<time>2017-05-23T02:54:33.986Z</time>
</trkpt>
<trkpt lat="-27.4963792" lon="152.9193080">
<ele>42.557</ele>
<time>2017-05-23T02:54:36.733Z</time>
</trkpt>
<trkpt lat="-27.4961374" lon="152.9190542">
<ele>39.375</ele>
<time>2017-05-23T02:54:38.661Z</time>
</trkpt>
<trkpt lat="-27.4958772" lon="152.9188132">
<ele>36.381</ele>
<time>2017-05-23T02:54:40.626Z</time>
</trkpt>
<trkpt lat="-27.4954628" lon="152.9184838">
<ele>34.085</ele>
<time>2017-05-23T02:54:43.599Z</time>
</trkpt>
<trkpt lat="-27.4951578" lon="152.9180476">
<ele>31.726</ele>
<time>2017-05-23T02:54:46.582Z</time>
</trkpt>
<trkpt lat="-27.4949524" lon="152.9177554">
<ele>28.262</ele>
<time>2017-05-23T02:54:48.703Z</time>
</trkpt>
<trkpt lat="-27.4948531" lon="152.9174015">
<ele>24.461</ele>
<time>2017-05-23T02:54:50.893Z</time>
</trkpt>
<trkpt lat="-27.4947087" lon="152.9171167">
<ele>21.597</ele>
<time>2017-05-23T02:54:52.807Z</time>
</trkpt>
<trkpt lat="-27.4945485" lon="152.9166448">
<ele>19.875</ele>
<time>2017-05-23T02:54:55.704Z</time>
</trkpt>
<trkpt lat="-27.4942929" lon="152.9162144">
<ele>18.899</ele>
<time>2017-05-23T02:54:58.619Z</time>
</trkpt>
<trkpt lat="-27.4942031" lon="152.9157068">
<ele>18.359</ele>
<time>2017-05-23T02:55:01.426Z</time>
</trkpt>
<trkpt lat="-27.4941383" lon="152.9153620">
<ele>18.372</ele>
<time>2017-05-23T02:55:03.316Z</time>
</trkpt>
<trkpt lat="-27.4940482" lon="152.9150100">
<ele>19.222</ele>
<time>2017-05-23T02:55:05.302Z</time>
</trkpt>
<trkpt lat="-27.4938838" lon="152.9144838">
<ele>20.829</ele>
<time>2017-05-23T02:55:08.407Z</time>
</trkpt>
<trkpt lat="-27.4937567" lon="152.9141689">
<ele>22.954</ele>
<time>2017-05-23T02:55:10.461Z</time>
</trkpt>
<trkpt lat="-27.4934806" lon="152.9137352">
<ele>25.444</ele>
<time>2017-05-23T02:55:13.810Z</time>
</trkpt>
<trkpt lat="-27.4934092" lon="152.9133023">
<ele>27.947</ele>
<time>2017-05-23T02:55:16.559Z</time>
</trkpt>
<trkpt lat="-27.4933163" lon="152.9130147">
<ele>29.866</ele>
<time>2017-05-23T02:55:18.438Z</time>
</trkpt>
<trkpt lat="-27.4932615" lon="152.9125391">
<ele>30.725</ele>
<time>2017-05-23T02:55:21.410Z</time>
</trkpt>
<trkpt lat="-27.4931881" lon="152.9122315">
<ele>30.344</ele>
<time>2017-05-23T02:55:23.438Z</time>
</trkpt>
<trkpt lat="-27.4931391" lon="152.9119345">
<ele>28.944</ele>
<time>2017-05-23T02:55:25.401Z</time>
</trkpt>
<trkpt lat="-27.4930587" lon="152.9114950">
<ele>27.055</ele>
<time>2017-05-23T02:55:28.500Z</time>
</trkpt>
<trkpt lat="-27.4930879" lon="152.9112026">
<ele>25.085</ele>
<time>2017-05-23T02:55:30.719Z</time>
</trkpt>
<trkpt lat="-27.4930512" lon="152.9108148">
<ele>23.191</ele>
<time>2017-05-23T02:55:34.531Z</time>
</trkpt>
<trkpt lat="-27.4929869" lon="152.9105949">
<ele>21.447</ele>
<time>2017-05-23T02:55:37.660Z</time>
</trkpt>
<trkpt lat="-27.4930287" lon="152.9103405">
<ele>19.863</ele>
<time>2017-05-23T02:55:41.272Z</time>
</trkpt>
<trkpt lat="-27.4931033" lon="152.9102464">
<ele>18.405</ele>
<time>2017-05-23T02:55:42.698Z</time>
</trkpt>
<trkpt lat="-27.4931627" lon="152.9101169">
<ele>17.093</ele>
<time>2017-05-23T02:55:44.263Z</time>
</trkpt>
<trkpt lat="-27.4930537" lon="152.9099309">
<ele>16.034</ele>
<time>2017-05-23T02:55:46.154Z</time>
</trkpt>
<trkpt lat="-27.4927579" lon="152.9099614">
<ele>15.382</ele>
<time>2017-05-23T02:55:48.526Z</time>
</trkpt>
<trkpt lat="-27.4925366" lon="152.9099510">
<ele>15.126</ele>
<time>2017-05-23T02:55:50.099Z</time>
</trkpt>
<trkpt lat="-27.4922819" lon="152.9098642">
<ele>15.157</ele>
<time>2017-05-23T02:55:51.868Z</time>
</trkpt>
<trkpt lat="-27.4919781" lon="152.9098145">
<ele>15.384</ele>
<time>2017-05-23T02:55:53.820Z</time>
</trkpt>
<trkpt lat="-27.4916775" lon="152.9097984">
<ele>15.785</ele>
<time>2017-05-23T02:55:55.701Z</time>
</trkpt>
<trkpt lat="-27.4912028" lon="152.9097924">
<ele>16.373</ele>
<time>2017-05-23T02:55:58.591Z</time>
</trkpt>
<trkpt lat="-27.4908829" lon="152.9097398">
<ele>17.202</ele>
<time>2017-05-23T02:56:00.556Z</time>
</trkpt>
<trkpt lat="-27.4904058" lon="152.9097239">
<ele>18.206</ele>
<time>2017-05-23T02:56:03.483Z</time>
</trkpt>
<trkpt lat="-27.4901013" lon="152.9096273">
<ele>19.163</ele>
<time>2017-05-23T02:56:05.429Z</time>
</trkpt>
<trkpt lat="-27.4896360" lon="152.9095514">
<ele>19.928</ele>
<time>2017-05-23T02:56:08.332Z</time>
</trkpt>
<trkpt lat="-27.4891709" lon="152.9094704">
<ele>20.559</ele>
<time>2017-05-23T02:56:11.260Z</time>
</trkpt>
<trkpt lat="-27.4888651" lon="152.9094202">
<ele>21.217</ele>
<time>2017-05-23T02:56:13.181Z</time>
</trkpt>
<trkpt lat="-27.4884078" lon="152.9092970">
<ele>22.005</ele>
<time>2017-05-23T02:56:16.078Z</time>
</trkpt>
<trkpt lat="-27.4880819" lon="152.9092747">
<ele>22.889</ele>
<time>2017-05-23T02:56:18.104Z</time>
</trkpt>
<trkpt lat="-27.4876192" lon="152.9093144">
<ele>23.713</ele>
<time>2017-05-23T02:56:21.030Z</time>
</trkpt>
<trkpt lat="-27.4872984" lon="152.9093285">
<ele>24.395</ele>
<time>2017-05-23T02:56:23.077Z</time>
</trkpt>
<trkpt lat="-27.4870030" lon="152.9092481">
<ele>25.017</ele>
<time>2017-05-23T02:56:25.034Z</time>
</trkpt>
<trkpt lat="-27.4867131" lon="152.9091568">
<ele>25.618</ele>
<time>2017-05-23T02:56:26.978Z</time>
</trkpt>
<trkpt lat="-27.4862742" lon="152.9090375">
<ele>26.128</ele>
<time>2017-05-23T02:56:29.883Z</time>
</trkpt>
<trkpt lat="-27.4859791" lon="152.9089608">
<ele>26.564</ele>
<time>2017-05-23T02:56:31.800Z</time>
</trkpt>
<trkpt lat="-27.4856489" lon="152.9088535">
<ele>26.977</ele>
<time>2017-05-23T02:56:33.962Z</time>
</trkpt>
<trkpt lat="-27.4851973" lon="152.9087148">
<ele>27.369</ele>
<time>2017-05-23T02:56:36.924Z</time>
</trkpt>
<trkpt lat="-27.4848887" lon="152.9086556">
<ele>27.748</ele>
<time>2017-05-23T02:56:38.915Z</time>
</trkpt>
<trkpt lat="-27.4844797" lon="152.9084343">
<ele>28.191</ele>
<time>2017-05-23T02:56:41.842Z</time>
</trkpt>
<trkpt lat="-27.4842275" lon="152.9082342">
<ele>28.889</ele>
<time>2017-05-23T02:56:44.002Z</time>
</trkpt>
<trkpt lat="-27.4840213" lon="152.9080478">
<ele>29.977</ele>
<time>2017-05-23T02:56:45.982Z</time>
</trkpt>
<trkpt lat="-27.4837241" lon="152.9078284">
<ele>31.288</ele>
<time>2017-05-23T02:56:49.090Z</time>
</trkpt>
<trkpt lat="-27.4834841" lon="152.9075999">
<ele>32.394</ele>
<time>2017-05-23T02:56:52.209Z</time>
</trkpt>
<trkpt lat="-27.4832445" lon="152.9074629">
<ele>32.941</ele>
<time>2017-05-23T02:56:54.542Z</time>
</trkpt>
<trkpt lat="-27.4828649" lon="152.9075247">
<ele>32.761</ele>
<time>2017-05-23T02:56:57.276Z</time>
</trkpt>
<trkpt lat="-27.4824780" lon="152.9077986">
<ele>31.919</ele>
<time>2017-05-23T02:57:00.234Z</time>
</trkpt>
<trkpt lat="-27.4821482" lon="152.9082248">
<ele>30.868</ele>
<time>2017-05-23T02:57:03.396Z</time>
</trkpt>
<trkpt lat="-27.4817816" lon="152.9085359">
<ele>30.164</ele>
<time>2017-05-23T02:57:06.347Z</time>
</trkpt>
<trkpt lat="-27.4814498" lon="152.9088647">
<ele>30.129</ele>
<time>2017-05-23T02:57:09.223Z</time>
</trkpt>
<trkpt lat="-27.4812242" lon="152.9090880">
<ele>30.987</ele>
<time>2017-05-23T02:57:11.156Z</time>
</trkpt>
<trkpt lat="-27.4809647" lon="152.9092790">
<ele>32.465</ele>
<time>2017-05-23T02:57:13.103Z</time>
</trkpt>
<trkpt lat="-27.4806289" lon="152.9096610">
<ele>33.720</ele>
<time>2017-05-23T02:57:16.047Z</time>
</trkpt>
<trkpt lat="-27.4803872" lon="152.9098909">
<ele>34.211</ele>
<time>2017-05-23T02:57:17.962Z</time>
</trkpt>
<trkpt lat="-27.4801597" lon="152.9101610">
<ele>34.025</ele>
<time>2017-05-23T02:57:20.017Z</time>
</trkpt>
<trkpt lat="-27.4798257" lon="152.9105154">
<ele>33.462</ele>
<time>2017-05-23T02:57:22.974Z</time>
</trkpt>
<trkpt lat="-27.4795870" lon="152.9106986">
<ele>32.859</ele>
<time>2017-05-23T02:57:24.905Z</time>
</trkpt>
<trkpt lat="-27.4793045" lon="152.9108129">
<ele>32.526</ele>
<time>2017-05-23T02:57:26.894Z</time>
</trkpt>
<trkpt lat="-27.4788732" lon="152.9109286">
<ele>32.644</ele>
<time>2017-05-23T02:57:29.833Z</time>
</trkpt>
<trkpt lat="-27.4785831" lon="152.9108763">
<ele>33.115</ele>
<time>2017-05-23T02:57:31.743Z</time>
</trkpt>
<trkpt lat="-27.4781185" lon="152.9106788">
<ele>33.663</ele>
<time>2017-05-23T02:57:34.927Z</time>
</trkpt>
<trkpt lat="-27.4778712" lon="152.9104702">
<ele>34.241</ele>
<time>2017-05-23T02:57:36.935Z</time>
</trkpt>
<trkpt lat="-27.4775671" lon="152.9101178">
<ele>34.975</ele>
<time>2017-05-23T02:57:39.763Z</time>
</trkpt>
<trkpt lat="-27.4773294" lon="152.9096822">
<ele>35.684</ele>
<time>2017-05-23T02:57:42.655Z</time>
</trkpt>
<trkpt lat="-27.4770496" lon="152.9092574">
<ele>36.083</ele>
<time>2017-05-23T02:57:45.610Z</time>
</trkpt>
<trkpt lat="-27.4767584" lon="152.9088651">
<ele>36.225</ele>
<time>2017-05-23T02:57:48.531Z</time>
</trkpt>
<trkpt lat="-27.4765719" lon="152.9086409">
<ele>36.363</ele>
<time>2017-05-23T02:57:50.367Z</time>
</trkpt>
<trkpt lat="-27.4761646" lon="152.9084687">
<ele>36.596</ele>
<time>2017-05-23T02:57:53.285Z</time>
</trkpt>
<trkpt lat="-27.4758320" lon="152.9084704">
<ele>36.862</ele>
<time>2017-05-23T02:57:55.439Z</time>
</trkpt>
<trkpt lat="-27.4753354" lon="152.9084525">
<ele>37.126</ele>
<time>2017-05-23T02:57:58.631Z</time>
</trkpt>
<trkpt lat="-27.4750454" lon="152.9084287">
<ele>37.346</ele>
<time>2017-05-23T02:58:00.524Z</time>
</trkpt>
<trkpt lat="-27.4746232" lon="152.9084695">
<ele>37.426</ele>
<time>2017-05-23T02:58:03.305Z</time>
</trkpt>
<trkpt lat="-27.4743384" lon="152.9085194">
<ele>37.283</ele>
<time>2017-05-23T02:58:05.236Z</time>
</trkpt>
<trkpt lat="-27.4739411" lon="152.9086490">
<ele>36.939</ele>
<time>2017-05-23T02:58:08.087Z</time>
</trkpt>
<trkpt lat="-27.4736963" lon="152.9086064">
<ele>36.576</ele>
<time>2017-05-23T02:58:09.851Z</time>
</trkpt>
<trkpt lat="-27.4734123" lon="152.9084996">
<ele>36.383</ele>
<time>2017-05-23T02:58:11.962Z</time>
</trkpt>
<trkpt lat="-27.4730220" lon="152.9082200">
<ele>36.378</ele>
<time>2017-05-23T02:58:15.317Z</time>
</trkpt>
<trkpt lat="-27.4727444" lon="152.9080162">
<ele>36.436</ele>
<time>2017-05-23T02:58:18.322Z</time>
</trkpt>
<trkpt lat="-27.4726019" lon="152.9079992">
<ele>36.375</ele>
<time>2017-05-23T02:58:19.999Z</time>
</trkpt>
<trkpt lat="-27.4726019" lon="152.9079992">
<ele>36.151</ele>
<time>2017-05-23T02:58:24.999Z</time>
</trkpt>
<trkpt lat="-27.4726019" lon="152.9079992">
<ele>35.957</ele>
<time>2017-05-23T03:00:09.101Z</time>
</trkpt>
<trkpt lat="-27.4726834" lon="152.9080598">
<ele>35.945</ele>
<time>2017-05-23T03:00:11.636Z</time>
</trkpt>
<trkpt lat="-27.4729498" lon="152.9081854">
<ele>35.960</ele>
<time>2017-05-23T03:00:15.027Z</time>
</trkpt>
<trkpt lat="-27.4731504" lon="152.9083286">
<ele>35.845</ele>
<time>2017-05-23T03:00:17.088Z</time>
</trkpt>
<trkpt lat="-27.4733719" lon="152.9084609">
<ele>35.725</ele>
<time>2017-05-23T03:00:19.083Z</time>
</trkpt>
<trkpt lat="-27.4737249" lon="152.9086356">
<ele>35.762</ele>
<time>2017-05-23T03:00:22.106Z</time>
</trkpt>
<trkpt lat="-27.4740639" lon="152.9086956">
<ele>35.917</ele>
<time>2017-05-23T03:00:24.839Z</time>
</trkpt>
<trkpt lat="-27.4744437" lon="152.9085731">
<ele>36.140</ele>
<time>2017-05-23T03:00:27.901Z</time>
</trkpt>
<trkpt lat="-27.4747157" lon="152.9085073">
<ele>36.426</ele>
<time>2017-05-23T03:00:29.924Z</time>
</trkpt>
<trkpt lat="-27.4749929" lon="152.9084914">
<ele>36.700</ele>
<time>2017-05-23T03:00:31.898Z</time>
</trkpt>
<trkpt lat="-27.4754210" lon="152.9085384">
<ele>36.870</ele>
<time>2017-05-23T03:00:34.898Z</time>
</trkpt>
<trkpt lat="-27.4757166" lon="152.9085684">
<ele>36.945</ele>
<time>2017-05-23T03:00:36.924Z</time>
</trkpt>
<trkpt lat="-27.4761563" lon="152.9086010">
<ele>37.039</ele>
<time>2017-05-23T03:00:39.941Z</time>
</trkpt>
<trkpt lat="-27.4764497" lon="152.9086632">
<ele>37.234</ele>
<time>2017-05-23T03:00:41.993Z</time>
</trkpt>
<trkpt lat="-27.4767135" lon="152.9088416">
<ele>37.463</ele>
<time>2017-05-23T03:00:44.034Z</time>
</trkpt>
<trkpt lat="-27.4769400" lon="152.9091384">
<ele>37.630</ele>
<time>2017-05-23T03:00:46.225Z</time>
</trkpt>
<trkpt lat="-27.4771332" lon="152.9094583">
<ele>37.759</ele>
<time>2017-05-23T03:00:48.329Z</time>
</trkpt>
<trkpt lat="-27.4773089" lon="152.9097658">
<ele>37.898</ele>
<time>2017-05-23T03:00:50.329Z</time>
</trkpt>
<trkpt lat="-27.4775799" lon="152.9101908">
<ele>37.984</ele>
<time>2017-05-23T03:00:53.242Z</time>
</trkpt>
<trkpt lat="-27.4777698" lon="152.9104500">
<ele>37.927</ele>
<time>2017-05-23T03:00:55.164Z</time>
</trkpt>
<trkpt lat="-27.4779558" lon="152.9107211">
<ele>37.785</ele>
<time>2017-05-23T03:00:57.152Z</time>
</trkpt>
<trkpt lat="-27.4782352" lon="152.9108281">
<ele>37.672</ele>
<time>2017-05-23T03:00:59.098Z</time>
</trkpt>
<trkpt lat="-27.4786742" lon="152.9109531">
<ele>37.630</ele>
<time>2017-05-23T03:01:02.078Z</time>
</trkpt>
<trkpt lat="-27.4789731" lon="152.9109735">
<ele>37.528</ele>
<time>2017-05-23T03:01:04.009Z</time>
</trkpt>
<trkpt lat="-27.4792942" lon="152.9108122">
<ele>37.130</ele>
<time>2017-05-23T03:01:06.218Z</time>
</trkpt>
<trkpt lat="-27.4795730" lon="152.9106481">
<ele>36.500</ele>
<time>2017-05-23T03:01:08.143Z</time>
</trkpt>
<trkpt lat="-27.4798540" lon="152.9104219">
<ele>36.036</ele>
<time>2017-05-23T03:01:10.214Z</time>
</trkpt>
<trkpt lat="-27.4801511" lon="152.9100500">
<ele>35.929</ele>
<time>2017-05-23T03:01:12.837Z</time>
</trkpt>
<trkpt lat="-27.4804518" lon="152.9098225">
<ele>35.803</ele>
<time>2017-05-23T03:01:14.942Z</time>
</trkpt>
<trkpt lat="-27.4808028" lon="152.9093909">
<ele>35.234</ele>
<time>2017-05-23T03:01:17.977Z</time>
</trkpt>
<trkpt lat="-27.4812595" lon="152.9090287">
<ele>34.425</ele>
<time>2017-05-23T03:01:21.293Z</time>
</trkpt>
<trkpt lat="-27.4814966" lon="152.9088003">
<ele>33.937</ele>
<time>2017-05-23T03:01:23.200Z</time>
</trkpt>
<trkpt lat="-27.4817321" lon="152.9085728">
<ele>34.032</ele>
<time>2017-05-23T03:01:25.172Z</time>
</trkpt>
<trkpt lat="-27.4820505" lon="152.9082346">
<ele>34.503</ele>
<time>2017-05-23T03:01:28.038Z</time>
</trkpt>
<trkpt lat="-27.4823799" lon="152.9079144">
<ele>34.901</ele>
<time>2017-05-23T03:01:30.953Z</time>
</trkpt>
<trkpt lat="-27.4826175" lon="152.9076934">
<ele>34.720</ele>
<time>2017-05-23T03:01:33.066Z</time>
</trkpt>
<trkpt lat="-27.4829759" lon="152.9074609">
<ele>33.749</ele>
<time>2017-05-23T03:01:35.986Z</time>
</trkpt>
<trkpt lat="-27.4833819" lon="152.9075218">
<ele>32.464</ele>
<time>2017-05-23T03:01:38.977Z</time>
</trkpt>
<trkpt lat="-27.4836405" lon="152.9076798">
<ele>31.568</ele>
<time>2017-05-23T03:01:41.156Z</time>
</trkpt>
<trkpt lat="-27.4838516" lon="152.9078613">
<ele>31.314</ele>
<time>2017-05-23T03:01:43.108Z</time>
</trkpt>
<trkpt lat="-27.4841112" lon="152.9080795">
<ele>31.681</ele>
<time>2017-05-23T03:01:45.363Z</time>
</trkpt>
<trkpt lat="-27.4845076" lon="152.9083952">
<ele>32.565</ele>
<time>2017-05-23T03:01:48.571Z</time>
</trkpt>
<trkpt lat="-27.4847363" lon="152.9086331">
<ele>33.615</ele>
<time>2017-05-23T03:01:50.585Z</time>
</trkpt>
<trkpt lat="-27.4851666" lon="152.9088100">
<ele>34.361</ele>
<time>2017-05-23T03:01:53.538Z</time>
</trkpt>
<trkpt lat="-27.4856274" lon="152.9088938">
<ele>34.407</ele>
<time>2017-05-23T03:01:56.488Z</time>
</trkpt>
<trkpt lat="-27.4859463" lon="152.9089595">
<ele>33.595</ele>
<time>2017-05-23T03:01:58.489Z</time>
</trkpt>
<trkpt lat="-27.4864065" lon="152.9091062">
<ele>32.281</ele>
<time>2017-05-23T03:02:01.454Z</time>
</trkpt>
<trkpt lat="-27.4868643" lon="152.9091933">
<ele>31.065</ele>
<time>2017-05-23T03:02:04.366Z</time>
</trkpt>
<trkpt lat="-27.4871689" lon="152.9093044">
<ele>30.131</ele>
<time>2017-05-23T03:02:06.384Z</time>
</trkpt>
<trkpt lat="-27.4876109" lon="152.9094107">
<ele>29.382</ele>
<time>2017-05-23T03:02:09.241Z</time>
</trkpt>
<trkpt lat="-27.4880789" lon="152.9094141">
<ele>28.740</ele>
<time>2017-05-23T03:02:12.209Z</time>
</trkpt>
<trkpt lat="-27.4885494" lon="152.9093601">
<ele>28.079</ele>
<time>2017-05-23T03:02:15.238Z</time>
</trkpt>
<trkpt lat="-27.4888663" lon="152.9094578">
<ele>27.290</ele>
<time>2017-05-23T03:02:17.359Z</time>
</trkpt>
<trkpt lat="-27.4891738" lon="152.9095467">
<ele>26.504</ele>
<time>2017-05-23T03:02:19.395Z</time>
</trkpt>
<trkpt lat="-27.4894943" lon="152.9095764">
<ele>25.906</ele>
<time>2017-05-23T03:02:21.448Z</time>
</trkpt>
<trkpt lat="-27.4899551" lon="152.9096766">
<ele>25.527</ele>
<time>2017-05-23T03:02:24.445Z</time>
</trkpt>
<trkpt lat="-27.4902611" lon="152.9097189">
<ele>25.250</ele>
<time>2017-05-23T03:02:26.428Z</time>
</trkpt>
<trkpt lat="-27.4905717" lon="152.9097419">
<ele>24.904</ele>
<time>2017-05-23T03:02:28.474Z</time>
</trkpt>
<trkpt lat="-27.4910076" lon="152.9098341">
<ele>24.430</ele>
<time>2017-05-23T03:02:31.426Z</time>
</trkpt>
<trkpt lat="-27.4912996" lon="152.9098726">
<ele>23.836</ele>
<time>2017-05-23T03:02:33.374Z</time>
</trkpt>
<trkpt lat="-27.4917455" lon="152.9099149">
<ele>23.121</ele>
<time>2017-05-23T03:02:36.321Z</time>
</trkpt>
<trkpt lat="-27.4920406" lon="152.9099073">
<ele>22.304</ele>
<time>2017-05-23T03:02:38.364Z</time>
</trkpt>
<trkpt lat="-27.4924403" lon="152.9099816">
<ele>21.422</ele>
<time>2017-05-23T03:02:41.439Z</time>
</trkpt>
<trkpt lat="-27.4926577" lon="152.9100155">
<ele>20.453</ele>
<time>2017-05-23T03:02:43.563Z</time>
</trkpt>
<trkpt lat="-27.4928766" lon="152.9101138">
<ele>19.376</ele>
<time>2017-05-23T03:02:46.224Z</time>
</trkpt>
<trkpt lat="-27.4929514" lon="152.9102568">
<ele>18.243</ele>
<time>2017-05-23T03:02:48.000Z</time>
</trkpt>
<trkpt lat="-27.4930040" lon="152.9104854">
<ele>17.264</ele>
<time>2017-05-23T03:02:50.194Z</time>
</trkpt>
<trkpt lat="-27.4930288" lon="152.9107398">
<ele>16.699</ele>
<time>2017-05-23T03:02:52.239Z</time>
</trkpt>
<trkpt lat="-27.4930783" lon="152.9111462">
<ele>16.643</ele>
<time>2017-05-23T03:02:55.307Z</time>
</trkpt>
<trkpt lat="-27.4931218" lon="152.9114124">
<ele>16.972</ele>
<time>2017-05-23T03:02:57.305Z</time>
</trkpt>
<trkpt lat="-27.4931634" lon="152.9116597">
<ele>17.458</ele>
<time>2017-05-23T03:02:59.341Z</time>
</trkpt>
<trkpt lat="-27.4931798" lon="152.9119538">
<ele>17.839</ele>
<time>2017-05-23T03:03:01.985Z</time>
</trkpt>
<trkpt lat="-27.4932448" lon="152.9121196">
<ele>18.063</ele>
<time>2017-05-23T03:03:03.911Z</time>
</trkpt>
<trkpt lat="-27.4932410" lon="152.9122653">
<ele>18.232</ele>
<time>2017-05-23T03:03:05.761Z</time>
</trkpt>
<trkpt lat="-27.4932334" lon="152.9124144">
<ele>18.381</ele>
<time>2017-05-23T03:03:07.998Z</time>
</trkpt>
<trkpt lat="-27.4932334" lon="152.9124144">
<ele>18.483</ele>
<time>2017-05-23T03:03:12.998Z</time>
</trkpt>
<trkpt lat="-27.4932334" lon="152.9124144">
<ele>18.522</ele>
<time>2017-05-23T03:03:18.224Z</time>
</trkpt>
<trkpt lat="-27.4933384" lon="152.9127090">
<ele>18.508</ele>
<time>2017-05-23T03:03:24.874Z</time>
</trkpt>
<trkpt lat="-27.4933921" lon="152.9129094">
<ele>18.814</ele>
<time>2017-05-23T03:03:26.838Z</time>
</trkpt>
<trkpt lat="-27.4934117" lon="152.9131540">
<ele>19.874</ele>
<time>2017-05-23T03:03:28.807Z</time>
</trkpt>
<trkpt lat="-27.4934554" lon="152.9134217">
<ele>21.562</ele>
<time>2017-05-23T03:03:30.739Z</time>
</trkpt>
<trkpt lat="-27.4935208" lon="152.9137222">
<ele>23.522</ele>
<time>2017-05-23T03:03:32.739Z</time>
</trkpt>
<trkpt lat="-27.4936225" lon="152.9140394">
<ele>25.667</ele>
<time>2017-05-23T03:03:34.807Z</time>
</trkpt>
<trkpt lat="-27.4938161" lon="152.9144931">
<ele>27.950</ele>
<time>2017-05-23T03:03:37.849Z</time>
</trkpt>
<trkpt lat="-27.4940210" lon="152.9149318">
<ele>30.066</ele>
<time>2017-05-23T03:03:40.788Z</time>
</trkpt>
<trkpt lat="-27.4941123" lon="152.9152608">
<ele>31.499</ele>
<time>2017-05-23T03:03:42.750Z</time>
</trkpt>
<trkpt lat="-27.4942191" lon="152.9157787">
<ele>31.906</ele>
<time>2017-05-23T03:03:45.722Z</time>
</trkpt>
<trkpt lat="-27.4943837" lon="152.9163113">
<ele>31.175</ele>
<time>2017-05-23T03:03:48.823Z</time>
</trkpt>
<trkpt lat="-27.4945127" lon="152.9166389">
<ele>29.327</ele>
<time>2017-05-23T03:03:50.757Z</time>
</trkpt>
<trkpt lat="-27.4948646" lon="152.9170520">
<ele>26.773</ele>
<time>2017-05-23T03:03:53.818Z</time>
</trkpt>
<trkpt lat="-27.4951667" lon="152.9174993">
<ele>24.184</ele>
<time>2017-05-23T03:03:56.818Z</time>
</trkpt>
<trkpt lat="-27.4953606" lon="152.9177957">
<ele>22.112</ele>
<time>2017-05-23T03:03:58.811Z</time>
</trkpt>
<trkpt lat="-27.4955511" lon="152.9180864">
<ele>20.802</ele>
<time>2017-05-23T03:04:00.767Z</time>
</trkpt>
<trkpt lat="-27.4958565" lon="152.9185349">
<ele>20.199</ele>
<time>2017-05-23T03:04:03.826Z</time>
</trkpt>
<trkpt lat="-27.4961831" lon="152.9189310">
<ele>20.161</ele>
<time>2017-05-23T03:04:06.775Z</time>
</trkpt>
<trkpt lat="-27.4965722" lon="152.9192381">
<ele>20.698</ele>
<time>2017-05-23T03:04:09.728Z</time>
</trkpt>
<trkpt lat="-27.4967904" lon="152.9194981">
<ele>21.922</ele>
<time>2017-05-23T03:04:11.748Z</time>
</trkpt>
<trkpt lat="-27.4970541" lon="152.9199054">
<ele>23.789</ele>
<time>2017-05-23T03:04:14.626Z</time>
</trkpt>
<trkpt lat="-27.4971220" lon="152.9202398">
<ele>26.169</ele>
<time>2017-05-23T03:04:16.591Z</time>
</trkpt>
<trkpt lat="-27.4971268" lon="152.9206042">
<ele>28.938</ele>
<time>2017-05-23T03:04:18.636Z</time>
</trkpt>
<trkpt lat="-27.4970276" lon="152.9209512">
<ele>31.857</ele>
<time>2017-05-23T03:04:20.635Z</time>
</trkpt>
<trkpt lat="-27.4969315" lon="152.9213135">
<ele>34.566</ele>
<time>2017-05-23T03:04:22.672Z</time>
</trkpt>
<trkpt lat="-27.4968100" lon="152.9218473">
<ele>36.722</ele>
<time>2017-05-23T03:04:25.605Z</time>
</trkpt>
<trkpt lat="-27.4967567" lon="152.9222389">
<ele>38.842</ele>
<time>2017-05-23T03:04:27.679Z</time>
</trkpt>
<trkpt lat="-27.4966464" lon="152.9228034">
<ele>41.750</ele>
<time>2017-05-23T03:04:30.699Z</time>
</trkpt>
<trkpt lat="-27.4965248" lon="152.9233465">
<ele>45.058</ele>
<time>2017-05-23T03:04:33.631Z</time>
</trkpt>
<trkpt lat="-27.4964078" lon="152.9238912">
<ele>47.787</ele>
<time>2017-05-23T03:04:36.585Z</time>
</trkpt>
<trkpt lat="-27.4963212" lon="152.9242500">
<ele>49.643</ele>
<time>2017-05-23T03:04:38.610Z</time>
</trkpt>
<trkpt lat="-27.4964362" lon="152.9247821">
<ele>50.874</ele>
<time>2017-05-23T03:04:41.656Z</time>
</trkpt>
<trkpt lat="-27.4966090" lon="152.9252881">
<ele>52.206</ele>
<time>2017-05-23T03:04:44.709Z</time>
</trkpt>
<trkpt lat="-27.4966016" lon="152.9256489">
<ele>54.283</ele>
<time>2017-05-23T03:04:46.747Z</time>
</trkpt>
<trkpt lat="-27.4964421" lon="152.9261422">
<ele>56.853</ele>
<time>2017-05-23T03:04:49.710Z</time>
</trkpt>
<trkpt lat="-27.4963298" lon="152.9264796">
<ele>58.960</ele>
<time>2017-05-23T03:04:51.740Z</time>
</trkpt>
<trkpt lat="-27.4963370" lon="152.9270303">
<ele>60.047</ele>
<time>2017-05-23T03:04:54.825Z</time>
</trkpt>
<trkpt lat="-27.4965324" lon="152.9273482">
<ele>60.101</ele>
<time>2017-05-23T03:04:56.930Z</time>
</trkpt>
<trkpt lat="-27.4968459" lon="152.9277884">
<ele>59.255</ele>
<time>2017-05-23T03:04:59.964Z</time>
</trkpt>
<trkpt lat="-27.4970566" lon="152.9280714">
<ele>57.706</ele>
<time>2017-05-23T03:05:01.964Z</time>
</trkpt>
<trkpt lat="-27.4974581" lon="152.9283691">
<ele>55.771</ele>
<time>2017-05-23T03:05:04.953Z</time>
</trkpt>
<trkpt lat="-27.4977542" lon="152.9284856">
<ele>53.690</ele>
<time>2017-05-23T03:05:06.953Z</time>
</trkpt>
<trkpt lat="-27.4980602" lon="152.9285714">
<ele>51.613</ele>
<time>2017-05-23T03:05:08.959Z</time>
</trkpt>
<trkpt lat="-27.4983607" lon="152.9286946">
<ele>49.843</ele>
<time>2017-05-23T03:05:10.980Z</time>
</trkpt>
<trkpt lat="-27.4986581" lon="152.9288044">
<ele>48.679</ele>
<time>2017-05-23T03:05:12.939Z</time>
</trkpt>
<trkpt lat="-27.4991107" lon="152.9289685">
<ele>48.073</ele>
<time>2017-05-23T03:05:15.889Z</time>
</trkpt>
<trkpt lat="-27.4994117" lon="152.9290865">
<ele>47.718</ele>
<time>2017-05-23T03:05:17.847Z</time>
</trkpt>
<trkpt lat="-27.4997071" lon="152.9292289">
<ele>47.279</ele>
<time>2017-05-23T03:05:19.837Z</time>
</trkpt>
<trkpt lat="-27.5000017" lon="152.9293441">
<ele>46.749</ele>
<time>2017-05-23T03:05:21.827Z</time>
</trkpt>
<trkpt lat="-27.5004475" lon="152.9294245">
<ele>46.382</ele>
<time>2017-05-23T03:05:24.755Z</time>
</trkpt>
<trkpt lat="-27.5007357" lon="152.9295530">
<ele>46.312</ele>
<time>2017-05-23T03:05:26.772Z</time>
</trkpt>
<trkpt lat="-27.5010094" lon="152.9297311">
<ele>46.452</ele>
<time>2017-05-23T03:05:28.772Z</time>
</trkpt>
<trkpt lat="-27.5012365" lon="152.9302337">
<ele>46.580</ele>
<time>2017-05-23T03:05:31.872Z</time>
</trkpt>
<trkpt lat="-27.5013844" lon="152.9305701">
<ele>46.435</ele>
<time>2017-05-23T03:05:33.909Z</time>
</trkpt>
<trkpt lat="-27.5015185" lon="152.9309022">
<ele>45.858</ele>
<time>2017-05-23T03:05:36.108Z</time>
</trkpt>
<trkpt lat="-27.5017558" lon="152.9312727">
<ele>44.807</ele>
<time>2017-05-23T03:05:39.255Z</time>
</trkpt>
<trkpt lat="-27.5019517" lon="152.9313863">
<ele>43.028</ele>
<time>2017-05-23T03:05:40.972Z</time>
</trkpt>
<trkpt lat="-27.5024344" lon="152.9314922">
<ele>40.415</ele>
<time>2017-05-23T03:05:44.345Z</time>
</trkpt>
<trkpt lat="-27.5028988" lon="152.9316090">
<ele>37.404</ele>
<time>2017-05-23T03:05:47.340Z</time>
</trkpt>
<trkpt lat="-27.5032228" lon="152.9316904">
<ele>34.449</ele>
<time>2017-05-23T03:05:49.467Z</time>
</trkpt>
<trkpt lat="-27.5036706" lon="152.9317722">
<ele>31.832</ele>
<time>2017-05-23T03:05:52.512Z</time>
</trkpt>
<trkpt lat="-27.5040785" lon="152.9318412">
<ele>29.717</ele>
<time>2017-05-23T03:05:55.342Z</time>
</trkpt>
<trkpt lat="-27.5043592" lon="152.9319264">
<ele>27.888</ele>
<time>2017-05-23T03:05:57.303Z</time>
</trkpt>
<trkpt lat="-27.5047008" lon="152.9322528">
<ele>26.203</ele>
<time>2017-05-23T03:06:00.274Z</time>
</trkpt>
<trkpt lat="-27.5050607" lon="152.9325588">
<ele>24.698</ele>
<time>2017-05-23T03:06:03.211Z</time>
</trkpt>
<trkpt lat="-27.5052867" lon="152.9327905">
<ele>23.066</ele>
<time>2017-05-23T03:06:05.152Z</time>
</trkpt>
<trkpt lat="-27.5055440" lon="152.9330102">
<ele>21.016</ele>
<time>2017-05-23T03:06:07.163Z</time>
</trkpt>
<trkpt lat="-27.5058639" lon="152.9334364">
<ele>18.790</ele>
<time>2017-05-23T03:06:10.301Z</time>
</trkpt>
<trkpt lat="-27.5060593" lon="152.9336948">
<ele>16.537</ele>
<time>2017-05-23T03:06:12.299Z</time>
</trkpt>
<trkpt lat="-27.5062386" lon="152.9339581">
<ele>14.254</ele>
<time>2017-05-23T03:06:14.264Z</time>
</trkpt>
<trkpt lat="-27.5064363" lon="152.9344004">
<ele>12.305</ele>
<time>2017-05-23T03:06:17.165Z</time>
</trkpt>
<trkpt lat="-27.5065068" lon="152.9347361">
<ele>11.095</ele>
<time>2017-05-23T03:06:19.182Z</time>
</trkpt>
<trkpt lat="-27.5065395" lon="152.9350740">
<ele>10.618</ele>
<time>2017-05-23T03:06:21.199Z</time>
</trkpt>
<trkpt lat="-27.5066250" lon="152.9353827">
<ele>10.715</ele>
<time>2017-05-23T03:06:23.137Z</time>
</trkpt>
<trkpt lat="-27.5067313" lon="152.9356985">
<ele>11.396</ele>
<time>2017-05-23T03:06:25.146Z</time>
</trkpt>
<trkpt lat="-27.5066877" lon="152.9360296">
<ele>12.815</ele>
<time>2017-05-23T03:06:27.110Z</time>
</trkpt>
<trkpt lat="-27.5066500" lon="152.9365442">
<ele>14.855</ele>
<time>2017-05-23T03:06:30.117Z</time>
</trkpt>
<trkpt lat="-27.5067336" lon="152.9370523">
<ele>17.235</ele>
<time>2017-05-23T03:06:33.123Z</time>
</trkpt>
<trkpt lat="-27.5068675" lon="152.9375299">
<ele>19.872</ele>
<time>2017-05-23T03:06:36.168Z</time>
</trkpt>
<trkpt lat="-27.5069498" lon="152.9378002">
<ele>22.653</ele>
<time>2017-05-23T03:06:38.196Z</time>
</trkpt>
<trkpt lat="-27.5069221" lon="152.9380606">
<ele>25.104</ele>
<time>2017-05-23T03:06:40.360Z</time>
</trkpt>
<trkpt lat="-27.5070196" lon="152.9382655">
<ele>26.831</ele>
<time>2017-05-23T03:06:42.549Z</time>
</trkpt>
<trkpt lat="-27.5070959" lon="152.9385189">
<ele>27.973</ele>
<time>2017-05-23T03:06:45.709Z</time>
</trkpt>
<trkpt lat="-27.5071417" lon="152.9387087">
<ele>28.953</ele>
<time>2017-05-23T03:06:48.536Z</time>
</trkpt>
<trkpt lat="-27.5071992" lon="152.9388293">
<ele>30.022</ele>
<time>2017-05-23T03:06:50.652Z</time>
</trkpt>
<trkpt lat="-27.5072892" lon="152.9389652">
<ele>31.072</ele>
<time>2017-05-23T03:06:53.252Z</time>
</trkpt>
<trkpt lat="-27.5073323" lon="152.9390846">
<ele>31.876</ele>
<time>2017-05-23T03:06:54.785Z</time>
</trkpt>
<trkpt lat="-27.5073738" lon="152.9393889">
<ele>32.435</ele>
<time>2017-05-23T03:06:57.800Z</time>
</trkpt>
<trkpt lat="-27.5074139" lon="152.9396546">
<ele>32.944</ele>
<time>2017-05-23T03:06:59.897Z</time>
</trkpt>
<trkpt lat="-27.5074737" lon="152.9399143">
<ele>33.573</ele>
<time>2017-05-23T03:07:01.804Z</time>
</trkpt>
<trkpt lat="-27.5076807" lon="152.9402786">
<ele>34.381</ele>
<time>2017-05-23T03:07:04.706Z</time>
</trkpt>
<trkpt lat="-27.5078457" lon="152.9407138">
<ele>35.367</ele>
<time>2017-05-23T03:07:07.714Z</time>
</trkpt>
<trkpt lat="-27.5079879" lon="152.9409863">
<ele>36.455</ele>
<time>2017-05-23T03:07:09.696Z</time>
</trkpt>
<trkpt lat="-27.5081149" lon="152.9412667">
<ele>37.398</ele>
<time>2017-05-23T03:07:11.643Z</time>
</trkpt>
<trkpt lat="-27.5083098" lon="152.9415035">
<ele>37.999</ele>
<time>2017-05-23T03:07:13.594Z</time>
</trkpt>
<trkpt lat="-27.5086696" lon="152.9418088">
<ele>38.285</ele>
<time>2017-05-23T03:07:16.646Z</time>
</trkpt>
<trkpt lat="-27.5089032" lon="152.9420050">
<ele>38.384</ele>
<time>2017-05-23T03:07:18.655Z</time>
</trkpt>
<trkpt lat="-27.5092393" lon="152.9423113">
<ele>38.413</ele>
<time>2017-05-23T03:07:21.698Z</time>
</trkpt>
<trkpt lat="-27.5093821" lon="152.9425800">
<ele>38.547</ele>
<time>2017-05-23T03:07:23.670Z</time>
</trkpt>
<trkpt lat="-27.5094773" lon="152.9430679">
<ele>38.899</ele>
<time>2017-05-23T03:07:26.764Z</time>
</trkpt>
<trkpt lat="-27.5096293" lon="152.9435345">
<ele>39.315</ele>
<time>2017-05-23T03:07:29.791Z</time>
</trkpt>
<trkpt lat="-27.5097594" lon="152.9438373">
<ele>39.419</ele>
<time>2017-05-23T03:07:31.794Z</time>
</trkpt>
<trkpt lat="-27.5098162" lon="152.9441748">
<ele>38.957</ele>
<time>2017-05-23T03:07:33.796Z</time>
</trkpt>
<trkpt lat="-27.5098243" lon="152.9446944">
<ele>38.006</ele>
<time>2017-05-23T03:07:36.825Z</time>
</trkpt>
<trkpt lat="-27.5098035" lon="152.9450346">
<ele>36.800</ele>
<time>2017-05-23T03:07:38.846Z</time>
</trkpt>
<trkpt lat="-27.5097946" lon="152.9453992">
<ele>35.512</ele>
<time>2017-05-23T03:07:41.017Z</time>
</trkpt>
<trkpt lat="-27.5094447" lon="152.9457290">
<ele>34.248</ele>
<time>2017-05-23T03:07:44.000Z</time>
</trkpt>
<trkpt lat="-27.5091551" lon="152.9459031">
<ele>32.913</ele>
<time>2017-05-23T03:07:46.025Z</time>
</trkpt>
<trkpt lat="-27.5087399" lon="152.9462526">
<ele>31.452</ele>
<time>2017-05-23T03:07:49.288Z</time>
</trkpt>
<trkpt lat="-27.5084775" lon="152.9464038">
<ele>30.037</ele>
<time>2017-05-23T03:07:51.297Z</time>
</trkpt>
<trkpt lat="-27.5081811" lon="152.9467307">
<ele>28.738</ele>
<time>2017-05-23T03:07:54.201Z</time>
</trkpt>
<trkpt lat="-27.5079495" lon="152.9471506">
<ele>27.329</ele>
<time>2017-05-23T03:07:57.263Z</time>
</trkpt>
<trkpt lat="-27.5076688" lon="152.9475148">
<ele>25.642</ele>
<time>2017-05-23T03:08:00.214Z</time>
</trkpt>
<trkpt lat="-27.5075041" lon="152.9477880">
<ele>23.808</ele>
<time>2017-05-23T03:08:02.211Z</time>
</trkpt>
<trkpt lat="-27.5073087" lon="152.9482289">
<ele>22.156</ele>
<time>2017-05-23T03:08:05.140Z</time>
</trkpt>
<trkpt lat="-27.5072209" lon="152.9485586">
<ele>20.857</ele>
<time>2017-05-23T03:08:07.144Z</time>
</trkpt>
<trkpt lat="-27.5071699" lon="152.9490563">
<ele>19.915</ele>
<time>2017-05-23T03:08:10.051Z</time>
</trkpt>
<trkpt lat="-27.5071724" lon="152.9493957">
<ele>19.284</ele>
<time>2017-05-23T03:08:12.004Z</time>
</trkpt>
<trkpt lat="-27.5072743" lon="152.9498978">
<ele>18.863</ele>
<time>2017-05-23T03:08:14.975Z</time>
</trkpt>
<trkpt lat="-27.5074610" lon="152.9503735">
<ele>18.417</ele>
<time>2017-05-23T03:08:18.006Z</time>
</trkpt>
<trkpt lat="-27.5075337" lon="152.9506965">
<ele>17.727</ele>
<time>2017-05-23T03:08:19.977Z</time>
</trkpt>
<trkpt lat="-27.5076298" lon="152.9510069">
<ele>16.909</ele>
<time>2017-05-23T03:08:21.926Z</time>
</trkpt>
<trkpt lat="-27.5077721" lon="152.9514856">
<ele>16.449</ele>
<time>2017-05-23T03:08:24.895Z</time>
</trkpt>
<trkpt lat="-27.5078536" lon="152.9518088">
<ele>16.876</ele>
<time>2017-05-23T03:08:26.839Z</time>
</trkpt>
<trkpt lat="-27.5080178" lon="152.9522948">
<ele>18.369</ele>
<time>2017-05-23T03:08:29.814Z</time>
</trkpt>
<trkpt lat="-27.5081574" lon="152.9527952">
<ele>20.815</ele>
<time>2017-05-23T03:08:32.771Z</time>
</trkpt>
<trkpt lat="-27.5082392" lon="152.9531341">
<ele>23.958</ele>
<time>2017-05-23T03:08:34.725Z</time>
</trkpt>
<trkpt lat="-27.5083592" lon="152.9536518">
<ele>27.129</ele>
<time>2017-05-23T03:08:37.694Z</time>
</trkpt>
<trkpt lat="-27.5084482" lon="152.9541748">
<ele>29.401</ele>
<time>2017-05-23T03:08:40.618Z</time>
</trkpt>
<trkpt lat="-27.5083077" lon="152.9545501">
<ele>30.433</ele>
<time>2017-05-23T03:08:42.805Z</time>
</trkpt>
<trkpt lat="-27.5082158" lon="152.9550925">
<ele>30.420</ele>
<time>2017-05-23T03:08:45.757Z</time>
</trkpt>
<trkpt lat="-27.5080359" lon="152.9556101">
<ele>29.373</ele>
<time>2017-05-23T03:08:48.727Z</time>
</trkpt>
<trkpt lat="-27.5079174" lon="152.9559555">
<ele>27.118</ele>
<time>2017-05-23T03:08:50.691Z</time>
</trkpt>
<trkpt lat="-27.5077944" lon="152.9563050">
<ele>23.978</ele>
<time>2017-05-23T03:08:52.688Z</time>
</trkpt>
<trkpt lat="-27.5077222" lon="152.9568370">
<ele>20.665</ele>
<time>2017-05-23T03:08:55.587Z</time>
</trkpt>
<trkpt lat="-27.5076470" lon="152.9571778">
<ele>17.488</ele>
<time>2017-05-23T03:08:57.538Z</time>
</trkpt>
<trkpt lat="-27.5074690" lon="152.9576663">
<ele>14.479</ele>
<time>2017-05-23T03:09:00.502Z</time>
</trkpt>
<trkpt lat="-27.5072894" lon="152.9581435">
<ele>11.781</ele>
<time>2017-05-23T03:09:03.453Z</time>
</trkpt>
<trkpt lat="-27.5070257" lon="152.9585568">
<ele>9.466</ele>
<time>2017-05-23T03:09:06.375Z</time>
</trkpt>
<trkpt lat="-27.5068677" lon="152.9588543">
<ele>7.634</ele>
<time>2017-05-23T03:09:08.340Z</time>
</trkpt>
<trkpt lat="-27.5066621" lon="152.9591321">
<ele>6.463</ele>
<time>2017-05-23T03:09:10.438Z</time>
</trkpt>
<trkpt lat="-27.5063879" lon="152.9595141">
<ele>5.816</ele>
<time>2017-05-23T03:09:13.458Z</time>
</trkpt>
<trkpt lat="-27.5062252" lon="152.9597281">
<ele>5.322</ele>
<time>2017-05-23T03:09:15.428Z</time>
</trkpt>
<trkpt lat="-27.5059609" lon="152.9599604">
<ele>4.841</ele>
<time>2017-05-23T03:09:18.298Z</time>
</trkpt>
<trkpt lat="-27.5057188" lon="152.9601680">
<ele>4.513</ele>
<time>2017-05-23T03:09:21.137Z</time>
</trkpt>
<trkpt lat="-27.5055802" lon="152.9603414">
<ele>4.338</ele>
<time>2017-05-23T03:09:23.112Z</time>
</trkpt>
<trkpt lat="-27.5053323" lon="152.9605575">
<ele>4.105</ele>
<time>2017-05-23T03:09:26.082Z</time>
</trkpt>
<trkpt lat="-27.5051913" lon="152.9607293">
<ele>3.633</ele>
<time>2017-05-23T03:09:28.121Z</time>
</trkpt>
<trkpt lat="-27.5050659" lon="152.9608654">
<ele>2.912</ele>
<time>2017-05-23T03:09:30.007Z</time>
</trkpt>
<trkpt lat="-27.5049699" lon="152.9609991">
<ele>2.115</ele>
<time>2017-05-23T03:09:31.913Z</time>
</trkpt>
<trkpt lat="-27.5048113" lon="152.9611300">
<ele>1.461</ele>
<time>2017-05-23T03:09:34.818Z</time>
</trkpt>
<trkpt lat="-27.5047207" lon="152.9612168">
<ele>1.067</ele>
<time>2017-05-23T03:09:36.999Z</time>
</trkpt>
<trkpt lat="-27.5047207" lon="152.9612168">
<ele>0.932</ele>
<time>2017-05-23T03:09:42.999Z</time>
</trkpt>
<trkpt lat="-27.5047207" lon="152.9612168">
<ele>0.958</ele>
<time>2017-05-23T03:09:53.278Z</time>
</trkpt>
<trkpt lat="-27.5045119" lon="152.9614191">
<ele>1.022</ele>
<time>2017-05-23T03:09:58.399Z</time>
</trkpt>
<trkpt lat="-27.5042940" lon="152.9616479">
<ele>1.255</ele>
<time>2017-05-23T03:10:01.150Z</time>
</trkpt>
<trkpt lat="-27.5040397" lon="152.9618673">
<ele>1.766</ele>
<time>2017-05-23T03:10:03.925Z</time>
</trkpt>
<trkpt lat="-27.5037989" lon="152.9620849">
<ele>2.243</ele>
<time>2017-05-23T03:10:06.830Z</time>
</trkpt>
<trkpt lat="-27.5035584" lon="152.9620967">
<ele>2.264</ele>
<time>2017-05-23T03:10:09.316Z</time>
</trkpt>
<trkpt lat="-27.5033054" lon="152.9620973">
<ele>1.827</ele>
<time>2017-05-23T03:10:12.014Z</time>
</trkpt>
<trkpt lat="-27.5031565" lon="152.9620235">
<ele>1.286</ele>
<time>2017-05-23T03:10:14.019Z</time>
</trkpt>
<trkpt lat="-27.5030201" lon="152.9620329">
<ele>1.018</ele>
<time>2017-05-23T03:10:15.999Z</time>
</trkpt>
<trkpt lat="-27.5030201" lon="152.9620329">
<ele>1.071</ele>
<time>2017-05-23T03:10:19.999Z</time>
</trkpt>
<trkpt lat="-27.5030201" lon="152.9620329">
<ele>1.200</ele>
<time>2017-05-23T03:14:29.257Z</time>
</trkpt>
<trkpt lat="-27.5028355" lon="152.9620045">
<ele>1.208</ele>
<time>2017-05-23T03:14:35.302Z</time>
</trkpt>
<trkpt lat="-27.5025371" lon="152.9620592">
<ele>1.495</ele>
<time>2017-05-23T03:14:37.989Z</time>
</trkpt>
<trkpt lat="-27.5020648" lon="152.9621120">
<ele>2.619</ele>
<time>2017-05-23T03:14:41.254Z</time>
</trkpt>
<trkpt lat="-27.5016485" lon="152.9622228">
<ele>4.565</ele>
<time>2017-05-23T03:14:43.996Z</time>
</trkpt>
<trkpt lat="-27.5013396" lon="152.9623378">
<ele>6.993</ele>
<time>2017-05-23T03:14:46.010Z</time>
</trkpt>
<trkpt lat="-27.5009705" lon="152.9624461">
<ele>9.586</ele>
<time>2017-05-23T03:14:48.383Z</time>
</trkpt>
<trkpt lat="-27.5006985" lon="152.9625491">
<ele>11.973</ele>
<time>2017-05-23T03:14:50.153Z</time>
</trkpt>
<trkpt lat="-27.5002420" lon="152.9627020">
<ele>13.958</ele>
<time>2017-05-23T03:14:52.931Z</time>
</trkpt>
<trkpt lat="-27.4998876" lon="152.9628028">
<ele>15.706</ele>
<time>2017-05-23T03:14:54.915Z</time>
</trkpt>
<trkpt lat="-27.4993801" lon="152.9630076">
<ele>17.461</ele>
<time>2017-05-23T03:14:57.836Z</time>
</trkpt>
<trkpt lat="-27.4990243" lon="152.9631376">
<ele>19.178</ele>
<time>2017-05-23T03:14:59.824Z</time>
</trkpt>
<trkpt lat="-27.4984556" lon="152.9632881">
<ele>20.619</ele>
<time>2017-05-23T03:15:02.861Z</time>
</trkpt>
<trkpt lat="-27.4980634" lon="152.9633665">
<ele>21.655</ele>
<time>2017-05-23T03:15:04.871Z</time>
</trkpt>
<trkpt lat="-27.4974918" lon="152.9634974">
<ele>22.332</ele>
<time>2017-05-23T03:15:07.764Z</time>
</trkpt>
<trkpt lat="-27.4969121" lon="152.9637548">
<ele>22.836</ele>
<time>2017-05-23T03:15:10.761Z</time>
</trkpt>
<trkpt lat="-27.4962747" lon="152.9639029">
<ele>23.387</ele>
<time>2017-05-23T03:15:13.821Z</time>
</trkpt>
<trkpt lat="-27.4956983" lon="152.9642083">
<ele>24.105</ele>
<time>2017-05-23T03:15:16.798Z</time>
</trkpt>
<trkpt lat="-27.4953235" lon="152.9644431">
<ele>24.942</ele>
<time>2017-05-23T03:15:18.801Z</time>
</trkpt>
<trkpt lat="-27.4948085" lon="152.9648478">
<ele>25.780</ele>
<time>2017-05-23T03:15:21.750Z</time>
</trkpt>
<trkpt lat="-27.4944617" lon="152.9651120">
<ele>26.456</ele>
<time>2017-05-23T03:15:23.722Z</time>
</trkpt>
<trkpt lat="-27.4939331" lon="152.9655256">
<ele>26.870</ele>
<time>2017-05-23T03:15:26.732Z</time>
</trkpt>
<trkpt lat="-27.4935282" lon="152.9658031">
<ele>27.139</ele>
<time>2017-05-23T03:15:28.915Z</time>
</trkpt>
<trkpt lat="-27.4931347" lon="152.9660782">
<ele>27.445</ele>
<time>2017-05-23T03:15:31.042Z</time>
</trkpt>
<trkpt lat="-27.4925598" lon="152.9663786">
<ele>27.858</ele>
<time>2017-05-23T03:15:33.995Z</time>
</trkpt>
<trkpt lat="-27.4921805" lon="152.9664932">
<ele>28.494</ele>
<time>2017-05-23T03:15:35.910Z</time>
</trkpt>
<trkpt lat="-27.4918097" lon="152.9666071">
<ele>29.441</ele>
<time>2017-05-23T03:15:37.856Z</time>
</trkpt>
<trkpt lat="-27.4914398" lon="152.9666689">
<ele>30.549</ele>
<time>2017-05-23T03:15:39.805Z</time>
</trkpt>
<trkpt lat="-27.4910693" lon="152.9667004">
<ele>31.631</ele>
<time>2017-05-23T03:15:41.770Z</time>
</trkpt>
<trkpt lat="-27.4905065" lon="152.9667306">
<ele>32.719</ele>
<time>2017-05-23T03:15:44.796Z</time>
</trkpt>
<trkpt lat="-27.4899750" lon="152.9666543">
<ele>34.076</ele>
<time>2017-05-23T03:15:47.708Z</time>
</trkpt>
<trkpt lat="-27.4894290" lon="152.9665599">
<ele>35.920</ele>
<time>2017-05-23T03:15:50.622Z</time>
</trkpt>
<trkpt lat="-27.4888530" lon="152.9663618">
<ele>38.177</ele>
<time>2017-05-23T03:15:53.650Z</time>
</trkpt>
<trkpt lat="-27.4884273" lon="152.9663738">
<ele>40.779</ele>
<time>2017-05-23T03:15:55.735Z</time>
</trkpt>
<trkpt lat="-27.4880163" lon="152.9663612">
<ele>43.527</ele>
<time>2017-05-23T03:15:57.734Z</time>
</trkpt>
<trkpt lat="-27.4876073" lon="152.9662988">
<ele>45.902</ele>
<time>2017-05-23T03:15:59.698Z</time>
</trkpt>
<trkpt lat="-27.4869642" lon="152.9663090">
<ele>47.643</ele>
<time>2017-05-23T03:16:02.707Z</time>
</trkpt>
<trkpt lat="-27.4863292" lon="152.9664999">
<ele>48.971</ele>
<time>2017-05-23T03:16:05.753Z</time>
</trkpt>
<trkpt lat="-27.4857148" lon="152.9666717">
<ele>50.119</ele>
<time>2017-05-23T03:16:08.710Z</time>
</trkpt>
<trkpt lat="-27.4851405" lon="152.9669367">
<ele>51.026</ele>
<time>2017-05-23T03:16:11.660Z</time>
</trkpt>
<trkpt lat="-27.4845983" lon="152.9672318">
<ele>51.453</ele>
<time>2017-05-23T03:16:14.587Z</time>
</trkpt>
<trkpt lat="-27.4842607" lon="152.9674702">
<ele>51.263</ele>
<time>2017-05-23T03:16:16.543Z</time>
</trkpt>
<trkpt lat="-27.4839365" lon="152.9677283">
<ele>50.542</ele>
<time>2017-05-23T03:16:18.491Z</time>
</trkpt>
<trkpt lat="-27.4836280" lon="152.9680135">
<ele>49.563</ele>
<time>2017-05-23T03:16:20.451Z</time>
</trkpt>
<trkpt lat="-27.4831885" lon="152.9684728">
<ele>48.556</ele>
<time>2017-05-23T03:16:23.394Z</time>
</trkpt>
<trkpt lat="-27.4829345" lon="152.9688203">
<ele>47.534</ele>
<time>2017-05-23T03:16:25.356Z</time>
</trkpt>
<trkpt lat="-27.4825765" lon="152.9693579">
<ele>46.498</ele>
<time>2017-05-23T03:16:28.289Z</time>
</trkpt>
<trkpt lat="-27.4822628" lon="152.9699300">
<ele>45.511</ele>
<time>2017-05-23T03:16:31.235Z</time>
</trkpt>
<trkpt lat="-27.4819733" lon="152.9705165">
<ele>44.564</ele>
<time>2017-05-23T03:16:34.184Z</time>
</trkpt>
<trkpt lat="-27.4817846" lon="152.9709125">
<ele>43.534</ele>
<time>2017-05-23T03:16:36.158Z</time>
</trkpt>
<trkpt lat="-27.4814825" lon="152.9715002">
<ele>42.414</ele>
<time>2017-05-23T03:16:39.130Z</time>
</trkpt>
<trkpt lat="-27.4812716" lon="152.9718889">
<ele>41.346</ele>
<time>2017-05-23T03:16:41.120Z</time>
</trkpt>
<trkpt lat="-27.4809667" lon="152.9724719">
<ele>40.459</ele>
<time>2017-05-23T03:16:44.081Z</time>
</trkpt>
<trkpt lat="-27.4806676" lon="152.9730590">
<ele>39.824</ele>
<time>2017-05-23T03:16:47.052Z</time>
</trkpt>
<trkpt lat="-27.4803408" lon="152.9736239">
<ele>39.492</ele>
<time>2017-05-23T03:16:50.022Z</time>
</trkpt>
<trkpt lat="-27.4801281" lon="152.9740010">
<ele>39.440</ele>
<time>2017-05-23T03:16:52.035Z</time>
</trkpt>
<trkpt lat="-27.4799238" lon="152.9745865">
<ele>39.570</ele>
<time>2017-05-23T03:16:54.979Z</time>
</trkpt>
<trkpt lat="-27.4797709" lon="152.9749268">
<ele>39.725</ele>
<time>2017-05-23T03:16:56.889Z</time>
</trkpt>
<trkpt lat="-27.4796239" lon="152.9752477">
<ele>39.769</ele>
<time>2017-05-23T03:16:58.796Z</time>
</trkpt>
<trkpt lat="-27.4794919" lon="152.9755653">
<ele>39.667</ele>
<time>2017-05-23T03:17:00.721Z</time>
</trkpt>
<trkpt lat="-27.4792650" lon="152.9760228">
<ele>39.457</ele>
<time>2017-05-23T03:17:03.644Z</time>
</trkpt>
<trkpt lat="-27.4791269" lon="152.9763379">
<ele>39.123</ele>
<time>2017-05-23T03:17:05.623Z</time>
</trkpt>
<trkpt lat="-27.4790021" lon="152.9766570">
<ele>38.591</ele>
<time>2017-05-23T03:17:07.601Z</time>
</trkpt>
<trkpt lat="-27.4786002" lon="152.9769527">
<ele>37.878</ele>
<time>2017-05-23T03:17:10.703Z</time>
</trkpt>
<trkpt lat="-27.4784167" lon="152.9772150">
<ele>36.968</ele>
<time>2017-05-23T03:17:12.652Z</time>
</trkpt>
<trkpt lat="-27.4782155" lon="152.9776643">
<ele>35.796</ele>
<time>2017-05-23T03:17:15.610Z</time>
</trkpt>
<trkpt lat="-27.4780977" lon="152.9779790">
<ele>34.306</ele>
<time>2017-05-23T03:17:17.598Z</time>
</trkpt>
<trkpt lat="-27.4780739" lon="152.9783199">
<ele>32.514</ele>
<time>2017-05-23T03:17:19.576Z</time>
</trkpt>
<trkpt lat="-27.4780422" lon="152.9788211">
<ele>30.586</ele>
<time>2017-05-23T03:17:22.498Z</time>
</trkpt>
<trkpt lat="-27.4780041" lon="152.9791529">
<ele>28.571</ele>
<time>2017-05-23T03:17:24.474Z</time>
</trkpt>
<trkpt lat="-27.4780235" lon="152.9794739">
<ele>26.364</ele>
<time>2017-05-23T03:17:26.429Z</time>
</trkpt>
<trkpt lat="-27.4779027" lon="152.9799144">
<ele>24.080</ele>
<time>2017-05-23T03:17:29.346Z</time>
</trkpt>
<trkpt lat="-27.4777670" lon="152.9803016">
<ele>21.887</ele>
<time>2017-05-23T03:17:32.144Z</time>
</trkpt>
<trkpt lat="-27.4775984" lon="152.9804766">
<ele>19.880</ele>
<time>2017-05-23T03:17:34.015Z</time>
</trkpt>
<trkpt lat="-27.4773138" lon="152.9806197">
<ele>18.327</ele>
<time>2017-05-23T03:17:36.801Z</time>
</trkpt>
<trkpt lat="-27.4770986" lon="152.9806412">
<ele>17.472</ele>
<time>2017-05-23T03:17:38.862Z</time>
</trkpt>
<trkpt lat="-27.4768353" lon="152.9806059">
<ele>17.328</ele>
<time>2017-05-23T03:17:41.180Z</time>
</trkpt>
<trkpt lat="-27.4764478" lon="152.9804234">
<ele>17.814</ele>
<time>2017-05-23T03:17:44.375Z</time>
</trkpt>
<trkpt lat="-27.4760791" lon="152.9802306">
<ele>18.966</ele>
<time>2017-05-23T03:17:47.353Z</time>
</trkpt>
<trkpt lat="-27.4758650" lon="152.9800685">
<ele>20.710</ele>
<time>2017-05-23T03:17:49.286Z</time>
</trkpt>
<trkpt lat="-27.4756665" lon="152.9799036">
<ele>22.547</ele>
<time>2017-05-23T03:17:51.193Z</time>
</trkpt>
<trkpt lat="-27.4753673" lon="152.9796216">
<ele>23.886</ele>
<time>2017-05-23T03:17:54.187Z</time>
</trkpt>
<trkpt lat="-27.4751767" lon="152.9793963">
<ele>24.649</ele>
<time>2017-05-23T03:17:56.224Z</time>
</trkpt>
<trkpt lat="-27.4749457" lon="152.9790145">
<ele>25.122</ele>
<time>2017-05-23T03:17:59.224Z</time>
</trkpt>
<trkpt lat="-27.4747525" lon="152.9786306">
<ele>25.463</ele>
<time>2017-05-23T03:18:02.175Z</time>
</trkpt>
<trkpt lat="-27.4746627" lon="152.9783594">
<ele>25.577</ele>
<time>2017-05-23T03:18:04.165Z</time>
</trkpt>
<trkpt lat="-27.4745726" lon="152.9779425">
<ele>25.360</ele>
<time>2017-05-23T03:18:07.133Z</time>
</trkpt>
<trkpt lat="-27.4744959" lon="152.9776193">
<ele>24.758</ele>
<time>2017-05-23T03:18:09.404Z</time>
</trkpt>
<trkpt lat="-27.4744279" lon="152.9771968">
<ele>23.817</ele>
<time>2017-05-23T03:18:12.312Z</time>
</trkpt>
<trkpt lat="-27.4743366" lon="152.9769004">
<ele>22.770</ele>
<time>2017-05-23T03:18:14.447Z</time>
</trkpt>
<trkpt lat="-27.4742511" lon="152.9765016">
<ele>21.948</ele>
<time>2017-05-23T03:18:17.301Z</time>
</trkpt>
<trkpt lat="-27.4741511" lon="152.9761027">
<ele>21.568</ele>
<time>2017-05-23T03:18:20.304Z</time>
</trkpt>
<trkpt lat="-27.4740257" lon="152.9757281">
<ele>21.701</ele>
<time>2017-05-23T03:18:23.259Z</time>
</trkpt>
<trkpt lat="-27.4739306" lon="152.9753588">
<ele>22.405</ele>
<time>2017-05-23T03:18:26.193Z</time>
</trkpt>
<trkpt lat="-27.4738767" lon="152.9751201">
<ele>23.858</ele>
<time>2017-05-23T03:18:28.131Z</time>
</trkpt>
<trkpt lat="-27.4738093" lon="152.9747424">
<ele>26.027</ele>
<time>2017-05-23T03:18:31.187Z</time>
</trkpt>
<trkpt lat="-27.4737183" lon="152.9743724">
<ele>28.720</ele>
<time>2017-05-23T03:18:34.178Z</time>
</trkpt>
<trkpt lat="-27.4736309" lon="152.9741453">
<ele>31.951</ele>
<time>2017-05-23T03:18:36.118Z</time>
</trkpt>
<trkpt lat="-27.4735837" lon="152.9739075">
<ele>35.510</ele>
<time>2017-05-23T03:18:38.100Z</time>
</trkpt>
<trkpt lat="-27.4735072" lon="152.9736480">
<ele>38.808</ele>
<time>2017-05-23T03:18:40.384Z</time>
</trkpt>
<trkpt lat="-27.4734817" lon="152.9734704">
<ele>41.609</ele>
<time>2017-05-23T03:18:41.900Z</time>
</trkpt>
<trkpt lat="-27.4734853" lon="152.9730940">
<ele>44.099</ele>
<time>2017-05-23T03:18:45.062Z</time>
</trkpt>
<trkpt lat="-27.4735574" lon="152.9727245">
<ele>46.365</ele>
<time>2017-05-23T03:18:48.108Z</time>
</trkpt>
<trkpt lat="-27.4736305" lon="152.9723393">
<ele>48.135</ele>
<time>2017-05-23T03:18:51.147Z</time>
</trkpt>
<trkpt lat="-27.4737154" lon="152.9720807">
<ele>49.272</ele>
<time>2017-05-23T03:18:53.194Z</time>
</trkpt>
<trkpt lat="-27.4738210" lon="152.9718195">
<ele>50.166</ele>
<time>2017-05-23T03:18:55.244Z</time>
</trkpt>
<trkpt lat="-27.4739387" lon="152.9715742">
<ele>51.241</ele>
<time>2017-05-23T03:18:57.201Z</time>
</trkpt>
<trkpt lat="-27.4740730" lon="152.9713313">
<ele>52.595</ele>
<time>2017-05-23T03:18:59.208Z</time>
</trkpt>
<trkpt lat="-27.4742389" lon="152.9709469">
<ele>54.196</ele>
<time>2017-05-23T03:19:02.228Z</time>
</trkpt>
<trkpt lat="-27.4743954" lon="152.9705655">
<ele>56.145</ele>
<time>2017-05-23T03:19:05.200Z</time>
</trkpt>
<trkpt lat="-27.4745291" lon="152.9702607">
<ele>58.739</ele>
<time>2017-05-23T03:19:07.582Z</time>
</trkpt>
<trkpt lat="-27.4746351" lon="152.9700678">
<ele>62.014</ele>
<time>2017-05-23T03:19:09.171Z</time>
</trkpt>
<trkpt lat="-27.4747607" lon="152.9696442">
<ele>65.600</ele>
<time>2017-05-23T03:19:12.324Z</time>
</trkpt>
<trkpt lat="-27.4746665" lon="152.9693748">
<ele>69.344</ele>
<time>2017-05-23T03:19:14.342Z</time>
</trkpt>
<trkpt lat="-27.4746570" lon="152.9689461">
<ele>73.165</ele>
<time>2017-05-23T03:19:17.302Z</time>
</trkpt>
<trkpt lat="-27.4746874" lon="152.9686628">
<ele>76.896</ele>
<time>2017-05-23T03:19:19.289Z</time>
</trkpt>
<trkpt lat="-27.4748722" lon="152.9683146">
<ele>80.520</ele>
<time>2017-05-23T03:19:22.170Z</time>
</trkpt>
<trkpt lat="-27.4751006" lon="152.9682013">
<ele>83.867</ele>
<time>2017-05-23T03:19:24.191Z</time>
</trkpt>
<trkpt lat="-27.4754966" lon="152.9681674">
<ele>86.625</ele>
<time>2017-05-23T03:19:27.330Z</time>
</trkpt>
<trkpt lat="-27.4758840" lon="152.9681171">
<ele>88.975</ele>
<time>2017-05-23T03:19:30.366Z</time>
</trkpt>
<trkpt lat="-27.4762344" lon="152.9679982">
<ele>91.256</ele>
<time>2017-05-23T03:19:33.288Z</time>
</trkpt>
<trkpt lat="-27.4764076" lon="152.9678573">
<ele>93.497</ele>
<time>2017-05-23T03:19:35.125Z</time>
</trkpt>
<trkpt lat="-27.4766223" lon="152.9676260">
<ele>95.456</ele>
<time>2017-05-23T03:19:37.948Z</time>
</trkpt>
<trkpt lat="-27.4768476" lon="152.9674069">
<ele>96.998</ele>
<time>2017-05-23T03:19:40.921Z</time>
</trkpt>
<trkpt lat="-27.4770034" lon="152.9672718">
<ele>98.290</ele>
<time>2017-05-23T03:19:42.894Z</time>
</trkpt>
<trkpt lat="-27.4771641" lon="152.9671317">
<ele>99.534</ele>
<time>2017-05-23T03:19:44.914Z</time>
</trkpt>
<trkpt lat="-27.4773989" lon="152.9669176">
<ele>100.733</ele>
<time>2017-05-23T03:19:47.877Z</time>
</trkpt>
<trkpt lat="-27.4776285" lon="152.9666959">
<ele>101.952</ele>
<time>2017-05-23T03:19:50.838Z</time>
</trkpt>
<trkpt lat="-27.4778539" lon="152.9664602">
<ele>103.388</ele>
<time>2017-05-23T03:19:53.844Z</time>
</trkpt>
<trkpt lat="-27.4780066" lon="152.9663150">
<ele>105.141</ele>
<time>2017-05-23T03:19:55.797Z</time>
</trkpt>
<trkpt lat="-27.4781937" lon="152.9659994">
<ele>107.058</ele>
<time>2017-05-23T03:19:58.888Z</time>
</trkpt>
<trkpt lat="-27.4783264" lon="152.9657467">
<ele>109.000</ele>
<time>2017-05-23T03:20:01.027Z</time>
</trkpt>
<trkpt lat="-27.4784974" lon="152.9653747">
<ele>110.989</ele>
<time>2017-05-23T03:20:03.984Z</time>
</trkpt>
<trkpt lat="-27.4786922" lon="152.9651870">
<ele>113.070</ele>
<time>2017-05-23T03:20:06.034Z</time>
</trkpt>
<trkpt lat="-27.4790700" lon="152.9650261">
<ele>115.149</ele>
<time>2017-05-23T03:20:09.166Z</time>
</trkpt>
<trkpt lat="-27.4793938" lon="152.9648057">
<ele>117.165</ele>
<time>2017-05-23T03:20:12.116Z</time>
</trkpt>
<trkpt lat="-27.4795701" lon="152.9644486">
<ele>119.230</ele>
<time>2017-05-23T03:20:15.029Z</time>
</trkpt>
<trkpt lat="-27.4798027" lon="152.9641238">
<ele>121.445</ele>
<time>2017-05-23T03:20:18.023Z</time>
</trkpt>
<trkpt lat="-27.4800135" lon="152.9639552">
<ele>123.575</ele>
<time>2017-05-23T03:20:20.070Z</time>
</trkpt>
<trkpt lat="-27.4802307" lon="152.9637899">
<ele>125.142</ele>
<time>2017-05-23T03:20:22.098Z</time>
</trkpt>
<trkpt lat="-27.4805532" lon="152.9635592">
<ele>125.830</ele>
<time>2017-05-23T03:20:25.062Z</time>
</trkpt>
<trkpt lat="-27.4807555" lon="152.9633941">
<ele>125.825</ele>
<time>2017-05-23T03:20:27.041Z</time>
</trkpt>
<trkpt lat="-27.4810140" lon="152.9630833">
<ele>125.692</ele>
<time>2017-05-23T03:20:30.071Z</time>
</trkpt>
<trkpt lat="-27.4811787" lon="152.9628805">
<ele>126.120</ele>
<time>2017-05-23T03:20:32.043Z</time>
</trkpt>
<trkpt lat="-27.4814317" lon="152.9625779">
<ele>127.490</ele>
<time>2017-05-23T03:20:35.039Z</time>
</trkpt>
<trkpt lat="-27.4816830" lon="152.9622602">
<ele>129.768</ele>
<time>2017-05-23T03:20:38.035Z</time>
</trkpt>
<trkpt lat="-27.4819409" lon="152.9619476">
<ele>132.819</ele>
<time>2017-05-23T03:20:41.008Z</time>
</trkpt>
<trkpt lat="-27.4822106" lon="152.9616436">
<ele>136.434</ele>
<time>2017-05-23T03:20:44.024Z</time>
</trkpt>
<trkpt lat="-27.4825624" lon="152.9615025">
<ele>140.265</ele>
<time>2017-05-23T03:20:46.964Z</time>
</trkpt>
<trkpt lat="-27.4829293" lon="152.9613726">
<ele>144.321</ele>
<time>2017-05-23T03:20:49.997Z</time>
</trkpt>
<trkpt lat="-27.4832306" lon="152.9611134">
<ele>149.119</ele>
<time>2017-05-23T03:20:53.007Z</time>
</trkpt>
<trkpt lat="-27.4835541" lon="152.9608679">
<ele>154.835</ele>
<time>2017-05-23T03:20:56.049Z</time>
</trkpt>
<trkpt lat="-27.4838494" lon="152.9605798">
<ele>160.752</ele>
<time>2017-05-23T03:20:59.047Z</time>
</trkpt>
<trkpt lat="-27.4840274" lon="152.9603989">
<ele>165.874</ele>
<time>2017-05-23T03:21:00.915Z</time>
</trkpt>
<trkpt lat="-27.4841681" lon="152.9601515">
<ele>169.610</ele>
<time>2017-05-23T03:21:03.358Z</time>
</trkpt>
<trkpt lat="-27.4841232" lon="152.9599360">
<ele>172.099</ele>
<time>2017-05-23T03:21:05.455Z</time>
</trkpt>
<trkpt lat="-27.4839668" lon="152.9596240">
<ele>173.919</ele>
<time>2017-05-23T03:21:08.819Z</time>
</trkpt>
<trkpt lat="-27.4839668" lon="152.9593992">
<ele>175.405</ele>
<time>2017-05-23T03:21:10.893Z</time>
</trkpt>
<trkpt lat="-27.4840890" lon="152.9592135">
<ele>176.505</ele>
<time>2017-05-23T03:21:13.043Z</time>
</trkpt>
<trkpt lat="-27.4843512" lon="152.9589956">
<ele>177.127</ele>
<time>2017-05-23T03:21:16.204Z</time>
</trkpt>
<trkpt lat="-27.4845705" lon="152.9587178">
<ele>177.446</ele>
<time>2017-05-23T03:21:19.242Z</time>
</trkpt>
<trkpt lat="-27.4846153" lon="152.9583623">
<ele>177.843</ele>
<time>2017-05-23T03:21:22.219Z</time>
</trkpt>
<trkpt lat="-27.4847285" lon="152.9581611">
<ele>178.601</ele>
<time>2017-05-23T03:21:24.263Z</time>
</trkpt>
<trkpt lat="-27.4847667" lon="152.9578284">
<ele>179.710</ele>
<time>2017-05-23T03:21:27.233Z</time>
</trkpt>
<trkpt lat="-27.4846188" lon="152.9575568">
<ele>181.022</ele>
<time>2017-05-23T03:21:30.244Z</time>
</trkpt>
<trkpt lat="-27.4845859" lon="152.9574089">
<ele>182.500</ele>
<time>2017-05-23T03:21:31.925Z</time>
</trkpt>
<trkpt lat="-27.4846142" lon="152.9572912">
<ele>184.030</ele>
<time>2017-05-23T03:21:33.740Z</time>
</trkpt>
<trkpt lat="-27.4847112" lon="152.9572256">
<ele>185.351</ele>
<time>2017-05-23T03:21:35.938Z</time>
</trkpt>
<trkpt lat="-27.4848435" lon="152.9573605">
<ele>186.384</ele>
<time>2017-05-23T03:21:39.157Z</time>
</trkpt>
<trkpt lat="-27.4848626" lon="152.9575229">
<ele>187.220</ele>
<time>2017-05-23T03:21:41.348Z</time>
</trkpt>
<trkpt lat="-27.4849086" lon="152.9577979">
<ele>187.873</ele>
<time>2017-05-23T03:21:44.585Z</time>
</trkpt>
<trkpt lat="-27.4849420" lon="152.9579839">
<ele>188.340</ele>
<time>2017-05-23T03:21:46.685Z</time>
</trkpt>
<trkpt lat="-27.4849720" lon="152.9581477">
<ele>188.756</ele>
<time>2017-05-23T03:21:48.629Z</time>
</trkpt>
<trkpt lat="-27.4849966" lon="152.9583012">
<ele>189.300</ele>
<time>2017-05-23T03:21:50.645Z</time>
</trkpt>
<trkpt lat="-27.4849401" lon="152.9584901">
<ele>190.049</ele>
<time>2017-05-23T03:21:53.635Z</time>
</trkpt>
<trkpt lat="-27.4848649" lon="152.9586018">
<ele>191.062</ele>
<time>2017-05-23T03:21:56.243Z</time>
</trkpt>
<trkpt lat="-27.4848574" lon="152.9587212">
<ele>192.291</ele>
<time>2017-05-23T03:21:58.999Z</time>
</trkpt>
<trkpt lat="-27.4848574" lon="152.9587212">
<ele>193.376</ele>
<time>2017-05-23T03:22:04.999Z</time>
</trkpt>
<trkpt lat="-27.4848574" lon="152.9587212">
<ele>193.862</ele>
<time>2017-05-23T05:05:20.875Z</time>
</trkpt>
<trkpt lat="-27.4848636" lon="152.9590756">
<ele>193.726</ele>
<time>2017-05-23T05:06:21.000Z</time>
</trkpt>
<trkpt lat="-27.4848636" lon="152.9590756">
<ele>193.431</ele>
<time>2017-05-23T05:06:25.000Z</time>
</trkpt>
<trkpt lat="-27.4848636" lon="152.9590756">
<ele>193.337</ele>
<time>2017-05-23T05:15:23.842Z</time>
</trkpt>
<trkpt lat="-27.4848412" lon="152.9587849">
<ele>193.399</ele>
<time>2017-05-23T05:15:43.457Z</time>
</trkpt>
<trkpt lat="-27.4848322" lon="152.9586651">
<ele>194.510</ele>
<time>2017-05-23T05:15:47.461Z</time>
</trkpt>
<trkpt lat="-27.4848772" lon="152.9585657">
<ele>197.249</ele>
<time>2017-05-23T05:15:51.281Z</time>
</trkpt>
<trkpt lat="-27.4849389" lon="152.9584772">
<ele>200.019</ele>
<time>2017-05-23T05:15:53.994Z</time>
</trkpt>
<trkpt lat="-27.4850163" lon="152.9585704">
<ele>201.302</ele>
<time>2017-05-23T05:15:56.357Z</time>
</trkpt>
<trkpt lat="-27.4850722" lon="152.9586674">
<ele>201.480</ele>
<time>2017-05-23T05:15:58.227Z</time>
</trkpt>
<trkpt lat="-27.4851641" lon="152.9588388">
<ele>201.272</ele>
<time>2017-05-23T05:16:01.517Z</time>
</trkpt>
<trkpt lat="-27.4852220" lon="152.9590158">
<ele>201.074</ele>
<time>2017-05-23T05:16:04.451Z</time>
</trkpt>
<trkpt lat="-27.4852468" lon="152.9591418">
<ele>200.864</ele>
<time>2017-05-23T05:16:06.284Z</time>
</trkpt>
<trkpt lat="-27.4851951" lon="152.9593700">
<ele>200.456</ele>
<time>2017-05-23T05:16:09.345Z</time>
</trkpt>
<trkpt lat="-27.4850566" lon="152.9595308">
<ele>199.756</ele>
<time>2017-05-23T05:16:11.973Z</time>
</trkpt>
<trkpt lat="-27.4849241" lon="152.9596055">
<ele>198.702</ele>
<time>2017-05-23T05:16:13.898Z</time>
</trkpt>
<trkpt lat="-27.4847911" lon="152.9596984">
<ele>197.322</ele>
<time>2017-05-23T05:16:16.004Z</time>
</trkpt>
<trkpt lat="-27.4846576" lon="152.9598089">
<ele>195.852</ele>
<time>2017-05-23T05:16:18.355Z</time>
</trkpt>
<trkpt lat="-27.4845470" lon="152.9599249">
<ele>194.461</ele>
<time>2017-05-23T05:16:20.851Z</time>
</trkpt>
<trkpt lat="-27.4843968" lon="152.9600899">
<ele>193.131</ele>
<time>2017-05-23T05:16:24.738Z</time>
</trkpt>
<trkpt lat="-27.4843135" lon="152.9601787">
<ele>191.710</ele>
<time>2017-05-23T05:16:26.638Z</time>
</trkpt>
<trkpt lat="-27.4842092" lon="152.9603045">
<ele>190.107</ele>
<time>2017-05-23T05:16:28.536Z</time>
</trkpt>
<trkpt lat="-27.4840868" lon="152.9604605">
<ele>188.354</ele>
<time>2017-05-23T05:16:30.410Z</time>
</trkpt>
<trkpt lat="-27.4839300" lon="152.9605776">
<ele>186.481</ele>
<time>2017-05-23T05:16:32.197Z</time>
</trkpt>
<trkpt lat="-27.4837585" lon="152.9607396">
<ele>184.645</ele>
<time>2017-05-23T05:16:34.318Z</time>
</trkpt>
<trkpt lat="-27.4835688" lon="152.9608793">
<ele>183.087</ele>
<time>2017-05-23T05:16:36.471Z</time>
</trkpt>
<trkpt lat="-27.4833018" lon="152.9610759">
<ele>181.770</ele>
<time>2017-05-23T05:16:39.474Z</time>
</trkpt>
<trkpt lat="-27.4831242" lon="152.9612202">
<ele>180.459</ele>
<time>2017-05-23T05:16:41.520Z</time>
</trkpt>
<trkpt lat="-27.4828482" lon="152.9614145">
<ele>179.036</ele>
<time>2017-05-23T05:16:44.528Z</time>
</trkpt>
<trkpt lat="-27.4826498" lon="152.9614986">
<ele>177.416</ele>
<time>2017-05-23T05:16:46.447Z</time>
</trkpt>
<trkpt lat="-27.4824477" lon="152.9615769">
<ele>175.489</ele>
<time>2017-05-23T05:16:48.345Z</time>
</trkpt>
<trkpt lat="-27.4821494" lon="152.9617616">
<ele>173.336</ele>
<time>2017-05-23T05:16:51.323Z</time>
</trkpt>
<trkpt lat="-27.4819758" lon="152.9619355">
<ele>171.004</ele>
<time>2017-05-23T05:16:53.365Z</time>
</trkpt>
<trkpt lat="-27.4817390" lon="152.9622164">
<ele>168.437</ele>
<time>2017-05-23T05:16:56.404Z</time>
</trkpt>
<trkpt lat="-27.4815133" lon="152.9624930">
<ele>165.657</ele>
<time>2017-05-23T05:16:59.340Z</time>
</trkpt>
<trkpt lat="-27.4813569" lon="152.9626769">
<ele>162.629</ele>
<time>2017-05-23T05:17:01.313Z</time>
</trkpt>
<trkpt lat="-27.4811296" lon="152.9629655">
<ele>159.548</ele>
<time>2017-05-23T05:17:04.259Z</time>
</trkpt>
<trkpt lat="-27.4809632" lon="152.9631506">
<ele>156.684</ele>
<time>2017-05-23T05:17:06.243Z</time>
</trkpt>
<trkpt lat="-27.4808142" lon="152.9633522">
<ele>153.993</ele>
<time>2017-05-23T05:17:08.219Z</time>
</trkpt>
<trkpt lat="-27.4805256" lon="152.9635834">
<ele>151.479</ele>
<time>2017-05-23T05:17:11.292Z</time>
</trkpt>
<trkpt lat="-27.4803355" lon="152.9637300">
<ele>148.995</ele>
<time>2017-05-23T05:17:13.364Z</time>
</trkpt>
<trkpt lat="-27.4800514" lon="152.9639215">
<ele>146.270</ele>
<time>2017-05-23T05:17:16.454Z</time>
</trkpt>
<trkpt lat="-27.4797722" lon="152.9641009">
<ele>143.491</ele>
<time>2017-05-23T05:17:19.625Z</time>
</trkpt>
<trkpt lat="-27.4796527" lon="152.9642777">
<ele>141.179</ele>
<time>2017-05-23T05:17:21.620Z</time>
</trkpt>
<trkpt lat="-27.4794711" lon="152.9645425">
<ele>139.768</ele>
<time>2017-05-23T05:17:24.718Z</time>
</trkpt>
<trkpt lat="-27.4794009" lon="152.9647430">
<ele>139.298</ele>
<time>2017-05-23T05:17:26.733Z</time>
</trkpt>
<trkpt lat="-27.4792345" lon="152.9649805">
<ele>139.369</ele>
<time>2017-05-23T05:17:29.495Z</time>
</trkpt>
<trkpt lat="-27.4789610" lon="152.9651056">
<ele>139.433</ele>
<time>2017-05-23T05:17:32.459Z</time>
</trkpt>
<trkpt lat="-27.4786818" lon="152.9652424">
<ele>138.994</ele>
<time>2017-05-23T05:17:35.561Z</time>
</trkpt>
<trkpt lat="-27.4785153" lon="152.9653594">
<ele>137.892</ele>
<time>2017-05-23T05:17:37.552Z</time>
</trkpt>
<trkpt lat="-27.4783857" lon="152.9655159">
<ele>136.428</ele>
<time>2017-05-23T05:17:39.475Z</time>
</trkpt>
<trkpt lat="-27.4782530" lon="152.9658170">
<ele>135.041</ele>
<time>2017-05-23T05:17:42.599Z</time>
</trkpt>
<trkpt lat="-27.4781573" lon="152.9660071">
<ele>133.789</ele>
<time>2017-05-23T05:17:44.716Z</time>
</trkpt>
<trkpt lat="-27.4780550" lon="152.9661835">
<ele>132.424</ele>
<time>2017-05-23T05:17:46.863Z</time>
</trkpt>
<trkpt lat="-27.4778754" lon="152.9664101">
<ele>130.891</ele>
<time>2017-05-23T05:17:49.947Z</time>
</trkpt>
<trkpt lat="-27.4777545" lon="152.9665367">
<ele>129.254</ele>
<time>2017-05-23T05:17:51.721Z</time>
</trkpt>
<trkpt lat="-27.4775483" lon="152.9667395">
<ele>127.577</ele>
<time>2017-05-23T05:17:54.547Z</time>
</trkpt>
<trkpt lat="-27.4773892" lon="152.9668690">
<ele>125.970</ele>
<time>2017-05-23T05:17:56.494Z</time>
</trkpt>
<trkpt lat="-27.4772345" lon="152.9670017">
<ele>124.496</ele>
<time>2017-05-23T05:17:58.312Z</time>
</trkpt>
<trkpt lat="-27.4769743" lon="152.9671988">
<ele>123.193</ele>
<time>2017-05-23T05:18:00.966Z</time>
</trkpt>
<trkpt lat="-27.4767914" lon="152.9673525">
<ele>122.002</ele>
<time>2017-05-23T05:18:02.793Z</time>
</trkpt>
<trkpt lat="-27.4765036" lon="152.9676295">
<ele>120.807</ele>
<time>2017-05-23T05:18:05.717Z</time>
</trkpt>
<trkpt lat="-27.4762128" lon="152.9679251">
<ele>119.576</ele>
<time>2017-05-23T05:18:08.790Z</time>
</trkpt>
<trkpt lat="-27.4760050" lon="152.9680718">
<ele>118.190</ele>
<time>2017-05-23T05:18:10.729Z</time>
</trkpt>
<trkpt lat="-27.4757589" lon="152.9681193">
<ele>116.609</ele>
<time>2017-05-23T05:18:12.691Z</time>
</trkpt>
<trkpt lat="-27.4753789" lon="152.9681410">
<ele>115.091</ele>
<time>2017-05-23T05:18:15.639Z</time>
</trkpt>
<trkpt lat="-27.4751064" lon="152.9681224">
<ele>113.771</ele>
<time>2017-05-23T05:18:17.755Z</time>
</trkpt>
<trkpt lat="-27.4748553" lon="152.9681852">
<ele>112.565</ele>
<time>2017-05-23T05:18:19.746Z</time>
</trkpt>
<trkpt lat="-27.4745638" lon="152.9684823">
<ele>111.466</ele>
<time>2017-05-23T05:18:22.742Z</time>
</trkpt>
<trkpt lat="-27.4744732" lon="152.9687582">
<ele>110.396</ele>
<time>2017-05-23T05:18:24.672Z</time>
</trkpt>
<trkpt lat="-27.4744390" lon="152.9690658">
<ele>109.163</ele>
<time>2017-05-23T05:18:26.647Z</time>
</trkpt>
<trkpt lat="-27.4744834" lon="152.9693806">
<ele>107.714</ele>
<time>2017-05-23T05:18:28.626Z</time>
</trkpt>
<trkpt lat="-27.4744952" lon="152.9697017">
<ele>106.054</ele>
<time>2017-05-23T05:18:30.607Z</time>
</trkpt>
<trkpt lat="-27.4744314" lon="152.9701853">
<ele>104.143</ele>
<time>2017-05-23T05:18:33.555Z</time>
</trkpt>
<trkpt lat="-27.4743181" lon="152.9704865">
<ele>101.832</ele>
<time>2017-05-23T05:18:35.484Z</time>
</trkpt>
<trkpt lat="-27.4741012" lon="152.9709551">
<ele>99.072</ele>
<time>2017-05-23T05:18:38.620Z</time>
</trkpt>
<trkpt lat="-27.4739325" lon="152.9712526">
<ele>96.513</ele>
<time>2017-05-23T05:18:40.863Z</time>
</trkpt>
<trkpt lat="-27.4737527" lon="152.9716470">
<ele>95.909</ele>
<time>2017-05-23T05:18:44.021Z</time>
</trkpt>
<trkpt lat="-27.4735944" lon="152.9720143">
<ele>98.815</ele>
<time>2017-05-23T05:18:47.487Z</time>
</trkpt>
<trkpt lat="-27.4734665" lon="152.9723064">
<ele>103.886</ele>
<time>2017-05-23T05:18:51.983Z</time>
</trkpt>
<trkpt lat="-27.4733899" lon="152.9724593">
<ele>107.836</ele>
<time>2017-05-23T05:18:55.345Z</time>
</trkpt>
<trkpt lat="-27.4733029" lon="152.9725586">
<ele>109.105</ele>
<time>2017-05-23T05:18:57.573Z</time>
</trkpt>
<trkpt lat="-27.4732324" lon="152.9727269">
<ele>108.186</ele>
<time>2017-05-23T05:18:59.600Z</time>
</trkpt>
<trkpt lat="-27.4733069" lon="152.9731231">
<ele>105.949</ele>
<time>2017-05-23T05:19:02.660Z</time>
</trkpt>
<trkpt lat="-27.4734335" lon="152.9735479">
<ele>103.317</ele>
<time>2017-05-23T05:19:05.625Z</time>
</trkpt>
<trkpt lat="-27.4734795" lon="152.9738499">
<ele>100.897</ele>
<time>2017-05-23T05:19:07.611Z</time>
</trkpt>
<trkpt lat="-27.4735404" lon="152.9741425">
<ele>98.731</ele>
<time>2017-05-23T05:19:09.586Z</time>
</trkpt>
<trkpt lat="-27.4737183" lon="152.9745464">
<ele>96.589</ele>
<time>2017-05-23T05:19:12.602Z</time>
</trkpt>
<trkpt lat="-27.4738082" lon="152.9749795">
<ele>94.057</ele>
<time>2017-05-23T05:19:15.519Z</time>
</trkpt>
<trkpt lat="-27.4738533" lon="152.9752838">
<ele>90.458</ele>
<time>2017-05-23T05:19:17.484Z</time>
</trkpt>
<trkpt lat="-27.4739218" lon="152.9755889">
<ele>85.846</ele>
<time>2017-05-23T05:19:19.441Z</time>
</trkpt>
<trkpt lat="-27.4740430" lon="152.9758937">
<ele>81.224</ele>
<time>2017-05-23T05:19:21.478Z</time>
</trkpt>
<trkpt lat="-27.4741136" lon="152.9763823">
<ele>77.315</ele>
<time>2017-05-23T05:19:24.560Z</time>
</trkpt>
<trkpt lat="-27.4741731" lon="152.9766820">
<ele>73.810</ele>
<time>2017-05-23T05:19:26.567Z</time>
</trkpt>
<trkpt lat="-27.4742238" lon="152.9769627">
<ele>70.251</ele>
<time>2017-05-23T05:19:28.484Z</time>
</trkpt>
<trkpt lat="-27.4742850" lon="152.9772386">
<ele>66.766</ele>
<time>2017-05-23T05:19:30.403Z</time>
</trkpt>
<trkpt lat="-27.4743743" lon="152.9776647">
<ele>63.748</ele>
<time>2017-05-23T05:19:33.334Z</time>
</trkpt>
<trkpt lat="-27.4745026" lon="152.9779347">
<ele>61.320</ele>
<time>2017-05-23T05:19:35.369Z</time>
</trkpt>
<trkpt lat="-27.4745772" lon="152.9782198">
<ele>59.490</ele>
<time>2017-05-23T05:19:37.373Z</time>
</trkpt>
<trkpt lat="-27.4746806" lon="152.9786302">
<ele>58.343</ele>
<time>2017-05-23T05:19:40.320Z</time>
</trkpt>
<trkpt lat="-27.4747692" lon="152.9788909">
<ele>57.920</ele>
<time>2017-05-23T05:19:42.262Z</time>
</trkpt>
<trkpt lat="-27.4748803" lon="152.9791503">
<ele>58.093</ele>
<time>2017-05-23T05:19:44.247Z</time>
</trkpt>
<trkpt lat="-27.4751323" lon="152.9794772">
<ele>58.686</ele>
<time>2017-05-23T05:19:47.203Z</time>
</trkpt>
<trkpt lat="-27.4753142" lon="152.9796879">
<ele>59.516</ele>
<time>2017-05-23T05:19:49.191Z</time>
</trkpt>
<trkpt lat="-27.4756073" lon="152.9799647">
<ele>60.351</ele>
<time>2017-05-23T05:19:52.074Z</time>
</trkpt>
<trkpt lat="-27.4759406" lon="152.9802173">
<ele>60.972</ele>
<time>2017-05-23T05:19:55.084Z</time>
</trkpt>
<trkpt lat="-27.4762949" lon="152.9803828">
<ele>61.284</ele>
<time>2017-05-23T05:19:58.096Z</time>
</trkpt>
<trkpt lat="-27.4764922" lon="152.9805113">
<ele>61.330</ele>
<time>2017-05-23T05:20:00.033Z</time>
</trkpt>
<trkpt lat="-27.4768153" lon="152.9806474">
<ele>61.157</ele>
<time>2017-05-23T05:20:02.946Z</time>
</trkpt>
<trkpt lat="-27.4770497" lon="152.9807311">
<ele>60.717</ele>
<time>2017-05-23T05:20:04.933Z</time>
</trkpt>
<trkpt lat="-27.4773734" lon="152.9809619">
<ele>59.956</ele>
<time>2017-05-23T05:20:07.896Z</time>
</trkpt>
<trkpt lat="-27.4776207" lon="152.9813395">
<ele>58.887</ele>
<time>2017-05-23T05:20:10.963Z</time>
</trkpt>
<trkpt lat="-27.4777968" lon="152.9817792">
<ele>57.558</ele>
<time>2017-05-23T05:20:14.055Z</time>
</trkpt>
<trkpt lat="-27.4780026" lon="152.9821928">
<ele>55.981</ele>
<time>2017-05-23T05:20:17.081Z</time>
</trkpt>
<trkpt lat="-27.4780827" lon="152.9824962">
<ele>54.180</ele>
<time>2017-05-23T05:20:19.090Z</time>
</trkpt>
<trkpt lat="-27.4781636" lon="152.9828008">
<ele>52.356</ele>
<time>2017-05-23T05:20:21.098Z</time>
</trkpt>
<trkpt lat="-27.4782212" lon="152.9832695">
<ele>50.843</ele>
<time>2017-05-23T05:20:24.151Z</time>
</trkpt>
<trkpt lat="-27.4781948" lon="152.9837130">
<ele>49.729</ele>
<time>2017-05-23T05:20:27.219Z</time>
</trkpt>
<trkpt lat="-27.4781769" lon="152.9841059">
<ele>48.816</ele>
<time>2017-05-23T05:20:30.179Z</time>
</trkpt>
<trkpt lat="-27.4781624" lon="152.9844716">
<ele>47.893</ele>
<time>2017-05-23T05:20:33.280Z</time>
</trkpt>
<trkpt lat="-27.4780952" lon="152.9847653">
<ele>46.905</ele>
<time>2017-05-23T05:20:36.096Z</time>
</trkpt>
<trkpt lat="-27.4778759" lon="152.9849867">
<ele>45.947</ele>
<time>2017-05-23T05:20:39.014Z</time>
</trkpt>
<trkpt lat="-27.4776447" lon="152.9850043">
<ele>45.202</ele>
<time>2017-05-23T05:20:40.855Z</time>
</trkpt>
<trkpt lat="-27.4772271" lon="152.9850955">
<ele>44.912</ele>
<time>2017-05-23T05:20:43.956Z</time>
</trkpt>
<trkpt lat="-27.4769306" lon="152.9851315">
<ele>45.477</ele>
<time>2017-05-23T05:20:46.043Z</time>
</trkpt>
<trkpt lat="-27.4765218" lon="152.9852289">
<ele>47.140</ele>
<time>2017-05-23T05:20:49.006Z</time>
</trkpt>
<trkpt lat="-27.4762463" lon="152.9852904">
<ele>49.597</ele>
<time>2017-05-23T05:20:50.928Z</time>
</trkpt>
<trkpt lat="-27.4758107" lon="152.9853799">
<ele>52.137</ele>
<time>2017-05-23T05:20:53.890Z</time>
</trkpt>
<trkpt lat="-27.4753594" lon="152.9854637">
<ele>54.331</ele>
<time>2017-05-23T05:20:56.904Z</time>
</trkpt>
<trkpt lat="-27.4750632" lon="152.9855179">
<ele>56.227</ele>
<time>2017-05-23T05:20:58.873Z</time>
</trkpt>
<trkpt lat="-27.4747616" lon="152.9855648">
<ele>57.867</ele>
<time>2017-05-23T05:21:00.897Z</time>
</trkpt>
<trkpt lat="-27.4743262" lon="152.9856591">
<ele>59.169</ele>
<time>2017-05-23T05:21:03.881Z</time>
</trkpt>
<trkpt lat="-27.4738814" lon="152.9857364">
<ele>60.288</ele>
<time>2017-05-23T05:21:06.918Z</time>
</trkpt>
<trkpt lat="-27.4734467" lon="152.9858253">
<ele>61.249</ele>
<time>2017-05-23T05:21:09.845Z</time>
</trkpt>
<trkpt lat="-27.4729959" lon="152.9859210">
<ele>61.641</ele>
<time>2017-05-23T05:21:12.819Z</time>
</trkpt>
<trkpt lat="-27.4726844" lon="152.9859675">
<ele>60.852</ele>
<time>2017-05-23T05:21:14.848Z</time>
</trkpt>
<trkpt lat="-27.4723901" lon="152.9860866">
<ele>58.779</ele>
<time>2017-05-23T05:21:16.875Z</time>
</trkpt>
<trkpt lat="-27.4720809" lon="152.9861445">
<ele>56.353</ele>
<time>2017-05-23T05:21:18.909Z</time>
</trkpt>
<trkpt lat="-27.4716161" lon="152.9861805">
<ele>54.720</ele>
<time>2017-05-23T05:21:21.922Z</time>
</trkpt>
<trkpt lat="-27.4712998" lon="152.9862057">
<ele>54.542</ele>
<time>2017-05-23T05:21:23.985Z</time>
</trkpt>
<trkpt lat="-27.4709755" lon="152.9862790">
<ele>56.010</ele>
<time>2017-05-23T05:21:26.364Z</time>
</trkpt>
<trkpt lat="-27.4706363" lon="152.9863528">
<ele>58.691</ele>
<time>2017-05-23T05:21:29.088Z</time>
</trkpt>
<trkpt lat="-27.4703183" lon="152.9864265">
<ele>61.881</ele>
<time>2017-05-23T05:21:31.776Z</time>
</trkpt>
<trkpt lat="-27.4701025" lon="152.9865205">
<ele>64.855</ele>
<time>2017-05-23T05:21:33.845Z</time>
</trkpt>
<trkpt lat="-27.4698345" lon="152.9866761">
<ele>66.807</ele>
<time>2017-05-23T05:21:36.767Z</time>
</trkpt>
<trkpt lat="-27.4698000" lon="152.9868740">
<ele>67.419</ele>
<time>2017-05-23T05:21:38.642Z</time>
</trkpt>
<trkpt lat="-27.4697598" lon="152.9871833">
<ele>67.022</ele>
<time>2017-05-23T05:21:41.457Z</time>
</trkpt>
<trkpt lat="-27.4697468" lon="152.9875443">
<ele>66.111</ele>
<time>2017-05-23T05:21:44.495Z</time>
</trkpt>
<trkpt lat="-27.4696348" lon="152.9877622">
<ele>64.912</ele>
<time>2017-05-23T05:21:46.538Z</time>
</trkpt>
<trkpt lat="-27.4693337" lon="152.9879365">
<ele>63.410</ele>
<time>2017-05-23T05:21:49.624Z</time>
</trkpt>
<trkpt lat="-27.4690300" lon="152.9879306">
<ele>61.668</ele>
<time>2017-05-23T05:21:52.278Z</time>
</trkpt>
<trkpt lat="-27.4688005" lon="152.9879088">
<ele>59.860</ele>
<time>2017-05-23T05:21:54.200Z</time>
</trkpt>
<trkpt lat="-27.4684233" lon="152.9880144">
<ele>58.144</ele>
<time>2017-05-23T05:21:57.468Z</time>
</trkpt>
<trkpt lat="-27.4681026" lon="152.9880749">
<ele>56.494</ele>
<time>2017-05-23T05:22:00.677Z</time>
</trkpt>
<trkpt lat="-27.4679312" lon="152.9880896">
<ele>54.721</ele>
<time>2017-05-23T05:22:03.050Z</time>
</trkpt>
<trkpt lat="-27.4677971" lon="152.9880847">
<ele>52.805</ele>
<time>2017-05-23T05:22:05.483Z</time>
</trkpt>
<trkpt lat="-27.4677050" lon="152.9879808">
<ele>50.758</ele>
<time>2017-05-23T05:22:07.341Z</time>
</trkpt>
<trkpt lat="-27.4674960" lon="152.9877913">
<ele>48.677</ele>
<time>2017-05-23T05:22:10.502Z</time>
</trkpt>
<trkpt lat="-27.4673145" lon="152.9875435">
<ele>46.945</ele>
<time>2017-05-23T05:22:13.975Z</time>
</trkpt>
<trkpt lat="-27.4671221" lon="152.9875450">
<ele>45.830</ele>
<time>2017-05-23T05:22:16.190Z</time>
</trkpt>
<trkpt lat="-27.4668619" lon="152.9877195">
<ele>45.271</ele>
<time>2017-05-23T05:22:19.128Z</time>
</trkpt>
<trkpt lat="-27.4666714" lon="152.9878673">
<ele>45.157</ele>
<time>2017-05-23T05:22:21.033Z</time>
</trkpt>
<trkpt lat="-27.4664277" lon="152.9879618">
<ele>45.437</ele>
<time>2017-05-23T05:22:22.926Z</time>
</trkpt>
<trkpt lat="-27.4661438" lon="152.9880122">
<ele>46.135</ele>
<time>2017-05-23T05:22:24.976Z</time>
</trkpt>
<trkpt lat="-27.4657233" lon="152.9880780">
<ele>47.248</ele>
<time>2017-05-23T05:22:28.181Z</time>
</trkpt>
<trkpt lat="-27.4654998" lon="152.9881091">
<ele>48.733</ele>
<time>2017-05-23T05:22:30.216Z</time>
</trkpt>
<trkpt lat="-27.4653081" lon="152.9881594">
<ele>50.323</ele>
<time>2017-05-23T05:22:32.388Z</time>
</trkpt>
<trkpt lat="-27.4650933" lon="152.9882046">
<ele>51.492</ele>
<time>2017-05-23T05:22:35.075Z</time>
</trkpt>
<trkpt lat="-27.4649513" lon="152.9883823">
<ele>51.855</ele>
<time>2017-05-23T05:22:38.388Z</time>
</trkpt>
<trkpt lat="-27.4648980" lon="152.9884971">
<ele>51.332</ele>
<time>2017-05-23T05:22:41.923Z</time>
</trkpt>
<trkpt lat="-27.4648518" lon="152.9885975">
<ele>50.016</ele>
<time>2017-05-23T05:22:45.923Z</time>
</trkpt>
<trkpt lat="-27.4647832" lon="152.9886736">
<ele>48.214</ele>
<time>2017-05-23T05:22:50.107Z</time>
</trkpt>
<trkpt lat="-27.4646824" lon="152.9886971">
<ele>46.459</ele>
<time>2017-05-23T05:22:53.896Z</time>
</trkpt>
<trkpt lat="-27.4646134" lon="152.9887910">
<ele>45.273</ele>
<time>2017-05-23T05:22:58.744Z</time>
</trkpt>
<trkpt lat="-27.4645207" lon="152.9887825">
<ele>44.791</ele>
<time>2017-05-23T05:23:03.329Z</time>
</trkpt>
<trkpt lat="-27.4644216" lon="152.9887636">
<ele>44.767</ele>
<time>2017-05-23T05:23:07.813Z</time>
</trkpt>
<trkpt lat="-27.4643393" lon="152.9888077">
<ele>44.931</ele>
<time>2017-05-23T05:23:11.904Z</time>
</trkpt>
<trkpt lat="-27.4642450" lon="152.9887919">
<ele>45.161</ele>
<time>2017-05-23T05:23:16.605Z</time>
</trkpt>
<trkpt lat="-27.4641523" lon="152.9887520">
<ele>45.442</ele>
<time>2017-05-23T05:23:22.074Z</time>
</trkpt>
<trkpt lat="-27.4640525" lon="152.9887030">
<ele>45.774</ele>
<time>2017-05-23T05:23:26.208Z</time>
</trkpt>
<trkpt lat="-27.4639000" lon="152.9885971">
<ele>46.205</ele>
<time>2017-05-23T05:23:28.642Z</time>
</trkpt>
<trkpt lat="-27.4637108" lon="152.9884671">
<ele>46.844</ele>
<time>2017-05-23T05:23:30.803Z</time>
</trkpt>
<trkpt lat="-27.4634101" lon="152.9883027">
<ele>47.798</ele>
<time>2017-05-23T05:23:33.845Z</time>
</trkpt>
<trkpt lat="-27.4630932" lon="152.9881977">
<ele>49.258</ele>
<time>2017-05-23T05:23:36.736Z</time>
</trkpt>
<trkpt lat="-27.4627513" lon="152.9881550">
<ele>51.404</ele>
<time>2017-05-23T05:23:39.691Z</time>
</trkpt>
<trkpt lat="-27.4625153" lon="152.9881433">
<ele>54.177</ele>
<time>2017-05-23T05:23:41.819Z</time>
</trkpt>
<trkpt lat="-27.4622167" lon="152.9881653">
<ele>57.223</ele>
<time>2017-05-23T05:23:44.715Z</time>
</trkpt>
<trkpt lat="-27.4620405" lon="152.9881735">
<ele>60.154</ele>
<time>2017-05-23T05:23:46.587Z</time>
</trkpt>
<trkpt lat="-27.4617695" lon="152.9881636">
<ele>62.737</ele>
<time>2017-05-23T05:23:49.500Z</time>
</trkpt>
<trkpt lat="-27.4615006" lon="152.9881670">
<ele>64.984</ele>
<time>2017-05-23T05:23:52.427Z</time>
</trkpt>
<trkpt lat="-27.4612315" lon="152.9882178">
<ele>67.124</ele>
<time>2017-05-23T05:23:55.478Z</time>
</trkpt>
<trkpt lat="-27.4610700" lon="152.9882346">
<ele>69.365</ele>
<time>2017-05-23T05:23:57.430Z</time>
</trkpt>
<trkpt lat="-27.4608512" lon="152.9882778">
<ele>71.571</ele>
<time>2017-05-23T05:24:00.303Z</time>
</trkpt>
<trkpt lat="-27.4607364" lon="152.9883165">
<ele>73.583</ele>
<time>2017-05-23T05:24:02.235Z</time>
</trkpt>
<trkpt lat="-27.4606099" lon="152.9883363">
<ele>75.374</ele>
<time>2017-05-23T05:24:04.640Z</time>
</trkpt>
<trkpt lat="-27.4604867" lon="152.9883747">
<ele>76.930</ele>
<time>2017-05-23T05:24:07.611Z</time>
</trkpt>
<trkpt lat="-27.4603859" lon="152.9883921">
<ele>78.274</ele>
<time>2017-05-23T05:24:10.342Z</time>
</trkpt>
<trkpt lat="-27.4602869" lon="152.9884010">
<ele>79.474</ele>
<time>2017-05-23T05:24:13.930Z</time>
</trkpt>
<trkpt lat="-27.4601607" lon="152.9884019">
<ele>80.525</ele>
<time>2017-05-23T05:24:18.514Z</time>
</trkpt>
<trkpt lat="-27.4599928" lon="152.9884141">
<ele>81.473</ele>
<time>2017-05-23T05:24:22.462Z</time>
</trkpt>
<trkpt lat="-27.4598865" lon="152.9884318">
<ele>82.405</ele>
<time>2017-05-23T05:24:24.425Z</time>
</trkpt>
<trkpt lat="-27.4597014" lon="152.9884791">
<ele>83.341</ele>
<time>2017-05-23T05:24:27.555Z</time>
</trkpt>
<trkpt lat="-27.4594287" lon="152.9884584">
<ele>84.395</ele>
<time>2017-05-23T05:24:30.920Z</time>
</trkpt>
<trkpt lat="-27.4591446" lon="152.9883801">
<ele>85.837</ele>
<time>2017-05-23T05:24:33.896Z</time>
</trkpt>
<trkpt lat="-27.4589398" lon="152.9882925">
<ele>87.752</ele>
<time>2017-05-23T05:24:35.973Z</time>
</trkpt>
<trkpt lat="-27.4587342" lon="152.9881818">
<ele>89.844</ele>
<time>2017-05-23T05:24:38.048Z</time>
</trkpt>
<trkpt lat="-27.4584707" lon="152.9879603">
<ele>91.711</ele>
<time>2017-05-23T05:24:41.045Z</time>
</trkpt>
<trkpt lat="-27.4582891" lon="152.9877026">
<ele>93.202</ele>
<time>2017-05-23T05:24:43.968Z</time>
</trkpt>
<trkpt lat="-27.4581728" lon="152.9875030">
<ele>94.380</ele>
<time>2017-05-23T05:24:46.572Z</time>
</trkpt>
<trkpt lat="-27.4580957" lon="152.9873574">
<ele>95.296</ele>
<time>2017-05-23T05:24:49.000Z</time>
</trkpt>
<trkpt lat="-27.4580957" lon="152.9873574">
<ele>95.925</ele>
<time>2017-05-23T05:24:55.000Z</time>
</trkpt>
<trkpt lat="-27.4580957" lon="152.9873574">
<ele>96.184</ele>
<time>2017-05-23T05:24:57.508Z</time>
</trkpt>
<trkpt lat="-27.4580555" lon="152.9871398">
<ele>96.109</ele>
<time>2017-05-23T05:25:04.194Z</time>
</trkpt>
<trkpt lat="-27.4581046" lon="152.9869928">
<ele>96.296</ele>
<time>2017-05-23T05:25:07.656Z</time>
</trkpt>
<trkpt lat="-27.4580949" lon="152.9868490">
<ele>97.197</ele>
<time>2017-05-23T05:25:10.668Z</time>
</trkpt>
<trkpt lat="-27.4580916" lon="152.9867058">
<ele>98.415</ele>
<time>2017-05-23T05:25:12.708Z</time>
</trkpt>
<trkpt lat="-27.4580629" lon="152.9865082">
<ele>99.386</ele>
<time>2017-05-23T05:25:15.005Z</time>
</trkpt>
<trkpt lat="-27.4580551" lon="152.9863152">
<ele>100.012</ele>
<time>2017-05-23T05:25:17.047Z</time>
</trkpt>
<trkpt lat="-27.4580091" lon="152.9860044">
<ele>100.396</ele>
<time>2017-05-23T05:25:20.439Z</time>
</trkpt>
<trkpt lat="-27.4579072" lon="152.9857673">
<ele>100.737</ele>
<time>2017-05-23T05:25:23.395Z</time>
</trkpt>
<trkpt lat="-27.4577738" lon="152.9856589">
<ele>101.210</ele>
<time>2017-05-23T05:25:25.487Z</time>
</trkpt>
<trkpt lat="-27.4576324" lon="152.9855753">
<ele>101.779</ele>
<time>2017-05-23T05:25:27.517Z</time>
</trkpt>
<trkpt lat="-27.4574752" lon="152.9855755">
<ele>102.183</ele>
<time>2017-05-23T05:25:29.464Z</time>
</trkpt>
<trkpt lat="-27.4572432" lon="152.9856869">
<ele>102.243</ele>
<time>2017-05-23T05:25:32.337Z</time>
</trkpt>
<trkpt lat="-27.4569797" lon="152.9858139">
<ele>101.971</ele>
<time>2017-05-23T05:25:35.393Z</time>
</trkpt>
<trkpt lat="-27.4568282" lon="152.9859331">
<ele>101.458</ele>
<time>2017-05-23T05:25:37.287Z</time>
</trkpt>
<trkpt lat="-27.4566875" lon="152.9860940">
<ele>100.830</ele>
<time>2017-05-23T05:25:39.164Z</time>
</trkpt>
<trkpt lat="-27.4564418" lon="152.9863642">
<ele>100.087</ele>
<time>2017-05-23T05:25:42.136Z</time>
</trkpt>
<trkpt lat="-27.4562711" lon="152.9865538">
<ele>98.927</ele>
<time>2017-05-23T05:25:44.089Z</time>
</trkpt>
<trkpt lat="-27.4560264" lon="152.9868593">
<ele>97.110</ele>
<time>2017-05-23T05:25:46.973Z</time>
</trkpt>
<trkpt lat="-27.4557694" lon="152.9871820">
<ele>94.727</ele>
<time>2017-05-23T05:25:49.859Z</time>
</trkpt>
<trkpt lat="-27.4554478" lon="152.9875020">
<ele>91.909</ele>
<time>2017-05-23T05:25:52.970Z</time>
</trkpt>
<trkpt lat="-27.4551727" lon="152.9878372">
<ele>88.732</ele>
<time>2017-05-23T05:25:55.944Z</time>
</trkpt>
<trkpt lat="-27.4549954" lon="152.9880359">
<ele>85.376</ele>
<time>2017-05-23T05:25:57.937Z</time>
</trkpt>
<trkpt lat="-27.4547883" lon="152.9881763">
<ele>82.257</ele>
<time>2017-05-23T05:25:59.992Z</time>
</trkpt>
<trkpt lat="-27.4544996" lon="152.9883835">
<ele>79.972</ele>
<time>2017-05-23T05:26:02.978Z</time>
</trkpt>
<trkpt lat="-27.4543108" lon="152.9885013">
<ele>78.802</ele>
<time>2017-05-23T05:26:04.965Z</time>
</trkpt>
<trkpt lat="-27.4539957" lon="152.9885002">
<ele>78.590</ele>
<time>2017-05-23T05:26:07.832Z</time>
</trkpt>
<trkpt lat="-27.4536768" lon="152.9883695">
<ele>78.937</ele>
<time>2017-05-23T05:26:10.826Z</time>
</trkpt>
<trkpt lat="-27.4534638" lon="152.9882880">
<ele>79.222</ele>
<time>2017-05-23T05:26:12.734Z</time>
</trkpt>
<trkpt lat="-27.4531113" lon="152.9883523">
<ele>78.976</ele>
<time>2017-05-23T05:26:15.617Z</time>
</trkpt>
<trkpt lat="-27.4527240" lon="152.9884833">
<ele>78.238</ele>
<time>2017-05-23T05:26:18.652Z</time>
</trkpt>
<trkpt lat="-27.4524610" lon="152.9885718">
<ele>77.306</ele>
<time>2017-05-23T05:26:20.598Z</time>
</trkpt>
<trkpt lat="-27.4521885" lon="152.9886648">
<ele>76.368</ele>
<time>2017-05-23T05:26:22.571Z</time>
</trkpt>
<trkpt lat="-27.4517801" lon="152.9888128">
<ele>75.406</ele>
<time>2017-05-23T05:26:25.503Z</time>
</trkpt>
<trkpt lat="-27.4513499" lon="152.9889255">
<ele>74.149</ele>
<time>2017-05-23T05:26:28.479Z</time>
</trkpt>
<trkpt lat="-27.4509158" lon="152.9889853">
<ele>72.250</ele>
<time>2017-05-23T05:26:31.408Z</time>
</trkpt>
<trkpt lat="-27.4504651" lon="152.9890129">
<ele>69.689</ele>
<time>2017-05-23T05:26:34.432Z</time>
</trkpt>
<trkpt lat="-27.4501818" lon="152.9890561">
<ele>66.843</ele>
<time>2017-05-23T05:26:36.367Z</time>
</trkpt>
<trkpt lat="-27.4499015" lon="152.9890892">
<ele>64.243</ele>
<time>2017-05-23T05:26:38.266Z</time>
</trkpt>
<trkpt lat="-27.4494573" lon="152.9891953">
<ele>62.162</ele>
<time>2017-05-23T05:26:41.288Z</time>
</trkpt>
<trkpt lat="-27.4491622" lon="152.9892683">
<ele>60.152</ele>
<time>2017-05-23T05:26:43.297Z</time>
</trkpt>
<trkpt lat="-27.4488756" lon="152.9893352">
<ele>57.663</ele>
<time>2017-05-23T05:26:45.358Z</time>
</trkpt>
<trkpt lat="-27.4484957" lon="152.9893760">
<ele>54.911</ele>
<time>2017-05-23T05:26:48.423Z</time>
</trkpt>
<trkpt lat="-27.4482479" lon="152.9893957">
<ele>52.456</ele>
<time>2017-05-23T05:26:50.991Z</time>
</trkpt>
<trkpt lat="-27.4481232" lon="152.9894029">
<ele>50.645</ele>
<time>2017-05-23T05:26:52.712Z</time>
</trkpt>
<trkpt lat="-27.4479969" lon="152.9894020">
<ele>49.653</ele>
<time>2017-05-23T05:26:54.709Z</time>
</trkpt>
<trkpt lat="-27.4478329" lon="152.9894160">
<ele>49.409</ele>
<time>2017-05-23T05:26:57.514Z</time>
</trkpt>
<trkpt lat="-27.4477246" lon="152.9894392">
<ele>49.693</ele>
<time>2017-05-23T05:26:59.548Z</time>
</trkpt>
<trkpt lat="-27.4476032" lon="152.9894601">
<ele>50.303</ele>
<time>2017-05-23T05:27:02.000Z</time>
</trkpt>
<trkpt lat="-27.4476032" lon="152.9894601">
<ele>50.948</ele>
<time>2017-05-23T05:27:06.000Z</time>
</trkpt>
<trkpt lat="-27.4476032" lon="152.9894601">
<ele>51.284</ele>
<time>2017-05-23T05:27:53.226Z</time>
</trkpt>
<trkpt lat="-27.4474561" lon="152.9895053">
<ele>51.233</ele>
<time>2017-05-23T05:27:58.041Z</time>
</trkpt>
<trkpt lat="-27.4471288" lon="152.9895054">
<ele>51.586</ele>
<time>2017-05-23T05:28:01.910Z</time>
</trkpt>
<trkpt lat="-27.4468602" lon="152.9894970">
<ele>53.108</ele>
<time>2017-05-23T05:28:04.753Z</time>
</trkpt>
<trkpt lat="-27.4465994" lon="152.9894313">
<ele>55.336</ele>
<time>2017-05-23T05:28:07.893Z</time>
</trkpt>
<trkpt lat="-27.4464639" lon="152.9894021">
<ele>57.340</ele>
<time>2017-05-23T05:28:10.156Z</time>
</trkpt>
<trkpt lat="-27.4463368" lon="152.9893678">
<ele>58.722</ele>
<time>2017-05-23T05:28:12.465Z</time>
</trkpt>
<trkpt lat="-27.4461630" lon="152.9893078">
<ele>59.463</ele>
<time>2017-05-23T05:28:15.259Z</time>
</trkpt>
<trkpt lat="-27.4458819" lon="152.9892347">
<ele>59.914</ele>
<time>2017-05-23T05:28:18.489Z</time>
</trkpt>
<trkpt lat="-27.4455552" lon="152.9892404">
<ele>60.536</ele>
<time>2017-05-23T05:28:21.435Z</time>
</trkpt>
<trkpt lat="-27.4451890" lon="152.9893234">
<ele>61.349</ele>
<time>2017-05-23T05:28:24.539Z</time>
</trkpt>
<trkpt lat="-27.4448504" lon="152.9893929">
<ele>61.966</ele>
<time>2017-05-23T05:28:27.495Z</time>
</trkpt>
<trkpt lat="-27.4445511" lon="152.9895170">
<ele>62.080</ele>
<time>2017-05-23T05:28:30.428Z</time>
</trkpt>
<trkpt lat="-27.4443001" lon="152.9897250">
<ele>61.599</ele>
<time>2017-05-23T05:28:33.382Z</time>
</trkpt>
<trkpt lat="-27.4440617" lon="152.9899634">
<ele>60.606</ele>
<time>2017-05-23T05:28:36.375Z</time>
</trkpt>
<trkpt lat="-27.4438097" lon="152.9902097">
<ele>59.274</ele>
<time>2017-05-23T05:28:39.432Z</time>
</trkpt>
<trkpt lat="-27.4436229" lon="152.9905259">
<ele>57.640</ele>
<time>2017-05-23T05:28:42.617Z</time>
</trkpt>
<trkpt lat="-27.4434927" lon="152.9907905">
<ele>55.675</ele>
<time>2017-05-23T05:28:45.614Z</time>
</trkpt>
<trkpt lat="-27.4433306" lon="152.9908670">
<ele>53.629</ele>
<time>2017-05-23T05:28:47.870Z</time>
</trkpt>
<trkpt lat="-27.4431631" lon="152.9907511">
<ele>52.081</ele>
<time>2017-05-23T05:28:50.031Z</time>
</trkpt>
<trkpt lat="-27.4428354" lon="152.9905379">
<ele>51.403</ele>
<time>2017-05-23T05:28:53.224Z</time>
</trkpt>
<trkpt lat="-27.4425785" lon="152.9903940">
<ele>51.399</ele>
<time>2017-05-23T05:28:55.225Z</time>
</trkpt>
<trkpt lat="-27.4421439" lon="152.9902644">
<ele>51.571</ele>
<time>2017-05-23T05:28:58.240Z</time>
</trkpt>
<trkpt lat="-27.4417195" lon="152.9901430">
<ele>51.435</ele>
<time>2017-05-23T05:29:01.186Z</time>
</trkpt>
<trkpt lat="-27.4414433" lon="152.9901018">
<ele>50.725</ele>
<time>2017-05-23T05:29:03.139Z</time>
</trkpt>
<trkpt lat="-27.4410290" lon="152.9901307">
<ele>49.619</ele>
<time>2017-05-23T05:29:06.149Z</time>
</trkpt>
<trkpt lat="-27.4406448" lon="152.9900920">
<ele>48.597</ele>
<time>2017-05-23T05:29:09.079Z</time>
</trkpt>
<trkpt lat="-27.4404091" lon="152.9900083">
<ele>47.976</ele>
<time>2017-05-23T05:29:11.094Z</time>
</trkpt>
<trkpt lat="-27.4402006" lon="152.9899538">
<ele>47.741</ele>
<time>2017-05-23T05:29:13.171Z</time>
</trkpt>
<trkpt lat="-27.4399968" lon="152.9898906">
<ele>47.652</ele>
<time>2017-05-23T05:29:15.739Z</time>
</trkpt>
<trkpt lat="-27.4398776" lon="152.9898188">
<ele>47.329</ele>
<time>2017-05-23T05:29:17.999Z</time>
</trkpt>
<trkpt lat="-27.4398776" lon="152.9898188">
<ele>46.699</ele>
<time>2017-05-23T05:29:23.999Z</time>
</trkpt>
<trkpt lat="-27.4398776" lon="152.9898188">
<ele>46.227</ele>
<time>2017-05-23T05:29:44.670Z</time>
</trkpt>
<trkpt lat="-27.4396285" lon="152.9897003">
<ele>46.223</ele>
<time>2017-05-23T05:29:51.780Z</time>
</trkpt>
<trkpt lat="-27.4394487" lon="152.9895757">
<ele>45.919</ele>
<time>2017-05-23T05:29:53.881Z</time>
</trkpt>
<trkpt lat="-27.4392593" lon="152.9894067">
<ele>44.713</ele>
<time>2017-05-23T05:29:55.967Z</time>
</trkpt>
<trkpt lat="-27.4391191" lon="152.9889995">
<ele>43.364</ele>
<time>2017-05-23T05:29:59.136Z</time>
</trkpt>
<trkpt lat="-27.4390516" lon="152.9885555">
<ele>42.768</ele>
<time>2017-05-23T05:30:02.393Z</time>
</trkpt>
<trkpt lat="-27.4389594" lon="152.9883143">
<ele>42.993</ele>
<time>2017-05-23T05:30:04.400Z</time>
</trkpt>
<trkpt lat="-27.4387685" lon="152.9880110">
<ele>43.770</ele>
<time>2017-05-23T05:30:07.230Z</time>
</trkpt>
<trkpt lat="-27.4384438" lon="152.9878322">
<ele>44.713</ele>
<time>2017-05-23T05:30:10.102Z</time>
</trkpt>
<trkpt lat="-27.4380387" lon="152.9878104">
<ele>45.691</ele>
<time>2017-05-23T05:30:13.053Z</time>
</trkpt>
<trkpt lat="-27.4377538" lon="152.9878683">
<ele>46.793</ele>
<time>2017-05-23T05:30:15.022Z</time>
</trkpt>
<trkpt lat="-27.4374596" lon="152.9879441">
<ele>47.993</ele>
<time>2017-05-23T05:30:17.030Z</time>
</trkpt>
<trkpt lat="-27.4370270" lon="152.9880360">
<ele>49.246</ele>
<time>2017-05-23T05:30:20.030Z</time>
</trkpt>
<trkpt lat="-27.4366208" lon="152.9880874">
<ele>50.661</ele>
<time>2017-05-23T05:30:23.049Z</time>
</trkpt>
<trkpt lat="-27.4362559" lon="152.9881629">
<ele>52.068</ele>
<time>2017-05-23T05:30:26.130Z</time>
</trkpt>
<trkpt lat="-27.4359521" lon="152.9882262">
<ele>52.849</ele>
<time>2017-05-23T05:30:29.151Z</time>
</trkpt>
<trkpt lat="-27.4357891" lon="152.9882711">
<ele>52.483</ele>
<time>2017-05-23T05:30:31.263Z</time>
</trkpt>
<trkpt lat="-27.4355833" lon="152.9883143">
<ele>51.055</ele>
<time>2017-05-23T05:30:34.509Z</time>
</trkpt>
<trkpt lat="-27.4354824" lon="152.9883314">
<ele>49.140</ele>
<time>2017-05-23T05:30:36.555Z</time>
</trkpt>
<trkpt lat="-27.4353544" lon="152.9883754">
<ele>47.426</ele>
<time>2017-05-23T05:30:39.133Z</time>
</trkpt>
<trkpt lat="-27.4351812" lon="152.9884160">
<ele>46.361</ele>
<time>2017-05-23T05:30:42.216Z</time>
</trkpt>
<trkpt lat="-27.4350703" lon="152.9884376">
<ele>46.079</ele>
<time>2017-05-23T05:30:44.083Z</time>
</trkpt>
<trkpt lat="-27.4348944" lon="152.9884618">
<ele>46.431</ele>
<time>2017-05-23T05:30:46.903Z</time>
</trkpt>
<trkpt lat="-27.4347509" lon="152.9884891">
<ele>47.209</ele>
<time>2017-05-23T05:30:49.084Z</time>
</trkpt>
<trkpt lat="-27.4345464" lon="152.9885359">
<ele>48.209</ele>
<time>2017-05-23T05:30:52.395Z</time>
</trkpt>
<trkpt lat="-27.4343801" lon="152.9885776">
<ele>49.230</ele>
<time>2017-05-23T05:30:55.321Z</time>
</trkpt>
<trkpt lat="-27.4342680" lon="152.9886029">
<ele>50.193</ele>
<time>2017-05-23T05:30:57.495Z</time>
</trkpt>
<trkpt lat="-27.4341716" lon="152.9886035">
<ele>51.117</ele>
<time>2017-05-23T05:30:59.982Z</time>
</trkpt>
<trkpt lat="-27.4340665" lon="152.9886280">
<ele>51.946</ele>
<time>2017-05-23T05:31:02.997Z</time>
</trkpt>
<trkpt lat="-27.4339588" lon="152.9886498">
<ele>52.704</ele>
<time>2017-05-23T05:31:06.626Z</time>
</trkpt>
<trkpt lat="-27.4338485" lon="152.9886673">
<ele>53.472</ele>
<time>2017-05-23T05:31:10.320Z</time>
</trkpt>
<trkpt lat="-27.4337447" lon="152.9886891">
<ele>54.200</ele>
<time>2017-05-23T05:31:14.047Z</time>
</trkpt>
<trkpt lat="-27.4335855" lon="152.9887504">
<ele>54.843</ele>
<time>2017-05-23T05:31:18.380Z</time>
</trkpt>
<trkpt lat="-27.4334915" lon="152.9887507">
<ele>55.430</ele>
<time>2017-05-23T05:31:20.999Z</time>
</trkpt>
<trkpt lat="-27.4334915" lon="152.9887507">
<ele>55.874</ele>
<time>2017-05-23T05:31:22.999Z</time>
</trkpt>
<trkpt lat="-27.4334915" lon="152.9887507">
<ele>56.055</ele>
<time>2017-05-23T05:31:24.949Z</time>
</trkpt>
<trkpt lat="-27.4333387" lon="152.9887904">
<ele>56.007</ele>
<time>2017-05-23T05:31:29.115Z</time>
</trkpt>
<trkpt lat="-27.4331652" lon="152.9887912">
<ele>56.086</ele>
<time>2017-05-23T05:31:31.205Z</time>
</trkpt>
<trkpt lat="-27.4328345" lon="152.9888511">
<ele>56.657</ele>
<time>2017-05-23T05:31:34.448Z</time>
</trkpt>
<trkpt lat="-27.4326245" lon="152.9888761">
<ele>57.771</ele>
<time>2017-05-23T05:31:36.424Z</time>
</trkpt>
<trkpt lat="-27.4323391" lon="152.9888741">
<ele>59.248</ele>
<time>2017-05-23T05:31:39.258Z</time>
</trkpt>
<trkpt lat="-27.4321604" lon="152.9889015">
<ele>60.877</ele>
<time>2017-05-23T05:31:41.145Z</time>
</trkpt>
<trkpt lat="-27.4319844" lon="152.9889358">
<ele>62.470</ele>
<time>2017-05-23T05:31:43.050Z</time>
</trkpt>
<trkpt lat="-27.4318280" lon="152.9889843">
<ele>63.953</ele>
<time>2017-05-23T05:31:45.195Z</time>
</trkpt>
<trkpt lat="-27.4317251" lon="152.9890349">
<ele>65.326</ele>
<time>2017-05-23T05:31:46.999Z</time>
</trkpt>
<trkpt lat="-27.4317251" lon="152.9890349">
<ele>66.472</ele>
<time>2017-05-23T05:31:49.999Z</time>
</trkpt>
<trkpt lat="-27.4317251" lon="152.9890349">
<ele>67.031</ele>
<time>2017-05-23T05:32:05.755Z</time>
</trkpt>
<trkpt lat="-27.4315982" lon="152.9891375">
<ele>66.947</ele>
<time>2017-05-23T05:32:14.706Z</time>
</trkpt>
<trkpt lat="-27.4315988" lon="152.9893205">
<ele>67.239</ele>
<time>2017-05-23T05:32:16.643Z</time>
</trkpt>
<trkpt lat="-27.4316123" lon="152.9897296">
<ele>68.709</ele>
<time>2017-05-23T05:32:19.896Z</time>
</trkpt>
<trkpt lat="-27.4316595" lon="152.9900375">
<ele>70.781</ele>
<time>2017-05-23T05:32:21.858Z</time>
</trkpt>
<trkpt lat="-27.4317184" lon="152.9903595">
<ele>72.667</ele>
<time>2017-05-23T05:32:23.839Z</time>
</trkpt>
<trkpt lat="-27.4317817" lon="152.9908522">
<ele>74.082</ele>
<time>2017-05-23T05:32:26.833Z</time>
</trkpt>
<trkpt lat="-27.4318333" lon="152.9911616">
<ele>74.806</ele>
<time>2017-05-23T05:32:28.917Z</time>
</trkpt>
<trkpt lat="-27.4318893" lon="152.9915453">
<ele>74.908</ele>
<time>2017-05-23T05:32:32.138Z</time>
</trkpt>
<trkpt lat="-27.4319040" lon="152.9917795">
<ele>74.566</ele>
<time>2017-05-23T05:32:35.004Z</time>
</trkpt>
<trkpt lat="-27.4317516" lon="152.9919015">
<ele>73.894</ele>
<time>2017-05-23T05:32:37.538Z</time>
</trkpt>
<trkpt lat="-27.4314444" lon="152.9919679">
<ele>73.030</ele>
<time>2017-05-23T05:32:40.767Z</time>
</trkpt>
<trkpt lat="-27.4311904" lon="152.9919937">
<ele>72.126</ele>
<time>2017-05-23T05:32:42.873Z</time>
</trkpt>
<trkpt lat="-27.4308147" lon="152.9920662">
<ele>71.286</ele>
<time>2017-05-23T05:32:45.982Z</time>
</trkpt>
<trkpt lat="-27.4305835" lon="152.9920780">
<ele>70.464</ele>
<time>2017-05-23T05:32:48.036Z</time>
</trkpt>
<trkpt lat="-27.4303793" lon="152.9921251">
<ele>69.603</ele>
<time>2017-05-23T05:32:50.027Z</time>
</trkpt>
<trkpt lat="-27.4300795" lon="152.9921805">
<ele>68.878</ele>
<time>2017-05-23T05:32:52.995Z</time>
</trkpt>
<trkpt lat="-27.4297945" lon="152.9922371">
<ele>68.542</ele>
<time>2017-05-23T05:32:55.848Z</time>
</trkpt>
<trkpt lat="-27.4295953" lon="152.9922735">
<ele>68.631</ele>
<time>2017-05-23T05:32:57.757Z</time>
</trkpt>
<trkpt lat="-27.4292779" lon="152.9923290">
<ele>69.011</ele>
<time>2017-05-23T05:33:00.799Z</time>
</trkpt>
<trkpt lat="-27.4290827" lon="152.9923524">
<ele>69.498</ele>
<time>2017-05-23T05:33:02.764Z</time>
</trkpt>
<trkpt lat="-27.4288987" lon="152.9923863">
<ele>69.918</ele>
<time>2017-05-23T05:33:04.776Z</time>
</trkpt>
<trkpt lat="-27.4286362" lon="152.9924455">
<ele>70.128</ele>
<time>2017-05-23T05:33:07.856Z</time>
</trkpt>
<trkpt lat="-27.4284848" lon="152.9924715">
<ele>69.989</ele>
<time>2017-05-23T05:33:09.824Z</time>
</trkpt>
<trkpt lat="-27.4283457" lon="152.9924600">
<ele>69.422</ele>
<time>2017-05-23T05:33:11.631Z</time>
</trkpt>
<trkpt lat="-27.4281182" lon="152.9925311">
<ele>68.534</ele>
<time>2017-05-23T05:33:14.629Z</time>
</trkpt>
<trkpt lat="-27.4279612" lon="152.9925678">
<ele>67.540</ele>
<time>2017-05-23T05:33:16.645Z</time>
</trkpt>
<trkpt lat="-27.4278118" lon="152.9926047">
<ele>66.582</ele>
<time>2017-05-23T05:33:18.691Z</time>
</trkpt>
<trkpt lat="-27.4276089" lon="152.9926169">
<ele>65.733</ele>
<time>2017-05-23T05:33:21.613Z</time>
</trkpt>
<trkpt lat="-27.4274788" lon="152.9926126">
<ele>64.956</ele>
<time>2017-05-23T05:33:23.424Z</time>
</trkpt>
<trkpt lat="-27.4272519" lon="152.9927088">
<ele>64.196</ele>
<time>2017-05-23T05:33:26.484Z</time>
</trkpt>
<trkpt lat="-27.4270837" lon="152.9927467">
<ele>63.474</ele>
<time>2017-05-23T05:33:28.723Z</time>
</trkpt>
<trkpt lat="-27.4268996" lon="152.9927869">
<ele>62.790</ele>
<time>2017-05-23T05:33:31.910Z</time>
</trkpt>
<trkpt lat="-27.4267983" lon="152.9927892">
<ele>62.080</ele>
<time>2017-05-23T05:33:34.263Z</time>
</trkpt>
<trkpt lat="-27.4266687" lon="152.9927539">
<ele>61.351</ele>
<time>2017-05-23T05:33:37.270Z</time>
</trkpt>
<trkpt lat="-27.4264939" lon="152.9928477">
<ele>60.759</ele>
<time>2017-05-23T05:33:40.374Z</time>
</trkpt>
<trkpt lat="-27.4262485" lon="152.9929292">
<ele>60.513</ele>
<time>2017-05-23T05:33:43.794Z</time>
</trkpt>
<trkpt lat="-27.4260384" lon="152.9929300">
<ele>60.648</ele>
<time>2017-05-23T05:33:46.908Z</time>
</trkpt>
<trkpt lat="-27.4258743" lon="152.9929372">
<ele>60.971</ele>
<time>2017-05-23T05:33:49.890Z</time>
</trkpt>
<trkpt lat="-27.4257714" lon="152.9928507">
<ele>61.182</ele>
<time>2017-05-23T05:33:52.381Z</time>
</trkpt>
<trkpt lat="-27.4257425" lon="152.9926837">
<ele>61.161</ele>
<time>2017-05-23T05:33:54.896Z</time>
</trkpt>
<trkpt lat="-27.4257272" lon="152.9925163">
<ele>61.099</ele>
<time>2017-05-23T05:33:57.137Z</time>
</trkpt>
<trkpt lat="-27.4255410" lon="152.9924121">
<ele>61.230</ele>
<time>2017-05-23T05:34:00.028Z</time>
</trkpt>
<trkpt lat="-27.4253385" lon="152.9924602">
<ele>61.643</ele>
<time>2017-05-23T05:34:02.112Z</time>
</trkpt>
<trkpt lat="-27.4249593" lon="152.9925435">
<ele>62.315</ele>
<time>2017-05-23T05:34:05.265Z</time>
</trkpt>
<trkpt lat="-27.4246843" lon="152.9926014">
<ele>63.256</ele>
<time>2017-05-23T05:34:07.314Z</time>
</trkpt>
<trkpt lat="-27.4244245" lon="152.9926427">
<ele>64.475</ele>
<time>2017-05-23T05:34:09.254Z</time>
</trkpt>
<trkpt lat="-27.4241729" lon="152.9926824">
<ele>65.748</ele>
<time>2017-05-23T05:34:11.215Z</time>
</trkpt>
<trkpt lat="-27.4238162" lon="152.9927457">
<ele>66.748</ele>
<time>2017-05-23T05:34:14.132Z</time>
</trkpt>
<trkpt lat="-27.4235992" lon="152.9927867">
<ele>67.396</ele>
<time>2017-05-23T05:34:16.099Z</time>
</trkpt>
<trkpt lat="-27.4234302" lon="152.9928160">
<ele>67.757</ele>
<time>2017-05-23T05:34:18.001Z</time>
</trkpt>
<trkpt lat="-27.4232810" lon="152.9928347">
<ele>67.809</ele>
<time>2017-05-23T05:34:20.000Z</time>
</trkpt>
<trkpt lat="-27.4232810" lon="152.9928347">
<ele>67.589</ele>
<time>2017-05-23T05:34:25.000Z</time>
</trkpt>
<trkpt lat="-27.4232810" lon="152.9928347">
<ele>67.365</ele>
<time>2017-05-23T05:34:34.424Z</time>
</trkpt>
<trkpt lat="-27.4230626" lon="152.9929142">
<ele>67.338</ele>
<time>2017-05-23T05:34:47.273Z</time>
</trkpt>
<trkpt lat="-27.4228407" lon="152.9930010">
<ele>66.887</ele>
<time>2017-05-23T05:34:50.677Z</time>
</trkpt>
<trkpt lat="-27.4225894" lon="152.9930016">
<ele>65.522</ele>
<time>2017-05-23T05:34:53.912Z</time>
</trkpt>
<trkpt lat="-27.4223755" lon="152.9930325">
<ele>63.921</ele>
<time>2017-05-23T05:34:56.474Z</time>
</trkpt>
<trkpt lat="-27.4221071" lon="152.9930927">
<ele>62.791</ele>
<time>2017-05-23T05:34:59.489Z</time>
</trkpt>
<trkpt lat="-27.4218452" lon="152.9931487">
<ele>62.070</ele>
<time>2017-05-23T05:35:02.524Z</time>
</trkpt>
<trkpt lat="-27.4216855" lon="152.9931563">
<ele>61.575</ele>
<time>2017-05-23T05:35:04.502Z</time>
</trkpt>
<trkpt lat="-27.4214728" lon="152.9932051">
<ele>61.112</ele>
<time>2017-05-23T05:35:07.741Z</time>
</trkpt>
<trkpt lat="-27.4213670" lon="152.9931876">
<ele>60.479</ele>
<time>2017-05-23T05:35:09.381Z</time>
</trkpt>
<trkpt lat="-27.4212961" lon="152.9930649">
<ele>59.573</ele>
<time>2017-05-23T05:35:11.026Z</time>
</trkpt>
<trkpt lat="-27.4212316" lon="152.9928605">
<ele>58.536</ele>
<time>2017-05-23T05:35:12.861Z</time>
</trkpt>
<trkpt lat="-27.4211485" lon="152.9924831">
<ele>57.708</ele>
<time>2017-05-23T05:35:15.869Z</time>
</trkpt>
<trkpt lat="-27.4210349" lon="152.9921181">
<ele>57.346</ele>
<time>2017-05-23T05:35:18.780Z</time>
</trkpt>
<trkpt lat="-27.4209788" lon="152.9919057">
<ele>57.554</ele>
<time>2017-05-23T05:35:20.752Z</time>
</trkpt>
<trkpt lat="-27.4209372" lon="152.9917422">
<ele>58.154</ele>
<time>2017-05-23T05:35:22.693Z</time>
</trkpt>
<trkpt lat="-27.4209553" lon="152.9915346">
<ele>58.711</ele>
<time>2017-05-23T05:35:25.317Z</time>
</trkpt>
<trkpt lat="-27.4210566" lon="152.9914393">
<ele>58.876</ele>
<time>2017-05-23T05:35:27.252Z</time>
</trkpt>
<trkpt lat="-27.4212465" lon="152.9913591">
<ele>58.642</ele>
<time>2017-05-23T05:35:30.343Z</time>
</trkpt>
<trkpt lat="-27.4213531" lon="152.9912488">
<ele>58.201</ele>
<time>2017-05-23T05:35:33.261Z</time>
</trkpt>
<trkpt lat="-27.4214089" lon="152.9911618">
<ele>57.709</ele>
<time>2017-05-23T05:35:36.000Z</time>
</trkpt>
<trkpt lat="-27.4214089" lon="152.9911618">
<ele>57.266</ele>
<time>2017-05-23T05:35:39.000Z</time>
</trkpt>
<trkpt lat="-27.4214089" lon="152.9911618">
<ele>57.028</ele>
<time>2017-05-23T05:36:21.307Z</time>
</trkpt>
<trkpt lat="-27.4212075" lon="152.9911296">
<ele>57.025</ele>
<time>2017-05-23T05:36:35.782Z</time>
</trkpt>
<trkpt lat="-27.4209379" lon="152.9911617">
<ele>57.049</ele>
<time>2017-05-23T05:36:38.753Z</time>
</trkpt>
<trkpt lat="-27.4205282" lon="152.9912797">
<ele>56.943</ele>
<time>2017-05-23T05:36:41.837Z</time>
</trkpt>
<trkpt lat="-27.4200788" lon="152.9913568">
<ele>57.103</ele>
<time>2017-05-23T05:36:44.781Z</time>
</trkpt>
<trkpt lat="-27.4197847" lon="152.9913990">
<ele>58.298</ele>
<time>2017-05-23T05:36:46.743Z</time>
</trkpt>
<trkpt lat="-27.4193797" lon="152.9914635">
<ele>60.539</ele>
<time>2017-05-23T05:36:49.554Z</time>
</trkpt>
<trkpt lat="-27.4191319" lon="152.9915019">
<ele>62.887</ele>
<time>2017-05-23T05:36:51.610Z</time>
</trkpt>
<trkpt lat="-27.4188644" lon="152.9915476">
<ele>64.476</ele>
<time>2017-05-23T05:36:54.340Z</time>
</trkpt>
<trkpt lat="-27.4186734" lon="152.9915640">
<ele>64.902</ele>
<time>2017-05-23T05:36:56.948Z</time>
</trkpt>
<trkpt lat="-27.4185768" lon="152.9915771">
<ele>64.048</ele>
<time>2017-05-23T05:36:58.815Z</time>
</trkpt>
<trkpt lat="-27.4184850" lon="152.9915690">
<ele>62.320</ele>
<time>2017-05-23T05:37:01.000Z</time>
</trkpt>
<trkpt lat="-27.4184850" lon="152.9915690">
<ele>60.627</ele>
<time>2017-05-23T05:37:06.000Z</time>
</trkpt>
<trkpt lat="-27.4184850" lon="152.9915690">
<ele>59.782</ele>
<time>2017-05-23T05:37:14.780Z</time>
</trkpt>
<trkpt lat="-27.4183128" lon="152.9915764">
<ele>59.840</ele>
<time>2017-05-23T05:37:24.506Z</time>
</trkpt>
<trkpt lat="-27.4182129" lon="152.9915918">
<ele>59.699</ele>
<time>2017-05-23T05:37:28.000Z</time>
</trkpt>
<trkpt lat="-27.4182129" lon="152.9915918">
<ele>58.576</ele>
<time>2017-05-23T05:37:30.000Z</time>
</trkpt>
<trkpt lat="-27.4182129" lon="152.9915918">
<ele>57.488</ele>
<time>2017-05-23T05:38:33.565Z</time>
</trkpt>
<trkpt lat="-27.4180250" lon="152.9916002">
<ele>57.466</ele>
<time>2017-05-23T05:38:42.999Z</time>
</trkpt>
<trkpt lat="-27.4178183" lon="152.9916479">
<ele>57.979</ele>
<time>2017-05-23T05:38:46.334Z</time>
</trkpt>
<trkpt lat="-27.4176624" lon="152.9916544">
<ele>58.303</ele>
<time>2017-05-23T05:38:48.476Z</time>
</trkpt>
<trkpt lat="-27.4175258" lon="152.9916647">
<ele>58.491</ele>
<time>2017-05-23T05:38:50.491Z</time>
</trkpt>
<trkpt lat="-27.4173480" lon="152.9916887">
<ele>58.892</ele>
<time>2017-05-23T05:38:53.383Z</time>
</trkpt>
<trkpt lat="-27.4172352" lon="152.9917097">
<ele>59.648</ele>
<time>2017-05-23T05:38:55.373Z</time>
</trkpt>
<trkpt lat="-27.4170771" lon="152.9917370">
<ele>60.619</ele>
<time>2017-05-23T05:38:58.341Z</time>
</trkpt>
<trkpt lat="-27.4169367" lon="152.9917975">
<ele>61.601</ele>
<time>2017-05-23T05:39:01.473Z</time>
</trkpt>
<trkpt lat="-27.4168201" lon="152.9918435">
<ele>62.388</ele>
<time>2017-05-23T05:39:04.493Z</time>
</trkpt>
<trkpt lat="-27.4167147" lon="152.9918259">
<ele>62.786</ele>
<time>2017-05-23T05:39:07.372Z</time>
</trkpt>
<trkpt lat="-27.4166084" lon="152.9918423">
<ele>62.749</ele>
<time>2017-05-23T05:39:09.781Z</time>
</trkpt>
<trkpt lat="-27.4164481" lon="152.9918704">
<ele>62.450</ele>
<time>2017-05-23T05:39:12.600Z</time>
</trkpt>
<trkpt lat="-27.4162326" lon="152.9919246">
<ele>62.093</ele>
<time>2017-05-23T05:39:15.658Z</time>
</trkpt>
<trkpt lat="-27.4160624" lon="152.9919487">
<ele>61.814</ele>
<time>2017-05-23T05:39:17.756Z</time>
</trkpt>
<trkpt lat="-27.4158998" lon="152.9919754">
<ele>61.626</ele>
<time>2017-05-23T05:39:19.724Z</time>
</trkpt>
<trkpt lat="-27.4156586" lon="152.9920509">
<ele>61.441</ele>
<time>2017-05-23T05:39:22.644Z</time>
</trkpt>
<trkpt lat="-27.4154825" lon="152.9920800">
<ele>61.184</ele>
<time>2017-05-23T05:39:24.621Z</time>
</trkpt>
<trkpt lat="-27.4152111" lon="152.9921326">
<ele>60.861</ele>
<time>2017-05-23T05:39:27.592Z</time>
</trkpt>
<trkpt lat="-27.4150170" lon="152.9921499">
<ele>60.538</ele>
<time>2017-05-23T05:39:29.557Z</time>
</trkpt>
<trkpt lat="-27.4148189" lon="152.9921895">
<ele>60.279</ele>
<time>2017-05-23T05:39:31.469Z</time>
</trkpt>
<trkpt lat="-27.4146043" lon="152.9922321">
<ele>60.115</ele>
<time>2017-05-23T05:39:33.451Z</time>
</trkpt>
<trkpt lat="-27.4143846" lon="152.9922760">
<ele>60.041</ele>
<time>2017-05-23T05:39:35.411Z</time>
</trkpt>
<trkpt lat="-27.4141513" lon="152.9923240">
<ele>60.026</ele>
<time>2017-05-23T05:39:37.353Z</time>
</trkpt>
<trkpt lat="-27.4138833" lon="152.9923787">
<ele>60.046</ele>
<time>2017-05-23T05:39:39.386Z</time>
</trkpt>
<trkpt lat="-27.4134673" lon="152.9924508">
<ele>60.084</ele>
<time>2017-05-23T05:39:42.408Z</time>
</trkpt>
<trkpt lat="-27.4131977" lon="152.9924863">
<ele>60.083</ele>
<time>2017-05-23T05:39:44.365Z</time>
</trkpt>
<trkpt lat="-27.4129307" lon="152.9924851">
<ele>59.950</ele>
<time>2017-05-23T05:39:46.351Z</time>
</trkpt>
<trkpt lat="-27.4125604" lon="152.9923773">
<ele>59.637</ele>
<time>2017-05-23T05:39:49.289Z</time>
</trkpt>
<trkpt lat="-27.4122098" lon="152.9922748">
<ele>59.096</ele>
<time>2017-05-23T05:39:52.224Z</time>
</trkpt>
<trkpt lat="-27.4118934" lon="152.9921558">
<ele>58.293</ele>
<time>2017-05-23T05:39:55.111Z</time>
</trkpt>
<trkpt lat="-27.4116155" lon="152.9920023">
<ele>57.381</ele>
<time>2017-05-23T05:39:58.006Z</time>
</trkpt>
<trkpt lat="-27.4114592" lon="152.9918925">
<ele>56.588</ele>
<time>2017-05-23T05:39:59.919Z</time>
</trkpt>
<trkpt lat="-27.4113248" lon="152.9918046">
<ele>55.983</ele>
<time>2017-05-23T05:40:01.796Z</time>
</trkpt>
<trkpt lat="-27.4111685" lon="152.9917248">
<ele>55.539</ele>
<time>2017-05-23T05:40:04.243Z</time>
</trkpt>
<trkpt lat="-27.4110848" lon="152.9916695">
<ele>55.193</ele>
<time>2017-05-23T05:40:06.000Z</time>
</trkpt>
<trkpt lat="-27.4110848" lon="152.9916695">
<ele>54.912</ele>
<time>2017-05-23T05:40:12.000Z</time>
</trkpt>
<trkpt lat="-27.4110848" lon="152.9916695">
<ele>54.755</ele>
<time>2017-05-23T05:40:38.836Z</time>
</trkpt>
<trkpt lat="-27.4108180" lon="152.9916020">
<ele>54.745</ele>
<time>2017-05-23T05:40:45.773Z</time>
</trkpt>
<trkpt lat="-27.4105591" lon="152.9914850">
<ele>54.787</ele>
<time>2017-05-23T05:40:48.899Z</time>
</trkpt>
<trkpt lat="-27.4103673" lon="152.9913803">
<ele>54.803</ele>
<time>2017-05-23T05:40:50.928Z</time>
</trkpt>
<trkpt lat="-27.4101760" lon="152.9912916">
<ele>54.873</ele>
<time>2017-05-23T05:40:53.013Z</time>
</trkpt>
<trkpt lat="-27.4099251" lon="152.9911760">
<ele>55.140</ele>
<time>2017-05-23T05:40:55.841Z</time>
</trkpt>
<trkpt lat="-27.4096716" lon="152.9910621">
<ele>55.672</ele>
<time>2017-05-23T05:40:58.767Z</time>
</trkpt>
<trkpt lat="-27.4094142" lon="152.9910002">
<ele>56.538</ele>
<time>2017-05-23T05:41:01.620Z</time>
</trkpt>
<trkpt lat="-27.4091439" lon="152.9909647">
<ele>57.723</ele>
<time>2017-05-23T05:41:04.579Z</time>
</trkpt>
<trkpt lat="-27.4088894" lon="152.9909416">
<ele>58.934</ele>
<time>2017-05-23T05:41:07.611Z</time>
</trkpt>
<trkpt lat="-27.4087868" lon="152.9909402">
<ele>59.787</ele>
<time>2017-05-23T05:41:09.406Z</time>
</trkpt>
<trkpt lat="-27.4086795" lon="152.9909377">
<ele>60.087</ele>
<time>2017-05-23T05:41:11.711Z</time>
</trkpt>
<trkpt lat="-27.4085586" lon="152.9909627">
<ele>59.882</ele>
<time>2017-05-23T05:41:15.217Z</time>
</trkpt>
<trkpt lat="-27.4084548" lon="152.9909449">
<ele>59.398</ele>
<time>2017-05-23T05:41:18.440Z</time>
</trkpt>
<trkpt lat="-27.4083658" lon="152.9909011">
<ele>58.900</ele>
<time>2017-05-23T05:41:22.005Z</time>
</trkpt>
<trkpt lat="-27.4083658" lon="152.9909011">
<ele>58.559</ele>
<time>2017-05-23T05:41:24.005Z</time>
</trkpt>
<trkpt lat="-27.4083658" lon="152.9909011">
<ele>58.419</ele>
<time>2017-05-23T05:42:10.188Z</time>
</trkpt>
<trkpt lat="-27.4082202" lon="152.9909050">
<ele>58.415</ele>
<time>2017-05-23T05:42:15.398Z</time>
</trkpt>
<trkpt lat="-27.4080225" lon="152.9908684">
<ele>58.426</ele>
<time>2017-05-23T05:42:18.799Z</time>
</trkpt>
<trkpt lat="-27.4078978" lon="152.9908547">
<ele>58.363</ele>
<time>2017-05-23T05:42:20.433Z</time>
</trkpt>
<trkpt lat="-27.4076253" lon="152.9908639">
<ele>58.248</ele>
<time>2017-05-23T05:42:23.536Z</time>
</trkpt>
<trkpt lat="-27.4074020" lon="152.9908376">
<ele>58.198</ele>
<time>2017-05-23T05:42:25.631Z</time>
</trkpt>
<trkpt lat="-27.4071767" lon="152.9907921">
<ele>58.274</ele>
<time>2017-05-23T05:42:27.677Z</time>
</trkpt>
<trkpt lat="-27.4068418" lon="152.9907551">
<ele>58.407</ele>
<time>2017-05-23T05:42:30.603Z</time>
</trkpt>
<trkpt lat="-27.4065940" lon="152.9907424">
<ele>58.436</ele>
<time>2017-05-23T05:42:32.690Z</time>
</trkpt>
<trkpt lat="-27.4062440" lon="152.9907046">
<ele>58.285</ele>
<time>2017-05-23T05:42:35.714Z</time>
</trkpt>
<trkpt lat="-27.4059268" lon="152.9905796">
<ele>58.037</ele>
<time>2017-05-23T05:42:38.660Z</time>
</trkpt>
<trkpt lat="-27.4056843" lon="152.9902851">
<ele>57.815</ele>
<time>2017-05-23T05:42:41.748Z</time>
</trkpt>
<trkpt lat="-27.4055388" lon="152.9900797">
<ele>57.709</ele>
<time>2017-05-23T05:42:43.716Z</time>
</trkpt>
<trkpt lat="-27.4053051" lon="152.9897767">
<ele>57.766</ele>
<time>2017-05-23T05:42:46.644Z</time>
</trkpt>
<trkpt lat="-27.4051334" lon="152.9895618">
<ele>57.965</ele>
<time>2017-05-23T05:42:48.697Z</time>
</trkpt>
<trkpt lat="-27.4049392" lon="152.9892213">
<ele>58.253</ele>
<time>2017-05-23T05:42:51.764Z</time>
</trkpt>
<trkpt lat="-27.4048489" lon="152.9890337">
<ele>58.531</ele>
<time>2017-05-23T05:42:54.033Z</time>
</trkpt>
<trkpt lat="-27.4047475" lon="152.9888773">
<ele>58.674</ele>
<time>2017-05-23T05:42:57.531Z</time>
</trkpt>
<trkpt lat="-27.4046716" lon="152.9888184">
<ele>58.574</ele>
<time>2017-05-23T05:42:59.997Z</time>
</trkpt>
<trkpt lat="-27.4046716" lon="152.9888184">
<ele>58.274</ele>
<time>2017-05-23T05:43:04.997Z</time>
</trkpt>
<trkpt lat="-27.4046716" lon="152.9888184">
<ele>58.030</ele>
<time>2017-05-23T05:43:11.753Z</time>
</trkpt>
<trkpt lat="-27.4045316" lon="152.9886344">
<ele>58.012</ele>
<time>2017-05-23T05:43:17.726Z</time>
</trkpt>
<trkpt lat="-27.4044189" lon="152.9885208">
<ele>57.994</ele>
<time>2017-05-23T05:43:19.646Z</time>
</trkpt>
<trkpt lat="-27.4041950" lon="152.9883340">
<ele>57.770</ele>
<time>2017-05-23T05:43:22.794Z</time>
</trkpt>
<trkpt lat="-27.4040396" lon="152.9882015">
<ele>57.512</ele>
<time>2017-05-23T05:43:24.744Z</time>
</trkpt>
<trkpt lat="-27.4037879" lon="152.9879896">
<ele>57.449</ele>
<time>2017-05-23T05:43:27.744Z</time>
</trkpt>
<trkpt lat="-27.4036127" lon="152.9878317">
<ele>57.604</ele>
<time>2017-05-23T05:43:29.776Z</time>
</trkpt>
<trkpt lat="-27.4033435" lon="152.9876025">
<ele>57.942</ele>
<time>2017-05-23T05:43:32.806Z</time>
</trkpt>
<trkpt lat="-27.4031695" lon="152.9874427">
<ele>58.405</ele>
<time>2017-05-23T05:43:34.712Z</time>
</trkpt>
<trkpt lat="-27.4028955" lon="152.9871642">
<ele>58.895</ele>
<time>2017-05-23T05:43:37.695Z</time>
</trkpt>
<trkpt lat="-27.4026766" lon="152.9869931">
<ele>59.420</ele>
<time>2017-05-23T05:43:39.716Z</time>
</trkpt>
<trkpt lat="-27.4024211" lon="152.9868963">
<ele>60.114</ele>
<time>2017-05-23T05:43:41.709Z</time>
</trkpt>
<trkpt lat="-27.4021420" lon="152.9868781">
<ele>60.999</ele>
<time>2017-05-23T05:43:43.740Z</time>
</trkpt>
<trkpt lat="-27.4018652" lon="152.9868525">
<ele>61.864</ele>
<time>2017-05-23T05:43:45.756Z</time>
</trkpt>
<trkpt lat="-27.4015987" lon="152.9868224">
<ele>62.527</ele>
<time>2017-05-23T05:43:47.824Z</time>
</trkpt>
<trkpt lat="-27.4012555" lon="152.9866922">
<ele>62.993</ele>
<time>2017-05-23T05:43:50.840Z</time>
</trkpt>
<trkpt lat="-27.4010737" lon="152.9865793">
<ele>63.432</ele>
<time>2017-05-23T05:43:52.802Z</time>
</trkpt>
<trkpt lat="-27.4009053" lon="152.9864763">
<ele>63.989</ele>
<time>2017-05-23T05:43:54.742Z</time>
</trkpt>
<trkpt lat="-27.4007320" lon="152.9864164">
<ele>64.630</ele>
<time>2017-05-23T05:43:56.759Z</time>
</trkpt>
<trkpt lat="-27.4005776" lon="152.9863833">
<ele>65.228</ele>
<time>2017-05-23T05:43:58.689Z</time>
</trkpt>
<trkpt lat="-27.4004224" lon="152.9863547">
<ele>65.765</ele>
<time>2017-05-23T05:44:00.824Z</time>
</trkpt>
<trkpt lat="-27.4002304" lon="152.9863519">
<ele>66.272</ele>
<time>2017-05-23T05:44:04.123Z</time>
</trkpt>
<trkpt lat="-27.4001293" lon="152.9863499">
<ele>66.694</ele>
<time>2017-05-23T05:44:06.915Z</time>
</trkpt>
<trkpt lat="-27.4000165" lon="152.9863529">
<ele>66.932</ele>
<time>2017-05-23T05:44:10.717Z</time>
</trkpt>
<trkpt lat="-27.3999146" lon="152.9863187">
<ele>67.050</ele>
<time>2017-05-23T05:44:13.557Z</time>
</trkpt>
<trkpt lat="-27.3998016" lon="152.9863033">
<ele>67.204</ele>
<time>2017-05-23T05:44:16.008Z</time>
</trkpt>
<trkpt lat="-27.3996924" lon="152.9862959">
<ele>67.442</ele>
<time>2017-05-23T05:44:18.634Z</time>
</trkpt>
<trkpt lat="-27.3995870" lon="152.9862567">
<ele>67.798</ele>
<time>2017-05-23T05:44:21.870Z</time>
</trkpt>
<trkpt lat="-27.3994965" lon="152.9862228">
<ele>68.351</ele>
<time>2017-05-23T05:44:24.106Z</time>
</trkpt>
<trkpt lat="-27.3993029" lon="152.9862148">
<ele>69.098</ele>
<time>2017-05-23T05:44:27.572Z</time>
</trkpt>
<trkpt lat="-27.3991854" lon="152.9861692">
<ele>70.062</ele>
<time>2017-05-23T05:44:29.562Z</time>
</trkpt>
<trkpt lat="-27.3990619" lon="152.9861471">
<ele>71.283</ele>
<time>2017-05-23T05:44:31.515Z</time>
</trkpt>
<trkpt lat="-27.3988454" lon="152.9861756">
<ele>72.664</ele>
<time>2017-05-23T05:44:34.656Z</time>
</trkpt>
<trkpt lat="-27.3986780" lon="152.9862427">
<ele>74.270</ele>
<time>2017-05-23T05:44:36.742Z</time>
</trkpt>
<trkpt lat="-27.3983804" lon="152.9864760">
<ele>76.297</ele>
<time>2017-05-23T05:44:40.127Z</time>
</trkpt>
<trkpt lat="-27.3981690" lon="152.9866143">
<ele>78.913</ele>
<time>2017-05-23T05:44:42.171Z</time>
</trkpt>
<trkpt lat="-27.3978720" lon="152.9868215">
<ele>82.058</ele>
<time>2017-05-23T05:44:45.153Z</time>
</trkpt>
<trkpt lat="-27.3976773" lon="152.9869444">
<ele>85.337</ele>
<time>2017-05-23T05:44:47.134Z</time>
</trkpt>
<trkpt lat="-27.3974599" lon="152.9870061">
<ele>88.233</ele>
<time>2017-05-23T05:44:49.153Z</time>
</trkpt>
<trkpt lat="-27.3972345" lon="152.9869569">
<ele>90.369</ele>
<time>2017-05-23T05:44:51.177Z</time>
</trkpt>
<trkpt lat="-27.3968977" lon="152.9868168">
<ele>91.546</ele>
<time>2017-05-23T05:44:54.231Z</time>
</trkpt>
<trkpt lat="-27.3966679" lon="152.9867111">
<ele>91.804</ele>
<time>2017-05-23T05:44:56.239Z</time>
</trkpt>
<trkpt lat="-27.3963098" lon="152.9865705">
<ele>91.239</ele>
<time>2017-05-23T05:44:59.201Z</time>
</trkpt>
<trkpt lat="-27.3959366" lon="152.9864077">
<ele>89.898</ele>
<time>2017-05-23T05:45:02.157Z</time>
</trkpt>
<trkpt lat="-27.3955429" lon="152.9862030">
<ele>87.808</ele>
<time>2017-05-23T05:45:05.231Z</time>
</trkpt>
<trkpt lat="-27.3951589" lon="152.9860033">
<ele>85.576</ele>
<time>2017-05-23T05:45:08.228Z</time>
</trkpt>
<trkpt lat="-27.3947879" lon="152.9858093">
<ele>84.175</ele>
<time>2017-05-23T05:45:11.210Z</time>
</trkpt>
<trkpt lat="-27.3945526" lon="152.9856932">
<ele>84.216</ele>
<time>2017-05-23T05:45:13.153Z</time>
</trkpt>
<trkpt lat="-27.3941878" lon="152.9855299">
<ele>85.698</ele>
<time>2017-05-23T05:45:16.111Z</time>
</trkpt>
<trkpt lat="-27.3939250" lon="152.9854259">
<ele>88.058</ele>
<time>2017-05-23T05:45:18.087Z</time>
</trkpt>
<trkpt lat="-27.3934900" lon="152.9852485">
<ele>90.351</ele>
<time>2017-05-23T05:45:21.175Z</time>
</trkpt>
<trkpt lat="-27.3931792" lon="152.9851399">
<ele>91.822</ele>
<time>2017-05-23T05:45:23.201Z</time>
</trkpt>
<trkpt lat="-27.3927184" lon="152.9849542">
<ele>92.175</ele>
<time>2017-05-23T05:45:26.226Z</time>
</trkpt>
<trkpt lat="-27.3922521" lon="152.9849064">
<ele>91.645</ele>
<time>2017-05-23T05:45:29.201Z</time>
</trkpt>
<trkpt lat="-27.3919469" lon="152.9849515">
<ele>90.820</ele>
<time>2017-05-23T05:45:31.198Z</time>
</trkpt>
<trkpt lat="-27.3916383" lon="152.9849815">
<ele>90.535</ele>
<time>2017-05-23T05:45:33.192Z</time>
</trkpt>
<trkpt lat="-27.3911648" lon="152.9850217">
<ele>91.434</ele>
<time>2017-05-23T05:45:36.217Z</time>
</trkpt>
<trkpt lat="-27.3906992" lon="152.9851358">
<ele>93.589</ele>
<time>2017-05-23T05:45:39.233Z</time>
</trkpt>
<trkpt lat="-27.3903881" lon="152.9851992">
<ele>96.414</ele>
<time>2017-05-23T05:45:41.212Z</time>
</trkpt>
<trkpt lat="-27.3899128" lon="152.9850880">
<ele>98.929</ele>
<time>2017-05-23T05:45:44.162Z</time>
</trkpt>
<trkpt lat="-27.3893868" lon="152.9850454">
<ele>100.401</ele>
<time>2017-05-23T05:45:47.204Z</time>
</trkpt>
<trkpt lat="-27.3888151" lon="152.9850034">
<ele>100.818</ele>
<time>2017-05-23T05:45:50.386Z</time>
</trkpt>
<trkpt lat="-27.3884480" lon="152.9850105">
<ele>100.412</ele>
<time>2017-05-23T05:45:52.394Z</time>
</trkpt>
<trkpt lat="-27.3880916" lon="152.9849406">
<ele>99.335</ele>
<time>2017-05-23T05:45:54.384Z</time>
</trkpt>
<trkpt lat="-27.3875567" lon="152.9848611">
<ele>97.833</ele>
<time>2017-05-23T05:45:57.376Z</time>
</trkpt>
<trkpt lat="-27.3872093" lon="152.9848557">
<ele>96.036</ele>
<time>2017-05-23T05:45:59.331Z</time>
</trkpt>
<trkpt lat="-27.3866893" lon="152.9847793">
<ele>94.026</ele>
<time>2017-05-23T05:46:02.309Z</time>
</trkpt>
<trkpt lat="-27.3861789" lon="152.9847488">
<ele>92.192</ele>
<time>2017-05-23T05:46:05.326Z</time>
</trkpt>
<trkpt lat="-27.3858881" lon="152.9847265">
<ele>90.900</ele>
<time>2017-05-23T05:46:07.246Z</time>
</trkpt>
<trkpt lat="-27.3856695" lon="152.9845503">
<ele>90.168</ele>
<time>2017-05-23T05:46:09.240Z</time>
</trkpt>
<trkpt lat="-27.3854153" lon="152.9842913">
<ele>89.853</ele>
<time>2017-05-23T05:46:12.084Z</time>
</trkpt>
<trkpt lat="-27.3851597" lon="152.9841114">
<ele>89.784</ele>
<time>2017-05-23T05:46:14.895Z</time>
</trkpt>
<trkpt lat="-27.3850049" lon="152.9839475">
<ele>89.822</ele>
<time>2017-05-23T05:46:16.885Z</time>
</trkpt>
<trkpt lat="-27.3848058" lon="152.9838257">
<ele>89.905</ele>
<time>2017-05-23T05:46:18.877Z</time>
</trkpt>
<trkpt lat="-27.3845670" lon="152.9837194">
<ele>90.021</ele>
<time>2017-05-23T05:46:20.918Z</time>
</trkpt>
<trkpt lat="-27.3841566" lon="152.9835545">
<ele>90.121</ele>
<time>2017-05-23T05:46:24.066Z</time>
</trkpt>
<trkpt lat="-27.3838552" lon="152.9834948">
<ele>90.055</ele>
<time>2017-05-23T05:46:26.113Z</time>
</trkpt>
<trkpt lat="-27.3835580" lon="152.9834104">
<ele>89.601</ele>
<time>2017-05-23T05:46:28.126Z</time>
</trkpt>
<trkpt lat="-27.3831027" lon="152.9833547">
<ele>88.619</ele>
<time>2017-05-23T05:46:31.124Z</time>
</trkpt>
<trkpt lat="-27.3828210" lon="152.9831762">
<ele>87.012</ele>
<time>2017-05-23T05:46:33.236Z</time>
</trkpt>
<trkpt lat="-27.3825394" lon="152.9830587">
<ele>84.843</ele>
<time>2017-05-23T05:46:35.210Z</time>
</trkpt>
<trkpt lat="-27.3822490" lon="152.9829721">
<ele>82.439</ele>
<time>2017-05-23T05:46:37.217Z</time>
</trkpt>
<trkpt lat="-27.3819667" lon="152.9828632">
<ele>80.058</ele>
<time>2017-05-23T05:46:39.241Z</time>
</trkpt>
<trkpt lat="-27.3816742" lon="152.9824672">
<ele>77.759</ele>
<time>2017-05-23T05:46:42.376Z</time>
</trkpt>
<trkpt lat="-27.3814634" lon="152.9822514">
<ele>75.535</ele>
<time>2017-05-23T05:46:44.402Z</time>
</trkpt>
<trkpt lat="-27.3812633" lon="152.9820565">
<ele>73.456</ele>
<time>2017-05-23T05:46:46.325Z</time>
</trkpt>
<trkpt lat="-27.3810184" lon="152.9818769">
<ele>71.799</ele>
<time>2017-05-23T05:46:48.351Z</time>
</trkpt>
<trkpt lat="-27.3807889" lon="152.9816322">
<ele>70.778</ele>
<time>2017-05-23T05:46:50.364Z</time>
</trkpt>
<trkpt lat="-27.3803865" lon="152.9812860">
<ele>70.320</ele>
<time>2017-05-23T05:46:53.473Z</time>
</trkpt>
<trkpt lat="-27.3801142" lon="152.9810922">
<ele>70.357</ele>
<time>2017-05-23T05:46:55.467Z</time>
</trkpt>
<trkpt lat="-27.3798364" lon="152.9809374">
<ele>70.848</ele>
<time>2017-05-23T05:46:57.372Z</time>
</trkpt>
<trkpt lat="-27.3795159" lon="152.9808436">
<ele>71.660</ele>
<time>2017-05-23T05:46:59.293Z</time>
</trkpt>
<trkpt lat="-27.3789776" lon="152.9807109">
<ele>72.740</ele>
<time>2017-05-23T05:47:02.363Z</time>
</trkpt>
<trkpt lat="-27.3784446" lon="152.9805859">
<ele>74.372</ele>
<time>2017-05-23T05:47:05.314Z</time>
</trkpt>
<trkpt lat="-27.3778868" lon="152.9805235">
<ele>76.875</ele>
<time>2017-05-23T05:47:08.295Z</time>
</trkpt>
<trkpt lat="-27.3775125" lon="152.9804412">
<ele>80.140</ele>
<time>2017-05-23T05:47:10.310Z</time>
</trkpt>
<trkpt lat="-27.3771577" lon="152.9804174">
<ele>83.476</ele>
<time>2017-05-23T05:47:12.294Z</time>
</trkpt>
<trkpt lat="-27.3768444" lon="152.9803926">
<ele>86.103</ele>
<time>2017-05-23T05:47:14.193Z</time>
</trkpt>
<trkpt lat="-27.3763851" lon="152.9803725">
<ele>87.664</ele>
<time>2017-05-23T05:47:17.086Z</time>
</trkpt>
<trkpt lat="-27.3760720" lon="152.9803435">
<ele>88.273</ele>
<time>2017-05-23T05:47:19.088Z</time>
</trkpt>
<trkpt lat="-27.3757623" lon="152.9803188">
<ele>88.260</ele>
<time>2017-05-23T05:47:21.044Z</time>
</trkpt>
<trkpt lat="-27.3752805" lon="152.9803045">
<ele>87.944</ele>
<time>2017-05-23T05:47:24.029Z</time>
</trkpt>
<trkpt lat="-27.3749434" lon="152.9802908">
<ele>87.438</ele>
<time>2017-05-23T05:47:26.079Z</time>
</trkpt>
<trkpt lat="-27.3744520" lon="152.9802959">
<ele>86.694</ele>
<time>2017-05-23T05:47:29.055Z</time>
</trkpt>
<trkpt lat="-27.3738764" lon="152.9802868">
<ele>85.631</ele>
<time>2017-05-23T05:47:32.546Z</time>
</trkpt>
<trkpt lat="-27.3736023" lon="152.9802593">
<ele>84.327</ele>
<time>2017-05-23T05:47:34.239Z</time>
</trkpt>
<trkpt lat="-27.3731224" lon="152.9803246">
<ele>83.160</ele>
<time>2017-05-23T05:47:37.213Z</time>
</trkpt>
<trkpt lat="-27.3727868" lon="152.9803592">
<ele>82.534</ele>
<time>2017-05-23T05:47:39.287Z</time>
</trkpt>
<trkpt lat="-27.3723236" lon="152.9803079">
<ele>82.453</ele>
<time>2017-05-23T05:47:42.181Z</time>
</trkpt>
<trkpt lat="-27.3718189" lon="152.9803340">
<ele>82.624</ele>
<time>2017-05-23T05:47:45.344Z</time>
</trkpt>
<trkpt lat="-27.3715401" lon="152.9802065">
<ele>82.735</ele>
<time>2017-05-23T05:47:47.219Z</time>
</trkpt>
<trkpt lat="-27.3710741" lon="152.9801110">
<ele>82.573</ele>
<time>2017-05-23T05:47:50.156Z</time>
</trkpt>
<trkpt lat="-27.3706138" lon="152.9799274">
<ele>81.935</ele>
<time>2017-05-23T05:47:53.123Z</time>
</trkpt>
<trkpt lat="-27.3702954" lon="152.9797631">
<ele>80.648</ele>
<time>2017-05-23T05:47:55.186Z</time>
</trkpt>
<trkpt lat="-27.3699727" lon="152.9796516">
<ele>78.805</ele>
<time>2017-05-23T05:47:57.134Z</time>
</trkpt>
<trkpt lat="-27.3694582" lon="152.9794954">
<ele>76.696</ele>
<time>2017-05-23T05:48:00.149Z</time>
</trkpt>
<trkpt lat="-27.3691396" lon="152.9792882">
<ele>74.362</ele>
<time>2017-05-23T05:48:02.182Z</time>
</trkpt>
<trkpt lat="-27.3688136" lon="152.9791094">
<ele>71.867</ele>
<time>2017-05-23T05:48:04.176Z</time>
</trkpt>
<trkpt lat="-27.3683356" lon="152.9788305">
<ele>69.653</ele>
<time>2017-05-23T05:48:07.164Z</time>
</trkpt>
<trkpt lat="-27.3679143" lon="152.9785049">
<ele>68.190</ele>
<time>2017-05-23T05:48:10.074Z</time>
</trkpt>
<trkpt lat="-27.3675189" lon="152.9781343">
<ele>67.608</ele>
<time>2017-05-23T05:48:13.070Z</time>
</trkpt>
<trkpt lat="-27.3673082" lon="152.9778406">
<ele>67.817</ele>
<time>2017-05-23T05:48:15.063Z</time>
</trkpt>
<trkpt lat="-27.3669767" lon="152.9774399">
<ele>68.501</ele>
<time>2017-05-23T05:48:18.014Z</time>
</trkpt>
<trkpt lat="-27.3667486" lon="152.9771834">
<ele>69.182</ele>
<time>2017-05-23T05:48:20.017Z</time>
</trkpt>
<trkpt lat="-27.3664985" lon="152.9767313">
<ele>69.482</ele>
<time>2017-05-23T05:48:22.978Z</time>
</trkpt>
<trkpt lat="-27.3662441" lon="152.9762746">
<ele>69.280</ele>
<time>2017-05-23T05:48:26.007Z</time>
</trkpt>
<trkpt lat="-27.3659926" lon="152.9758536">
<ele>68.656</ele>
<time>2017-05-23T05:48:28.986Z</time>
</trkpt>
<trkpt lat="-27.3658414" lon="152.9756128">
<ele>67.907</ele>
<time>2017-05-23T05:48:30.946Z</time>
</trkpt>
<trkpt lat="-27.3656215" lon="152.9753543">
<ele>67.358</ele>
<time>2017-05-23T05:48:33.658Z</time>
</trkpt>
<trkpt lat="-27.3654968" lon="152.9751981">
<ele>67.191</ele>
<time>2017-05-23T05:48:35.502Z</time>
</trkpt>
<trkpt lat="-27.3652833" lon="152.9749213">
<ele>67.463</ele>
<time>2017-05-23T05:48:38.658Z</time>
</trkpt>
<trkpt lat="-27.3650393" lon="152.9746706">
<ele>68.282</ele>
<time>2017-05-23T05:48:41.675Z</time>
</trkpt>
<trkpt lat="-27.3648216" lon="152.9744047">
<ele>69.763</ele>
<time>2017-05-23T05:48:44.609Z</time>
</trkpt>
<trkpt lat="-27.3646919" lon="152.9742620">
<ele>71.723</ele>
<time>2017-05-23T05:48:46.399Z</time>
</trkpt>
<trkpt lat="-27.3645674" lon="152.9741872">
<ele>73.618</ele>
<time>2017-05-23T05:48:48.000Z</time>
</trkpt>
<trkpt lat="-27.3645674" lon="152.9741872">
<ele>74.906</ele>
<time>2017-05-23T05:48:54.000Z</time>
</trkpt>
<trkpt lat="-27.3645674" lon="152.9741872">
<ele>75.379</ele>
<time>2017-05-23T05:49:05.543Z</time>
</trkpt>
<trkpt lat="-27.3645606" lon="152.9738698">
<ele>75.268</ele>
<time>2017-05-23T05:49:11.800Z</time>
</trkpt>
<trkpt lat="-27.3646801" lon="152.9736248">
<ele>75.304</ele>
<time>2017-05-23T05:49:14.288Z</time>
</trkpt>
<trkpt lat="-27.3648004" lon="152.9732556">
<ele>76.021</ele>
<time>2017-05-23T05:49:17.317Z</time>
</trkpt>
<trkpt lat="-27.3649473" lon="152.9728752">
<ele>77.193</ele>
<time>2017-05-23T05:49:20.289Z</time>
</trkpt>
<trkpt lat="-27.3650586" lon="152.9724750">
<ele>78.431</ele>
<time>2017-05-23T05:49:23.556Z</time>
</trkpt>
<trkpt lat="-27.3652587" lon="152.9721971">
<ele>79.569</ele>
<time>2017-05-23T05:49:27.477Z</time>
</trkpt>
<trkpt lat="-27.3651594" lon="152.9720010">
<ele>80.392</ele>
<time>2017-05-23T05:49:29.912Z</time>
</trkpt>
<trkpt lat="-27.3648612" lon="152.9718861">
<ele>80.778</ele>
<time>2017-05-23T05:49:32.514Z</time>
</trkpt>
<trkpt lat="-27.3646234" lon="152.9717194">
<ele>80.747</ele>
<time>2017-05-23T05:49:34.533Z</time>
</trkpt>
<trkpt lat="-27.3642345" lon="152.9715081">
<ele>80.306</ele>
<time>2017-05-23T05:49:37.383Z</time>
</trkpt>
<trkpt lat="-27.3637897" lon="152.9713270">
<ele>79.273</ele>
<time>2017-05-23T05:49:40.375Z</time>
</trkpt>
<trkpt lat="-27.3633973" lon="152.9710425">
<ele>77.353</ele>
<time>2017-05-23T05:49:43.336Z</time>
</trkpt>
<trkpt lat="-27.3631272" lon="152.9708809">
<ele>74.550</ele>
<time>2017-05-23T05:49:45.284Z</time>
</trkpt>
<trkpt lat="-27.3628057" lon="152.9704951">
<ele>71.458</ele>
<time>2017-05-23T05:49:48.285Z</time>
</trkpt>
<trkpt lat="-27.3625637" lon="152.9702366">
<ele>68.742</ele>
<time>2017-05-23T05:49:50.444Z</time>
</trkpt>
<trkpt lat="-27.3622665" lon="152.9698568">
<ele>66.627</ele>
<time>2017-05-23T05:49:53.398Z</time>
</trkpt>
<trkpt lat="-27.3620866" lon="152.9695947">
<ele>64.995</ele>
<time>2017-05-23T05:49:55.380Z</time>
</trkpt>
<trkpt lat="-27.3619130" lon="152.9693467">
<ele>63.731</ele>
<time>2017-05-23T05:49:57.339Z</time>
</trkpt>
<trkpt lat="-27.3616809" lon="152.9691615">
<ele>62.788</ele>
<time>2017-05-23T05:49:59.431Z</time>
</trkpt>
<trkpt lat="-27.3614719" lon="152.9688095">
<ele>62.112</ele>
<time>2017-05-23T05:50:02.431Z</time>
</trkpt>
<trkpt lat="-27.3612937" lon="152.9686522">
<ele>61.571</ele>
<time>2017-05-23T05:50:04.530Z</time>
</trkpt>
<trkpt lat="-27.3611968" lon="152.9684484">
<ele>61.068</ele>
<time>2017-05-23T05:50:06.805Z</time>
</trkpt>
<trkpt lat="-27.3610340" lon="152.9682996">
<ele>60.581</ele>
<time>2017-05-23T05:50:10.350Z</time>
</trkpt>
<trkpt lat="-27.3609445" lon="152.9683805">
<ele>60.064</ele>
<time>2017-05-23T05:50:12.299Z</time>
</trkpt>
<trkpt lat="-27.3607230" lon="152.9685769">
<ele>59.525</ele>
<time>2017-05-23T05:50:15.950Z</time>
</trkpt>
<trkpt lat="-27.3604984" lon="152.9686697">
<ele>59.244</ele>
<time>2017-05-23T05:50:18.053Z</time>
</trkpt>
<trkpt lat="-27.3602810" lon="152.9688126">
<ele>59.506</ele>
<time>2017-05-23T05:50:20.046Z</time>
</trkpt>
<trkpt lat="-27.3600189" lon="152.9687888">
<ele>60.238</ele>
<time>2017-05-23T05:50:22.085Z</time>
</trkpt>
<trkpt lat="-27.3596626" lon="152.9688830">
<ele>61.073</ele>
<time>2017-05-23T05:50:25.011Z</time>
</trkpt>
<trkpt lat="-27.3593434" lon="152.9688037">
<ele>61.647</ele>
<time>2017-05-23T05:50:27.886Z</time>
</trkpt>
<trkpt lat="-27.3591758" lon="152.9688023">
<ele>61.791</ele>
<time>2017-05-23T05:50:29.636Z</time>
</trkpt>
<trkpt lat="-27.3590603" lon="152.9687244">
<ele>61.527</ele>
<time>2017-05-23T05:50:31.260Z</time>
</trkpt>
<trkpt lat="-27.3588160" lon="152.9686975">
<ele>61.025</ele>
<time>2017-05-23T05:50:34.392Z</time>
</trkpt>
<trkpt lat="-27.3586441" lon="152.9686343">
<ele>60.529</ele>
<time>2017-05-23T05:50:36.543Z</time>
</trkpt>
<trkpt lat="-27.3585130" lon="152.9685642">
<ele>60.163</ele>
<time>2017-05-23T05:50:38.280Z</time>
</trkpt>
<trkpt lat="-27.3583123" lon="152.9684458">
<ele>59.843</ele>
<time>2017-05-23T05:50:41.162Z</time>
</trkpt>
<trkpt lat="-27.3581867" lon="152.9683748">
<ele>59.369</ele>
<time>2017-05-23T05:50:43.056Z</time>
</trkpt>
<trkpt lat="-27.3581280" lon="152.9681988">
<ele>58.663</ele>
<time>2017-05-23T05:50:45.332Z</time>
</trkpt>
<trkpt lat="-27.3582391" lon="152.9678145">
<ele>57.941</ele>
<time>2017-05-23T05:50:49.368Z</time>
</trkpt>
<trkpt lat="-27.3584567" lon="152.9675191">
<ele>57.495</ele>
<time>2017-05-23T05:50:52.566Z</time>
</trkpt>
<trkpt lat="-27.3586125" lon="152.9671896">
<ele>57.477</ele>
<time>2017-05-23T05:50:55.512Z</time>
</trkpt>
<trkpt lat="-27.3587570" lon="152.9668387">
<ele>57.959</ele>
<time>2017-05-23T05:50:58.385Z</time>
</trkpt>
<trkpt lat="-27.3587776" lon="152.9664970">
<ele>58.934</ele>
<time>2017-05-23T05:51:00.536Z</time>
</trkpt>
<trkpt lat="-27.3587742" lon="152.9661311">
<ele>60.261</ele>
<time>2017-05-23T05:51:02.653Z</time>
</trkpt>
<trkpt lat="-27.3586701" lon="152.9656407">
<ele>61.756</ele>
<time>2017-05-23T05:51:05.557Z</time>
</trkpt>
<trkpt lat="-27.3585547" lon="152.9653173">
<ele>63.412</ele>
<time>2017-05-23T05:51:07.564Z</time>
</trkpt>
<trkpt lat="-27.3583800" lon="152.9650427">
<ele>65.224</ele>
<time>2017-05-23T05:51:09.496Z</time>
</trkpt>
<trkpt lat="-27.3581778" lon="152.9647795">
<ele>66.890</ele>
<time>2017-05-23T05:51:11.460Z</time>
</trkpt>
<trkpt lat="-27.3578477" lon="152.9644011">
<ele>68.027</ele>
<time>2017-05-23T05:51:14.425Z</time>
</trkpt>
<trkpt lat="-27.3574863" lon="152.9640550">
<ele>68.510</ele>
<time>2017-05-23T05:51:17.376Z</time>
</trkpt>
<trkpt lat="-27.3572250" lon="152.9638332">
<ele>68.290</ele>
<time>2017-05-23T05:51:19.372Z</time>
</trkpt>
<trkpt lat="-27.3568699" lon="152.9634443">
<ele>67.340</ele>
<time>2017-05-23T05:51:22.371Z</time>
</trkpt>
<trkpt lat="-27.3566393" lon="152.9631841">
<ele>65.718</ele>
<time>2017-05-23T05:51:24.369Z</time>
</trkpt>
<trkpt lat="-27.3562927" lon="152.9627480">
<ele>63.653</ele>
<time>2017-05-23T05:51:27.642Z</time>
</trkpt>
<trkpt lat="-27.3561995" lon="152.9622615">
<ele>61.422</ele>
<time>2017-05-23T05:51:30.605Z</time>
</trkpt>
<trkpt lat="-27.3559499" lon="152.9618908">
<ele>59.247</ele>
<time>2017-05-23T05:51:33.647Z</time>
</trkpt>
<trkpt lat="-27.3558049" lon="152.9615294">
<ele>57.285</ele>
<time>2017-05-23T05:51:36.596Z</time>
</trkpt>
<trkpt lat="-27.3557433" lon="152.9613156">
<ele>55.622</ele>
<time>2017-05-23T05:51:38.611Z</time>
</trkpt>
<trkpt lat="-27.3556898" lon="152.9610339">
<ele>54.281</ele>
<time>2017-05-23T05:51:41.244Z</time>
</trkpt>
<trkpt lat="-27.3555459" lon="152.9608400">
<ele>53.387</ele>
<time>2017-05-23T05:51:43.273Z</time>
</trkpt>
<trkpt lat="-27.3554231" lon="152.9604364">
<ele>53.041</ele>
<time>2017-05-23T05:51:46.360Z</time>
</trkpt>
<trkpt lat="-27.3552535" lon="152.9600443">
<ele>53.199</ele>
<time>2017-05-23T05:51:49.356Z</time>
</trkpt>
<trkpt lat="-27.3550785" lon="152.9596666">
<ele>53.659</ele>
<time>2017-05-23T05:51:52.303Z</time>
</trkpt>
<trkpt lat="-27.3549957" lon="152.9592583">
<ele>54.118</ele>
<time>2017-05-23T05:51:55.210Z</time>
</trkpt>
<trkpt lat="-27.3549277" lon="152.9588241">
<ele>54.367</ele>
<time>2017-05-23T05:51:58.211Z</time>
</trkpt>
<trkpt lat="-27.3549508" lon="152.9583847">
<ele>54.430</ele>
<time>2017-05-23T05:52:01.180Z</time>
</trkpt>
<trkpt lat="-27.3549360" lon="152.9580989">
<ele>54.419</ele>
<time>2017-05-23T05:52:03.184Z</time>
</trkpt>
<trkpt lat="-27.3549126" lon="152.9576987">
<ele>54.308</ele>
<time>2017-05-23T05:52:06.236Z</time>
</trkpt>
<trkpt lat="-27.3549308" lon="152.9574105">
<ele>53.814</ele>
<time>2017-05-23T05:52:08.962Z</time>
</trkpt>
<trkpt lat="-27.3549841" lon="152.9573170">
<ele>52.648</ele>
<time>2017-05-23T05:52:10.474Z</time>
</trkpt>
<trkpt lat="-27.3551059" lon="152.9572808">
<ele>51.019</ele>
<time>2017-05-23T05:52:13.056Z</time>
</trkpt>
<trkpt lat="-27.3552711" lon="152.9573018">
<ele>49.524</ele>
<time>2017-05-23T05:52:15.529Z</time>
</trkpt>
<trkpt lat="-27.3555723" lon="152.9572611">
<ele>48.583</ele>
<time>2017-05-23T05:52:18.799Z</time>
</trkpt>
<trkpt lat="-27.3558932" lon="152.9571670">
<ele>48.263</ele>
<time>2017-05-23T05:52:21.956Z</time>
</trkpt>
<trkpt lat="-27.3560660" lon="152.9570840">
<ele>48.377</ele>
<time>2017-05-23T05:52:23.788Z</time>
</trkpt>
<trkpt lat="-27.3562879" lon="152.9568829">
<ele>48.615</ele>
<time>2017-05-23T05:52:26.675Z</time>
</trkpt>
<trkpt lat="-27.3564499" lon="152.9567562">
<ele>48.825</ele>
<time>2017-05-23T05:52:28.732Z</time>
</trkpt>
<trkpt lat="-27.3566502" lon="152.9565933">
<ele>49.020</ele>
<time>2017-05-23T05:52:31.522Z</time>
</trkpt>
<trkpt lat="-27.3567517" lon="152.9565553">
<ele>49.172</ele>
<time>2017-05-23T05:52:33.000Z</time>
</trkpt>
<trkpt lat="-27.3567517" lon="152.9565553">
<ele>49.229</ele>
<time>2017-05-23T05:52:38.000Z</time>
</trkpt>
<trkpt lat="-27.3567517" lon="152.9565553">
<ele>49.205</ele>
<time>2017-05-23T05:53:11.000Z</time>
</trkpt>
<trkpt lat="-27.3569492" lon="152.9567862">
<ele>52.100</ele>
<time>2017-05-23T05:53:38.000Z</time>
</trkpt>
<trkpt lat="-27.3569492" lon="152.9567862">
<ele>52.076</ele>
<time>2017-05-23T05:53:54.001Z</time>
</trkpt>
<trkpt lat="-27.3569492" lon="152.9567862">
<ele>52.100</ele>
<time>2017-05-23T05:54:28.000Z</time>
</trkpt>
<trkpt lat="-27.3569492" lon="152.9567862">
<ele>52.076</ele>
<time>2017-05-23T05:55:07.000Z</time>
</trkpt>
<trkpt lat="-27.3569856" lon="152.9567098">
<ele>52.680</ele>
<time>2017-05-23T05:56:07.575Z</time>
</trkpt>
<trkpt lat="-27.3569856" lon="152.9567098">
<ele>52.680</ele>
<time>2017-05-23T05:56:07.575Z</time>
</trkpt>
<trkpt lat="-27.3568567" lon="152.9565997">
<ele>52.053</ele>
<time>2017-05-23T05:57:50.798Z</time>
</trkpt>
<trkpt lat="-27.3568567" lon="152.9565997">
<ele>52.053</ele>
<time>2017-05-23T05:57:50.798Z</time>
</trkpt>
<trkpt lat="-27.3569381" lon="152.9567117">
<ele>50.359</ele>
<time>2017-05-23T05:58:54.608Z</time>
</trkpt>
<trkpt lat="-27.3569381" lon="152.9567117">
<ele>50.359</ele>
<time>2017-05-23T05:58:54.608Z</time>
</trkpt>
<trkpt lat="-27.3569471" lon="152.9567225">
<ele>51.872</ele>
<time>2017-05-23T05:59:00.302Z</time>
</trkpt>
<trkpt lat="-27.3569471" lon="152.9567225">
<ele>51.872</ele>
<time>2017-05-23T05:59:00.302Z</time>
</trkpt>
<trkpt lat="-27.3567773" lon="152.9566008">
<ele>52.047</ele>
<time>2017-05-23T06:03:16.999Z</time>
</trkpt>
<trkpt lat="-27.3567773" lon="152.9566008">
<ele>52.023</ele>
<time>2017-05-23T06:03:23.999Z</time>
</trkpt>
</trkseg>
</trk>
<extensions>
<fpdata xmlns="http://www.motionx.com/GPX-Extensions/1/1" sfv="10" origin="MotionXGPSFull 24.2 Build 5063R64">
<bin enc="base64">
RgIAAAACAAAAPUQbruNI1kEBAAAAchoIe/ZI1kEAAJweDsnSQOcMAACR3sIA4nyRZYMD
Q0AmCwZO+wJKQAAAAAAWAAAATXlzdGVyeSBSdW4gMjMgTWF5IDE3ABUAAAAyMyBNYXkg
MjAxNyAxMToyMiBhbQAAAAAAjxoIe/ZI1kGazFaG9kjWQWGV/QAfu3bVNr+EQCwAAAAA
AAAAwrfQWJ4eY0B02jfkN1s7wOJ8kWWDA0NAAAAAAAAAGEAAAAAAAAAIQAAAAAAA3KNA
AAAAAAAAAAAAAAAAzczMzMwcWEADglP4CZZIQAEAAAAqAjDHXpmIvwEAAAABAAAAUV4u
rmu0xT9h5F8N6aO9vwEAAAAAAAAAAAAAAAAAAAAAAAAAAAAAAAAAAAABAAAAGgAAAE15
c3RlcnlfUnVuXzIzX01heV8xNy5ncHgAAQAAALWKWIb2SNZBCgAAAAEAAAAWAAAATXlz
dGVyeSBSdW4gMjMgTWF5IDE3AAAAAAAAAAAAAAAAAAAAAAAAAAAAaPz/KvRI1kEAAAAA
AAAAAAAAAAAAAAAA/yVEvAIAAAAAAAAAAAAAAAEAAAAnAAAAMjQuMiBCdWlsZCA1MDYz
UjY0LCBNWEFFIDguMSBiLiA2MjZSNjQAAAAAAJVxAAABAAAAARMAAAC4jiNZ3NkjWQSY
GRyy40jWQZgZHLLjSNZBAAAAaVUDMEAAAAAAA0IkHLPjSNZBQiQcs+NI1kEAAAACgAM0
QAAAAAAESiXcuONI1kFKJdy440jWQQAAAAnCgUVAAAAAAAP2stCR80jWQfay0JHzSNZB
AICL3WrHz0AAAAAABOpAh5jzSNZB6kCHmPNI1kEAgDf519TPQAAAAAADQ6uUnPNI1kFD
q5Sc80jWQQAAHM7y3M9AAAAAAARzgQyl80jWQXOBDKXzSNZBAIBreuLtz0AAAAAAA5me
0K7zSNZBmZ7QrvNI1kEAAGRatQDQQAAAAAAE3IDJuvNI1kHcgMm680jWQQAAjjyuDNBA
AAAAAAOERtDG80jWQYRG0MbzSNZBAEBPArUY0EAAAAAABIY9i8/zSNZBhj2Lz/NI1kEA
QEj5byHQQAAAAAADeqUV0vNI1kF6pRXS80jWQQBAPWH6I9BAAAAAAATM8Ynm80jWQczx
iebzSNZBAICSrW440EAAAAAAAyYYFO/zSNZBJhgU7/NI1kEAQO3T+EDQQAAAAAAE5BNI
8/NI1kHkE0jz80jWQQDAlc8sRdBAAAAAAANbI1D580jWQVsjUPnzSNZBAAAe3zRL0EAA
AAAABAEwSin0SNZBATBKKfRI1kEAAMTrLnvQQAAAAAADkgIQK/RI1kGSAhAr9EjWQQBA
Wb70fNBAAAAAAAFWRBuu40jWQfJiKXf2SNZBAACcHg7J0kAAAAAAAAAAAA==
</bin>
</fpdata>
</extensions>
</gpx>